<?xml version="1.0" encoding="UTF-8" standalone="no" ?>
<gpx xmlns="http://www.topografix.com/GPX/1/1" xmlns:xsi="http://www.w3.org/2001/XMLSchema-instance" xsi:schemaLocation="http://www.topografix.com/GPX/1/1 http://www.topografix.com/GPX/1/1/gpx.xsd" version="1.1" creator="VisuGPX - https://www.visugpx.com">
  <metadata>
    <name>Sortie VTT Pornichet</name>
    <desc><![CDATA[ Sortie VTT sur Pornichet]]></desc>
  </metadata>
  <trk>
    <name><![CDATA[Sortie VTT Pornichet_1]]></name>
    <trkseg>
      <trkpt lat="47.27169" lon="-2.29183">
        <ele>36</ele>
        <time>2013-03-03T10:54:42Z</time>
      </trkpt>
      <trkpt lat="47.27142" lon="-2.292">
        <ele>28</ele>
        <time>2013-03-03T10:57:55Z</time>
      </trkpt>
      <trkpt lat="47.27141" lon="-2.29201">
        <ele>28</ele>
        <time>2013-03-03T10:57:56Z</time>
      </trkpt>
      <trkpt lat="47.2714" lon="-2.29203">
        <ele>28</ele>
        <time>2013-03-03T10:57:57Z</time>
      </trkpt>
      <trkpt lat="47.27139" lon="-2.29206">
        <ele>28</ele>
        <time>2013-03-03T10:57:59Z</time>
      </trkpt>
      <trkpt lat="47.27139" lon="-2.29208">
        <ele>28</ele>
        <time>2013-03-03T10:58:00Z</time>
      </trkpt>
      <trkpt lat="47.2714" lon="-2.29209">
        <ele>28</ele>
        <time>2013-03-03T10:58:02Z</time>
      </trkpt>
      <trkpt lat="47.27142" lon="-2.29207">
        <ele>27</ele>
        <time>2013-03-03T10:58:07Z</time>
      </trkpt>
      <trkpt lat="47.27144" lon="-2.29205">
        <ele>26</ele>
        <time>2013-03-03T10:58:08Z</time>
      </trkpt>
      <trkpt lat="47.27145" lon="-2.29203">
        <ele>26</ele>
        <time>2013-03-03T10:58:09Z</time>
      </trkpt>
      <trkpt lat="47.27148" lon="-2.29199">
        <ele>26</ele>
        <time>2013-03-03T10:58:12Z</time>
      </trkpt>
      <trkpt lat="47.2715" lon="-2.29195">
        <ele>26</ele>
        <time>2013-03-03T10:58:13Z</time>
      </trkpt>
      <trkpt lat="47.27152" lon="-2.29194">
        <ele>26</ele>
        <time>2013-03-03T10:58:16Z</time>
      </trkpt>
      <trkpt lat="47.27153" lon="-2.29192">
        <ele>26</ele>
        <time>2013-03-03T10:58:21Z</time>
      </trkpt>
      <trkpt lat="47.27155" lon="-2.29192">
        <ele>26</ele>
        <time>2013-03-03T10:58:27Z</time>
      </trkpt>
      <trkpt lat="47.27156" lon="-2.29194">
        <ele>26</ele>
        <time>2013-03-03T10:58:29Z</time>
      </trkpt>
      <trkpt lat="47.27154" lon="-2.29198">
        <ele>26</ele>
        <time>2013-03-03T10:58:33Z</time>
      </trkpt>
      <trkpt lat="47.27151" lon="-2.29198">
        <ele>26</ele>
        <time>2013-03-03T10:58:34Z</time>
      </trkpt>
      <trkpt lat="47.2715" lon="-2.29196">
        <ele>26</ele>
        <time>2013-03-03T10:58:35Z</time>
      </trkpt>
      <trkpt lat="47.27153" lon="-2.29194">
        <ele>26</ele>
        <time>2013-03-03T10:58:39Z</time>
      </trkpt>
      <trkpt lat="47.27153" lon="-2.29196">
        <ele>26</ele>
        <time>2013-03-03T10:58:42Z</time>
      </trkpt>
      <trkpt lat="47.27159" lon="-2.29191">
        <ele>26</ele>
        <time>2013-03-03T10:58:46Z</time>
      </trkpt>
      <trkpt lat="47.2716" lon="-2.2919">
        <ele>26</ele>
        <time>2013-03-03T10:58:47Z</time>
      </trkpt>
      <trkpt lat="47.27161" lon="-2.29189">
        <ele>26</ele>
        <time>2013-03-03T10:58:48Z</time>
      </trkpt>
      <trkpt lat="47.27163" lon="-2.2919">
        <ele>26</ele>
        <time>2013-03-03T10:58:59Z</time>
      </trkpt>
      <trkpt lat="47.27161" lon="-2.29189">
        <ele>27</ele>
        <time>2013-03-03T10:59:11Z</time>
      </trkpt>
      <trkpt lat="47.2716" lon="-2.29191">
        <ele>34</ele>
        <time>2013-03-03T10:59:24Z</time>
      </trkpt>
      <trkpt lat="47.27159" lon="-2.29192">
        <ele>35</ele>
        <time>2013-03-03T10:59:25Z</time>
      </trkpt>
      <trkpt lat="47.27158" lon="-2.29194">
        <ele>37</ele>
        <time>2013-03-03T10:59:31Z</time>
      </trkpt>
      <trkpt lat="47.2716" lon="-2.29192">
        <ele>40</ele>
        <time>2013-03-03T10:59:37Z</time>
      </trkpt>
      <trkpt lat="47.27161" lon="-2.29191">
        <ele>40</ele>
        <time>2013-03-03T10:59:39Z</time>
      </trkpt>
      <trkpt lat="47.27162" lon="-2.29193">
        <ele>40</ele>
        <time>2013-03-03T10:59:44Z</time>
      </trkpt>
      <trkpt lat="47.27164" lon="-2.29194">
        <ele>40</ele>
        <time>2013-03-03T10:59:45Z</time>
      </trkpt>
      <trkpt lat="47.27165" lon="-2.29195">
        <ele>40</ele>
        <time>2013-03-03T10:59:50Z</time>
      </trkpt>
      <trkpt lat="47.27163" lon="-2.29192">
        <ele>40</ele>
        <time>2013-03-03T11:00:04Z</time>
      </trkpt>
      <trkpt lat="47.27161" lon="-2.29191">
        <ele>39</ele>
        <time>2013-03-03T11:00:06Z</time>
      </trkpt>
      <trkpt lat="47.27159" lon="-2.29189">
        <ele>38</ele>
        <time>2013-03-03T11:00:10Z</time>
      </trkpt>
      <trkpt lat="47.27158" lon="-2.29188">
        <ele>35</ele>
        <time>2013-03-03T11:00:13Z</time>
      </trkpt>
      <trkpt lat="47.27157" lon="-2.29187">
        <ele>34</ele>
        <time>2013-03-03T11:00:17Z</time>
      </trkpt>
      <trkpt lat="47.27156" lon="-2.29186">
        <ele>31</ele>
        <time>2013-03-03T11:00:23Z</time>
      </trkpt>
      <trkpt lat="47.27155" lon="-2.29188">
        <ele>30</ele>
        <time>2013-03-03T11:00:30Z</time>
      </trkpt>
      <trkpt lat="47.27154" lon="-2.29187">
        <ele>28</ele>
        <time>2013-03-03T11:00:33Z</time>
      </trkpt>
      <trkpt lat="47.27151" lon="-2.29199">
        <ele>28</ele>
        <time>2013-03-03T11:00:37Z</time>
      </trkpt>
      <trkpt lat="47.27153" lon="-2.29204">
        <ele>27</ele>
        <time>2013-03-03T11:00:38Z</time>
      </trkpt>
      <trkpt lat="47.27155" lon="-2.29208">
        <ele>26</ele>
        <time>2013-03-03T11:00:39Z</time>
      </trkpt>
      <trkpt lat="47.27159" lon="-2.29219">
        <ele>25</ele>
        <time>2013-03-03T11:00:42Z</time>
      </trkpt>
      <trkpt lat="47.27163" lon="-2.2923">
        <ele>24</ele>
        <time>2013-03-03T11:00:43Z</time>
      </trkpt>
      <trkpt lat="47.27164" lon="-2.29237">
        <ele>23</ele>
        <time>2013-03-03T11:00:44Z</time>
      </trkpt>
      <trkpt lat="47.27165" lon="-2.29245">
        <ele>22</ele>
        <time>2013-03-03T11:00:45Z</time>
      </trkpt>
      <trkpt lat="47.27164" lon="-2.29252">
        <ele>21</ele>
        <time>2013-03-03T11:00:46Z</time>
      </trkpt>
      <trkpt lat="47.27159" lon="-2.29268">
        <ele>21</ele>
        <time>2013-03-03T11:00:50Z</time>
      </trkpt>
      <trkpt lat="47.2715" lon="-2.29291">
        <ele>20</ele>
        <time>2013-03-03T11:00:51Z</time>
      </trkpt>
      <trkpt lat="47.27147" lon="-2.29296">
        <ele>20</ele>
        <time>2013-03-03T11:00:52Z</time>
      </trkpt>
      <trkpt lat="47.27146" lon="-2.29307">
        <ele>20</ele>
        <time>2013-03-03T11:00:56Z</time>
      </trkpt>
      <trkpt lat="47.27148" lon="-2.29316">
        <ele>20</ele>
        <time>2013-03-03T11:00:57Z</time>
      </trkpt>
      <trkpt lat="47.27149" lon="-2.29321">
        <ele>20</ele>
        <time>2013-03-03T11:00:57Z</time>
      </trkpt>
      <trkpt lat="47.2715" lon="-2.29325">
        <ele>20</ele>
        <time>2013-03-03T11:00:58Z</time>
      </trkpt>
      <trkpt lat="47.27157" lon="-2.29337">
        <ele>20</ele>
        <time>2013-03-03T11:01:02Z</time>
      </trkpt>
      <trkpt lat="47.27171" lon="-2.29356">
        <ele>20</ele>
        <time>2013-03-03T11:01:03Z</time>
      </trkpt>
      <trkpt lat="47.27176" lon="-2.29365">
        <ele>19</ele>
        <time>2013-03-03T11:01:04Z</time>
      </trkpt>
      <trkpt lat="47.27182" lon="-2.29381">
        <ele>19</ele>
        <time>2013-03-03T11:01:08Z</time>
      </trkpt>
      <trkpt lat="47.27193" lon="-2.29407">
        <ele>19</ele>
        <time>2013-03-03T11:01:09Z</time>
      </trkpt>
      <trkpt lat="47.27195" lon="-2.29416">
        <ele>19</ele>
        <time>2013-03-03T11:01:10Z</time>
      </trkpt>
      <trkpt lat="47.27205" lon="-2.29445">
        <ele>19</ele>
        <time>2013-03-03T11:01:14Z</time>
      </trkpt>
      <trkpt lat="47.27207" lon="-2.29452">
        <ele>19</ele>
        <time>2013-03-03T11:01:15Z</time>
      </trkpt>
      <trkpt lat="47.27209" lon="-2.2946">
        <ele>19</ele>
        <time>2013-03-03T11:01:16Z</time>
      </trkpt>
      <trkpt lat="47.27212" lon="-2.29474">
        <ele>19</ele>
        <time>2013-03-03T11:01:19Z</time>
      </trkpt>
      <trkpt lat="47.2722" lon="-2.29493">
        <ele>19</ele>
        <time>2013-03-03T11:01:21Z</time>
      </trkpt>
      <trkpt lat="47.27222" lon="-2.29498">
        <ele>19</ele>
        <time>2013-03-03T11:01:22Z</time>
      </trkpt>
      <trkpt lat="47.27225" lon="-2.29507">
        <ele>19</ele>
        <time>2013-03-03T11:01:27Z</time>
      </trkpt>
      <trkpt lat="47.27232" lon="-2.29521">
        <ele>19</ele>
        <time>2013-03-03T11:01:27Z</time>
      </trkpt>
      <trkpt lat="47.27235" lon="-2.29527">
        <ele>19</ele>
        <time>2013-03-03T11:01:28Z</time>
      </trkpt>
      <trkpt lat="47.27237" lon="-2.29536">
        <ele>19</ele>
        <time>2013-03-03T11:01:32Z</time>
      </trkpt>
      <trkpt lat="47.2724" lon="-2.29551">
        <ele>19</ele>
        <time>2013-03-03T11:01:33Z</time>
      </trkpt>
      <trkpt lat="47.2724" lon="-2.29555">
        <ele>19</ele>
        <time>2013-03-03T11:01:34Z</time>
      </trkpt>
      <trkpt lat="47.2724" lon="-2.2956">
        <ele>19</ele>
        <time>2013-03-03T11:01:39Z</time>
      </trkpt>
      <trkpt lat="47.27236" lon="-2.2957">
        <ele>19</ele>
        <time>2013-03-03T11:01:39Z</time>
      </trkpt>
      <trkpt lat="47.27234" lon="-2.29573">
        <ele>19</ele>
        <time>2013-03-03T11:01:40Z</time>
      </trkpt>
      <trkpt lat="47.27232" lon="-2.29576">
        <ele>19</ele>
        <time>2013-03-03T11:01:41Z</time>
      </trkpt>
      <trkpt lat="47.2723" lon="-2.29579">
        <ele>19</ele>
        <time>2013-03-03T11:01:42Z</time>
      </trkpt>
      <trkpt lat="47.27227" lon="-2.29581">
        <ele>19</ele>
        <time>2013-03-03T11:01:43Z</time>
      </trkpt>
      <trkpt lat="47.27219" lon="-2.29587">
        <ele>19</ele>
        <time>2013-03-03T11:01:47Z</time>
      </trkpt>
      <trkpt lat="47.27206" lon="-2.29597">
        <ele>19</ele>
        <time>2013-03-03T11:01:48Z</time>
      </trkpt>
      <trkpt lat="47.27201" lon="-2.29601">
        <ele>20</ele>
        <time>2013-03-03T11:01:49Z</time>
      </trkpt>
      <trkpt lat="47.27192" lon="-2.29608">
        <ele>21</ele>
        <time>2013-03-03T11:01:53Z</time>
      </trkpt>
      <trkpt lat="47.27179" lon="-2.29618">
        <ele>22</ele>
        <time>2013-03-03T11:01:54Z</time>
      </trkpt>
      <trkpt lat="47.27175" lon="-2.29621">
        <ele>23</ele>
        <time>2013-03-03T11:01:55Z</time>
      </trkpt>
      <trkpt lat="47.27167" lon="-2.29626">
        <ele>24</ele>
        <time>2013-03-03T11:02:00Z</time>
      </trkpt>
      <trkpt lat="47.27156" lon="-2.29632">
        <ele>25</ele>
        <time>2013-03-03T11:02:00Z</time>
      </trkpt>
      <trkpt lat="47.27153" lon="-2.29634">
        <ele>26</ele>
        <time>2013-03-03T11:02:01Z</time>
      </trkpt>
      <trkpt lat="47.27148" lon="-2.29636">
        <ele>26</ele>
        <time>2013-03-03T11:02:06Z</time>
      </trkpt>
      <trkpt lat="47.27135" lon="-2.29636">
        <ele>27</ele>
        <time>2013-03-03T11:02:07Z</time>
      </trkpt>
      <trkpt lat="47.27132" lon="-2.29636">
        <ele>27</ele>
        <time>2013-03-03T11:02:08Z</time>
      </trkpt>
      <trkpt lat="47.27125" lon="-2.29637">
        <ele>28</ele>
        <time>2013-03-03T11:02:13Z</time>
      </trkpt>
      <trkpt lat="47.27118" lon="-2.29642">
        <ele>28</ele>
        <time>2013-03-03T11:02:13Z</time>
      </trkpt>
      <trkpt lat="47.27116" lon="-2.29645">
        <ele>29</ele>
        <time>2013-03-03T11:02:14Z</time>
      </trkpt>
      <trkpt lat="47.27117" lon="-2.29649">
        <ele>29</ele>
        <time>2013-03-03T11:02:15Z</time>
      </trkpt>
      <trkpt lat="47.27119" lon="-2.29653">
        <ele>29</ele>
        <time>2013-03-03T11:02:21Z</time>
      </trkpt>
      <trkpt lat="47.27134" lon="-2.29652">
        <ele>29</ele>
        <time>2013-03-03T11:02:21Z</time>
      </trkpt>
      <trkpt lat="47.27139" lon="-2.29651">
        <ele>29</ele>
        <time>2013-03-03T11:02:22Z</time>
      </trkpt>
      <trkpt lat="47.27145" lon="-2.29651">
        <ele>29</ele>
        <time>2013-03-03T11:02:23Z</time>
      </trkpt>
      <trkpt lat="47.2715" lon="-2.29651">
        <ele>29</ele>
        <time>2013-03-03T11:02:25Z</time>
      </trkpt>
      <trkpt lat="47.27159" lon="-2.29651">
        <ele>29</ele>
        <time>2013-03-03T11:02:29Z</time>
      </trkpt>
      <trkpt lat="47.27177" lon="-2.29651">
        <ele>28</ele>
        <time>2013-03-03T11:02:30Z</time>
      </trkpt>
      <trkpt lat="47.27181" lon="-2.29651">
        <ele>27</ele>
        <time>2013-03-03T11:02:31Z</time>
      </trkpt>
      <trkpt lat="47.27191" lon="-2.2965">
        <ele>26</ele>
        <time>2013-03-03T11:02:36Z</time>
      </trkpt>
      <trkpt lat="47.2721" lon="-2.29647">
        <ele>25</ele>
        <time>2013-03-03T11:02:37Z</time>
      </trkpt>
      <trkpt lat="47.27216" lon="-2.29647">
        <ele>24</ele>
        <time>2013-03-03T11:02:38Z</time>
      </trkpt>
      <trkpt lat="47.27235" lon="-2.29646">
        <ele>23</ele>
        <time>2013-03-03T11:02:42Z</time>
      </trkpt>
      <trkpt lat="47.2724" lon="-2.29646">
        <ele>23</ele>
        <time>2013-03-03T11:02:43Z</time>
      </trkpt>
      <trkpt lat="47.27245" lon="-2.29645">
        <ele>23</ele>
        <time>2013-03-03T11:02:44Z</time>
      </trkpt>
      <trkpt lat="47.27253" lon="-2.29645">
        <ele>23</ele>
        <time>2013-03-03T11:02:48Z</time>
      </trkpt>
      <trkpt lat="47.27261" lon="-2.29646">
        <ele>23</ele>
        <time>2013-03-03T11:02:48Z</time>
      </trkpt>
      <trkpt lat="47.27264" lon="-2.29648">
        <ele>23</ele>
        <time>2013-03-03T11:02:49Z</time>
      </trkpt>
      <trkpt lat="47.27266" lon="-2.2965">
        <ele>23</ele>
        <time>2013-03-03T11:02:50Z</time>
      </trkpt>
      <trkpt lat="47.27268" lon="-2.2966">
        <ele>23</ele>
        <time>2013-03-03T11:02:55Z</time>
      </trkpt>
      <trkpt lat="47.2727" lon="-2.29685">
        <ele>23</ele>
        <time>2013-03-03T11:02:56Z</time>
      </trkpt>
      <trkpt lat="47.27271" lon="-2.29692">
        <ele>23</ele>
        <time>2013-03-03T11:02:57Z</time>
      </trkpt>
      <trkpt lat="47.27274" lon="-2.29706">
        <ele>23</ele>
        <time>2013-03-03T11:03:01Z</time>
      </trkpt>
      <trkpt lat="47.27276" lon="-2.29721">
        <ele>23</ele>
        <time>2013-03-03T11:03:02Z</time>
      </trkpt>
      <trkpt lat="47.27277" lon="-2.29727">
        <ele>23</ele>
        <time>2013-03-03T11:03:03Z</time>
      </trkpt>
      <trkpt lat="47.27277" lon="-2.29737">
        <ele>23</ele>
        <time>2013-03-03T11:03:07Z</time>
      </trkpt>
      <trkpt lat="47.2728" lon="-2.29754">
        <ele>23</ele>
        <time>2013-03-03T11:03:08Z</time>
      </trkpt>
      <trkpt lat="47.27282" lon="-2.29761">
        <ele>23</ele>
        <time>2013-03-03T11:03:09Z</time>
      </trkpt>
      <trkpt lat="47.27286" lon="-2.29773">
        <ele>23</ele>
        <time>2013-03-03T11:03:13Z</time>
      </trkpt>
      <trkpt lat="47.27293" lon="-2.2979">
        <ele>23</ele>
        <time>2013-03-03T11:03:14Z</time>
      </trkpt>
      <trkpt lat="47.27295" lon="-2.29796">
        <ele>23</ele>
        <time>2013-03-03T11:03:15Z</time>
      </trkpt>
      <trkpt lat="47.27301" lon="-2.29805">
        <ele>23</ele>
        <time>2013-03-03T11:03:19Z</time>
      </trkpt>
      <trkpt lat="47.27311" lon="-2.29819">
        <ele>23</ele>
        <time>2013-03-03T11:03:20Z</time>
      </trkpt>
      <trkpt lat="47.27314" lon="-2.29824">
        <ele>23</ele>
        <time>2013-03-03T11:03:21Z</time>
      </trkpt>
      <trkpt lat="47.2732" lon="-2.29834">
        <ele>23</ele>
        <time>2013-03-03T11:03:25Z</time>
      </trkpt>
      <trkpt lat="47.27331" lon="-2.29849">
        <ele>23</ele>
        <time>2013-03-03T11:03:26Z</time>
      </trkpt>
      <trkpt lat="47.27334" lon="-2.29854">
        <ele>22</ele>
        <time>2013-03-03T11:03:27Z</time>
      </trkpt>
      <trkpt lat="47.2734" lon="-2.29863">
        <ele>21</ele>
        <time>2013-03-03T11:03:31Z</time>
      </trkpt>
      <trkpt lat="47.27346" lon="-2.29878">
        <ele>20</ele>
        <time>2013-03-03T11:03:32Z</time>
      </trkpt>
      <trkpt lat="47.27348" lon="-2.29882">
        <ele>19</ele>
        <time>2013-03-03T11:03:33Z</time>
      </trkpt>
      <trkpt lat="47.27352" lon="-2.2989">
        <ele>18</ele>
        <time>2013-03-03T11:03:37Z</time>
      </trkpt>
      <trkpt lat="47.27357" lon="-2.29905">
        <ele>17</ele>
        <time>2013-03-03T11:03:38Z</time>
      </trkpt>
      <trkpt lat="47.2736" lon="-2.2991">
        <ele>17</ele>
        <time>2013-03-03T11:03:39Z</time>
      </trkpt>
      <trkpt lat="47.27366" lon="-2.29921">
        <ele>16</ele>
        <time>2013-03-03T11:03:44Z</time>
      </trkpt>
      <trkpt lat="47.27374" lon="-2.29936">
        <ele>16</ele>
        <time>2013-03-03T11:03:44Z</time>
      </trkpt>
      <trkpt lat="47.27375" lon="-2.29941">
        <ele>16</ele>
        <time>2013-03-03T11:03:45Z</time>
      </trkpt>
      <trkpt lat="47.2738" lon="-2.29952">
        <ele>16</ele>
        <time>2013-03-03T11:03:50Z</time>
      </trkpt>
      <trkpt lat="47.27389" lon="-2.29973">
        <ele>16</ele>
        <time>2013-03-03T11:03:51Z</time>
      </trkpt>
      <trkpt lat="47.27391" lon="-2.2998">
        <ele>16</ele>
        <time>2013-03-03T11:03:52Z</time>
      </trkpt>
      <trkpt lat="47.27396" lon="-2.29993">
        <ele>16</ele>
        <time>2013-03-03T11:03:56Z</time>
      </trkpt>
      <trkpt lat="47.27401" lon="-2.30011">
        <ele>16</ele>
        <time>2013-03-03T11:03:57Z</time>
      </trkpt>
      <trkpt lat="47.27403" lon="-2.30017">
        <ele>16</ele>
        <time>2013-03-03T11:03:58Z</time>
      </trkpt>
      <trkpt lat="47.27414" lon="-2.30051">
        <ele>15</ele>
        <time>2013-03-03T11:04:03Z</time>
      </trkpt>
      <trkpt lat="47.27417" lon="-2.30059">
        <ele>15</ele>
        <time>2013-03-03T11:04:04Z</time>
      </trkpt>
      <trkpt lat="47.2742" lon="-2.30067">
        <ele>15</ele>
        <time>2013-03-03T11:04:05Z</time>
      </trkpt>
      <trkpt lat="47.27426" lon="-2.30083">
        <ele>15</ele>
        <time>2013-03-03T11:04:09Z</time>
      </trkpt>
      <trkpt lat="47.27433" lon="-2.30107">
        <ele>15</ele>
        <time>2013-03-03T11:04:10Z</time>
      </trkpt>
      <trkpt lat="47.27435" lon="-2.30116">
        <ele>15</ele>
        <time>2013-03-03T11:04:11Z</time>
      </trkpt>
      <trkpt lat="47.27441" lon="-2.30134">
        <ele>15</ele>
        <time>2013-03-03T11:04:16Z</time>
      </trkpt>
      <trkpt lat="47.27449" lon="-2.30174">
        <ele>15</ele>
        <time>2013-03-03T11:04:17Z</time>
      </trkpt>
      <trkpt lat="47.27451" lon="-2.30184">
        <ele>15</ele>
        <time>2013-03-03T11:04:18Z</time>
      </trkpt>
      <trkpt lat="47.27462" lon="-2.30228">
        <ele>15</ele>
        <time>2013-03-03T11:04:23Z</time>
      </trkpt>
      <trkpt lat="47.27464" lon="-2.30235">
        <ele>15</ele>
        <time>2013-03-03T11:04:24Z</time>
      </trkpt>
      <trkpt lat="47.27467" lon="-2.30245">
        <ele>15</ele>
        <time>2013-03-03T11:04:29Z</time>
      </trkpt>
      <trkpt lat="47.27468" lon="-2.30258">
        <ele>15</ele>
        <time>2013-03-03T11:04:30Z</time>
      </trkpt>
      <trkpt lat="47.27468" lon="-2.3026">
        <ele>15</ele>
        <time>2013-03-03T11:04:31Z</time>
      </trkpt>
      <trkpt lat="47.27465" lon="-2.30257">
        <ele>15</ele>
        <time>2013-03-03T11:04:37Z</time>
      </trkpt>
      <trkpt lat="47.27465" lon="-2.30255">
        <ele>15</ele>
        <time>2013-03-03T11:04:40Z</time>
      </trkpt>
      <trkpt lat="47.27466" lon="-2.30247">
        <ele>15</ele>
        <time>2013-03-03T11:04:46Z</time>
      </trkpt>
      <trkpt lat="47.27466" lon="-2.30244">
        <ele>15</ele>
        <time>2013-03-03T11:04:47Z</time>
      </trkpt>
      <trkpt lat="47.27466" lon="-2.30241">
        <ele>16</ele>
        <time>2013-03-03T11:04:48Z</time>
      </trkpt>
      <trkpt lat="47.27465" lon="-2.30232">
        <ele>17</ele>
        <time>2013-03-03T11:04:52Z</time>
      </trkpt>
      <trkpt lat="47.27463" lon="-2.30221">
        <ele>18</ele>
        <time>2013-03-03T11:04:53Z</time>
      </trkpt>
      <trkpt lat="47.2746" lon="-2.3022">
        <ele>20</ele>
        <time>2013-03-03T11:04:55Z</time>
      </trkpt>
      <trkpt lat="47.27446" lon="-2.30222">
        <ele>21</ele>
        <time>2013-03-03T11:05:00Z</time>
      </trkpt>
      <trkpt lat="47.27443" lon="-2.30224">
        <ele>23</ele>
        <time>2013-03-03T11:05:01Z</time>
      </trkpt>
      <trkpt lat="47.27439" lon="-2.30225">
        <ele>24</ele>
        <time>2013-03-03T11:05:02Z</time>
      </trkpt>
      <trkpt lat="47.27425" lon="-2.30229">
        <ele>25</ele>
        <time>2013-03-03T11:05:06Z</time>
      </trkpt>
      <trkpt lat="47.2742" lon="-2.30229">
        <ele>26</ele>
        <time>2013-03-03T11:05:07Z</time>
      </trkpt>
      <trkpt lat="47.27411" lon="-2.30231">
        <ele>27</ele>
        <time>2013-03-03T11:05:11Z</time>
      </trkpt>
      <trkpt lat="47.27396" lon="-2.30236">
        <ele>28</ele>
        <time>2013-03-03T11:05:12Z</time>
      </trkpt>
      <trkpt lat="47.27392" lon="-2.30238">
        <ele>29</ele>
        <time>2013-03-03T11:05:13Z</time>
      </trkpt>
      <trkpt lat="47.27384" lon="-2.30242">
        <ele>30</ele>
        <time>2013-03-03T11:05:17Z</time>
      </trkpt>
      <trkpt lat="47.27371" lon="-2.30246">
        <ele>31</ele>
        <time>2013-03-03T11:05:18Z</time>
      </trkpt>
      <trkpt lat="47.27366" lon="-2.30247">
        <ele>32</ele>
        <time>2013-03-03T11:05:19Z</time>
      </trkpt>
      <trkpt lat="47.27361" lon="-2.30247">
        <ele>32</ele>
        <time>2013-03-03T11:05:20Z</time>
      </trkpt>
      <trkpt lat="47.27339" lon="-2.3025">
        <ele>32</ele>
        <time>2013-03-03T11:05:24Z</time>
      </trkpt>
      <trkpt lat="47.27334" lon="-2.30251">
        <ele>32</ele>
        <time>2013-03-03T11:05:25Z</time>
      </trkpt>
      <trkpt lat="47.27324" lon="-2.30254">
        <ele>32</ele>
        <time>2013-03-03T11:05:30Z</time>
      </trkpt>
      <trkpt lat="47.2731" lon="-2.30256">
        <ele>32</ele>
        <time>2013-03-03T11:05:30Z</time>
      </trkpt>
      <trkpt lat="47.27304" lon="-2.30255">
        <ele>32</ele>
        <time>2013-03-03T11:05:31Z</time>
      </trkpt>
      <trkpt lat="47.2729" lon="-2.30256">
        <ele>31</ele>
        <time>2013-03-03T11:05:35Z</time>
      </trkpt>
      <trkpt lat="47.27267" lon="-2.30259">
        <ele>30</ele>
        <time>2013-03-03T11:05:36Z</time>
      </trkpt>
      <trkpt lat="47.2726" lon="-2.3026">
        <ele>30</ele>
        <time>2013-03-03T11:05:37Z</time>
      </trkpt>
      <trkpt lat="47.27248" lon="-2.3026">
        <ele>29</ele>
        <time>2013-03-03T11:05:41Z</time>
      </trkpt>
      <trkpt lat="47.27235" lon="-2.30256">
        <ele>28</ele>
        <time>2013-03-03T11:05:42Z</time>
      </trkpt>
      <trkpt lat="47.2723" lon="-2.30255">
        <ele>27</ele>
        <time>2013-03-03T11:05:43Z</time>
      </trkpt>
      <trkpt lat="47.27227" lon="-2.30254">
        <ele>27</ele>
        <time>2013-03-03T11:05:44Z</time>
      </trkpt>
      <trkpt lat="47.27221" lon="-2.30253">
        <ele>26</ele>
        <time>2013-03-03T11:05:48Z</time>
      </trkpt>
      <trkpt lat="47.27213" lon="-2.3025">
        <ele>25</ele>
        <time>2013-03-03T11:05:49Z</time>
      </trkpt>
      <trkpt lat="47.2721" lon="-2.30249">
        <ele>24</ele>
        <time>2013-03-03T11:05:50Z</time>
      </trkpt>
      <trkpt lat="47.27203" lon="-2.30252">
        <ele>23</ele>
        <time>2013-03-03T11:05:54Z</time>
      </trkpt>
      <trkpt lat="47.27191" lon="-2.30258">
        <ele>22</ele>
        <time>2013-03-03T11:05:55Z</time>
      </trkpt>
      <trkpt lat="47.27188" lon="-2.3026">
        <ele>21</ele>
        <time>2013-03-03T11:05:56Z</time>
      </trkpt>
      <trkpt lat="47.27184" lon="-2.30257">
        <ele>21</ele>
        <time>2013-03-03T11:06:00Z</time>
      </trkpt>
      <trkpt lat="47.27176" lon="-2.30251">
        <ele>21</ele>
        <time>2013-03-03T11:06:01Z</time>
      </trkpt>
      <trkpt lat="47.27172" lon="-2.30249">
        <ele>21</ele>
        <time>2013-03-03T11:06:02Z</time>
      </trkpt>
      <trkpt lat="47.27169" lon="-2.30247">
        <ele>21</ele>
        <time>2013-03-03T11:06:04Z</time>
      </trkpt>
      <trkpt lat="47.27164" lon="-2.30238">
        <ele>21</ele>
        <time>2013-03-03T11:06:08Z</time>
      </trkpt>
      <trkpt lat="47.27146" lon="-2.30231">
        <ele>21</ele>
        <time>2013-03-03T11:06:09Z</time>
      </trkpt>
      <trkpt lat="47.27142" lon="-2.30231">
        <ele>21</ele>
        <time>2013-03-03T11:06:10Z</time>
      </trkpt>
      <trkpt lat="47.27141" lon="-2.30231">
        <ele>21</ele>
        <time>2013-03-03T11:06:11Z</time>
      </trkpt>
      <trkpt lat="47.27137" lon="-2.30232">
        <ele>21</ele>
        <time>2013-03-03T11:06:15Z</time>
      </trkpt>
      <trkpt lat="47.27134" lon="-2.30233">
        <ele>21</ele>
        <time>2013-03-03T11:06:16Z</time>
      </trkpt>
      <trkpt lat="47.2713" lon="-2.30238">
        <ele>21</ele>
        <time>2013-03-03T11:06:24Z</time>
      </trkpt>
      <trkpt lat="47.27129" lon="-2.3024">
        <ele>20</ele>
        <time>2013-03-03T11:06:26Z</time>
      </trkpt>
      <trkpt lat="47.27127" lon="-2.30242">
        <ele>20</ele>
        <time>2013-03-03T11:06:31Z</time>
      </trkpt>
      <trkpt lat="47.27128" lon="-2.30243">
        <ele>16</ele>
        <time>2013-03-03T11:06:47Z</time>
      </trkpt>
      <trkpt lat="47.27127" lon="-2.30245">
        <ele>15</ele>
        <time>2013-03-03T11:06:49Z</time>
      </trkpt>
      <trkpt lat="47.27127" lon="-2.30241">
        <ele>14</ele>
        <time>2013-03-03T11:07:04Z</time>
      </trkpt>
      <trkpt lat="47.27127" lon="-2.3024">
        <ele>14</ele>
        <time>2013-03-03T11:07:05Z</time>
      </trkpt>
      <trkpt lat="47.27129" lon="-2.30245">
        <ele>14</ele>
        <time>2013-03-03T11:07:13Z</time>
      </trkpt>
      <trkpt lat="47.27118" lon="-2.30249">
        <ele>14</ele>
        <time>2013-03-03T11:07:20Z</time>
      </trkpt>
      <trkpt lat="47.27114" lon="-2.30251">
        <ele>14</ele>
        <time>2013-03-03T11:07:21Z</time>
      </trkpt>
      <trkpt lat="47.2711" lon="-2.30253">
        <ele>14</ele>
        <time>2013-03-03T11:07:22Z</time>
      </trkpt>
      <trkpt lat="47.27102" lon="-2.30255">
        <ele>14</ele>
        <time>2013-03-03T11:07:26Z</time>
      </trkpt>
      <trkpt lat="47.27089" lon="-2.30262">
        <ele>14</ele>
        <time>2013-03-03T11:07:27Z</time>
      </trkpt>
      <trkpt lat="47.27086" lon="-2.30265">
        <ele>14</ele>
        <time>2013-03-03T11:07:28Z</time>
      </trkpt>
      <trkpt lat="47.27082" lon="-2.3027">
        <ele>15</ele>
        <time>2013-03-03T11:07:29Z</time>
      </trkpt>
      <trkpt lat="47.27075" lon="-2.30278">
        <ele>16</ele>
        <time>2013-03-03T11:07:34Z</time>
      </trkpt>
      <trkpt lat="47.27069" lon="-2.30293">
        <ele>17</ele>
        <time>2013-03-03T11:07:34Z</time>
      </trkpt>
      <trkpt lat="47.27068" lon="-2.30298">
        <ele>18</ele>
        <time>2013-03-03T11:07:35Z</time>
      </trkpt>
      <trkpt lat="47.27066" lon="-2.30304">
        <ele>19</ele>
        <time>2013-03-03T11:07:36Z</time>
      </trkpt>
      <trkpt lat="47.27063" lon="-2.30316">
        <ele>20</ele>
        <time>2013-03-03T11:07:40Z</time>
      </trkpt>
      <trkpt lat="47.27061" lon="-2.30335">
        <ele>21</ele>
        <time>2013-03-03T11:07:41Z</time>
      </trkpt>
      <trkpt lat="47.2706" lon="-2.30342">
        <ele>22</ele>
        <time>2013-03-03T11:07:42Z</time>
      </trkpt>
      <trkpt lat="47.27057" lon="-2.30356">
        <ele>23</ele>
        <time>2013-03-03T11:07:47Z</time>
      </trkpt>
      <trkpt lat="47.27053" lon="-2.30387">
        <ele>24</ele>
        <time>2013-03-03T11:07:48Z</time>
      </trkpt>
      <trkpt lat="47.27052" lon="-2.30398">
        <ele>25</ele>
        <time>2013-03-03T11:07:49Z</time>
      </trkpt>
      <trkpt lat="47.27049" lon="-2.30415">
        <ele>26</ele>
        <time>2013-03-03T11:07:53Z</time>
      </trkpt>
      <trkpt lat="47.27045" lon="-2.30438">
        <ele>27</ele>
        <time>2013-03-03T11:07:54Z</time>
      </trkpt>
      <trkpt lat="47.27044" lon="-2.30446">
        <ele>28</ele>
        <time>2013-03-03T11:07:55Z</time>
      </trkpt>
      <trkpt lat="47.27041" lon="-2.30463">
        <ele>28</ele>
        <time>2013-03-03T11:08:00Z</time>
      </trkpt>
      <trkpt lat="47.27033" lon="-2.30495">
        <ele>28</ele>
        <time>2013-03-03T11:08:01Z</time>
      </trkpt>
      <trkpt lat="47.2703" lon="-2.30503">
        <ele>28</ele>
        <time>2013-03-03T11:08:02Z</time>
      </trkpt>
      <trkpt lat="47.27025" lon="-2.30517">
        <ele>28</ele>
        <time>2013-03-03T11:08:08Z</time>
      </trkpt>
      <trkpt lat="47.27017" lon="-2.30545">
        <ele>28</ele>
        <time>2013-03-03T11:08:08Z</time>
      </trkpt>
      <trkpt lat="47.27015" lon="-2.30552">
        <ele>27</ele>
        <time>2013-03-03T11:08:09Z</time>
      </trkpt>
      <trkpt lat="47.27012" lon="-2.30563">
        <ele>26</ele>
        <time>2013-03-03T11:08:14Z</time>
      </trkpt>
      <trkpt lat="47.27006" lon="-2.30578">
        <ele>26</ele>
        <time>2013-03-03T11:08:14Z</time>
      </trkpt>
      <trkpt lat="47.27005" lon="-2.30582">
        <ele>26</ele>
        <time>2013-03-03T11:08:15Z</time>
      </trkpt>
      <trkpt lat="47.27001" lon="-2.30592">
        <ele>26</ele>
        <time>2013-03-03T11:08:20Z</time>
      </trkpt>
      <trkpt lat="47.26987" lon="-2.30605">
        <ele>26</ele>
        <time>2013-03-03T11:08:21Z</time>
      </trkpt>
      <trkpt lat="47.26983" lon="-2.30607">
        <ele>26</ele>
        <time>2013-03-03T11:08:22Z</time>
      </trkpt>
      <trkpt lat="47.2698" lon="-2.30609">
        <ele>26</ele>
        <time>2013-03-03T11:08:23Z</time>
      </trkpt>
      <trkpt lat="47.2696" lon="-2.30618">
        <ele>26</ele>
        <time>2013-03-03T11:08:28Z</time>
      </trkpt>
      <trkpt lat="47.26956" lon="-2.3062">
        <ele>26</ele>
        <time>2013-03-03T11:08:29Z</time>
      </trkpt>
      <trkpt lat="47.26947" lon="-2.30622">
        <ele>26</ele>
        <time>2013-03-03T11:08:34Z</time>
      </trkpt>
      <trkpt lat="47.26931" lon="-2.30626">
        <ele>26</ele>
        <time>2013-03-03T11:08:35Z</time>
      </trkpt>
      <trkpt lat="47.26928" lon="-2.30627">
        <ele>26</ele>
        <time>2013-03-03T11:08:36Z</time>
      </trkpt>
      <trkpt lat="47.26921" lon="-2.30628">
        <ele>26</ele>
        <time>2013-03-03T11:08:41Z</time>
      </trkpt>
      <trkpt lat="47.26913" lon="-2.30634">
        <ele>26</ele>
        <time>2013-03-03T11:08:42Z</time>
      </trkpt>
      <trkpt lat="47.26911" lon="-2.30636">
        <ele>26</ele>
        <time>2013-03-03T11:08:43Z</time>
      </trkpt>
      <trkpt lat="47.26909" lon="-2.30638">
        <ele>26</ele>
        <time>2013-03-03T11:08:44Z</time>
      </trkpt>
      <trkpt lat="47.26905" lon="-2.30643">
        <ele>26</ele>
        <time>2013-03-03T11:08:48Z</time>
      </trkpt>
      <trkpt lat="47.26896" lon="-2.30652">
        <ele>27</ele>
        <time>2013-03-03T11:08:49Z</time>
      </trkpt>
      <trkpt lat="47.26893" lon="-2.30655">
        <ele>27</ele>
        <time>2013-03-03T11:08:50Z</time>
      </trkpt>
      <trkpt lat="47.26884" lon="-2.30666">
        <ele>27</ele>
        <time>2013-03-03T11:08:54Z</time>
      </trkpt>
      <trkpt lat="47.26884" lon="-2.30669">
        <ele>27</ele>
        <time>2013-03-03T11:08:55Z</time>
      </trkpt>
      <trkpt lat="47.26883" lon="-2.30672">
        <ele>27</ele>
        <time>2013-03-03T11:08:56Z</time>
      </trkpt>
      <trkpt lat="47.26882" lon="-2.30669">
        <ele>27</ele>
        <time>2013-03-03T11:09:02Z</time>
      </trkpt>
      <trkpt lat="47.26889" lon="-2.30663">
        <ele>27</ele>
        <time>2013-03-03T11:09:02Z</time>
      </trkpt>
      <trkpt lat="47.26893" lon="-2.30663">
        <ele>27</ele>
        <time>2013-03-03T11:09:03Z</time>
      </trkpt>
      <trkpt lat="47.26897" lon="-2.30665">
        <ele>27</ele>
        <time>2013-03-03T11:09:04Z</time>
      </trkpt>
      <trkpt lat="47.26902" lon="-2.30673">
        <ele>27</ele>
        <time>2013-03-03T11:09:08Z</time>
      </trkpt>
      <trkpt lat="47.26914" lon="-2.30691">
        <ele>27</ele>
        <time>2013-03-03T11:09:09Z</time>
      </trkpt>
      <trkpt lat="47.26918" lon="-2.30697">
        <ele>27</ele>
        <time>2013-03-03T11:09:10Z</time>
      </trkpt>
      <trkpt lat="47.26927" lon="-2.30709">
        <ele>26</ele>
        <time>2013-03-03T11:09:14Z</time>
      </trkpt>
      <trkpt lat="47.26939" lon="-2.30727">
        <ele>25</ele>
        <time>2013-03-03T11:09:15Z</time>
      </trkpt>
      <trkpt lat="47.26944" lon="-2.30733">
        <ele>24</ele>
        <time>2013-03-03T11:09:16Z</time>
      </trkpt>
      <trkpt lat="47.26961" lon="-2.30757">
        <ele>24</ele>
        <time>2013-03-03T11:09:20Z</time>
      </trkpt>
      <trkpt lat="47.26966" lon="-2.30763">
        <ele>23</ele>
        <time>2013-03-03T11:09:21Z</time>
      </trkpt>
      <trkpt lat="47.26974" lon="-2.30777">
        <ele>22</ele>
        <time>2013-03-03T11:09:25Z</time>
      </trkpt>
      <trkpt lat="47.26987" lon="-2.30796">
        <ele>21</ele>
        <time>2013-03-03T11:09:26Z</time>
      </trkpt>
      <trkpt lat="47.26992" lon="-2.30802">
        <ele>20</ele>
        <time>2013-03-03T11:09:27Z</time>
      </trkpt>
      <trkpt lat="47.27001" lon="-2.30815">
        <ele>19</ele>
        <time>2013-03-03T11:09:31Z</time>
      </trkpt>
      <trkpt lat="47.27013" lon="-2.3083">
        <ele>18</ele>
        <time>2013-03-03T11:09:32Z</time>
      </trkpt>
      <trkpt lat="47.27016" lon="-2.30834">
        <ele>16</ele>
        <time>2013-03-03T11:09:33Z</time>
      </trkpt>
      <trkpt lat="47.27022" lon="-2.30842">
        <ele>15</ele>
        <time>2013-03-03T11:09:37Z</time>
      </trkpt>
      <trkpt lat="47.27028" lon="-2.30854">
        <ele>14</ele>
        <time>2013-03-03T11:09:38Z</time>
      </trkpt>
      <trkpt lat="47.2703" lon="-2.30858">
        <ele>13</ele>
        <time>2013-03-03T11:09:39Z</time>
      </trkpt>
      <trkpt lat="47.27039" lon="-2.30874">
        <ele>12</ele>
        <time>2013-03-03T11:09:43Z</time>
      </trkpt>
      <trkpt lat="47.27042" lon="-2.30879">
        <ele>11</ele>
        <time>2013-03-03T11:09:44Z</time>
      </trkpt>
      <trkpt lat="47.27044" lon="-2.30883">
        <ele>10</ele>
        <time>2013-03-03T11:09:45Z</time>
      </trkpt>
      <trkpt lat="47.27045" lon="-2.30891">
        <ele>10</ele>
        <time>2013-03-03T11:09:49Z</time>
      </trkpt>
      <trkpt lat="47.27045" lon="-2.30897">
        <ele>10</ele>
        <time>2013-03-03T11:09:50Z</time>
      </trkpt>
      <trkpt lat="47.27044" lon="-2.30899">
        <ele>10</ele>
        <time>2013-03-03T11:09:52Z</time>
      </trkpt>
      <trkpt lat="47.27043" lon="-2.30901">
        <ele>10</ele>
        <time>2013-03-03T11:09:56Z</time>
      </trkpt>
      <trkpt lat="47.27042" lon="-2.30904">
        <ele>10</ele>
        <time>2013-03-03T11:09:58Z</time>
      </trkpt>
      <trkpt lat="47.2704" lon="-2.30904">
        <ele>12</ele>
        <time>2013-03-03T11:10:00Z</time>
      </trkpt>
      <trkpt lat="47.27043" lon="-2.30908">
        <ele>14</ele>
        <time>2013-03-03T11:10:06Z</time>
      </trkpt>
      <trkpt lat="47.27041" lon="-2.3091">
        <ele>18</ele>
        <time>2013-03-03T11:10:14Z</time>
      </trkpt>
      <trkpt lat="47.27039" lon="-2.30911">
        <ele>20</ele>
        <time>2013-03-03T11:10:16Z</time>
      </trkpt>
      <trkpt lat="47.27042" lon="-2.30916">
        <ele>20</ele>
        <time>2013-03-03T11:10:22Z</time>
      </trkpt>
      <trkpt lat="47.27046" lon="-2.3093">
        <ele>20</ele>
        <time>2013-03-03T11:10:23Z</time>
      </trkpt>
      <trkpt lat="47.27047" lon="-2.30935">
        <ele>20</ele>
        <time>2013-03-03T11:10:24Z</time>
      </trkpt>
      <trkpt lat="47.27049" lon="-2.30939">
        <ele>20</ele>
        <time>2013-03-03T11:10:25Z</time>
      </trkpt>
      <trkpt lat="47.27053" lon="-2.30951">
        <ele>20</ele>
        <time>2013-03-03T11:10:30Z</time>
      </trkpt>
      <trkpt lat="47.27057" lon="-2.30968">
        <ele>20</ele>
        <time>2013-03-03T11:10:30Z</time>
      </trkpt>
      <trkpt lat="47.27058" lon="-2.30974">
        <ele>20</ele>
        <time>2013-03-03T11:10:31Z</time>
      </trkpt>
      <trkpt lat="47.27059" lon="-2.30985">
        <ele>20</ele>
        <time>2013-03-03T11:10:36Z</time>
      </trkpt>
      <trkpt lat="47.27056" lon="-2.31002">
        <ele>19</ele>
        <time>2013-03-03T11:10:36Z</time>
      </trkpt>
      <trkpt lat="47.27053" lon="-2.31006">
        <ele>18</ele>
        <time>2013-03-03T11:10:37Z</time>
      </trkpt>
      <trkpt lat="47.27051" lon="-2.31008">
        <ele>17</ele>
        <time>2013-03-03T11:10:38Z</time>
      </trkpt>
      <trkpt lat="47.27048" lon="-2.3101">
        <ele>16</ele>
        <time>2013-03-03T11:10:39Z</time>
      </trkpt>
      <trkpt lat="47.27045" lon="-2.31013">
        <ele>15</ele>
        <time>2013-03-03T11:10:40Z</time>
      </trkpt>
      <trkpt lat="47.27038" lon="-2.31021">
        <ele>15</ele>
        <time>2013-03-03T11:10:44Z</time>
      </trkpt>
      <trkpt lat="47.27026" lon="-2.31031">
        <ele>14</ele>
        <time>2013-03-03T11:10:45Z</time>
      </trkpt>
      <trkpt lat="47.27023" lon="-2.31033">
        <ele>14</ele>
        <time>2013-03-03T11:10:46Z</time>
      </trkpt>
      <trkpt lat="47.27016" lon="-2.3104">
        <ele>14</ele>
        <time>2013-03-03T11:10:50Z</time>
      </trkpt>
      <trkpt lat="47.27005" lon="-2.3105">
        <ele>14</ele>
        <time>2013-03-03T11:10:51Z</time>
      </trkpt>
      <trkpt lat="47.27001" lon="-2.31053">
        <ele>14</ele>
        <time>2013-03-03T11:10:52Z</time>
      </trkpt>
      <trkpt lat="47.26995" lon="-2.3106">
        <ele>14</ele>
        <time>2013-03-03T11:10:56Z</time>
      </trkpt>
      <trkpt lat="47.26991" lon="-2.31068">
        <ele>14</ele>
        <time>2013-03-03T11:10:57Z</time>
      </trkpt>
      <trkpt lat="47.26991" lon="-2.3107">
        <ele>15</ele>
        <time>2013-03-03T11:10:58Z</time>
      </trkpt>
      <trkpt lat="47.26992" lon="-2.31073">
        <ele>16</ele>
        <time>2013-03-03T11:10:59Z</time>
      </trkpt>
      <trkpt lat="47.26991" lon="-2.31077">
        <ele>16</ele>
        <time>2013-03-03T11:11:00Z</time>
      </trkpt>
      <trkpt lat="47.2699" lon="-2.31085">
        <ele>16</ele>
        <time>2013-03-03T11:11:06Z</time>
      </trkpt>
      <trkpt lat="47.26989" lon="-2.31101">
        <ele>16</ele>
        <time>2013-03-03T11:11:06Z</time>
      </trkpt>
      <trkpt lat="47.26989" lon="-2.31105">
        <ele>16</ele>
        <time>2013-03-03T11:11:07Z</time>
      </trkpt>
      <trkpt lat="47.26988" lon="-2.31113">
        <ele>17</ele>
        <time>2013-03-03T11:11:11Z</time>
      </trkpt>
      <trkpt lat="47.26986" lon="-2.31122">
        <ele>18</ele>
        <time>2013-03-03T11:11:12Z</time>
      </trkpt>
      <trkpt lat="47.26986" lon="-2.31126">
        <ele>18</ele>
        <time>2013-03-03T11:11:13Z</time>
      </trkpt>
      <trkpt lat="47.26986" lon="-2.31133">
        <ele>18</ele>
        <time>2013-03-03T11:11:17Z</time>
      </trkpt>
      <trkpt lat="47.26985" lon="-2.31145">
        <ele>19</ele>
        <time>2013-03-03T11:11:18Z</time>
      </trkpt>
      <trkpt lat="47.26985" lon="-2.31148">
        <ele>19</ele>
        <time>2013-03-03T11:11:19Z</time>
      </trkpt>
      <trkpt lat="47.26984" lon="-2.31157">
        <ele>19</ele>
        <time>2013-03-03T11:11:23Z</time>
      </trkpt>
      <trkpt lat="47.2698" lon="-2.3117">
        <ele>19</ele>
        <time>2013-03-03T11:11:24Z</time>
      </trkpt>
      <trkpt lat="47.26979" lon="-2.31174">
        <ele>19</ele>
        <time>2013-03-03T11:11:25Z</time>
      </trkpt>
      <trkpt lat="47.26978" lon="-2.31178">
        <ele>19</ele>
        <time>2013-03-03T11:11:26Z</time>
      </trkpt>
      <trkpt lat="47.26978" lon="-2.31185">
        <ele>19</ele>
        <time>2013-03-03T11:11:30Z</time>
      </trkpt>
      <trkpt lat="47.26976" lon="-2.31196">
        <ele>19</ele>
        <time>2013-03-03T11:11:31Z</time>
      </trkpt>
      <trkpt lat="47.26976" lon="-2.31199">
        <ele>20</ele>
        <time>2013-03-03T11:11:32Z</time>
      </trkpt>
      <trkpt lat="47.26973" lon="-2.31207">
        <ele>21</ele>
        <time>2013-03-03T11:11:37Z</time>
      </trkpt>
      <trkpt lat="47.26971" lon="-2.31221">
        <ele>21</ele>
        <time>2013-03-03T11:11:37Z</time>
      </trkpt>
      <trkpt lat="47.2697" lon="-2.31226">
        <ele>22</ele>
        <time>2013-03-03T11:11:38Z</time>
      </trkpt>
      <trkpt lat="47.26967" lon="-2.31252">
        <ele>22</ele>
        <time>2013-03-03T11:11:43Z</time>
      </trkpt>
      <trkpt lat="47.26968" lon="-2.31259">
        <ele>22</ele>
        <time>2013-03-03T11:11:44Z</time>
      </trkpt>
      <trkpt lat="47.26968" lon="-2.31268">
        <ele>22</ele>
        <time>2013-03-03T11:11:46Z</time>
      </trkpt>
      <trkpt lat="47.26968" lon="-2.31275">
        <ele>22</ele>
        <time>2013-03-03T11:11:50Z</time>
      </trkpt>
      <trkpt lat="47.26967" lon="-2.31281">
        <ele>22</ele>
        <time>2013-03-03T11:11:51Z</time>
      </trkpt>
      <trkpt lat="47.26967" lon="-2.31283">
        <ele>22</ele>
        <time>2013-03-03T11:11:52Z</time>
      </trkpt>
      <trkpt lat="47.26966" lon="-2.31292">
        <ele>22</ele>
        <time>2013-03-03T11:11:57Z</time>
      </trkpt>
      <trkpt lat="47.26966" lon="-2.31294">
        <ele>22</ele>
        <time>2013-03-03T11:11:58Z</time>
      </trkpt>
      <trkpt lat="47.26966" lon="-2.31297">
        <ele>22</ele>
        <time>2013-03-03T11:12:03Z</time>
      </trkpt>
      <trkpt lat="47.2697" lon="-2.31304">
        <ele>22</ele>
        <time>2013-03-03T11:12:04Z</time>
      </trkpt>
      <trkpt lat="47.26971" lon="-2.31307">
        <ele>22</ele>
        <time>2013-03-03T11:12:07Z</time>
      </trkpt>
      <trkpt lat="47.26971" lon="-2.31308">
        <ele>22</ele>
        <time>2013-03-03T11:12:07Z</time>
      </trkpt>
      <trkpt lat="47.26972" lon="-2.31313">
        <ele>22</ele>
        <time>2013-03-03T11:12:11Z</time>
      </trkpt>
      <trkpt lat="47.26973" lon="-2.31323">
        <ele>22</ele>
        <time>2013-03-03T11:12:12Z</time>
      </trkpt>
      <trkpt lat="47.26974" lon="-2.31327">
        <ele>22</ele>
        <time>2013-03-03T11:12:13Z</time>
      </trkpt>
      <trkpt lat="47.26975" lon="-2.31335">
        <ele>22</ele>
        <time>2013-03-03T11:12:18Z</time>
      </trkpt>
      <trkpt lat="47.26978" lon="-2.31354">
        <ele>22</ele>
        <time>2013-03-03T11:12:18Z</time>
      </trkpt>
      <trkpt lat="47.26979" lon="-2.31363">
        <ele>21</ele>
        <time>2013-03-03T11:12:19Z</time>
      </trkpt>
      <trkpt lat="47.2698" lon="-2.31382">
        <ele>21</ele>
        <time>2013-03-03T11:12:24Z</time>
      </trkpt>
      <trkpt lat="47.26982" lon="-2.31424">
        <ele>20</ele>
        <time>2013-03-03T11:12:25Z</time>
      </trkpt>
      <trkpt lat="47.26983" lon="-2.31435">
        <ele>19</ele>
        <time>2013-03-03T11:12:26Z</time>
      </trkpt>
      <trkpt lat="47.26985" lon="-2.31455">
        <ele>18</ele>
        <time>2013-03-03T11:12:30Z</time>
      </trkpt>
      <trkpt lat="47.26988" lon="-2.31482">
        <ele>17</ele>
        <time>2013-03-03T11:12:31Z</time>
      </trkpt>
      <trkpt lat="47.26989" lon="-2.31489">
        <ele>16</ele>
        <time>2013-03-03T11:12:32Z</time>
      </trkpt>
      <trkpt lat="47.27" lon="-2.31537">
        <ele>15</ele>
        <time>2013-03-03T11:12:37Z</time>
      </trkpt>
      <trkpt lat="47.27002" lon="-2.31547">
        <ele>14</ele>
        <time>2013-03-03T11:12:38Z</time>
      </trkpt>
      <trkpt lat="47.27008" lon="-2.31564">
        <ele>13</ele>
        <time>2013-03-03T11:12:43Z</time>
      </trkpt>
      <trkpt lat="47.27019" lon="-2.31592">
        <ele>12</ele>
        <time>2013-03-03T11:12:44Z</time>
      </trkpt>
      <trkpt lat="47.27021" lon="-2.31598">
        <ele>11</ele>
        <time>2013-03-03T11:12:45Z</time>
      </trkpt>
      <trkpt lat="47.27026" lon="-2.31613">
        <ele>11</ele>
        <time>2013-03-03T11:12:50Z</time>
      </trkpt>
      <trkpt lat="47.27028" lon="-2.31637">
        <ele>11</ele>
        <time>2013-03-03T11:12:50Z</time>
      </trkpt>
      <trkpt lat="47.27029" lon="-2.31647">
        <ele>11</ele>
        <time>2013-03-03T11:12:51Z</time>
      </trkpt>
      <trkpt lat="47.27029" lon="-2.31657">
        <ele>11</ele>
        <time>2013-03-03T11:12:52Z</time>
      </trkpt>
      <trkpt lat="47.27028" lon="-2.31675">
        <ele>10</ele>
        <time>2013-03-03T11:12:56Z</time>
      </trkpt>
      <trkpt lat="47.27026" lon="-2.31695">
        <ele>10</ele>
        <time>2013-03-03T11:12:57Z</time>
      </trkpt>
      <trkpt lat="47.27026" lon="-2.31698">
        <ele>9</ele>
        <time>2013-03-03T11:12:58Z</time>
      </trkpt>
      <trkpt lat="47.27026" lon="-2.317">
        <ele>9</ele>
        <time>2013-03-03T11:12:59Z</time>
      </trkpt>
      <trkpt lat="47.27025" lon="-2.31703">
        <ele>9</ele>
        <time>2013-03-03T11:13:04Z</time>
      </trkpt>
      <trkpt lat="47.27024" lon="-2.31706">
        <ele>9</ele>
        <time>2013-03-03T11:13:04Z</time>
      </trkpt>
      <trkpt lat="47.27023" lon="-2.31705">
        <ele>9</ele>
        <time>2013-03-03T11:13:06Z</time>
      </trkpt>
      <trkpt lat="47.27022" lon="-2.31704">
        <ele>9</ele>
        <time>2013-03-03T11:13:11Z</time>
      </trkpt>
      <trkpt lat="47.27023" lon="-2.31708">
        <ele>7</ele>
        <time>2013-03-03T11:13:14Z</time>
      </trkpt>
      <trkpt lat="47.27027" lon="-2.31711">
        <ele>6</ele>
        <time>2013-03-03T11:13:20Z</time>
      </trkpt>
      <trkpt lat="47.2703" lon="-2.31712">
        <ele>6</ele>
        <time>2013-03-03T11:13:21Z</time>
      </trkpt>
      <trkpt lat="47.27031" lon="-2.31712">
        <ele>6</ele>
        <time>2013-03-03T11:13:23Z</time>
      </trkpt>
      <trkpt lat="47.27033" lon="-2.31713">
        <ele>6</ele>
        <time>2013-03-03T11:13:29Z</time>
      </trkpt>
      <trkpt lat="47.27035" lon="-2.31714">
        <ele>6</ele>
        <time>2013-03-03T11:13:30Z</time>
      </trkpt>
      <trkpt lat="47.27033" lon="-2.31713">
        <ele>6</ele>
        <time>2013-03-03T11:13:45Z</time>
      </trkpt>
      <trkpt lat="47.27031" lon="-2.31713">
        <ele>6</ele>
        <time>2013-03-03T11:13:46Z</time>
      </trkpt>
      <trkpt lat="47.2703" lon="-2.31713">
        <ele>5</ele>
        <time>2013-03-03T11:13:55Z</time>
      </trkpt>
      <trkpt lat="47.27032" lon="-2.31712">
        <ele>5</ele>
        <time>2013-03-03T11:14:02Z</time>
      </trkpt>
      <trkpt lat="47.27031" lon="-2.3171">
        <ele>5</ele>
        <time>2013-03-03T11:14:03Z</time>
      </trkpt>
      <trkpt lat="47.2703" lon="-2.31711">
        <ele>5</ele>
        <time>2013-03-03T11:14:11Z</time>
      </trkpt>
      <trkpt lat="47.27026" lon="-2.31712">
        <ele>5</ele>
        <time>2013-03-03T11:14:11Z</time>
      </trkpt>
      <trkpt lat="47.27024" lon="-2.3171">
        <ele>5</ele>
        <time>2013-03-03T11:14:13Z</time>
      </trkpt>
      <trkpt lat="47.27023" lon="-2.31709">
        <ele>5</ele>
        <time>2013-03-03T11:14:14Z</time>
      </trkpt>
      <trkpt lat="47.2702" lon="-2.31705">
        <ele>5</ele>
        <time>2013-03-03T11:14:19Z</time>
      </trkpt>
      <trkpt lat="47.2701" lon="-2.31698">
        <ele>5</ele>
        <time>2013-03-03T11:14:20Z</time>
      </trkpt>
      <trkpt lat="47.27008" lon="-2.31696">
        <ele>5</ele>
        <time>2013-03-03T11:14:21Z</time>
      </trkpt>
      <trkpt lat="47.26996" lon="-2.31686">
        <ele>5</ele>
        <time>2013-03-03T11:14:26Z</time>
      </trkpt>
      <trkpt lat="47.26994" lon="-2.31684">
        <ele>5</ele>
        <time>2013-03-03T11:14:27Z</time>
      </trkpt>
      <trkpt lat="47.2699" lon="-2.3168">
        <ele>5</ele>
        <time>2013-03-03T11:14:32Z</time>
      </trkpt>
      <trkpt lat="47.26982" lon="-2.31675">
        <ele>5</ele>
        <time>2013-03-03T11:14:33Z</time>
      </trkpt>
      <trkpt lat="47.26979" lon="-2.31673">
        <ele>5</ele>
        <time>2013-03-03T11:14:34Z</time>
      </trkpt>
      <trkpt lat="47.26973" lon="-2.3167">
        <ele>5</ele>
        <time>2013-03-03T11:14:39Z</time>
      </trkpt>
      <trkpt lat="47.26957" lon="-2.31659">
        <ele>5</ele>
        <time>2013-03-03T11:14:44Z</time>
      </trkpt>
      <trkpt lat="47.26942" lon="-2.3165">
        <ele>5</ele>
        <time>2013-03-03T11:14:49Z</time>
      </trkpt>
      <trkpt lat="47.26929" lon="-2.31641">
        <ele>5</ele>
        <time>2013-03-03T11:14:50Z</time>
      </trkpt>
      <trkpt lat="47.26926" lon="-2.31639">
        <ele>6</ele>
        <time>2013-03-03T11:14:51Z</time>
      </trkpt>
      <trkpt lat="47.26908" lon="-2.3163">
        <ele>7</ele>
        <time>2013-03-03T11:14:56Z</time>
      </trkpt>
      <trkpt lat="47.26905" lon="-2.31629">
        <ele>8</ele>
        <time>2013-03-03T11:14:57Z</time>
      </trkpt>
      <trkpt lat="47.26901" lon="-2.31628">
        <ele>9</ele>
        <time>2013-03-03T11:14:58Z</time>
      </trkpt>
      <trkpt lat="47.26895" lon="-2.31628">
        <ele>9</ele>
        <time>2013-03-03T11:15:03Z</time>
      </trkpt>
      <trkpt lat="47.26888" lon="-2.31634">
        <ele>10</ele>
        <time>2013-03-03T11:15:04Z</time>
      </trkpt>
      <trkpt lat="47.26887" lon="-2.31637">
        <ele>10</ele>
        <time>2013-03-03T11:15:06Z</time>
      </trkpt>
      <trkpt lat="47.26886" lon="-2.31641">
        <ele>11</ele>
        <time>2013-03-03T11:15:07Z</time>
      </trkpt>
      <trkpt lat="47.26886" lon="-2.31654">
        <ele>12</ele>
        <time>2013-03-03T11:15:09Z</time>
      </trkpt>
      <trkpt lat="47.26888" lon="-2.31663">
        <ele>12</ele>
        <time>2013-03-03T11:15:14Z</time>
      </trkpt>
      <trkpt lat="47.26889" lon="-2.31685">
        <ele>12</ele>
        <time>2013-03-03T11:15:15Z</time>
      </trkpt>
      <trkpt lat="47.2689" lon="-2.31691">
        <ele>12</ele>
        <time>2013-03-03T11:15:16Z</time>
      </trkpt>
      <trkpt lat="47.26891" lon="-2.31703">
        <ele>12</ele>
        <time>2013-03-03T11:15:20Z</time>
      </trkpt>
      <trkpt lat="47.2689" lon="-2.31729">
        <ele>12</ele>
        <time>2013-03-03T11:15:26Z</time>
      </trkpt>
      <trkpt lat="47.26884" lon="-2.31753">
        <ele>12</ele>
        <time>2013-03-03T11:15:26Z</time>
      </trkpt>
      <trkpt lat="47.26882" lon="-2.31758">
        <ele>12</ele>
        <time>2013-03-03T11:15:27Z</time>
      </trkpt>
      <trkpt lat="47.2688" lon="-2.31763">
        <ele>12</ele>
        <time>2013-03-03T11:15:28Z</time>
      </trkpt>
      <trkpt lat="47.26874" lon="-2.31771">
        <ele>12</ele>
        <time>2013-03-03T11:15:32Z</time>
      </trkpt>
      <trkpt lat="47.26868" lon="-2.31777">
        <ele>12</ele>
        <time>2013-03-03T11:15:32Z</time>
      </trkpt>
      <trkpt lat="47.26864" lon="-2.3178">
        <ele>12</ele>
        <time>2013-03-03T11:15:33Z</time>
      </trkpt>
      <trkpt lat="47.2686" lon="-2.31782">
        <ele>12</ele>
        <time>2013-03-03T11:15:34Z</time>
      </trkpt>
      <trkpt lat="47.26852" lon="-2.31786">
        <ele>12</ele>
        <time>2013-03-03T11:15:38Z</time>
      </trkpt>
      <trkpt lat="47.26839" lon="-2.31791">
        <ele>12</ele>
        <time>2013-03-03T11:15:39Z</time>
      </trkpt>
      <trkpt lat="47.26835" lon="-2.31792">
        <ele>12</ele>
        <time>2013-03-03T11:15:40Z</time>
      </trkpt>
      <trkpt lat="47.26828" lon="-2.31796">
        <ele>12</ele>
        <time>2013-03-03T11:15:44Z</time>
      </trkpt>
      <trkpt lat="47.26821" lon="-2.31801">
        <ele>12</ele>
        <time>2013-03-03T11:15:44Z</time>
      </trkpt>
      <trkpt lat="47.26818" lon="-2.31804">
        <ele>13</ele>
        <time>2013-03-03T11:15:45Z</time>
      </trkpt>
      <trkpt lat="47.26816" lon="-2.31808">
        <ele>13</ele>
        <time>2013-03-03T11:15:49Z</time>
      </trkpt>
      <trkpt lat="47.26818" lon="-2.3182">
        <ele>14</ele>
        <time>2013-03-03T11:15:50Z</time>
      </trkpt>
      <trkpt lat="47.26819" lon="-2.31825">
        <ele>14</ele>
        <time>2013-03-03T11:15:51Z</time>
      </trkpt>
      <trkpt lat="47.2682" lon="-2.31831">
        <ele>14</ele>
        <time>2013-03-03T11:15:52Z</time>
      </trkpt>
      <trkpt lat="47.26823" lon="-2.31842">
        <ele>14</ele>
        <time>2013-03-03T11:15:56Z</time>
      </trkpt>
      <trkpt lat="47.26829" lon="-2.31861">
        <ele>14</ele>
        <time>2013-03-03T11:15:57Z</time>
      </trkpt>
      <trkpt lat="47.26832" lon="-2.31868">
        <ele>14</ele>
        <time>2013-03-03T11:15:58Z</time>
      </trkpt>
      <trkpt lat="47.2684" lon="-2.31883">
        <ele>13</ele>
        <time>2013-03-03T11:16:02Z</time>
      </trkpt>
      <trkpt lat="47.26853" lon="-2.31891">
        <ele>12</ele>
        <time>2013-03-03T11:16:02Z</time>
      </trkpt>
      <trkpt lat="47.2686" lon="-2.31893">
        <ele>11</ele>
        <time>2013-03-03T11:16:03Z</time>
      </trkpt>
      <trkpt lat="47.26867" lon="-2.31895">
        <ele>11</ele>
        <time>2013-03-03T11:16:04Z</time>
      </trkpt>
      <trkpt lat="47.26879" lon="-2.31906">
        <ele>10</ele>
        <time>2013-03-03T11:16:08Z</time>
      </trkpt>
      <trkpt lat="47.26895" lon="-2.31932">
        <ele>10</ele>
        <time>2013-03-03T11:16:09Z</time>
      </trkpt>
      <trkpt lat="47.269" lon="-2.31941">
        <ele>10</ele>
        <time>2013-03-03T11:16:10Z</time>
      </trkpt>
      <trkpt lat="47.26906" lon="-2.31948">
        <ele>9</ele>
        <time>2013-03-03T11:16:11Z</time>
      </trkpt>
      <trkpt lat="47.26933" lon="-2.31982">
        <ele>9</ele>
        <time>2013-03-03T11:16:15Z</time>
      </trkpt>
      <trkpt lat="47.26939" lon="-2.31992">
        <ele>8</ele>
        <time>2013-03-03T11:16:16Z</time>
      </trkpt>
      <trkpt lat="47.26951" lon="-2.32006">
        <ele>7</ele>
        <time>2013-03-03T11:16:20Z</time>
      </trkpt>
      <trkpt lat="47.26966" lon="-2.32009">
        <ele>7</ele>
        <time>2013-03-03T11:16:21Z</time>
      </trkpt>
      <trkpt lat="47.26973" lon="-2.32007">
        <ele>7</ele>
        <time>2013-03-03T11:16:22Z</time>
      </trkpt>
      <trkpt lat="47.2698" lon="-2.32005">
        <ele>7</ele>
        <time>2013-03-03T11:16:23Z</time>
      </trkpt>
      <trkpt lat="47.26994" lon="-2.32">
        <ele>7</ele>
        <time>2013-03-03T11:16:27Z</time>
      </trkpt>
      <trkpt lat="47.27006" lon="-2.31999">
        <ele>7</ele>
        <time>2013-03-03T11:16:28Z</time>
      </trkpt>
      <trkpt lat="47.27008" lon="-2.32">
        <ele>7</ele>
        <time>2013-03-03T11:16:29Z</time>
      </trkpt>
      <trkpt lat="47.27008" lon="-2.32001">
        <ele>7</ele>
        <time>2013-03-03T11:16:30Z</time>
      </trkpt>
      <trkpt lat="47.27008" lon="-2.32005">
        <ele>6</ele>
        <time>2013-03-03T11:16:31Z</time>
      </trkpt>
      <trkpt lat="47.27009" lon="-2.32012">
        <ele>6</ele>
        <time>2013-03-03T11:16:36Z</time>
      </trkpt>
      <trkpt lat="47.27011" lon="-2.32033">
        <ele>5</ele>
        <time>2013-03-03T11:16:37Z</time>
      </trkpt>
      <trkpt lat="47.27013" lon="-2.32047">
        <ele>4</ele>
        <time>2013-03-03T11:16:41Z</time>
      </trkpt>
      <trkpt lat="47.27015" lon="-2.32066">
        <ele>3</ele>
        <time>2013-03-03T11:16:42Z</time>
      </trkpt>
      <trkpt lat="47.27014" lon="-2.32074">
        <ele>2</ele>
        <time>2013-03-03T11:16:43Z</time>
      </trkpt>
      <trkpt lat="47.27011" lon="-2.32104">
        <ele>1</ele>
        <time>2013-03-03T11:16:47Z</time>
      </trkpt>
      <trkpt lat="47.27009" lon="-2.3211">
        <ele>6</ele>
        <time>2013-03-03T11:16:49Z</time>
      </trkpt>
      <trkpt lat="47.26999" lon="-2.32123">
        <ele>5.6</ele>
        <time>2013-03-03T11:16:50Z</time>
      </trkpt>
      <trkpt lat="47.26995" lon="-2.32128">
        <ele>5.6</ele>
        <time>2013-03-03T11:16:51Z</time>
      </trkpt>
      <trkpt lat="47.26991" lon="-2.32141">
        <ele>5.3</ele>
        <time>2013-03-03T11:16:55Z</time>
      </trkpt>
      <trkpt lat="47.27" lon="-2.3216">
        <ele>5</ele>
        <time>2013-03-03T11:16:56Z</time>
      </trkpt>
      <trkpt lat="47.27004" lon="-2.32166">
        <ele>4.9</ele>
        <time>2013-03-03T11:16:57Z</time>
      </trkpt>
      <trkpt lat="47.27007" lon="-2.32172">
        <ele>4.7</ele>
        <time>2013-03-03T11:16:58Z</time>
      </trkpt>
      <trkpt lat="47.27011" lon="-2.32185">
        <ele>4.6</ele>
        <time>2013-03-03T11:17:02Z</time>
      </trkpt>
      <trkpt lat="47.27014" lon="-2.32207">
        <ele>4.5</ele>
        <time>2013-03-03T11:17:03Z</time>
      </trkpt>
      <trkpt lat="47.27015" lon="-2.32214">
        <ele>4.5</ele>
        <time>2013-03-03T11:17:04Z</time>
      </trkpt>
      <trkpt lat="47.27016" lon="-2.32223">
        <ele>4.4</ele>
        <time>2013-03-03T11:17:05Z</time>
      </trkpt>
      <trkpt lat="47.27017" lon="-2.32231">
        <ele>4.3</ele>
        <time>2013-03-03T11:17:06Z</time>
      </trkpt>
      <trkpt lat="47.27013" lon="-2.32269">
        <ele>4</ele>
        <time>2013-03-03T11:17:10Z</time>
      </trkpt>
      <trkpt lat="47.27012" lon="-2.3228">
        <ele>4</ele>
        <time>2013-03-03T11:17:11Z</time>
      </trkpt>
      <trkpt lat="47.27012" lon="-2.32291">
        <ele>4</ele>
        <time>2013-03-03T11:17:12Z</time>
      </trkpt>
      <trkpt lat="47.27013" lon="-2.32311">
        <ele>4</ele>
        <time>2013-03-03T11:17:16Z</time>
      </trkpt>
      <trkpt lat="47.27014" lon="-2.32343">
        <ele>4.2</ele>
        <time>2013-03-03T11:17:17Z</time>
      </trkpt>
      <trkpt lat="47.27015" lon="-2.32353">
        <ele>4.3</ele>
        <time>2013-03-03T11:17:18Z</time>
      </trkpt>
      <trkpt lat="47.27017" lon="-2.32373">
        <ele>4.4</ele>
        <time>2013-03-03T11:17:22Z</time>
      </trkpt>
      <trkpt lat="47.27022" lon="-2.32411">
        <ele>4.2</ele>
        <time>2013-03-03T11:17:26Z</time>
      </trkpt>
      <trkpt lat="47.27026" lon="-2.32443">
        <ele>4.1</ele>
        <time>2013-03-03T11:17:30Z</time>
      </trkpt>
      <trkpt lat="47.27026" lon="-2.32466">
        <ele>4.1</ele>
        <time>2013-03-03T11:17:31Z</time>
      </trkpt>
      <trkpt lat="47.27026" lon="-2.32473">
        <ele>4.1</ele>
        <time>2013-03-03T11:17:32Z</time>
      </trkpt>
      <trkpt lat="47.27024" lon="-2.32486">
        <ele>4.2</ele>
        <time>2013-03-03T11:17:36Z</time>
      </trkpt>
      <trkpt lat="47.27019" lon="-2.32503">
        <ele>4.3</ele>
        <time>2013-03-03T11:17:37Z</time>
      </trkpt>
      <trkpt lat="47.27018" lon="-2.32506">
        <ele>4.4</ele>
        <time>2013-03-03T11:17:38Z</time>
      </trkpt>
      <trkpt lat="47.27015" lon="-2.32505">
        <ele>4.5</ele>
        <time>2013-03-03T11:17:43Z</time>
      </trkpt>
      <trkpt lat="47.2701" lon="-2.32503">
        <ele>4.6</ele>
        <time>2013-03-03T11:17:44Z</time>
      </trkpt>
      <trkpt lat="47.27008" lon="-2.32501">
        <ele>4.7</ele>
        <time>2013-03-03T11:17:45Z</time>
      </trkpt>
      <trkpt lat="47.27007" lon="-2.32499">
        <ele>4.8</ele>
        <time>2013-03-03T11:17:46Z</time>
      </trkpt>
      <trkpt lat="47.27005" lon="-2.32497">
        <ele>4.9</ele>
        <time>2013-03-03T11:17:47Z</time>
      </trkpt>
      <trkpt lat="47.27002" lon="-2.3249">
        <ele>5.2</ele>
        <time>2013-03-03T11:17:50Z</time>
      </trkpt>
      <trkpt lat="47.26999" lon="-2.32485">
        <ele>5.6</ele>
        <time>2013-03-03T11:17:54Z</time>
      </trkpt>
      <trkpt lat="47.26997" lon="-2.32478">
        <ele>6</ele>
        <time>2013-03-03T11:17:55Z</time>
      </trkpt>
      <trkpt lat="47.26996" lon="-2.32476">
        <ele>6.2</ele>
        <time>2013-03-03T11:17:56Z</time>
      </trkpt>
      <trkpt lat="47.26992" lon="-2.32471">
        <ele>6.5</ele>
        <time>2013-03-03T11:18:00Z</time>
      </trkpt>
      <trkpt lat="47.26989" lon="-2.32463">
        <ele>6.3</ele>
        <time>2013-03-03T11:18:01Z</time>
      </trkpt>
      <trkpt lat="47.26988" lon="-2.3246">
        <ele>6.3</ele>
        <time>2013-03-03T11:18:02Z</time>
      </trkpt>
      <trkpt lat="47.26986" lon="-2.32455">
        <ele>6.1</ele>
        <time>2013-03-03T11:18:06Z</time>
      </trkpt>
      <trkpt lat="47.26982" lon="-2.3245">
        <ele>6</ele>
        <time>2013-03-03T11:18:07Z</time>
      </trkpt>
      <trkpt lat="47.26981" lon="-2.32448">
        <ele>5.9</ele>
        <time>2013-03-03T11:18:08Z</time>
      </trkpt>
      <trkpt lat="47.26979" lon="-2.32445">
        <ele>5.8</ele>
        <time>2013-03-03T11:18:10Z</time>
      </trkpt>
      <trkpt lat="47.26972" lon="-2.32435">
        <ele>6</ele>
        <time>2013-03-03T11:18:14Z</time>
      </trkpt>
      <trkpt lat="47.26962" lon="-2.32423">
        <ele>6.8</ele>
        <time>2013-03-03T11:18:15Z</time>
      </trkpt>
      <trkpt lat="47.26959" lon="-2.32418">
        <ele>7</ele>
        <time>2013-03-03T11:18:16Z</time>
      </trkpt>
      <trkpt lat="47.26952" lon="-2.32409">
        <ele>7.2</ele>
        <time>2013-03-03T11:18:20Z</time>
      </trkpt>
      <trkpt lat="47.26948" lon="-2.32393">
        <ele>7</ele>
        <time>2013-03-03T11:18:21Z</time>
      </trkpt>
      <trkpt lat="47.26946" lon="-2.32387">
        <ele>6.9</ele>
        <time>2013-03-03T11:18:22Z</time>
      </trkpt>
      <trkpt lat="47.26943" lon="-2.32376">
        <ele>7.1</ele>
        <time>2013-03-03T11:18:26Z</time>
      </trkpt>
      <trkpt lat="47.26938" lon="-2.32363">
        <ele>7.5</ele>
        <time>2013-03-03T11:18:27Z</time>
      </trkpt>
      <trkpt lat="47.26937" lon="-2.32359">
        <ele>7.5</ele>
        <time>2013-03-03T11:18:28Z</time>
      </trkpt>
      <trkpt lat="47.26935" lon="-2.32353">
        <ele>7.6</ele>
        <time>2013-03-03T11:18:32Z</time>
      </trkpt>
      <trkpt lat="47.26932" lon="-2.32343">
        <ele>7.6</ele>
        <time>2013-03-03T11:18:33Z</time>
      </trkpt>
      <trkpt lat="47.26931" lon="-2.3234">
        <ele>7.6</ele>
        <time>2013-03-03T11:18:34Z</time>
      </trkpt>
      <trkpt lat="47.26929" lon="-2.32335">
        <ele>7.6</ele>
        <time>2013-03-03T11:18:38Z</time>
      </trkpt>
      <trkpt lat="47.26923" lon="-2.32331">
        <ele>7.8</ele>
        <time>2013-03-03T11:18:39Z</time>
      </trkpt>
      <trkpt lat="47.26921" lon="-2.3233">
        <ele>7.9</ele>
        <time>2013-03-03T11:18:40Z</time>
      </trkpt>
      <trkpt lat="47.26918" lon="-2.32331">
        <ele>8</ele>
        <time>2013-03-03T11:18:41Z</time>
      </trkpt>
      <trkpt lat="47.26912" lon="-2.32333">
        <ele>8.5</ele>
        <time>2013-03-03T11:18:46Z</time>
      </trkpt>
      <trkpt lat="47.269" lon="-2.32334">
        <ele>9.8</ele>
        <time>2013-03-03T11:18:47Z</time>
      </trkpt>
      <trkpt lat="47.26896" lon="-2.32335">
        <ele>10.2</ele>
        <time>2013-03-03T11:18:48Z</time>
      </trkpt>
      <trkpt lat="47.2689" lon="-2.32336">
        <ele>10.9</ele>
        <time>2013-03-03T11:18:52Z</time>
      </trkpt>
      <trkpt lat="47.26883" lon="-2.32337">
        <ele>1</ele>
        <time>2013-03-03T11:18:53Z</time>
      </trkpt>
      <trkpt lat="47.26879" lon="-2.32337">
        <ele>2</ele>
        <time>2013-03-03T11:18:54Z</time>
      </trkpt>
      <trkpt lat="47.26873" lon="-2.32338">
        <ele>3</ele>
        <time>2013-03-03T11:18:58Z</time>
      </trkpt>
      <trkpt lat="47.26864" lon="-2.32339">
        <ele>4</ele>
        <time>2013-03-03T11:18:59Z</time>
      </trkpt>
      <trkpt lat="47.2686" lon="-2.3234">
        <ele>4</ele>
        <time>2013-03-03T11:19:00Z</time>
      </trkpt>
      <trkpt lat="47.26853" lon="-2.32341">
        <ele>5</ele>
        <time>2013-03-03T11:19:04Z</time>
      </trkpt>
      <trkpt lat="47.26841" lon="-2.32343">
        <ele>6</ele>
        <time>2013-03-03T11:19:05Z</time>
      </trkpt>
      <trkpt lat="47.26838" lon="-2.32344">
        <ele>7</ele>
        <time>2013-03-03T11:19:06Z</time>
      </trkpt>
      <trkpt lat="47.26818" lon="-2.32349">
        <ele>8</ele>
        <time>2013-03-03T11:19:11Z</time>
      </trkpt>
      <trkpt lat="47.26814" lon="-2.32351">
        <ele>8</ele>
        <time>2013-03-03T11:19:12Z</time>
      </trkpt>
      <trkpt lat="47.26807" lon="-2.32353">
        <ele>8</ele>
        <time>2013-03-03T11:19:17Z</time>
      </trkpt>
      <trkpt lat="47.2679" lon="-2.3236">
        <ele>8</ele>
        <time>2013-03-03T11:19:18Z</time>
      </trkpt>
      <trkpt lat="47.26787" lon="-2.32361">
        <ele>8</ele>
        <time>2013-03-03T11:19:19Z</time>
      </trkpt>
      <trkpt lat="47.26781" lon="-2.32363">
        <ele>8</ele>
        <time>2013-03-03T11:19:23Z</time>
      </trkpt>
      <trkpt lat="47.26771" lon="-2.32365">
        <ele>8</ele>
        <time>2013-03-03T11:19:24Z</time>
      </trkpt>
      <trkpt lat="47.26767" lon="-2.32366">
        <ele>8</ele>
        <time>2013-03-03T11:19:25Z</time>
      </trkpt>
      <trkpt lat="47.26759" lon="-2.32368">
        <ele>8</ele>
        <time>2013-03-03T11:19:29Z</time>
      </trkpt>
      <trkpt lat="47.26749" lon="-2.32372">
        <ele>9</ele>
        <time>2013-03-03T11:19:30Z</time>
      </trkpt>
      <trkpt lat="47.26746" lon="-2.32374">
        <ele>10</ele>
        <time>2013-03-03T11:19:31Z</time>
      </trkpt>
      <trkpt lat="47.2673" lon="-2.32376">
        <ele>11</ele>
        <time>2013-03-03T11:19:36Z</time>
      </trkpt>
      <trkpt lat="47.26728" lon="-2.32375">
        <ele>12</ele>
        <time>2013-03-03T11:19:37Z</time>
      </trkpt>
      <trkpt lat="47.26727" lon="-2.32374">
        <ele>13</ele>
        <time>2013-03-03T11:19:38Z</time>
      </trkpt>
      <trkpt lat="47.26723" lon="-2.32371">
        <ele>14</ele>
        <time>2013-03-03T11:19:42Z</time>
      </trkpt>
      <trkpt lat="47.2672" lon="-2.32365">
        <ele>15</ele>
        <time>2013-03-03T11:19:43Z</time>
      </trkpt>
      <trkpt lat="47.26719" lon="-2.32363">
        <ele>16</ele>
        <time>2013-03-03T11:19:44Z</time>
      </trkpt>
      <trkpt lat="47.26719" lon="-2.3236">
        <ele>16</ele>
        <time>2013-03-03T11:19:45Z</time>
      </trkpt>
      <trkpt lat="47.26717" lon="-2.32353">
        <ele>16</ele>
        <time>2013-03-03T11:19:49Z</time>
      </trkpt>
      <trkpt lat="47.26714" lon="-2.32347">
        <ele>16</ele>
        <time>2013-03-03T11:19:50Z</time>
      </trkpt>
      <trkpt lat="47.26712" lon="-2.32344">
        <ele>16</ele>
        <time>2013-03-03T11:19:51Z</time>
      </trkpt>
      <trkpt lat="47.26708" lon="-2.3233">
        <ele>16</ele>
        <time>2013-03-03T11:19:56Z</time>
      </trkpt>
      <trkpt lat="47.26707" lon="-2.32327">
        <ele>16</ele>
        <time>2013-03-03T11:19:57Z</time>
      </trkpt>
      <trkpt lat="47.26703" lon="-2.32322">
        <ele>16</ele>
        <time>2013-03-03T11:20:02Z</time>
      </trkpt>
      <trkpt lat="47.267" lon="-2.3231">
        <ele>16</ele>
        <time>2013-03-03T11:20:03Z</time>
      </trkpt>
      <trkpt lat="47.26699" lon="-2.32307">
        <ele>15</ele>
        <time>2013-03-03T11:20:04Z</time>
      </trkpt>
      <trkpt lat="47.26697" lon="-2.32301">
        <ele>14</ele>
        <time>2013-03-03T11:20:08Z</time>
      </trkpt>
      <trkpt lat="47.26694" lon="-2.32293">
        <ele>13</ele>
        <time>2013-03-03T11:20:09Z</time>
      </trkpt>
      <trkpt lat="47.26694" lon="-2.3229">
        <ele>12</ele>
        <time>2013-03-03T11:20:10Z</time>
      </trkpt>
      <trkpt lat="47.26691" lon="-2.32274">
        <ele>11</ele>
        <time>2013-03-03T11:20:15Z</time>
      </trkpt>
      <trkpt lat="47.2669" lon="-2.32271">
        <ele>11</ele>
        <time>2013-03-03T11:20:16Z</time>
      </trkpt>
      <trkpt lat="47.26689" lon="-2.32267">
        <ele>11</ele>
        <time>2013-03-03T11:20:17Z</time>
      </trkpt>
      <trkpt lat="47.26687" lon="-2.32261">
        <ele>11</ele>
        <time>2013-03-03T11:20:21Z</time>
      </trkpt>
      <trkpt lat="47.26684" lon="-2.32255">
        <ele>11</ele>
        <time>2013-03-03T11:20:22Z</time>
      </trkpt>
      <trkpt lat="47.26684" lon="-2.32253">
        <ele>11</ele>
        <time>2013-03-03T11:20:30Z</time>
      </trkpt>
      <trkpt lat="47.26683" lon="-2.32253">
        <ele>11</ele>
        <time>2013-03-03T11:20:31Z</time>
      </trkpt>
      <trkpt lat="47.26681" lon="-2.32253">
        <ele>11</ele>
        <time>2013-03-03T11:20:38Z</time>
      </trkpt>
      <trkpt lat="47.2668" lon="-2.32254">
        <ele>11</ele>
        <time>2013-03-03T11:20:45Z</time>
      </trkpt>
      <trkpt lat="47.26679" lon="-2.32256">
        <ele>11</ele>
        <time>2013-03-03T11:20:54Z</time>
      </trkpt>
      <trkpt lat="47.26679" lon="-2.32257">
        <ele>11</ele>
        <time>2013-03-03T11:20:57Z</time>
      </trkpt>
      <trkpt lat="47.2668" lon="-2.32259">
        <ele>11</ele>
        <time>2013-03-03T11:21:12Z</time>
      </trkpt>
      <trkpt lat="47.2668" lon="-2.32252">
        <ele>12</ele>
        <time>2013-03-03T11:21:20Z</time>
      </trkpt>
      <trkpt lat="47.26682" lon="-2.32249">
        <ele>13</ele>
        <time>2013-03-03T11:21:21Z</time>
      </trkpt>
      <trkpt lat="47.26684" lon="-2.32245">
        <ele>13</ele>
        <time>2013-03-03T11:21:22Z</time>
      </trkpt>
      <trkpt lat="47.26691" lon="-2.32209">
        <ele>13</ele>
        <time>2013-03-03T11:21:28Z</time>
      </trkpt>
      <trkpt lat="47.26691" lon="-2.32202">
        <ele>13</ele>
        <time>2013-03-03T11:21:29Z</time>
      </trkpt>
      <trkpt lat="47.2669" lon="-2.32195">
        <ele>13</ele>
        <time>2013-03-03T11:21:30Z</time>
      </trkpt>
      <trkpt lat="47.26688" lon="-2.32183">
        <ele>13</ele>
        <time>2013-03-03T11:21:34Z</time>
      </trkpt>
      <trkpt lat="47.26686" lon="-2.32166">
        <ele>13</ele>
        <time>2013-03-03T11:21:35Z</time>
      </trkpt>
      <trkpt lat="47.26685" lon="-2.32161">
        <ele>13</ele>
        <time>2013-03-03T11:21:36Z</time>
      </trkpt>
      <trkpt lat="47.26679" lon="-2.32132">
        <ele>14</ele>
        <time>2013-03-03T11:21:41Z</time>
      </trkpt>
      <trkpt lat="47.26677" lon="-2.32126">
        <ele>14</ele>
        <time>2013-03-03T11:21:42Z</time>
      </trkpt>
      <trkpt lat="47.26675" lon="-2.32116">
        <ele>14</ele>
        <time>2013-03-03T11:21:47Z</time>
      </trkpt>
      <trkpt lat="47.26671" lon="-2.32098">
        <ele>15</ele>
        <time>2013-03-03T11:21:48Z</time>
      </trkpt>
      <trkpt lat="47.2667" lon="-2.32094">
        <ele>16</ele>
        <time>2013-03-03T11:21:49Z</time>
      </trkpt>
      <trkpt lat="47.26668" lon="-2.32088">
        <ele>16</ele>
        <time>2013-03-03T11:21:53Z</time>
      </trkpt>
      <trkpt lat="47.26666" lon="-2.3208">
        <ele>17</ele>
        <time>2013-03-03T11:21:54Z</time>
      </trkpt>
      <trkpt lat="47.26665" lon="-2.32079">
        <ele>17</ele>
        <time>2013-03-03T11:21:55Z</time>
      </trkpt>
      <trkpt lat="47.26666" lon="-2.32085">
        <ele>17</ele>
        <time>2013-03-03T11:22:02Z</time>
      </trkpt>
      <trkpt lat="47.26667" lon="-2.32108">
        <ele>17</ele>
        <time>2013-03-03T11:22:03Z</time>
      </trkpt>
      <trkpt lat="47.26668" lon="-2.32113">
        <ele>17</ele>
        <time>2013-03-03T11:22:04Z</time>
      </trkpt>
      <trkpt lat="47.26669" lon="-2.32123">
        <ele>17</ele>
        <time>2013-03-03T11:22:09Z</time>
      </trkpt>
      <trkpt lat="47.26663" lon="-2.32128">
        <ele>17</ele>
        <time>2013-03-03T11:22:10Z</time>
      </trkpt>
      <trkpt lat="47.26661" lon="-2.32127">
        <ele>17</ele>
        <time>2013-03-03T11:22:11Z</time>
      </trkpt>
      <trkpt lat="47.26657" lon="-2.32126">
        <ele>17</ele>
        <time>2013-03-03T11:22:12Z</time>
      </trkpt>
      <trkpt lat="47.26648" lon="-2.32126">
        <ele>17</ele>
        <time>2013-03-03T11:22:16Z</time>
      </trkpt>
      <trkpt lat="47.26636" lon="-2.32129">
        <ele>17</ele>
        <time>2013-03-03T11:22:17Z</time>
      </trkpt>
      <trkpt lat="47.26632" lon="-2.3213">
        <ele>17</ele>
        <time>2013-03-03T11:22:18Z</time>
      </trkpt>
      <trkpt lat="47.26629" lon="-2.32131">
        <ele>17</ele>
        <time>2013-03-03T11:22:19Z</time>
      </trkpt>
      <trkpt lat="47.26625" lon="-2.32131">
        <ele>17</ele>
        <time>2013-03-03T11:22:20Z</time>
      </trkpt>
      <trkpt lat="47.26617" lon="-2.32133">
        <ele>17</ele>
        <time>2013-03-03T11:22:24Z</time>
      </trkpt>
      <trkpt lat="47.26603" lon="-2.32136">
        <ele>17</ele>
        <time>2013-03-03T11:22:25Z</time>
      </trkpt>
      <trkpt lat="47.26598" lon="-2.32137">
        <ele>17</ele>
        <time>2013-03-03T11:22:26Z</time>
      </trkpt>
      <trkpt lat="47.2659" lon="-2.32139">
        <ele>17</ele>
        <time>2013-03-03T11:22:31Z</time>
      </trkpt>
      <trkpt lat="47.26575" lon="-2.32144">
        <ele>17</ele>
        <time>2013-03-03T11:22:32Z</time>
      </trkpt>
      <trkpt lat="47.26573" lon="-2.32143">
        <ele>17</ele>
        <time>2013-03-03T11:22:33Z</time>
      </trkpt>
      <trkpt lat="47.26572" lon="-2.3214">
        <ele>17</ele>
        <time>2013-03-03T11:22:34Z</time>
      </trkpt>
      <trkpt lat="47.26573" lon="-2.32136">
        <ele>16</ele>
        <time>2013-03-03T11:22:40Z</time>
      </trkpt>
      <trkpt lat="47.26585" lon="-2.32136">
        <ele>16</ele>
        <time>2013-03-03T11:22:41Z</time>
      </trkpt>
      <trkpt lat="47.26589" lon="-2.32137">
        <ele>15</ele>
        <time>2013-03-03T11:22:42Z</time>
      </trkpt>
      <trkpt lat="47.26593" lon="-2.32138">
        <ele>15</ele>
        <time>2013-03-03T11:22:43Z</time>
      </trkpt>
      <trkpt lat="47.26603" lon="-2.32139">
        <ele>15</ele>
        <time>2013-03-03T11:22:47Z</time>
      </trkpt>
      <trkpt lat="47.26619" lon="-2.32138">
        <ele>15</ele>
        <time>2013-03-03T11:22:48Z</time>
      </trkpt>
      <trkpt lat="47.26624" lon="-2.32136">
        <ele>15</ele>
        <time>2013-03-03T11:22:49Z</time>
      </trkpt>
      <trkpt lat="47.26629" lon="-2.32135">
        <ele>15</ele>
        <time>2013-03-03T11:22:50Z</time>
      </trkpt>
      <trkpt lat="47.26638" lon="-2.32132">
        <ele>15</ele>
        <time>2013-03-03T11:22:54Z</time>
      </trkpt>
      <trkpt lat="47.26652" lon="-2.32126">
        <ele>15</ele>
        <time>2013-03-03T11:22:55Z</time>
      </trkpt>
      <trkpt lat="47.26656" lon="-2.32126">
        <ele>15</ele>
        <time>2013-03-03T11:22:56Z</time>
      </trkpt>
      <trkpt lat="47.26664" lon="-2.32127">
        <ele>15</ele>
        <time>2013-03-03T11:23:01Z</time>
      </trkpt>
      <trkpt lat="47.26673" lon="-2.32124">
        <ele>15</ele>
        <time>2013-03-03T11:23:02Z</time>
      </trkpt>
      <trkpt lat="47.26673" lon="-2.3212">
        <ele>15</ele>
        <time>2013-03-03T11:23:03Z</time>
      </trkpt>
      <trkpt lat="47.26672" lon="-2.32116">
        <ele>15</ele>
        <time>2013-03-03T11:23:04Z</time>
      </trkpt>
      <trkpt lat="47.2667" lon="-2.3211">
        <ele>15</ele>
        <time>2013-03-03T11:23:05Z</time>
      </trkpt>
      <trkpt lat="47.26669" lon="-2.32099">
        <ele>15</ele>
        <time>2013-03-03T11:23:07Z</time>
      </trkpt>
      <trkpt lat="47.26667" lon="-2.32089">
        <ele>15</ele>
        <time>2013-03-03T11:23:12Z</time>
      </trkpt>
      <trkpt lat="47.26664" lon="-2.32071">
        <ele>15</ele>
        <time>2013-03-03T11:23:13Z</time>
      </trkpt>
      <trkpt lat="47.26662" lon="-2.32067">
        <ele>15</ele>
        <time>2013-03-03T11:23:14Z</time>
      </trkpt>
      <trkpt lat="47.2666" lon="-2.32057">
        <ele>15</ele>
        <time>2013-03-03T11:23:18Z</time>
      </trkpt>
      <trkpt lat="47.26654" lon="-2.32029">
        <ele>15</ele>
        <time>2013-03-03T11:23:23Z</time>
      </trkpt>
      <trkpt lat="47.26651" lon="-2.32015">
        <ele>15</ele>
        <time>2013-03-03T11:23:24Z</time>
      </trkpt>
      <trkpt lat="47.2665" lon="-2.32011">
        <ele>15</ele>
        <time>2013-03-03T11:23:25Z</time>
      </trkpt>
      <trkpt lat="47.26649" lon="-2.32003">
        <ele>15</ele>
        <time>2013-03-03T11:23:30Z</time>
      </trkpt>
      <trkpt lat="47.26643" lon="-2.31999">
        <ele>15</ele>
        <time>2013-03-03T11:23:31Z</time>
      </trkpt>
      <trkpt lat="47.26641" lon="-2.32001">
        <ele>15</ele>
        <time>2013-03-03T11:23:32Z</time>
      </trkpt>
      <trkpt lat="47.26639" lon="-2.32002">
        <ele>15</ele>
        <time>2013-03-03T11:23:33Z</time>
      </trkpt>
      <trkpt lat="47.26636" lon="-2.32003">
        <ele>15</ele>
        <time>2013-03-03T11:23:38Z</time>
      </trkpt>
      <trkpt lat="47.26627" lon="-2.32006">
        <ele>15</ele>
        <time>2013-03-03T11:23:39Z</time>
      </trkpt>
      <trkpt lat="47.26624" lon="-2.32007">
        <ele>15</ele>
        <time>2013-03-03T11:23:40Z</time>
      </trkpt>
      <trkpt lat="47.26617" lon="-2.32009">
        <ele>15</ele>
        <time>2013-03-03T11:23:45Z</time>
      </trkpt>
      <trkpt lat="47.26603" lon="-2.32012">
        <ele>15</ele>
        <time>2013-03-03T11:23:46Z</time>
      </trkpt>
      <trkpt lat="47.26599" lon="-2.32013">
        <ele>15</ele>
        <time>2013-03-03T11:23:47Z</time>
      </trkpt>
      <trkpt lat="47.26593" lon="-2.32016">
        <ele>15</ele>
        <time>2013-03-03T11:23:52Z</time>
      </trkpt>
      <trkpt lat="47.26583" lon="-2.32021">
        <ele>15</ele>
        <time>2013-03-03T11:23:52Z</time>
      </trkpt>
      <trkpt lat="47.26579" lon="-2.32023">
        <ele>15</ele>
        <time>2013-03-03T11:23:53Z</time>
      </trkpt>
      <trkpt lat="47.26572" lon="-2.32026">
        <ele>15</ele>
        <time>2013-03-03T11:23:58Z</time>
      </trkpt>
      <trkpt lat="47.26559" lon="-2.32032">
        <ele>15</ele>
        <time>2013-03-03T11:23:59Z</time>
      </trkpt>
      <trkpt lat="47.26557" lon="-2.32032">
        <ele>14</ele>
        <time>2013-03-03T11:24:00Z</time>
      </trkpt>
      <trkpt lat="47.26554" lon="-2.32031">
        <ele>13</ele>
        <time>2013-03-03T11:24:01Z</time>
      </trkpt>
      <trkpt lat="47.2655" lon="-2.32028">
        <ele>12</ele>
        <time>2013-03-03T11:24:07Z</time>
      </trkpt>
      <trkpt lat="47.26548" lon="-2.32024">
        <ele>11</ele>
        <time>2013-03-03T11:24:08Z</time>
      </trkpt>
      <trkpt lat="47.26547" lon="-2.32021">
        <ele>10</ele>
        <time>2013-03-03T11:24:09Z</time>
      </trkpt>
      <trkpt lat="47.26543" lon="-2.32013">
        <ele>10</ele>
        <time>2013-03-03T11:24:15Z</time>
      </trkpt>
      <trkpt lat="47.26537" lon="-2.31999">
        <ele>9</ele>
        <time>2013-03-03T11:24:16Z</time>
      </trkpt>
      <trkpt lat="47.26536" lon="-2.31997">
        <ele>9</ele>
        <time>2013-03-03T11:24:17Z</time>
      </trkpt>
      <trkpt lat="47.26535" lon="-2.31996">
        <ele>9</ele>
        <time>2013-03-03T11:24:18Z</time>
      </trkpt>
      <trkpt lat="47.26532" lon="-2.31994">
        <ele>9</ele>
        <time>2013-03-03T11:24:19Z</time>
      </trkpt>
      <trkpt lat="47.26527" lon="-2.31992">
        <ele>9</ele>
        <time>2013-03-03T11:24:24Z</time>
      </trkpt>
      <trkpt lat="47.26511" lon="-2.31993">
        <ele>9</ele>
        <time>2013-03-03T11:24:26Z</time>
      </trkpt>
      <trkpt lat="47.26509" lon="-2.31993">
        <ele>8</ele>
        <time>2013-03-03T11:24:27Z</time>
      </trkpt>
      <trkpt lat="47.26508" lon="-2.31993">
        <ele>7</ele>
        <time>2013-03-03T11:24:28Z</time>
      </trkpt>
      <trkpt lat="47.26503" lon="-2.31993">
        <ele>7</ele>
        <time>2013-03-03T11:24:33Z</time>
      </trkpt>
      <trkpt lat="47.26495" lon="-2.31991">
        <ele>7</ele>
        <time>2013-03-03T11:24:34Z</time>
      </trkpt>
      <trkpt lat="47.26493" lon="-2.31991">
        <ele>7</ele>
        <time>2013-03-03T11:24:35Z</time>
      </trkpt>
      <trkpt lat="47.26489" lon="-2.31991">
        <ele>7</ele>
        <time>2013-03-03T11:24:40Z</time>
      </trkpt>
      <trkpt lat="47.26481" lon="-2.31992">
        <ele>7</ele>
        <time>2013-03-03T11:24:41Z</time>
      </trkpt>
      <trkpt lat="47.26479" lon="-2.31993">
        <ele>7</ele>
        <time>2013-03-03T11:24:42Z</time>
      </trkpt>
      <trkpt lat="47.26477" lon="-2.31993">
        <ele>7</ele>
        <time>2013-03-03T11:24:43Z</time>
      </trkpt>
      <trkpt lat="47.26466" lon="-2.31994">
        <ele>7</ele>
        <time>2013-03-03T11:24:49Z</time>
      </trkpt>
      <trkpt lat="47.26464" lon="-2.31993">
        <ele>7</ele>
        <time>2013-03-03T11:24:50Z</time>
      </trkpt>
      <trkpt lat="47.26451" lon="-2.31992">
        <ele>7</ele>
        <time>2013-03-03T11:24:55Z</time>
      </trkpt>
      <trkpt lat="47.26448" lon="-2.31991">
        <ele>8</ele>
        <time>2013-03-03T11:24:56Z</time>
      </trkpt>
      <trkpt lat="47.26441" lon="-2.31991">
        <ele>9</ele>
        <time>2013-03-03T11:25:01Z</time>
      </trkpt>
      <trkpt lat="47.26429" lon="-2.31988">
        <ele>9</ele>
        <time>2013-03-03T11:25:02Z</time>
      </trkpt>
      <trkpt lat="47.26426" lon="-2.31989">
        <ele>9</ele>
        <time>2013-03-03T11:25:03Z</time>
      </trkpt>
      <trkpt lat="47.26422" lon="-2.31989">
        <ele>9</ele>
        <time>2013-03-03T11:25:08Z</time>
      </trkpt>
      <trkpt lat="47.26412" lon="-2.31987">
        <ele>9</ele>
        <time>2013-03-03T11:25:09Z</time>
      </trkpt>
      <trkpt lat="47.2641" lon="-2.31987">
        <ele>9</ele>
        <time>2013-03-03T11:25:10Z</time>
      </trkpt>
      <trkpt lat="47.26406" lon="-2.31987">
        <ele>8</ele>
        <time>2013-03-03T11:25:11Z</time>
      </trkpt>
      <trkpt lat="47.26403" lon="-2.31986">
        <ele>7</ele>
        <time>2013-03-03T11:25:12Z</time>
      </trkpt>
      <trkpt lat="47.26397" lon="-2.31984">
        <ele>6</ele>
        <time>2013-03-03T11:25:17Z</time>
      </trkpt>
      <trkpt lat="47.26385" lon="-2.31983">
        <ele>6</ele>
        <time>2013-03-03T11:25:18Z</time>
      </trkpt>
      <trkpt lat="47.26383" lon="-2.31983">
        <ele>5</ele>
        <time>2013-03-03T11:25:19Z</time>
      </trkpt>
      <trkpt lat="47.26378" lon="-2.31982">
        <ele>5</ele>
        <time>2013-03-03T11:25:24Z</time>
      </trkpt>
      <trkpt lat="47.26368" lon="-2.31977">
        <ele>4</ele>
        <time>2013-03-03T11:25:25Z</time>
      </trkpt>
      <trkpt lat="47.26366" lon="-2.31975">
        <ele>3</ele>
        <time>2013-03-03T11:25:26Z</time>
      </trkpt>
      <trkpt lat="47.26366" lon="-2.31972">
        <ele>2</ele>
        <time>2013-03-03T11:25:27Z</time>
      </trkpt>
      <trkpt lat="47.26366" lon="-2.31969">
        <ele>1</ele>
        <time>2013-03-03T11:25:28Z</time>
      </trkpt>
      <trkpt lat="47.26362" lon="-2.31961">
        <ele>7</ele>
        <time>2013-03-03T11:25:34Z</time>
      </trkpt>
      <trkpt lat="47.26359" lon="-2.31953">
        <ele>6.9</ele>
        <time>2013-03-03T11:25:35Z</time>
      </trkpt>
      <trkpt lat="47.26358" lon="-2.31951">
        <ele>6.8</ele>
        <time>2013-03-03T11:25:36Z</time>
      </trkpt>
      <trkpt lat="47.26356" lon="-2.31947">
        <ele>6.6</ele>
        <time>2013-03-03T11:25:37Z</time>
      </trkpt>
      <trkpt lat="47.26353" lon="-2.31942">
        <ele>6.4</ele>
        <time>2013-03-03T11:25:43Z</time>
      </trkpt>
      <trkpt lat="47.26343" lon="-2.31935">
        <ele>5.7</ele>
        <time>2013-03-03T11:25:44Z</time>
      </trkpt>
      <trkpt lat="47.26341" lon="-2.31934">
        <ele>5.6</ele>
        <time>2013-03-03T11:25:45Z</time>
      </trkpt>
      <trkpt lat="47.26337" lon="-2.31932">
        <ele>5.3</ele>
        <time>2013-03-03T11:25:51Z</time>
      </trkpt>
      <trkpt lat="47.26326" lon="-2.3193">
        <ele>4.7</ele>
        <time>2013-03-03T11:25:52Z</time>
      </trkpt>
      <trkpt lat="47.26323" lon="-2.3193">
        <ele>4.6</ele>
        <time>2013-03-03T11:25:53Z</time>
      </trkpt>
      <trkpt lat="47.26321" lon="-2.3193">
        <ele>4.5</ele>
        <time>2013-03-03T11:25:54Z</time>
      </trkpt>
      <trkpt lat="47.26313" lon="-2.31924">
        <ele>4.3</ele>
        <time>2013-03-03T11:25:59Z</time>
      </trkpt>
      <trkpt lat="47.26312" lon="-2.31922">
        <ele>4.2</ele>
        <time>2013-03-03T11:26:00Z</time>
      </trkpt>
      <trkpt lat="47.26312" lon="-2.31919">
        <ele>4.2</ele>
        <time>2013-03-03T11:26:01Z</time>
      </trkpt>
      <trkpt lat="47.26312" lon="-2.31916">
        <ele>4.2</ele>
        <time>2013-03-03T11:26:02Z</time>
      </trkpt>
      <trkpt lat="47.2631" lon="-2.31909">
        <ele>4.2</ele>
        <time>2013-03-03T11:26:07Z</time>
      </trkpt>
      <trkpt lat="47.2631" lon="-2.31893">
        <ele>4.1</ele>
        <time>2013-03-03T11:26:08Z</time>
      </trkpt>
      <trkpt lat="47.2631" lon="-2.31889">
        <ele>4.2</ele>
        <time>2013-03-03T11:26:09Z</time>
      </trkpt>
      <trkpt lat="47.26309" lon="-2.31868">
        <ele>4.1</ele>
        <time>2013-03-03T11:26:13Z</time>
      </trkpt>
      <trkpt lat="47.26308" lon="-2.31864">
        <ele>1</ele>
        <time>2013-03-03T11:26:14Z</time>
      </trkpt>
      <trkpt lat="47.26309" lon="-2.3186">
        <ele>1</ele>
        <time>2013-03-03T11:26:15Z</time>
      </trkpt>
      <trkpt lat="47.2631" lon="-2.31856">
        <ele>1</ele>
        <time>2013-03-03T11:26:16Z</time>
      </trkpt>
      <trkpt lat="47.2631" lon="-2.3185">
        <ele>2</ele>
        <time>2013-03-03T11:26:20Z</time>
      </trkpt>
      <trkpt lat="47.2631" lon="-2.31842">
        <ele>2</ele>
        <time>2013-03-03T11:26:21Z</time>
      </trkpt>
      <trkpt lat="47.2631" lon="-2.31837">
        <ele>2</ele>
        <time>2013-03-03T11:26:25Z</time>
      </trkpt>
      <trkpt lat="47.26309" lon="-2.3183">
        <ele>2</ele>
        <time>2013-03-03T11:26:26Z</time>
      </trkpt>
      <trkpt lat="47.26309" lon="-2.31827">
        <ele>2</ele>
        <time>2013-03-03T11:26:27Z</time>
      </trkpt>
      <trkpt lat="47.26309" lon="-2.31826">
        <ele>2</ele>
        <time>2013-03-03T11:26:28Z</time>
      </trkpt>
      <trkpt lat="47.26308" lon="-2.31824">
        <ele>2</ele>
        <time>2013-03-03T11:26:29Z</time>
      </trkpt>
      <trkpt lat="47.26308" lon="-2.31822">
        <ele>2</ele>
        <time>2013-03-03T11:26:34Z</time>
      </trkpt>
      <trkpt lat="47.2631" lon="-2.31823">
        <ele>2</ele>
        <time>2013-03-03T11:26:36Z</time>
      </trkpt>
      <trkpt lat="47.26309" lon="-2.31821">
        <ele>2</ele>
        <time>2013-03-03T11:26:43Z</time>
      </trkpt>
      <trkpt lat="47.26309" lon="-2.31817">
        <ele>2</ele>
        <time>2013-03-03T11:26:48Z</time>
      </trkpt>
      <trkpt lat="47.2631" lon="-2.31806">
        <ele>2</ele>
        <time>2013-03-03T11:26:49Z</time>
      </trkpt>
      <trkpt lat="47.2631" lon="-2.318">
        <ele>2</ele>
        <time>2013-03-03T11:26:53Z</time>
      </trkpt>
      <trkpt lat="47.26309" lon="-2.31789">
        <ele>2</ele>
        <time>2013-03-03T11:26:54Z</time>
      </trkpt>
      <trkpt lat="47.26309" lon="-2.31785">
        <ele>2</ele>
        <time>2013-03-03T11:26:55Z</time>
      </trkpt>
      <trkpt lat="47.26309" lon="-2.31776">
        <ele>2</ele>
        <time>2013-03-03T11:26:58Z</time>
      </trkpt>
      <trkpt lat="47.26308" lon="-2.31764">
        <ele>3</ele>
        <time>2013-03-03T11:26:59Z</time>
      </trkpt>
      <trkpt lat="47.26307" lon="-2.31757">
        <ele>3</ele>
        <time>2013-03-03T11:27:00Z</time>
      </trkpt>
      <trkpt lat="47.26306" lon="-2.31752">
        <ele>3</ele>
        <time>2013-03-03T11:27:01Z</time>
      </trkpt>
      <trkpt lat="47.26304" lon="-2.31741">
        <ele>3</ele>
        <time>2013-03-03T11:27:05Z</time>
      </trkpt>
      <trkpt lat="47.26305" lon="-2.3173">
        <ele>3</ele>
        <time>2013-03-03T11:27:06Z</time>
      </trkpt>
      <trkpt lat="47.26305" lon="-2.31727">
        <ele>3</ele>
        <time>2013-03-03T11:27:07Z</time>
      </trkpt>
      <trkpt lat="47.26306" lon="-2.31725">
        <ele>3</ele>
        <time>2013-03-03T11:27:08Z</time>
      </trkpt>
      <trkpt lat="47.26311" lon="-2.31724">
        <ele>3</ele>
        <time>2013-03-03T11:27:12Z</time>
      </trkpt>
      <trkpt lat="47.26318" lon="-2.31721">
        <ele>3</ele>
        <time>2013-03-03T11:27:13Z</time>
      </trkpt>
      <trkpt lat="47.26321" lon="-2.3172">
        <ele>3</ele>
        <time>2013-03-03T11:27:14Z</time>
      </trkpt>
      <trkpt lat="47.26327" lon="-2.31717">
        <ele>3</ele>
        <time>2013-03-03T11:27:18Z</time>
      </trkpt>
      <trkpt lat="47.26333" lon="-2.31714">
        <ele>3</ele>
        <time>2013-03-03T11:27:19Z</time>
      </trkpt>
      <trkpt lat="47.26335" lon="-2.31712">
        <ele>3</ele>
        <time>2013-03-03T11:27:20Z</time>
      </trkpt>
      <trkpt lat="47.26339" lon="-2.31699">
        <ele>4</ele>
        <time>2013-03-03T11:27:24Z</time>
      </trkpt>
      <trkpt lat="47.26341" lon="-2.31698">
        <ele>5</ele>
        <time>2013-03-03T11:27:25Z</time>
      </trkpt>
      <trkpt lat="47.26344" lon="-2.31697">
        <ele>6</ele>
        <time>2013-03-03T11:27:26Z</time>
      </trkpt>
      <trkpt lat="47.2635" lon="-2.31694">
        <ele>6</ele>
        <time>2013-03-03T11:27:29Z</time>
      </trkpt>
      <trkpt lat="47.26356" lon="-2.31691">
        <ele>6</ele>
        <time>2013-03-03T11:27:30Z</time>
      </trkpt>
      <trkpt lat="47.26359" lon="-2.3169">
        <ele>6</ele>
        <time>2013-03-03T11:27:31Z</time>
      </trkpt>
      <trkpt lat="47.26366" lon="-2.31688">
        <ele>6</ele>
        <time>2013-03-03T11:27:35Z</time>
      </trkpt>
      <trkpt lat="47.26374" lon="-2.31684">
        <ele>7</ele>
        <time>2013-03-03T11:27:36Z</time>
      </trkpt>
      <trkpt lat="47.26377" lon="-2.31682">
        <ele>7</ele>
        <time>2013-03-03T11:27:37Z</time>
      </trkpt>
      <trkpt lat="47.26389" lon="-2.31674">
        <ele>8</ele>
        <time>2013-03-03T11:27:41Z</time>
      </trkpt>
      <trkpt lat="47.26398" lon="-2.31668">
        <ele>8</ele>
        <time>2013-03-03T11:27:45Z</time>
      </trkpt>
      <trkpt lat="47.26402" lon="-2.31665">
        <ele>8</ele>
        <time>2013-03-03T11:27:49Z</time>
      </trkpt>
      <trkpt lat="47.26411" lon="-2.3166">
        <ele>8</ele>
        <time>2013-03-03T11:27:50Z</time>
      </trkpt>
      <trkpt lat="47.26415" lon="-2.31658">
        <ele>8</ele>
        <time>2013-03-03T11:27:51Z</time>
      </trkpt>
      <trkpt lat="47.26421" lon="-2.31656">
        <ele>8</ele>
        <time>2013-03-03T11:27:54Z</time>
      </trkpt>
      <trkpt lat="47.26427" lon="-2.31655">
        <ele>8</ele>
        <time>2013-03-03T11:27:55Z</time>
      </trkpt>
      <trkpt lat="47.2643" lon="-2.31656">
        <ele>8</ele>
        <time>2013-03-03T11:27:56Z</time>
      </trkpt>
      <trkpt lat="47.26433" lon="-2.31657">
        <ele>8</ele>
        <time>2013-03-03T11:27:57Z</time>
      </trkpt>
      <trkpt lat="47.26438" lon="-2.31658">
        <ele>8</ele>
        <time>2013-03-03T11:28:01Z</time>
      </trkpt>
      <trkpt lat="47.26458" lon="-2.31654">
        <ele>8</ele>
        <time>2013-03-03T11:28:06Z</time>
      </trkpt>
      <trkpt lat="47.26461" lon="-2.31654">
        <ele>8</ele>
        <time>2013-03-03T11:28:07Z</time>
      </trkpt>
      <trkpt lat="47.26466" lon="-2.31654">
        <ele>8</ele>
        <time>2013-03-03T11:28:11Z</time>
      </trkpt>
      <trkpt lat="47.26475" lon="-2.31651">
        <ele>8</ele>
        <time>2013-03-03T11:28:15Z</time>
      </trkpt>
      <trkpt lat="47.26485" lon="-2.3165">
        <ele>8</ele>
        <time>2013-03-03T11:28:16Z</time>
      </trkpt>
      <trkpt lat="47.26489" lon="-2.3165">
        <ele>8</ele>
        <time>2013-03-03T11:28:17Z</time>
      </trkpt>
      <trkpt lat="47.26493" lon="-2.31649">
        <ele>8</ele>
        <time>2013-03-03T11:28:18Z</time>
      </trkpt>
      <trkpt lat="47.26501" lon="-2.31647">
        <ele>8</ele>
        <time>2013-03-03T11:28:22Z</time>
      </trkpt>
      <trkpt lat="47.26513" lon="-2.31644">
        <ele>8</ele>
        <time>2013-03-03T11:28:23Z</time>
      </trkpt>
      <trkpt lat="47.26517" lon="-2.31642">
        <ele>9</ele>
        <time>2013-03-03T11:28:24Z</time>
      </trkpt>
      <trkpt lat="47.26525" lon="-2.31638">
        <ele>9</ele>
        <time>2013-03-03T11:28:28Z</time>
      </trkpt>
      <trkpt lat="47.26532" lon="-2.31634">
        <ele>10</ele>
        <time>2013-03-03T11:28:28Z</time>
      </trkpt>
      <trkpt lat="47.26535" lon="-2.31632">
        <ele>11</ele>
        <time>2013-03-03T11:28:29Z</time>
      </trkpt>
      <trkpt lat="47.26542" lon="-2.31629">
        <ele>12</ele>
        <time>2013-03-03T11:28:33Z</time>
      </trkpt>
      <trkpt lat="47.26552" lon="-2.31624">
        <ele>13</ele>
        <time>2013-03-03T11:28:34Z</time>
      </trkpt>
      <trkpt lat="47.26555" lon="-2.31622">
        <ele>14</ele>
        <time>2013-03-03T11:28:35Z</time>
      </trkpt>
      <trkpt lat="47.26561" lon="-2.31618">
        <ele>15</ele>
        <time>2013-03-03T11:28:39Z</time>
      </trkpt>
      <trkpt lat="47.26571" lon="-2.31612">
        <ele>16</ele>
        <time>2013-03-03T11:28:40Z</time>
      </trkpt>
      <trkpt lat="47.26574" lon="-2.31609">
        <ele>17</ele>
        <time>2013-03-03T11:28:41Z</time>
      </trkpt>
      <trkpt lat="47.2658" lon="-2.31604">
        <ele>18</ele>
        <time>2013-03-03T11:28:45Z</time>
      </trkpt>
      <trkpt lat="47.26587" lon="-2.31599">
        <ele>19</ele>
        <time>2013-03-03T11:28:45Z</time>
      </trkpt>
      <trkpt lat="47.2659" lon="-2.31597">
        <ele>20</ele>
        <time>2013-03-03T11:28:46Z</time>
      </trkpt>
      <trkpt lat="47.26596" lon="-2.31592">
        <ele>20</ele>
        <time>2013-03-03T11:28:50Z</time>
      </trkpt>
      <trkpt lat="47.26604" lon="-2.31587">
        <ele>20</ele>
        <time>2013-03-03T11:28:51Z</time>
      </trkpt>
      <trkpt lat="47.26607" lon="-2.31585">
        <ele>21</ele>
        <time>2013-03-03T11:28:52Z</time>
      </trkpt>
      <trkpt lat="47.26613" lon="-2.31581">
        <ele>21</ele>
        <time>2013-03-03T11:28:56Z</time>
      </trkpt>
      <trkpt lat="47.26621" lon="-2.31575">
        <ele>22</ele>
        <time>2013-03-03T11:28:57Z</time>
      </trkpt>
      <trkpt lat="47.26624" lon="-2.31574">
        <ele>23</ele>
        <time>2013-03-03T11:28:58Z</time>
      </trkpt>
      <trkpt lat="47.26628" lon="-2.31571">
        <ele>24</ele>
        <time>2013-03-03T11:29:02Z</time>
      </trkpt>
      <trkpt lat="47.26633" lon="-2.31567">
        <ele>25</ele>
        <time>2013-03-03T11:29:02Z</time>
      </trkpt>
      <trkpt lat="47.26633" lon="-2.31566">
        <ele>26</ele>
        <time>2013-03-03T11:29:03Z</time>
      </trkpt>
      <trkpt lat="47.26635" lon="-2.31564">
        <ele>26</ele>
        <time>2013-03-03T11:29:08Z</time>
      </trkpt>
      <trkpt lat="47.26635" lon="-2.31562">
        <ele>26</ele>
        <time>2013-03-03T11:29:10Z</time>
      </trkpt>
      <trkpt lat="47.26635" lon="-2.3156">
        <ele>26</ele>
        <time>2013-03-03T11:29:17Z</time>
      </trkpt>
      <trkpt lat="47.26635" lon="-2.31558">
        <ele>24</ele>
        <time>2013-03-03T11:29:26Z</time>
      </trkpt>
      <trkpt lat="47.26634" lon="-2.31556">
        <ele>23</ele>
        <time>2013-03-03T11:29:30Z</time>
      </trkpt>
      <trkpt lat="47.26634" lon="-2.31553">
        <ele>21</ele>
        <time>2013-03-03T11:29:42Z</time>
      </trkpt>
      <trkpt lat="47.26627" lon="-2.31536">
        <ele>21</ele>
        <time>2013-03-03T11:29:47Z</time>
      </trkpt>
      <trkpt lat="47.26625" lon="-2.31531">
        <ele>21</ele>
        <time>2013-03-03T11:29:48Z</time>
      </trkpt>
      <trkpt lat="47.26623" lon="-2.31527">
        <ele>20</ele>
        <time>2013-03-03T11:29:49Z</time>
      </trkpt>
      <trkpt lat="47.26619" lon="-2.31519">
        <ele>19</ele>
        <time>2013-03-03T11:29:53Z</time>
      </trkpt>
      <trkpt lat="47.26613" lon="-2.31507">
        <ele>18</ele>
        <time>2013-03-03T11:29:54Z</time>
      </trkpt>
      <trkpt lat="47.26611" lon="-2.31504">
        <ele>17</ele>
        <time>2013-03-03T11:29:55Z</time>
      </trkpt>
      <trkpt lat="47.26608" lon="-2.31498">
        <ele>16</ele>
        <time>2013-03-03T11:29:59Z</time>
      </trkpt>
      <trkpt lat="47.26606" lon="-2.31487">
        <ele>15</ele>
        <time>2013-03-03T11:30:00Z</time>
      </trkpt>
      <trkpt lat="47.26608" lon="-2.31485">
        <ele>14</ele>
        <time>2013-03-03T11:30:01Z</time>
      </trkpt>
      <trkpt lat="47.2661" lon="-2.31482">
        <ele>13</ele>
        <time>2013-03-03T11:30:02Z</time>
      </trkpt>
      <trkpt lat="47.26626" lon="-2.31468">
        <ele>13</ele>
        <time>2013-03-03T11:30:07Z</time>
      </trkpt>
      <trkpt lat="47.2663" lon="-2.31466">
        <ele>13</ele>
        <time>2013-03-03T11:30:08Z</time>
      </trkpt>
      <trkpt lat="47.26637" lon="-2.3146">
        <ele>13</ele>
        <time>2013-03-03T11:30:12Z</time>
      </trkpt>
      <trkpt lat="47.26647" lon="-2.31453">
        <ele>13</ele>
        <time>2013-03-03T11:30:13Z</time>
      </trkpt>
      <trkpt lat="47.2665" lon="-2.31451">
        <ele>13</ele>
        <time>2013-03-03T11:30:14Z</time>
      </trkpt>
      <trkpt lat="47.26662" lon="-2.31446">
        <ele>14</ele>
        <time>2013-03-03T11:30:18Z</time>
      </trkpt>
      <trkpt lat="47.26664" lon="-2.31445">
        <ele>15</ele>
        <time>2013-03-03T11:30:19Z</time>
      </trkpt>
      <trkpt lat="47.26667" lon="-2.31443">
        <ele>16</ele>
        <time>2013-03-03T11:30:20Z</time>
      </trkpt>
      <trkpt lat="47.26671" lon="-2.31441">
        <ele>17</ele>
        <time>2013-03-03T11:30:24Z</time>
      </trkpt>
      <trkpt lat="47.26678" lon="-2.31437">
        <ele>18</ele>
        <time>2013-03-03T11:30:25Z</time>
      </trkpt>
      <trkpt lat="47.2668" lon="-2.31436">
        <ele>19</ele>
        <time>2013-03-03T11:30:26Z</time>
      </trkpt>
      <trkpt lat="47.26685" lon="-2.31434">
        <ele>20</ele>
        <time>2013-03-03T11:30:30Z</time>
      </trkpt>
      <trkpt lat="47.26691" lon="-2.31431">
        <ele>21</ele>
        <time>2013-03-03T11:30:31Z</time>
      </trkpt>
      <trkpt lat="47.26693" lon="-2.3143">
        <ele>22</ele>
        <time>2013-03-03T11:30:32Z</time>
      </trkpt>
      <trkpt lat="47.26704" lon="-2.31424">
        <ele>23</ele>
        <time>2013-03-03T11:30:36Z</time>
      </trkpt>
      <trkpt lat="47.26707" lon="-2.31423">
        <ele>24</ele>
        <time>2013-03-03T11:30:37Z</time>
      </trkpt>
      <trkpt lat="47.26712" lon="-2.3142">
        <ele>25</ele>
        <time>2013-03-03T11:30:41Z</time>
      </trkpt>
      <trkpt lat="47.2672" lon="-2.31415">
        <ele>26</ele>
        <time>2013-03-03T11:30:42Z</time>
      </trkpt>
      <trkpt lat="47.26721" lon="-2.31413">
        <ele>27</ele>
        <time>2013-03-03T11:30:43Z</time>
      </trkpt>
      <trkpt lat="47.26723" lon="-2.31411">
        <ele>28</ele>
        <time>2013-03-03T11:30:44Z</time>
      </trkpt>
      <trkpt lat="47.26735" lon="-2.31403">
        <ele>28</ele>
        <time>2013-03-03T11:30:49Z</time>
      </trkpt>
      <trkpt lat="47.26737" lon="-2.31401">
        <ele>29</ele>
        <time>2013-03-03T11:30:50Z</time>
      </trkpt>
      <trkpt lat="47.26739" lon="-2.314">
        <ele>29</ele>
        <time>2013-03-03T11:30:51Z</time>
      </trkpt>
      <trkpt lat="47.26747" lon="-2.31397">
        <ele>29</ele>
        <time>2013-03-03T11:30:55Z</time>
      </trkpt>
      <trkpt lat="47.26749" lon="-2.31396">
        <ele>29</ele>
        <time>2013-03-03T11:30:56Z</time>
      </trkpt>
      <trkpt lat="47.26751" lon="-2.31394">
        <ele>30</ele>
        <time>2013-03-03T11:30:57Z</time>
      </trkpt>
      <trkpt lat="47.26752" lon="-2.31393">
        <ele>30</ele>
        <time>2013-03-03T11:30:58Z</time>
      </trkpt>
      <trkpt lat="47.26758" lon="-2.31391">
        <ele>30</ele>
        <time>2013-03-03T11:31:02Z</time>
      </trkpt>
      <trkpt lat="47.26765" lon="-2.31387">
        <ele>30</ele>
        <time>2013-03-03T11:31:03Z</time>
      </trkpt>
      <trkpt lat="47.26767" lon="-2.31386">
        <ele>30</ele>
        <time>2013-03-03T11:31:04Z</time>
      </trkpt>
      <trkpt lat="47.2677" lon="-2.31384">
        <ele>31</ele>
        <time>2013-03-03T11:31:08Z</time>
      </trkpt>
      <trkpt lat="47.26778" lon="-2.3138">
        <ele>31</ele>
        <time>2013-03-03T11:31:09Z</time>
      </trkpt>
      <trkpt lat="47.26781" lon="-2.31378">
        <ele>32</ele>
        <time>2013-03-03T11:31:10Z</time>
      </trkpt>
      <trkpt lat="47.26794" lon="-2.3137">
        <ele>32</ele>
        <time>2013-03-03T11:31:14Z</time>
      </trkpt>
      <trkpt lat="47.26797" lon="-2.31368">
        <ele>32</ele>
        <time>2013-03-03T11:31:15Z</time>
      </trkpt>
      <trkpt lat="47.26803" lon="-2.31364">
        <ele>33</ele>
        <time>2013-03-03T11:31:19Z</time>
      </trkpt>
      <trkpt lat="47.26813" lon="-2.31357">
        <ele>33</ele>
        <time>2013-03-03T11:31:20Z</time>
      </trkpt>
      <trkpt lat="47.26816" lon="-2.31355">
        <ele>33</ele>
        <time>2013-03-03T11:31:21Z</time>
      </trkpt>
      <trkpt lat="47.26822" lon="-2.31352">
        <ele>33</ele>
        <time>2013-03-03T11:31:25Z</time>
      </trkpt>
      <trkpt lat="47.26829" lon="-2.31349">
        <ele>33</ele>
        <time>2013-03-03T11:31:26Z</time>
      </trkpt>
      <trkpt lat="47.2683" lon="-2.31348">
        <ele>33</ele>
        <time>2013-03-03T11:31:27Z</time>
      </trkpt>
      <trkpt lat="47.26829" lon="-2.31347">
        <ele>33</ele>
        <time>2013-03-03T11:31:39Z</time>
      </trkpt>
      <trkpt lat="47.26829" lon="-2.31345">
        <ele>33</ele>
        <time>2013-03-03T11:31:49Z</time>
      </trkpt>
      <trkpt lat="47.26828" lon="-2.31344">
        <ele>33</ele>
        <time>2013-03-03T11:31:56Z</time>
      </trkpt>
      <trkpt lat="47.2683" lon="-2.31345">
        <ele>33</ele>
        <time>2013-03-03T11:32:08Z</time>
      </trkpt>
      <trkpt lat="47.26831" lon="-2.31343">
        <ele>33</ele>
        <time>2013-03-03T11:32:09Z</time>
      </trkpt>
      <trkpt lat="47.26832" lon="-2.3134">
        <ele>33</ele>
        <time>2013-03-03T11:32:10Z</time>
      </trkpt>
      <trkpt lat="47.26834" lon="-2.31332">
        <ele>33</ele>
        <time>2013-03-03T11:32:14Z</time>
      </trkpt>
      <trkpt lat="47.26838" lon="-2.31317">
        <ele>33</ele>
        <time>2013-03-03T11:32:15Z</time>
      </trkpt>
      <trkpt lat="47.26839" lon="-2.31312">
        <ele>33</ele>
        <time>2013-03-03T11:32:16Z</time>
      </trkpt>
      <trkpt lat="47.26842" lon="-2.313">
        <ele>33</ele>
        <time>2013-03-03T11:32:20Z</time>
      </trkpt>
      <trkpt lat="47.26845" lon="-2.31283">
        <ele>33</ele>
        <time>2013-03-03T11:32:21Z</time>
      </trkpt>
      <trkpt lat="47.26846" lon="-2.31278">
        <ele>33</ele>
        <time>2013-03-03T11:32:22Z</time>
      </trkpt>
      <trkpt lat="47.26846" lon="-2.31269">
        <ele>33</ele>
        <time>2013-03-03T11:32:26Z</time>
      </trkpt>
      <trkpt lat="47.26848" lon="-2.31251">
        <ele>33</ele>
        <time>2013-03-03T11:32:27Z</time>
      </trkpt>
      <trkpt lat="47.26848" lon="-2.31244">
        <ele>33</ele>
        <time>2013-03-03T11:32:28Z</time>
      </trkpt>
      <trkpt lat="47.26849" lon="-2.31231">
        <ele>33</ele>
        <time>2013-03-03T11:32:32Z</time>
      </trkpt>
      <trkpt lat="47.2685" lon="-2.3121">
        <ele>33</ele>
        <time>2013-03-03T11:32:33Z</time>
      </trkpt>
      <trkpt lat="47.26851" lon="-2.31203">
        <ele>33</ele>
        <time>2013-03-03T11:32:34Z</time>
      </trkpt>
      <trkpt lat="47.26852" lon="-2.31175">
        <ele>33</ele>
        <time>2013-03-03T11:32:38Z</time>
      </trkpt>
      <trkpt lat="47.26853" lon="-2.31168">
        <ele>33</ele>
        <time>2013-03-03T11:32:39Z</time>
      </trkpt>
      <trkpt lat="47.26853" lon="-2.3116">
        <ele>33</ele>
        <time>2013-03-03T11:32:40Z</time>
      </trkpt>
      <trkpt lat="47.26855" lon="-2.31134">
        <ele>33</ele>
        <time>2013-03-03T11:32:44Z</time>
      </trkpt>
      <trkpt lat="47.26855" lon="-2.31128">
        <ele>33</ele>
        <time>2013-03-03T11:32:45Z</time>
      </trkpt>
      <trkpt lat="47.26854" lon="-2.31122">
        <ele>33</ele>
        <time>2013-03-03T11:32:46Z</time>
      </trkpt>
      <trkpt lat="47.26854" lon="-2.31112">
        <ele>33</ele>
        <time>2013-03-03T11:32:50Z</time>
      </trkpt>
      <trkpt lat="47.26853" lon="-2.31102">
        <ele>33</ele>
        <time>2013-03-03T11:32:51Z</time>
      </trkpt>
      <trkpt lat="47.26853" lon="-2.31101">
        <ele>32</ele>
        <time>2013-03-03T11:32:52Z</time>
      </trkpt>
      <trkpt lat="47.26852" lon="-2.31095">
        <ele>28</ele>
        <time>2013-03-03T11:32:59Z</time>
      </trkpt>
      <trkpt lat="47.26852" lon="-2.31093">
        <ele>27</ele>
        <time>2013-03-03T11:33:00Z</time>
      </trkpt>
      <trkpt lat="47.26852" lon="-2.3109">
        <ele>26</ele>
        <time>2013-03-03T11:33:01Z</time>
      </trkpt>
      <trkpt lat="47.26853" lon="-2.31086">
        <ele>26</ele>
        <time>2013-03-03T11:33:02Z</time>
      </trkpt>
      <trkpt lat="47.26852" lon="-2.31072">
        <ele>25</ele>
        <time>2013-03-03T11:33:06Z</time>
      </trkpt>
      <trkpt lat="47.26851" lon="-2.31045">
        <ele>25</ele>
        <time>2013-03-03T11:33:07Z</time>
      </trkpt>
      <trkpt lat="47.26851" lon="-2.31036">
        <ele>25</ele>
        <time>2013-03-03T11:33:08Z</time>
      </trkpt>
      <trkpt lat="47.26849" lon="-2.31001">
        <ele>25</ele>
        <time>2013-03-03T11:33:12Z</time>
      </trkpt>
      <trkpt lat="47.26849" lon="-2.30994">
        <ele>25</ele>
        <time>2013-03-03T11:33:13Z</time>
      </trkpt>
      <trkpt lat="47.26848" lon="-2.30987">
        <ele>25</ele>
        <time>2013-03-03T11:33:14Z</time>
      </trkpt>
      <trkpt lat="47.26847" lon="-2.30974">
        <ele>25</ele>
        <time>2013-03-03T11:33:18Z</time>
      </trkpt>
      <trkpt lat="47.26844" lon="-2.30955">
        <ele>25</ele>
        <time>2013-03-03T11:33:19Z</time>
      </trkpt>
      <trkpt lat="47.26843" lon="-2.30948">
        <ele>25</ele>
        <time>2013-03-03T11:33:20Z</time>
      </trkpt>
      <trkpt lat="47.26841" lon="-2.30936">
        <ele>25</ele>
        <time>2013-03-03T11:33:24Z</time>
      </trkpt>
      <trkpt lat="47.26836" lon="-2.30917">
        <ele>25</ele>
        <time>2013-03-03T11:33:25Z</time>
      </trkpt>
      <trkpt lat="47.26835" lon="-2.30912">
        <ele>25</ele>
        <time>2013-03-03T11:33:26Z</time>
      </trkpt>
      <trkpt lat="47.26833" lon="-2.30901">
        <ele>25</ele>
        <time>2013-03-03T11:33:30Z</time>
      </trkpt>
      <trkpt lat="47.26832" lon="-2.30882">
        <ele>25</ele>
        <time>2013-03-03T11:33:31Z</time>
      </trkpt>
      <trkpt lat="47.26832" lon="-2.30876">
        <ele>25</ele>
        <time>2013-03-03T11:33:32Z</time>
      </trkpt>
      <trkpt lat="47.26832" lon="-2.30863">
        <ele>25</ele>
        <time>2013-03-03T11:33:36Z</time>
      </trkpt>
      <trkpt lat="47.26831" lon="-2.30845">
        <ele>25</ele>
        <time>2013-03-03T11:33:37Z</time>
      </trkpt>
      <trkpt lat="47.26831" lon="-2.30839">
        <ele>25</ele>
        <time>2013-03-03T11:33:38Z</time>
      </trkpt>
      <trkpt lat="47.26831" lon="-2.30827">
        <ele>25</ele>
        <time>2013-03-03T11:33:42Z</time>
      </trkpt>
      <trkpt lat="47.26831" lon="-2.30813">
        <ele>25</ele>
        <time>2013-03-03T11:33:43Z</time>
      </trkpt>
      <trkpt lat="47.26832" lon="-2.30808">
        <ele>25</ele>
        <time>2013-03-03T11:33:44Z</time>
      </trkpt>
      <trkpt lat="47.2683" lon="-2.30798">
        <ele>25</ele>
        <time>2013-03-03T11:33:48Z</time>
      </trkpt>
      <trkpt lat="47.26823" lon="-2.30795">
        <ele>24</ele>
        <time>2013-03-03T11:33:49Z</time>
      </trkpt>
      <trkpt lat="47.26819" lon="-2.30796">
        <ele>24</ele>
        <time>2013-03-03T11:33:50Z</time>
      </trkpt>
      <trkpt lat="47.26815" lon="-2.30799">
        <ele>24</ele>
        <time>2013-03-03T11:33:51Z</time>
      </trkpt>
      <trkpt lat="47.26808" lon="-2.30805">
        <ele>24</ele>
        <time>2013-03-03T11:33:55Z</time>
      </trkpt>
      <trkpt lat="47.26797" lon="-2.30816">
        <ele>24</ele>
        <time>2013-03-03T11:33:56Z</time>
      </trkpt>
      <trkpt lat="47.26793" lon="-2.3082">
        <ele>24</ele>
        <time>2013-03-03T11:33:57Z</time>
      </trkpt>
      <trkpt lat="47.26786" lon="-2.30827">
        <ele>24</ele>
        <time>2013-03-03T11:34:01Z</time>
      </trkpt>
      <trkpt lat="47.26775" lon="-2.3084">
        <ele>24</ele>
        <time>2013-03-03T11:34:02Z</time>
      </trkpt>
      <trkpt lat="47.26772" lon="-2.30843">
        <ele>23</ele>
        <time>2013-03-03T11:34:03Z</time>
      </trkpt>
      <trkpt lat="47.26766" lon="-2.30847">
        <ele>22</ele>
        <time>2013-03-03T11:34:07Z</time>
      </trkpt>
      <trkpt lat="47.26756" lon="-2.30856">
        <ele>21</ele>
        <time>2013-03-03T11:34:08Z</time>
      </trkpt>
      <trkpt lat="47.26752" lon="-2.3086">
        <ele>20</ele>
        <time>2013-03-03T11:34:09Z</time>
      </trkpt>
      <trkpt lat="47.26743" lon="-2.30862">
        <ele>20</ele>
        <time>2013-03-03T11:34:13Z</time>
      </trkpt>
      <trkpt lat="47.26733" lon="-2.30851">
        <ele>20</ele>
        <time>2013-03-03T11:34:14Z</time>
      </trkpt>
      <trkpt lat="47.2673" lon="-2.30847">
        <ele>20</ele>
        <time>2013-03-03T11:34:15Z</time>
      </trkpt>
      <trkpt lat="47.26727" lon="-2.30842">
        <ele>20</ele>
        <time>2013-03-03T11:34:16Z</time>
      </trkpt>
      <trkpt lat="47.26721" lon="-2.30833">
        <ele>20</ele>
        <time>2013-03-03T11:34:20Z</time>
      </trkpt>
      <trkpt lat="47.26713" lon="-2.30818">
        <ele>20</ele>
        <time>2013-03-03T11:34:21Z</time>
      </trkpt>
      <trkpt lat="47.2671" lon="-2.30812">
        <ele>20</ele>
        <time>2013-03-03T11:34:22Z</time>
      </trkpt>
      <trkpt lat="47.26705" lon="-2.30801">
        <ele>20</ele>
        <time>2013-03-03T11:34:26Z</time>
      </trkpt>
      <trkpt lat="47.26699" lon="-2.30783">
        <ele>20</ele>
        <time>2013-03-03T11:34:27Z</time>
      </trkpt>
      <trkpt lat="47.26696" lon="-2.30777">
        <ele>20</ele>
        <time>2013-03-03T11:34:28Z</time>
      </trkpt>
      <trkpt lat="47.2669" lon="-2.30762">
        <ele>20</ele>
        <time>2013-03-03T11:34:32Z</time>
      </trkpt>
      <trkpt lat="47.2668" lon="-2.3074">
        <ele>20</ele>
        <time>2013-03-03T11:34:33Z</time>
      </trkpt>
      <trkpt lat="47.26677" lon="-2.30732">
        <ele>20</ele>
        <time>2013-03-03T11:34:34Z</time>
      </trkpt>
      <trkpt lat="47.2667" lon="-2.30717">
        <ele>19</ele>
        <time>2013-03-03T11:34:38Z</time>
      </trkpt>
      <trkpt lat="47.26664" lon="-2.30703">
        <ele>19</ele>
        <time>2013-03-03T11:34:39Z</time>
      </trkpt>
      <trkpt lat="47.26662" lon="-2.30698">
        <ele>19</ele>
        <time>2013-03-03T11:34:40Z</time>
      </trkpt>
      <trkpt lat="47.26658" lon="-2.30692">
        <ele>18</ele>
        <time>2013-03-03T11:34:44Z</time>
      </trkpt>
      <trkpt lat="47.26652" lon="-2.30692">
        <ele>18</ele>
        <time>2013-03-03T11:34:45Z</time>
      </trkpt>
      <trkpt lat="47.26651" lon="-2.30694">
        <ele>17</ele>
        <time>2013-03-03T11:34:46Z</time>
      </trkpt>
      <trkpt lat="47.26648" lon="-2.30698">
        <ele>17</ele>
        <time>2013-03-03T11:34:51Z</time>
      </trkpt>
      <trkpt lat="47.26646" lon="-2.30703">
        <ele>16</ele>
        <time>2013-03-03T11:34:52Z</time>
      </trkpt>
      <trkpt lat="47.26642" lon="-2.30718">
        <ele>16</ele>
        <time>2013-03-03T11:34:57Z</time>
      </trkpt>
      <trkpt lat="47.2664" lon="-2.3072">
        <ele>15</ele>
        <time>2013-03-03T11:34:58Z</time>
      </trkpt>
      <trkpt lat="47.26638" lon="-2.30721">
        <ele>15</ele>
        <time>2013-03-03T11:34:59Z</time>
      </trkpt>
      <trkpt lat="47.26635" lon="-2.30722">
        <ele>14</ele>
        <time>2013-03-03T11:35:00Z</time>
      </trkpt>
      <trkpt lat="47.26631" lon="-2.30728">
        <ele>13</ele>
        <time>2013-03-03T11:35:04Z</time>
      </trkpt>
      <trkpt lat="47.26623" lon="-2.30737">
        <ele>12</ele>
        <time>2013-03-03T11:35:05Z</time>
      </trkpt>
      <trkpt lat="47.2662" lon="-2.30739">
        <ele>12</ele>
        <time>2013-03-03T11:35:06Z</time>
      </trkpt>
      <trkpt lat="47.26616" lon="-2.30747">
        <ele>12</ele>
        <time>2013-03-03T11:35:10Z</time>
      </trkpt>
      <trkpt lat="47.26612" lon="-2.30756">
        <ele>12</ele>
        <time>2013-03-03T11:35:11Z</time>
      </trkpt>
      <trkpt lat="47.26609" lon="-2.30759">
        <ele>12</ele>
        <time>2013-03-03T11:35:12Z</time>
      </trkpt>
      <trkpt lat="47.26606" lon="-2.30766">
        <ele>12</ele>
        <time>2013-03-03T11:35:16Z</time>
      </trkpt>
      <trkpt lat="47.26597" lon="-2.30779">
        <ele>12</ele>
        <time>2013-03-03T11:35:17Z</time>
      </trkpt>
      <trkpt lat="47.26594" lon="-2.30784">
        <ele>12</ele>
        <time>2013-03-03T11:35:18Z</time>
      </trkpt>
      <trkpt lat="47.26584" lon="-2.30797">
        <ele>12</ele>
        <time>2013-03-03T11:35:22Z</time>
      </trkpt>
      <trkpt lat="47.26569" lon="-2.30818">
        <ele>12</ele>
        <time>2013-03-03T11:35:23Z</time>
      </trkpt>
      <trkpt lat="47.26566" lon="-2.30823">
        <ele>12</ele>
        <time>2013-03-03T11:35:24Z</time>
      </trkpt>
      <trkpt lat="47.2656" lon="-2.3083">
        <ele>11</ele>
        <time>2013-03-03T11:35:28Z</time>
      </trkpt>
      <trkpt lat="47.26554" lon="-2.30836">
        <ele>10</ele>
        <time>2013-03-03T11:35:29Z</time>
      </trkpt>
      <trkpt lat="47.26552" lon="-2.30838">
        <ele>9</ele>
        <time>2013-03-03T11:35:30Z</time>
      </trkpt>
      <trkpt lat="47.26546" lon="-2.30845">
        <ele>9</ele>
        <time>2013-03-03T11:35:34Z</time>
      </trkpt>
      <trkpt lat="47.26539" lon="-2.30857">
        <ele>9</ele>
        <time>2013-03-03T11:35:35Z</time>
      </trkpt>
      <trkpt lat="47.26537" lon="-2.30861">
        <ele>8</ele>
        <time>2013-03-03T11:35:36Z</time>
      </trkpt>
      <trkpt lat="47.26533" lon="-2.30862">
        <ele>8</ele>
        <time>2013-03-03T11:35:37Z</time>
      </trkpt>
      <trkpt lat="47.26532" lon="-2.30863">
        <ele>8</ele>
        <time>2013-03-03T11:35:38Z</time>
      </trkpt>
      <trkpt lat="47.26528" lon="-2.30864">
        <ele>8</ele>
        <time>2013-03-03T11:35:43Z</time>
      </trkpt>
      <trkpt lat="47.26518" lon="-2.3087">
        <ele>8</ele>
        <time>2013-03-03T11:35:44Z</time>
      </trkpt>
      <trkpt lat="47.26509" lon="-2.30878">
        <ele>8</ele>
        <time>2013-03-03T11:35:49Z</time>
      </trkpt>
      <trkpt lat="47.26506" lon="-2.30876">
        <ele>8</ele>
        <time>2013-03-03T11:35:51Z</time>
      </trkpt>
      <trkpt lat="47.26505" lon="-2.30877">
        <ele>9</ele>
        <time>2013-03-03T11:35:52Z</time>
      </trkpt>
      <trkpt lat="47.26503" lon="-2.30876">
        <ele>10</ele>
        <time>2013-03-03T11:35:56Z</time>
      </trkpt>
      <trkpt lat="47.265" lon="-2.30873">
        <ele>10</ele>
        <time>2013-03-03T11:35:57Z</time>
      </trkpt>
      <trkpt lat="47.26499" lon="-2.30872">
        <ele>10</ele>
        <time>2013-03-03T11:35:58Z</time>
      </trkpt>
      <trkpt lat="47.26497" lon="-2.30871">
        <ele>10</ele>
        <time>2013-03-03T11:35:59Z</time>
      </trkpt>
      <trkpt lat="47.26495" lon="-2.30868">
        <ele>10</ele>
        <time>2013-03-03T11:36:04Z</time>
      </trkpt>
      <trkpt lat="47.26493" lon="-2.30861">
        <ele>10</ele>
        <time>2013-03-03T11:36:05Z</time>
      </trkpt>
      <trkpt lat="47.26488" lon="-2.30852">
        <ele>10</ele>
        <time>2013-03-03T11:36:10Z</time>
      </trkpt>
      <trkpt lat="47.26488" lon="-2.3085">
        <ele>10</ele>
        <time>2013-03-03T11:36:11Z</time>
      </trkpt>
      <trkpt lat="47.26487" lon="-2.30848">
        <ele>11</ele>
        <time>2013-03-03T11:36:12Z</time>
      </trkpt>
      <trkpt lat="47.26484" lon="-2.30843">
        <ele>12</ele>
        <time>2013-03-03T11:36:17Z</time>
      </trkpt>
      <trkpt lat="47.26481" lon="-2.30834">
        <ele>13</ele>
        <time>2013-03-03T11:36:18Z</time>
      </trkpt>
      <trkpt lat="47.2648" lon="-2.30832">
        <ele>14</ele>
        <time>2013-03-03T11:36:19Z</time>
      </trkpt>
      <trkpt lat="47.2648" lon="-2.3083">
        <ele>14</ele>
        <time>2013-03-03T11:36:20Z</time>
      </trkpt>
      <trkpt lat="47.26479" lon="-2.30825">
        <ele>14</ele>
        <time>2013-03-03T11:36:24Z</time>
      </trkpt>
      <trkpt lat="47.26476" lon="-2.30818">
        <ele>14</ele>
        <time>2013-03-03T11:36:25Z</time>
      </trkpt>
      <trkpt lat="47.26474" lon="-2.30816">
        <ele>14</ele>
        <time>2013-03-03T11:36:26Z</time>
      </trkpt>
      <trkpt lat="47.26472" lon="-2.30814">
        <ele>14</ele>
        <time>2013-03-03T11:36:27Z</time>
      </trkpt>
      <trkpt lat="47.2647" lon="-2.30808">
        <ele>13</ele>
        <time>2013-03-03T11:36:31Z</time>
      </trkpt>
      <trkpt lat="47.26466" lon="-2.30802">
        <ele>12</ele>
        <time>2013-03-03T11:36:32Z</time>
      </trkpt>
      <trkpt lat="47.26464" lon="-2.30797">
        <ele>11</ele>
        <time>2013-03-03T11:36:33Z</time>
      </trkpt>
      <trkpt lat="47.26462" lon="-2.30794">
        <ele>11</ele>
        <time>2013-03-03T11:36:34Z</time>
      </trkpt>
      <trkpt lat="47.26459" lon="-2.30787">
        <ele>10</ele>
        <time>2013-03-03T11:36:38Z</time>
      </trkpt>
      <trkpt lat="47.26454" lon="-2.30777">
        <ele>9</ele>
        <time>2013-03-03T11:36:39Z</time>
      </trkpt>
      <trkpt lat="47.26452" lon="-2.30773">
        <ele>9</ele>
        <time>2013-03-03T11:36:40Z</time>
      </trkpt>
      <trkpt lat="47.26451" lon="-2.30768">
        <ele>9</ele>
        <time>2013-03-03T11:36:44Z</time>
      </trkpt>
      <trkpt lat="47.26448" lon="-2.3076">
        <ele>9</ele>
        <time>2013-03-03T11:36:45Z</time>
      </trkpt>
      <trkpt lat="47.26448" lon="-2.30755">
        <ele>9</ele>
        <time>2013-03-03T11:36:46Z</time>
      </trkpt>
      <trkpt lat="47.26447" lon="-2.30752">
        <ele>9</ele>
        <time>2013-03-03T11:36:47Z</time>
      </trkpt>
      <trkpt lat="47.26445" lon="-2.30744">
        <ele>9</ele>
        <time>2013-03-03T11:36:52Z</time>
      </trkpt>
      <trkpt lat="47.26439" lon="-2.30729">
        <ele>9</ele>
        <time>2013-03-03T11:36:53Z</time>
      </trkpt>
      <trkpt lat="47.26437" lon="-2.30725">
        <ele>9</ele>
        <time>2013-03-03T11:36:54Z</time>
      </trkpt>
      <trkpt lat="47.26435" lon="-2.3072">
        <ele>9</ele>
        <time>2013-03-03T11:36:55Z</time>
      </trkpt>
      <trkpt lat="47.26432" lon="-2.30713">
        <ele>9</ele>
        <time>2013-03-03T11:36:59Z</time>
      </trkpt>
      <trkpt lat="47.26426" lon="-2.30703">
        <ele>9</ele>
        <time>2013-03-03T11:37:00Z</time>
      </trkpt>
      <trkpt lat="47.26425" lon="-2.307">
        <ele>9</ele>
        <time>2013-03-03T11:37:01Z</time>
      </trkpt>
      <trkpt lat="47.26423" lon="-2.30693">
        <ele>9</ele>
        <time>2013-03-03T11:37:05Z</time>
      </trkpt>
      <trkpt lat="47.2642" lon="-2.30682">
        <ele>9</ele>
        <time>2013-03-03T11:37:06Z</time>
      </trkpt>
      <trkpt lat="47.26418" lon="-2.30679">
        <ele>9</ele>
        <time>2013-03-03T11:37:07Z</time>
      </trkpt>
      <trkpt lat="47.26414" lon="-2.30672">
        <ele>9</ele>
        <time>2013-03-03T11:37:11Z</time>
      </trkpt>
      <trkpt lat="47.26408" lon="-2.30663">
        <ele>9</ele>
        <time>2013-03-03T11:37:12Z</time>
      </trkpt>
      <trkpt lat="47.26407" lon="-2.30661">
        <ele>9</ele>
        <time>2013-03-03T11:37:13Z</time>
      </trkpt>
      <trkpt lat="47.26404" lon="-2.30659">
        <ele>9</ele>
        <time>2013-03-03T11:37:14Z</time>
      </trkpt>
      <trkpt lat="47.26399" lon="-2.30656">
        <ele>9</ele>
        <time>2013-03-03T11:37:18Z</time>
      </trkpt>
      <trkpt lat="47.26395" lon="-2.30651">
        <ele>9</ele>
        <time>2013-03-03T11:37:19Z</time>
      </trkpt>
      <trkpt lat="47.26394" lon="-2.3065">
        <ele>9</ele>
        <time>2013-03-03T11:37:20Z</time>
      </trkpt>
      <trkpt lat="47.26392" lon="-2.30649">
        <ele>9</ele>
        <time>2013-03-03T11:37:21Z</time>
      </trkpt>
      <trkpt lat="47.26389" lon="-2.30648">
        <ele>9</ele>
        <time>2013-03-03T11:37:26Z</time>
      </trkpt>
      <trkpt lat="47.26383" lon="-2.30644">
        <ele>9</ele>
        <time>2013-03-03T11:37:27Z</time>
      </trkpt>
      <trkpt lat="47.26382" lon="-2.30643">
        <ele>9</ele>
        <time>2013-03-03T11:37:28Z</time>
      </trkpt>
      <trkpt lat="47.26379" lon="-2.30641">
        <ele>9</ele>
        <time>2013-03-03T11:37:33Z</time>
      </trkpt>
      <trkpt lat="47.26376" lon="-2.30636">
        <ele>10</ele>
        <time>2013-03-03T11:37:34Z</time>
      </trkpt>
      <trkpt lat="47.26376" lon="-2.30634">
        <ele>11</ele>
        <time>2013-03-03T11:37:36Z</time>
      </trkpt>
      <trkpt lat="47.26376" lon="-2.30632">
        <ele>12</ele>
        <time>2013-03-03T11:37:41Z</time>
      </trkpt>
      <trkpt lat="47.26375" lon="-2.30631">
        <ele>12</ele>
        <time>2013-03-03T11:37:42Z</time>
      </trkpt>
      <trkpt lat="47.26374" lon="-2.30631">
        <ele>12</ele>
        <time>2013-03-03T11:37:43Z</time>
      </trkpt>
      <trkpt lat="47.26373" lon="-2.30631">
        <ele>12</ele>
        <time>2013-03-03T11:37:44Z</time>
      </trkpt>
      <trkpt lat="47.26371" lon="-2.30632">
        <ele>12</ele>
        <time>2013-03-03T11:37:49Z</time>
      </trkpt>
      <trkpt lat="47.26369" lon="-2.30632">
        <ele>12</ele>
        <time>2013-03-03T11:37:50Z</time>
      </trkpt>
      <trkpt lat="47.26369" lon="-2.30633">
        <ele>6</ele>
        <time>2013-03-03T11:38:05Z</time>
      </trkpt>
      <trkpt lat="47.26367" lon="-2.30634">
        <ele>6</ele>
        <time>2013-03-03T11:38:12Z</time>
      </trkpt>
      <trkpt lat="47.26366" lon="-2.30634">
        <ele>6</ele>
        <time>2013-03-03T11:38:19Z</time>
      </trkpt>
      <trkpt lat="47.26368" lon="-2.30634">
        <ele>6</ele>
        <time>2013-03-03T11:38:27Z</time>
      </trkpt>
      <trkpt lat="47.26367" lon="-2.30633">
        <ele>6</ele>
        <time>2013-03-03T11:38:36Z</time>
      </trkpt>
      <trkpt lat="47.26366" lon="-2.30631">
        <ele>6</ele>
        <time>2013-03-03T11:38:41Z</time>
      </trkpt>
      <trkpt lat="47.26367" lon="-2.3063">
        <ele>6</ele>
        <time>2013-03-03T11:38:42Z</time>
      </trkpt>
      <trkpt lat="47.26368" lon="-2.30629">
        <ele>6</ele>
        <time>2013-03-03T11:38:44Z</time>
      </trkpt>
      <trkpt lat="47.2637" lon="-2.30629">
        <ele>7</ele>
        <time>2013-03-03T11:38:49Z</time>
      </trkpt>
      <trkpt lat="47.26373" lon="-2.30628">
        <ele>8</ele>
        <time>2013-03-03T11:38:50Z</time>
      </trkpt>
      <trkpt lat="47.26374" lon="-2.30628">
        <ele>11</ele>
        <time>2013-03-03T11:38:57Z</time>
      </trkpt>
      <trkpt lat="47.26376" lon="-2.30628">
        <ele>12</ele>
        <time>2013-03-03T11:38:58Z</time>
      </trkpt>
      <trkpt lat="47.26377" lon="-2.30628">
        <ele>14</ele>
        <time>2013-03-03T11:39:00Z</time>
      </trkpt>
      <trkpt lat="47.26379" lon="-2.30628">
        <ele>16</ele>
        <time>2013-03-03T11:39:06Z</time>
      </trkpt>
      <trkpt lat="47.2638" lon="-2.30629">
        <ele>19</ele>
        <time>2013-03-03T11:39:13Z</time>
      </trkpt>
      <trkpt lat="47.26381" lon="-2.30627">
        <ele>26</ele>
        <time>2013-03-03T11:39:28Z</time>
      </trkpt>
      <trkpt lat="47.26377" lon="-2.30628">
        <ele>27</ele>
        <time>2013-03-03T11:39:29Z</time>
      </trkpt>
      <trkpt lat="47.26375" lon="-2.30628">
        <ele>30</ele>
        <time>2013-03-03T11:39:36Z</time>
      </trkpt>
      <trkpt lat="47.26374" lon="-2.30628">
        <ele>35</ele>
        <time>2013-03-03T11:39:44Z</time>
      </trkpt>
      <trkpt lat="47.26373" lon="-2.30629">
        <ele>35</ele>
        <time>2013-03-03T11:39:45Z</time>
      </trkpt>
      <trkpt lat="47.26371" lon="-2.30629">
        <ele>36</ele>
        <time>2013-03-03T11:39:59Z</time>
      </trkpt>
      <trkpt lat="47.26369" lon="-2.3063">
        <ele>36</ele>
        <time>2013-03-03T11:40:05Z</time>
      </trkpt>
      <trkpt lat="47.26367" lon="-2.3063">
        <ele>36</ele>
        <time>2013-03-03T11:40:12Z</time>
      </trkpt>
      <trkpt lat="47.26366" lon="-2.30632">
        <ele>36</ele>
        <time>2013-03-03T11:40:13Z</time>
      </trkpt>
      <trkpt lat="47.26365" lon="-2.30634">
        <ele>36</ele>
        <time>2013-03-03T11:40:20Z</time>
      </trkpt>
      <trkpt lat="47.26363" lon="-2.30634">
        <ele>34</ele>
        <time>2013-03-03T11:40:22Z</time>
      </trkpt>
      <trkpt lat="47.26362" lon="-2.30635">
        <ele>34</ele>
        <time>2013-03-03T11:40:28Z</time>
      </trkpt>
      <trkpt lat="47.26361" lon="-2.30635">
        <ele>34</ele>
        <time>2013-03-03T11:40:34Z</time>
      </trkpt>
      <trkpt lat="47.2636" lon="-2.30634">
        <ele>34</ele>
        <time>2013-03-03T11:40:36Z</time>
      </trkpt>
      <trkpt lat="47.26357" lon="-2.30633">
        <ele>34</ele>
        <time>2013-03-03T11:40:42Z</time>
      </trkpt>
      <trkpt lat="47.26355" lon="-2.30632">
        <ele>34</ele>
        <time>2013-03-03T11:40:43Z</time>
      </trkpt>
      <trkpt lat="47.26356" lon="-2.30631">
        <ele>35</ele>
        <time>2013-03-03T11:40:51Z</time>
      </trkpt>
      <trkpt lat="47.26357" lon="-2.30628">
        <ele>35</ele>
        <time>2013-03-03T11:40:57Z</time>
      </trkpt>
      <trkpt lat="47.26356" lon="-2.30619">
        <ele>35</ele>
        <time>2013-03-03T11:40:58Z</time>
      </trkpt>
      <trkpt lat="47.26355" lon="-2.30615">
        <ele>34</ele>
        <time>2013-03-03T11:40:59Z</time>
      </trkpt>
      <trkpt lat="47.26353" lon="-2.30611">
        <ele>33</ele>
        <time>2013-03-03T11:41:00Z</time>
      </trkpt>
      <trkpt lat="47.2635" lon="-2.30606">
        <ele>32</ele>
        <time>2013-03-03T11:41:05Z</time>
      </trkpt>
      <trkpt lat="47.26343" lon="-2.30592">
        <ele>31</ele>
        <time>2013-03-03T11:41:06Z</time>
      </trkpt>
      <trkpt lat="47.26342" lon="-2.30589">
        <ele>30</ele>
        <time>2013-03-03T11:41:07Z</time>
      </trkpt>
      <trkpt lat="47.26342" lon="-2.30585">
        <ele>28</ele>
        <time>2013-03-03T11:41:12Z</time>
      </trkpt>
      <trkpt lat="47.26339" lon="-2.30576">
        <ele>26</ele>
        <time>2013-03-03T11:41:13Z</time>
      </trkpt>
      <trkpt lat="47.2634" lon="-2.30573">
        <ele>24</ele>
        <time>2013-03-03T11:41:14Z</time>
      </trkpt>
      <trkpt lat="47.26342" lon="-2.30567">
        <ele>23</ele>
        <time>2013-03-03T11:41:19Z</time>
      </trkpt>
      <trkpt lat="47.26341" lon="-2.30553">
        <ele>22</ele>
        <time>2013-03-03T11:41:20Z</time>
      </trkpt>
      <trkpt lat="47.2634" lon="-2.30548">
        <ele>21</ele>
        <time>2013-03-03T11:41:21Z</time>
      </trkpt>
      <trkpt lat="47.26338" lon="-2.30539">
        <ele>20</ele>
        <time>2013-03-03T11:41:26Z</time>
      </trkpt>
      <trkpt lat="47.26334" lon="-2.30522">
        <ele>19</ele>
        <time>2013-03-03T11:41:27Z</time>
      </trkpt>
      <trkpt lat="47.26331" lon="-2.30516">
        <ele>19</ele>
        <time>2013-03-03T11:41:28Z</time>
      </trkpt>
      <trkpt lat="47.26329" lon="-2.30506">
        <ele>19</ele>
        <time>2013-03-03T11:41:33Z</time>
      </trkpt>
      <trkpt lat="47.26328" lon="-2.30485">
        <ele>19</ele>
        <time>2013-03-03T11:41:34Z</time>
      </trkpt>
      <trkpt lat="47.26328" lon="-2.3048">
        <ele>19</ele>
        <time>2013-03-03T11:41:35Z</time>
      </trkpt>
      <trkpt lat="47.26326" lon="-2.3047">
        <ele>19</ele>
        <time>2013-03-03T11:41:39Z</time>
      </trkpt>
      <trkpt lat="47.26322" lon="-2.30454">
        <ele>19</ele>
        <time>2013-03-03T11:41:40Z</time>
      </trkpt>
      <trkpt lat="47.26321" lon="-2.30449">
        <ele>18</ele>
        <time>2013-03-03T11:41:41Z</time>
      </trkpt>
      <trkpt lat="47.26317" lon="-2.30439">
        <ele>18</ele>
        <time>2013-03-03T11:41:45Z</time>
      </trkpt>
      <trkpt lat="47.26314" lon="-2.30421">
        <ele>18</ele>
        <time>2013-03-03T11:41:46Z</time>
      </trkpt>
      <trkpt lat="47.26314" lon="-2.30416">
        <ele>18</ele>
        <time>2013-03-03T11:41:47Z</time>
      </trkpt>
      <trkpt lat="47.26311" lon="-2.30404">
        <ele>18</ele>
        <time>2013-03-03T11:41:51Z</time>
      </trkpt>
      <trkpt lat="47.26306" lon="-2.30385">
        <ele>18</ele>
        <time>2013-03-03T11:41:52Z</time>
      </trkpt>
      <trkpt lat="47.26305" lon="-2.30379">
        <ele>18</ele>
        <time>2013-03-03T11:41:53Z</time>
      </trkpt>
      <trkpt lat="47.26301" lon="-2.30347">
        <ele>18</ele>
        <time>2013-03-03T11:41:58Z</time>
      </trkpt>
      <trkpt lat="47.263" lon="-2.3034">
        <ele>18</ele>
        <time>2013-03-03T11:41:59Z</time>
      </trkpt>
      <trkpt lat="47.26299" lon="-2.30333">
        <ele>18</ele>
        <time>2013-03-03T11:42:00Z</time>
      </trkpt>
      <trkpt lat="47.26295" lon="-2.30322">
        <ele>18</ele>
        <time>2013-03-03T11:42:04Z</time>
      </trkpt>
      <trkpt lat="47.26288" lon="-2.30305">
        <ele>18</ele>
        <time>2013-03-03T11:42:05Z</time>
      </trkpt>
      <trkpt lat="47.26286" lon="-2.30301">
        <ele>18</ele>
        <time>2013-03-03T11:42:06Z</time>
      </trkpt>
      <trkpt lat="47.26284" lon="-2.30292">
        <ele>18</ele>
        <time>2013-03-03T11:42:10Z</time>
      </trkpt>
      <trkpt lat="47.26281" lon="-2.30285">
        <ele>18</ele>
        <time>2013-03-03T11:42:11Z</time>
      </trkpt>
      <trkpt lat="47.26281" lon="-2.30282">
        <ele>18</ele>
        <time>2013-03-03T11:42:12Z</time>
      </trkpt>
      <trkpt lat="47.2628" lon="-2.30278">
        <ele>20</ele>
        <time>2013-03-03T11:42:17Z</time>
      </trkpt>
      <trkpt lat="47.26279" lon="-2.30274">
        <ele>21</ele>
        <time>2013-03-03T11:42:18Z</time>
      </trkpt>
      <trkpt lat="47.26279" lon="-2.30272">
        <ele>22</ele>
        <time>2013-03-03T11:42:19Z</time>
      </trkpt>
      <trkpt lat="47.26278" lon="-2.30268">
        <ele>23</ele>
        <time>2013-03-03T11:42:24Z</time>
      </trkpt>
      <trkpt lat="47.26276" lon="-2.30257">
        <ele>24</ele>
        <time>2013-03-03T11:42:25Z</time>
      </trkpt>
      <trkpt lat="47.26274" lon="-2.30253">
        <ele>24</ele>
        <time>2013-03-03T11:42:26Z</time>
      </trkpt>
      <trkpt lat="47.26273" lon="-2.30245">
        <ele>24</ele>
        <time>2013-03-03T11:42:30Z</time>
      </trkpt>
      <trkpt lat="47.26271" lon="-2.30234">
        <ele>24</ele>
        <time>2013-03-03T11:42:31Z</time>
      </trkpt>
      <trkpt lat="47.2627" lon="-2.3023">
        <ele>24</ele>
        <time>2013-03-03T11:42:32Z</time>
      </trkpt>
      <trkpt lat="47.26267" lon="-2.30223">
        <ele>25</ele>
        <time>2013-03-03T11:42:36Z</time>
      </trkpt>
      <trkpt lat="47.26266" lon="-2.30207">
        <ele>25</ele>
        <time>2013-03-03T11:42:37Z</time>
      </trkpt>
      <trkpt lat="47.26265" lon="-2.30203">
        <ele>25</ele>
        <time>2013-03-03T11:42:38Z</time>
      </trkpt>
      <trkpt lat="47.26264" lon="-2.30199">
        <ele>25</ele>
        <time>2013-03-03T11:42:39Z</time>
      </trkpt>
      <trkpt lat="47.26256" lon="-2.30177">
        <ele>25</ele>
        <time>2013-03-03T11:42:44Z</time>
      </trkpt>
      <trkpt lat="47.26254" lon="-2.30172">
        <ele>25</ele>
        <time>2013-03-03T11:42:45Z</time>
      </trkpt>
      <trkpt lat="47.26253" lon="-2.30168">
        <ele>25</ele>
        <time>2013-03-03T11:42:46Z</time>
      </trkpt>
      <trkpt lat="47.26249" lon="-2.30158">
        <ele>25</ele>
        <time>2013-03-03T11:42:50Z</time>
      </trkpt>
      <trkpt lat="47.26245" lon="-2.30145">
        <ele>25</ele>
        <time>2013-03-03T11:42:51Z</time>
      </trkpt>
      <trkpt lat="47.26244" lon="-2.3014">
        <ele>25</ele>
        <time>2013-03-03T11:42:52Z</time>
      </trkpt>
      <trkpt lat="47.26242" lon="-2.30137">
        <ele>25</ele>
        <time>2013-03-03T11:42:53Z</time>
      </trkpt>
      <trkpt lat="47.26239" lon="-2.30135">
        <ele>25</ele>
        <time>2013-03-03T11:42:58Z</time>
      </trkpt>
      <trkpt lat="47.26225" lon="-2.30139">
        <ele>25</ele>
        <time>2013-03-03T11:42:59Z</time>
      </trkpt>
      <trkpt lat="47.2622" lon="-2.30141">
        <ele>25</ele>
        <time>2013-03-03T11:43:00Z</time>
      </trkpt>
      <trkpt lat="47.26212" lon="-2.30143">
        <ele>24</ele>
        <time>2013-03-03T11:43:04Z</time>
      </trkpt>
      <trkpt lat="47.26198" lon="-2.30148">
        <ele>23</ele>
        <time>2013-03-03T11:43:05Z</time>
      </trkpt>
      <trkpt lat="47.26194" lon="-2.3015">
        <ele>22</ele>
        <time>2013-03-03T11:43:06Z</time>
      </trkpt>
      <trkpt lat="47.26186" lon="-2.30153">
        <ele>21</ele>
        <time>2013-03-03T11:43:10Z</time>
      </trkpt>
      <trkpt lat="47.26178" lon="-2.30151">
        <ele>20</ele>
        <time>2013-03-03T11:43:11Z</time>
      </trkpt>
      <trkpt lat="47.26176" lon="-2.30148">
        <ele>19</ele>
        <time>2013-03-03T11:43:12Z</time>
      </trkpt>
      <trkpt lat="47.26174" lon="-2.30146">
        <ele>19</ele>
        <time>2013-03-03T11:43:13Z</time>
      </trkpt>
      <trkpt lat="47.26169" lon="-2.30145">
        <ele>19</ele>
        <time>2013-03-03T11:43:18Z</time>
      </trkpt>
      <trkpt lat="47.2615" lon="-2.30149">
        <ele>19</ele>
        <time>2013-03-03T11:43:19Z</time>
      </trkpt>
      <trkpt lat="47.26144" lon="-2.3015">
        <ele>19</ele>
        <time>2013-03-03T11:43:20Z</time>
      </trkpt>
      <trkpt lat="47.26131" lon="-2.30154">
        <ele>19</ele>
        <time>2013-03-03T11:43:24Z</time>
      </trkpt>
      <trkpt lat="47.26113" lon="-2.30159">
        <ele>19</ele>
        <time>2013-03-03T11:43:25Z</time>
      </trkpt>
      <trkpt lat="47.26109" lon="-2.3016">
        <ele>18</ele>
        <time>2013-03-03T11:43:26Z</time>
      </trkpt>
      <trkpt lat="47.26104" lon="-2.30157">
        <ele>18</ele>
        <time>2013-03-03T11:43:31Z</time>
      </trkpt>
      <trkpt lat="47.26101" lon="-2.3015">
        <ele>17</ele>
        <time>2013-03-03T11:43:32Z</time>
      </trkpt>
      <trkpt lat="47.26099" lon="-2.30149">
        <ele>17</ele>
        <time>2013-03-03T11:43:33Z</time>
      </trkpt>
      <trkpt lat="47.26096" lon="-2.30148">
        <ele>17</ele>
        <time>2013-03-03T11:43:34Z</time>
      </trkpt>
      <trkpt lat="47.26083" lon="-2.30145">
        <ele>17</ele>
        <time>2013-03-03T11:43:39Z</time>
      </trkpt>
      <trkpt lat="47.26081" lon="-2.30143">
        <ele>17</ele>
        <time>2013-03-03T11:43:40Z</time>
      </trkpt>
      <trkpt lat="47.26079" lon="-2.30141">
        <ele>17</ele>
        <time>2013-03-03T11:43:41Z</time>
      </trkpt>
      <trkpt lat="47.26077" lon="-2.3014">
        <ele>17</ele>
        <time>2013-03-03T11:43:45Z</time>
      </trkpt>
      <trkpt lat="47.26071" lon="-2.30138">
        <ele>17</ele>
        <time>2013-03-03T11:43:46Z</time>
      </trkpt>
      <trkpt lat="47.26068" lon="-2.30137">
        <ele>17</ele>
        <time>2013-03-03T11:43:47Z</time>
      </trkpt>
      <trkpt lat="47.26066" lon="-2.30135">
        <ele>17</ele>
        <time>2013-03-03T11:43:48Z</time>
      </trkpt>
      <trkpt lat="47.26063" lon="-2.30133">
        <ele>17</ele>
        <time>2013-03-03T11:43:49Z</time>
      </trkpt>
      <trkpt lat="47.2606" lon="-2.30131">
        <ele>17</ele>
        <time>2013-03-03T11:43:53Z</time>
      </trkpt>
      <trkpt lat="47.26057" lon="-2.30131">
        <ele>17</ele>
        <time>2013-03-03T11:43:54Z</time>
      </trkpt>
      <trkpt lat="47.26056" lon="-2.30131">
        <ele>17</ele>
        <time>2013-03-03T11:43:56Z</time>
      </trkpt>
      <trkpt lat="47.26054" lon="-2.30132">
        <ele>17</ele>
        <time>2013-03-03T11:43:57Z</time>
      </trkpt>
      <trkpt lat="47.26049" lon="-2.30132">
        <ele>17</ele>
        <time>2013-03-03T11:44:02Z</time>
      </trkpt>
      <trkpt lat="47.26038" lon="-2.30132">
        <ele>17</ele>
        <time>2013-03-03T11:44:03Z</time>
      </trkpt>
      <trkpt lat="47.26035" lon="-2.30132">
        <ele>17</ele>
        <time>2013-03-03T11:44:04Z</time>
      </trkpt>
      <trkpt lat="47.2603" lon="-2.30131">
        <ele>17</ele>
        <time>2013-03-03T11:44:09Z</time>
      </trkpt>
      <trkpt lat="47.2602" lon="-2.30124">
        <ele>17</ele>
        <time>2013-03-03T11:44:10Z</time>
      </trkpt>
      <trkpt lat="47.26016" lon="-2.30125">
        <ele>17</ele>
        <time>2013-03-03T11:44:11Z</time>
      </trkpt>
      <trkpt lat="47.26008" lon="-2.30126">
        <ele>17</ele>
        <time>2013-03-03T11:44:16Z</time>
      </trkpt>
      <trkpt lat="47.25993" lon="-2.30127">
        <ele>16</ele>
        <time>2013-03-03T11:44:17Z</time>
      </trkpt>
      <trkpt lat="47.25988" lon="-2.30127">
        <ele>15</ele>
        <time>2013-03-03T11:44:18Z</time>
      </trkpt>
      <trkpt lat="47.25983" lon="-2.30128">
        <ele>14</ele>
        <time>2013-03-03T11:44:22Z</time>
      </trkpt>
      <trkpt lat="47.25979" lon="-2.30129">
        <ele>13</ele>
        <time>2013-03-03T11:44:23Z</time>
      </trkpt>
      <trkpt lat="47.25978" lon="-2.3013">
        <ele>12</ele>
        <time>2013-03-03T11:44:24Z</time>
      </trkpt>
      <trkpt lat="47.25975" lon="-2.30131">
        <ele>10</ele>
        <time>2013-03-03T11:44:30Z</time>
      </trkpt>
      <trkpt lat="47.25973" lon="-2.3013">
        <ele>9</ele>
        <time>2013-03-03T11:44:31Z</time>
      </trkpt>
      <trkpt lat="47.25972" lon="-2.3013">
        <ele>9</ele>
        <time>2013-03-03T11:44:33Z</time>
      </trkpt>
      <trkpt lat="47.25969" lon="-2.30129">
        <ele>9</ele>
        <time>2013-03-03T11:44:39Z</time>
      </trkpt>
      <trkpt lat="47.25966" lon="-2.30131">
        <ele>9</ele>
        <time>2013-03-03T11:44:47Z</time>
      </trkpt>
      <trkpt lat="47.25964" lon="-2.30132">
        <ele>9</ele>
        <time>2013-03-03T11:44:55Z</time>
      </trkpt>
      <trkpt lat="47.25965" lon="-2.30135">
        <ele>7</ele>
        <time>2013-03-03T11:45:02Z</time>
      </trkpt>
      <trkpt lat="47.25962" lon="-2.3014">
        <ele>7</ele>
        <time>2013-03-03T11:45:03Z</time>
      </trkpt>
      <trkpt lat="47.25961" lon="-2.30142">
        <ele>7</ele>
        <time>2013-03-03T11:45:04Z</time>
      </trkpt>
      <trkpt lat="47.25959" lon="-2.30144">
        <ele>7</ele>
        <time>2013-03-03T11:45:05Z</time>
      </trkpt>
      <trkpt lat="47.25958" lon="-2.30147">
        <ele>7</ele>
        <time>2013-03-03T11:45:06Z</time>
      </trkpt>
      <trkpt lat="47.25952" lon="-2.30153">
        <ele>7</ele>
        <time>2013-03-03T11:45:10Z</time>
      </trkpt>
      <trkpt lat="47.25941" lon="-2.30163">
        <ele>7</ele>
        <time>2013-03-03T11:45:11Z</time>
      </trkpt>
      <trkpt lat="47.25937" lon="-2.30164">
        <ele>7</ele>
        <time>2013-03-03T11:45:12Z</time>
      </trkpt>
      <trkpt lat="47.25931" lon="-2.30165">
        <ele>7</ele>
        <time>2013-03-03T11:45:13Z</time>
      </trkpt>
      <trkpt lat="47.25913" lon="-2.30167">
        <ele>7</ele>
        <time>2013-03-03T11:45:18Z</time>
      </trkpt>
      <trkpt lat="47.25911" lon="-2.30167">
        <ele>8</ele>
        <time>2013-03-03T11:45:19Z</time>
      </trkpt>
      <trkpt lat="47.25906" lon="-2.30168">
        <ele>9</ele>
        <time>2013-03-03T11:45:24Z</time>
      </trkpt>
      <trkpt lat="47.25897" lon="-2.3017">
        <ele>10</ele>
        <time>2013-03-03T11:45:25Z</time>
      </trkpt>
      <trkpt lat="47.25895" lon="-2.30172">
        <ele>11</ele>
        <time>2013-03-03T11:45:26Z</time>
      </trkpt>
      <trkpt lat="47.25892" lon="-2.30175">
        <ele>12</ele>
        <time>2013-03-03T11:45:27Z</time>
      </trkpt>
      <trkpt lat="47.2589" lon="-2.30178">
        <ele>12</ele>
        <time>2013-03-03T11:45:31Z</time>
      </trkpt>
      <trkpt lat="47.25888" lon="-2.30186">
        <ele>12</ele>
        <time>2013-03-03T11:45:32Z</time>
      </trkpt>
      <trkpt lat="47.25888" lon="-2.30189">
        <ele>13</ele>
        <time>2013-03-03T11:45:33Z</time>
      </trkpt>
      <trkpt lat="47.25888" lon="-2.30193">
        <ele>13</ele>
        <time>2013-03-03T11:45:34Z</time>
      </trkpt>
      <trkpt lat="47.25885" lon="-2.30201">
        <ele>14</ele>
        <time>2013-03-03T11:45:38Z</time>
      </trkpt>
      <trkpt lat="47.25886" lon="-2.30216">
        <ele>14</ele>
        <time>2013-03-03T11:45:39Z</time>
      </trkpt>
      <trkpt lat="47.25887" lon="-2.30221">
        <ele>14</ele>
        <time>2013-03-03T11:45:40Z</time>
      </trkpt>
      <trkpt lat="47.25887" lon="-2.30226">
        <ele>14</ele>
        <time>2013-03-03T11:45:41Z</time>
      </trkpt>
      <trkpt lat="47.25888" lon="-2.30236">
        <ele>14</ele>
        <time>2013-03-03T11:45:45Z</time>
      </trkpt>
      <trkpt lat="47.25885" lon="-2.30247">
        <ele>14</ele>
        <time>2013-03-03T11:45:46Z</time>
      </trkpt>
      <trkpt lat="47.25883" lon="-2.30249">
        <ele>14</ele>
        <time>2013-03-03T11:45:47Z</time>
      </trkpt>
      <trkpt lat="47.2588" lon="-2.30252">
        <ele>14</ele>
        <time>2013-03-03T11:45:48Z</time>
      </trkpt>
      <trkpt lat="47.25874" lon="-2.30257">
        <ele>14</ele>
        <time>2013-03-03T11:45:52Z</time>
      </trkpt>
      <trkpt lat="47.25868" lon="-2.30264">
        <ele>14</ele>
        <time>2013-03-03T11:45:53Z</time>
      </trkpt>
      <trkpt lat="47.25866" lon="-2.30267">
        <ele>14</ele>
        <time>2013-03-03T11:45:54Z</time>
      </trkpt>
      <trkpt lat="47.25864" lon="-2.30267">
        <ele>14</ele>
        <time>2013-03-03T11:45:55Z</time>
      </trkpt>
      <trkpt lat="47.25858" lon="-2.30264">
        <ele>14</ele>
        <time>2013-03-03T11:46:00Z</time>
      </trkpt>
      <trkpt lat="47.25848" lon="-2.30258">
        <ele>14</ele>
        <time>2013-03-03T11:46:01Z</time>
      </trkpt>
      <trkpt lat="47.25845" lon="-2.30256">
        <ele>14</ele>
        <time>2013-03-03T11:46:02Z</time>
      </trkpt>
      <trkpt lat="47.25838" lon="-2.30253">
        <ele>14</ele>
        <time>2013-03-03T11:46:06Z</time>
      </trkpt>
      <trkpt lat="47.25826" lon="-2.30246">
        <ele>14</ele>
        <time>2013-03-03T11:46:07Z</time>
      </trkpt>
      <trkpt lat="47.25822" lon="-2.30244">
        <ele>14</ele>
        <time>2013-03-03T11:46:08Z</time>
      </trkpt>
      <trkpt lat="47.25794" lon="-2.30223">
        <ele>14</ele>
        <time>2013-03-03T11:46:16Z</time>
      </trkpt>
      <trkpt lat="47.25775" lon="-2.30217">
        <ele>14</ele>
        <time>2013-03-03T11:46:20Z</time>
      </trkpt>
      <trkpt lat="47.25762" lon="-2.30208">
        <ele>14</ele>
        <time>2013-03-03T11:46:21Z</time>
      </trkpt>
      <trkpt lat="47.25758" lon="-2.30206">
        <ele>14</ele>
        <time>2013-03-03T11:46:22Z</time>
      </trkpt>
      <trkpt lat="47.25748" lon="-2.30202">
        <ele>14</ele>
        <time>2013-03-03T11:46:27Z</time>
      </trkpt>
      <trkpt lat="47.25731" lon="-2.30195">
        <ele>14</ele>
        <time>2013-03-03T11:46:28Z</time>
      </trkpt>
      <trkpt lat="47.25726" lon="-2.30194">
        <ele>14</ele>
        <time>2013-03-03T11:46:29Z</time>
      </trkpt>
      <trkpt lat="47.25693" lon="-2.30212">
        <ele>14</ele>
        <time>2013-03-03T11:46:35Z</time>
      </trkpt>
      <trkpt lat="47.25688" lon="-2.3022">
        <ele>14</ele>
        <time>2013-03-03T11:46:36Z</time>
      </trkpt>
      <trkpt lat="47.25684" lon="-2.30227">
        <ele>14</ele>
        <time>2013-03-03T11:46:37Z</time>
      </trkpt>
      <trkpt lat="47.2568" lon="-2.30234">
        <ele>14</ele>
        <time>2013-03-03T11:46:38Z</time>
      </trkpt>
      <trkpt lat="47.25676" lon="-2.30245">
        <ele>14</ele>
        <time>2013-03-03T11:46:42Z</time>
      </trkpt>
      <trkpt lat="47.25681" lon="-2.30251">
        <ele>14</ele>
        <time>2013-03-03T11:46:43Z</time>
      </trkpt>
      <trkpt lat="47.25683" lon="-2.30252">
        <ele>14</ele>
        <time>2013-03-03T11:46:44Z</time>
      </trkpt>
      <trkpt lat="47.25685" lon="-2.30253">
        <ele>14</ele>
        <time>2013-03-03T11:46:45Z</time>
      </trkpt>
      <trkpt lat="47.25688" lon="-2.3026">
        <ele>14</ele>
        <time>2013-03-03T11:46:50Z</time>
      </trkpt>
      <trkpt lat="47.25689" lon="-2.3027">
        <ele>14</ele>
        <time>2013-03-03T11:46:51Z</time>
      </trkpt>
      <trkpt lat="47.25689" lon="-2.30272">
        <ele>14</ele>
        <time>2013-03-03T11:46:52Z</time>
      </trkpt>
      <trkpt lat="47.25689" lon="-2.30274">
        <ele>14</ele>
        <time>2013-03-03T11:46:53Z</time>
      </trkpt>
      <trkpt lat="47.25688" lon="-2.30276">
        <ele>14</ele>
        <time>2013-03-03T11:46:54Z</time>
      </trkpt>
      <trkpt lat="47.25687" lon="-2.3028">
        <ele>14</ele>
        <time>2013-03-03T11:46:59Z</time>
      </trkpt>
      <trkpt lat="47.25686" lon="-2.30294">
        <ele>14</ele>
        <time>2013-03-03T11:47:00Z</time>
      </trkpt>
      <trkpt lat="47.25686" lon="-2.30298">
        <ele>14</ele>
        <time>2013-03-03T11:47:01Z</time>
      </trkpt>
      <trkpt lat="47.25685" lon="-2.30301">
        <ele>13</ele>
        <time>2013-03-03T11:47:02Z</time>
      </trkpt>
      <trkpt lat="47.25684" lon="-2.30309">
        <ele>12</ele>
        <time>2013-03-03T11:47:06Z</time>
      </trkpt>
      <trkpt lat="47.25682" lon="-2.30323">
        <ele>11</ele>
        <time>2013-03-03T11:47:07Z</time>
      </trkpt>
      <trkpt lat="47.25682" lon="-2.30327">
        <ele>11</ele>
        <time>2013-03-03T11:47:08Z</time>
      </trkpt>
      <trkpt lat="47.25682" lon="-2.3033">
        <ele>11</ele>
        <time>2013-03-03T11:47:09Z</time>
      </trkpt>
      <trkpt lat="47.25672" lon="-2.30342">
        <ele>11</ele>
        <time>2013-03-03T11:47:14Z</time>
      </trkpt>
      <trkpt lat="47.2567" lon="-2.30343">
        <ele>11</ele>
        <time>2013-03-03T11:47:15Z</time>
      </trkpt>
      <trkpt lat="47.25668" lon="-2.30345">
        <ele>11</ele>
        <time>2013-03-03T11:47:16Z</time>
      </trkpt>
      <trkpt lat="47.25662" lon="-2.30347">
        <ele>11</ele>
        <time>2013-03-03T11:47:21Z</time>
      </trkpt>
      <trkpt lat="47.25651" lon="-2.30353">
        <ele>11</ele>
        <time>2013-03-03T11:47:22Z</time>
      </trkpt>
      <trkpt lat="47.25649" lon="-2.30355">
        <ele>11</ele>
        <time>2013-03-03T11:47:23Z</time>
      </trkpt>
      <trkpt lat="47.25647" lon="-2.30357">
        <ele>11</ele>
        <time>2013-03-03T11:47:24Z</time>
      </trkpt>
      <trkpt lat="47.25644" lon="-2.3036">
        <ele>11</ele>
        <time>2013-03-03T11:47:28Z</time>
      </trkpt>
      <trkpt lat="47.25638" lon="-2.30363">
        <ele>11</ele>
        <time>2013-03-03T11:47:29Z</time>
      </trkpt>
      <trkpt lat="47.25636" lon="-2.30363">
        <ele>11</ele>
        <time>2013-03-03T11:47:30Z</time>
      </trkpt>
      <trkpt lat="47.25634" lon="-2.30362">
        <ele>11</ele>
        <time>2013-03-03T11:47:31Z</time>
      </trkpt>
      <trkpt lat="47.25631" lon="-2.30362">
        <ele>11</ele>
        <time>2013-03-03T11:47:32Z</time>
      </trkpt>
      <trkpt lat="47.25625" lon="-2.30363">
        <ele>11</ele>
        <time>2013-03-03T11:47:37Z</time>
      </trkpt>
      <trkpt lat="47.25615" lon="-2.30366">
        <ele>11</ele>
        <time>2013-03-03T11:47:38Z</time>
      </trkpt>
      <trkpt lat="47.25613" lon="-2.30366">
        <ele>11</ele>
        <time>2013-03-03T11:47:39Z</time>
      </trkpt>
      <trkpt lat="47.25608" lon="-2.30368">
        <ele>11</ele>
        <time>2013-03-03T11:47:43Z</time>
      </trkpt>
      <trkpt lat="47.25594" lon="-2.3037">
        <ele>11</ele>
        <time>2013-03-03T11:47:44Z</time>
      </trkpt>
      <trkpt lat="47.25589" lon="-2.30371">
        <ele>11</ele>
        <time>2013-03-03T11:47:45Z</time>
      </trkpt>
      <trkpt lat="47.25581" lon="-2.30374">
        <ele>11</ele>
        <time>2013-03-03T11:47:50Z</time>
      </trkpt>
      <trkpt lat="47.25562" lon="-2.30379">
        <ele>11</ele>
        <time>2013-03-03T11:47:51Z</time>
      </trkpt>
      <trkpt lat="47.25559" lon="-2.3038">
        <ele>11</ele>
        <time>2013-03-03T11:47:52Z</time>
      </trkpt>
      <trkpt lat="47.25542" lon="-2.30375">
        <ele>11</ele>
        <time>2013-03-03T11:47:57Z</time>
      </trkpt>
      <trkpt lat="47.25539" lon="-2.30374">
        <ele>11</ele>
        <time>2013-03-03T11:47:58Z</time>
      </trkpt>
      <trkpt lat="47.25537" lon="-2.30373">
        <ele>11</ele>
        <time>2013-03-03T11:47:59Z</time>
      </trkpt>
      <trkpt lat="47.25542" lon="-2.30375">
        <ele>11</ele>
        <time>2013-03-03T11:48:06Z</time>
      </trkpt>
      <trkpt lat="47.25544" lon="-2.30374">
        <ele>11</ele>
        <time>2013-03-03T11:48:07Z</time>
      </trkpt>
      <trkpt lat="47.25547" lon="-2.30373">
        <ele>10</ele>
        <time>2013-03-03T11:48:08Z</time>
      </trkpt>
      <trkpt lat="47.25556" lon="-2.30372">
        <ele>10</ele>
        <time>2013-03-03T11:48:13Z</time>
      </trkpt>
      <trkpt lat="47.25575" lon="-2.30369">
        <ele>10</ele>
        <time>2013-03-03T11:48:14Z</time>
      </trkpt>
      <trkpt lat="47.2558" lon="-2.30368">
        <ele>10</ele>
        <time>2013-03-03T11:48:15Z</time>
      </trkpt>
      <trkpt lat="47.25607" lon="-2.30363">
        <ele>10</ele>
        <time>2013-03-03T11:48:20Z</time>
      </trkpt>
      <trkpt lat="47.25611" lon="-2.30362">
        <ele>10</ele>
        <time>2013-03-03T11:48:21Z</time>
      </trkpt>
      <trkpt lat="47.2562" lon="-2.3036">
        <ele>10</ele>
        <time>2013-03-03T11:48:26Z</time>
      </trkpt>
      <trkpt lat="47.25632" lon="-2.30354">
        <ele>10</ele>
        <time>2013-03-03T11:48:27Z</time>
      </trkpt>
      <trkpt lat="47.25633" lon="-2.30352">
        <ele>10</ele>
        <time>2013-03-03T11:48:28Z</time>
      </trkpt>
      <trkpt lat="47.25634" lon="-2.30349">
        <ele>10</ele>
        <time>2013-03-03T11:48:30Z</time>
      </trkpt>
      <trkpt lat="47.25632" lon="-2.30342">
        <ele>10</ele>
        <time>2013-03-03T11:48:36Z</time>
      </trkpt>
      <trkpt lat="47.25632" lon="-2.30338">
        <ele>10</ele>
        <time>2013-03-03T11:48:37Z</time>
      </trkpt>
      <trkpt lat="47.25631" lon="-2.30333">
        <ele>10</ele>
        <time>2013-03-03T11:48:38Z</time>
      </trkpt>
      <trkpt lat="47.25626" lon="-2.303">
        <ele>10</ele>
        <time>2013-03-03T11:48:43Z</time>
      </trkpt>
      <trkpt lat="47.25625" lon="-2.30293">
        <ele>10</ele>
        <time>2013-03-03T11:48:44Z</time>
      </trkpt>
      <trkpt lat="47.25624" lon="-2.30286">
        <ele>10</ele>
        <time>2013-03-03T11:48:45Z</time>
      </trkpt>
      <trkpt lat="47.2562" lon="-2.30251">
        <ele>10</ele>
        <time>2013-03-03T11:48:50Z</time>
      </trkpt>
      <trkpt lat="47.25619" lon="-2.30245">
        <ele>10</ele>
        <time>2013-03-03T11:48:51Z</time>
      </trkpt>
      <trkpt lat="47.25618" lon="-2.30239">
        <ele>11</ele>
        <time>2013-03-03T11:48:52Z</time>
      </trkpt>
      <trkpt lat="47.25613" lon="-2.30226">
        <ele>12</ele>
        <time>2013-03-03T11:48:57Z</time>
      </trkpt>
      <trkpt lat="47.25599" lon="-2.30201">
        <ele>12</ele>
        <time>2013-03-03T11:48:58Z</time>
      </trkpt>
      <trkpt lat="47.25594" lon="-2.30196">
        <ele>12</ele>
        <time>2013-03-03T11:48:59Z</time>
      </trkpt>
      <trkpt lat="47.2559" lon="-2.30192">
        <ele>12</ele>
        <time>2013-03-03T11:49:00Z</time>
      </trkpt>
      <trkpt lat="47.25581" lon="-2.30184">
        <ele>12</ele>
        <time>2013-03-03T11:49:05Z</time>
      </trkpt>
      <trkpt lat="47.25567" lon="-2.30179">
        <ele>12</ele>
        <time>2013-03-03T11:49:06Z</time>
      </trkpt>
      <trkpt lat="47.25565" lon="-2.30179">
        <ele>13</ele>
        <time>2013-03-03T11:49:07Z</time>
      </trkpt>
      <trkpt lat="47.25562" lon="-2.3018">
        <ele>14</ele>
        <time>2013-03-03T11:49:08Z</time>
      </trkpt>
      <trkpt lat="47.25553" lon="-2.30185">
        <ele>15</ele>
        <time>2013-03-03T11:49:13Z</time>
      </trkpt>
      <trkpt lat="47.25536" lon="-2.30192">
        <ele>15</ele>
        <time>2013-03-03T11:49:14Z</time>
      </trkpt>
      <trkpt lat="47.25531" lon="-2.30191">
        <ele>15</ele>
        <time>2013-03-03T11:49:15Z</time>
      </trkpt>
      <trkpt lat="47.25526" lon="-2.30191">
        <ele>15</ele>
        <time>2013-03-03T11:49:16Z</time>
      </trkpt>
      <trkpt lat="47.25517" lon="-2.30189">
        <ele>15</ele>
        <time>2013-03-03T11:49:21Z</time>
      </trkpt>
      <trkpt lat="47.255" lon="-2.30196">
        <ele>15</ele>
        <time>2013-03-03T11:49:22Z</time>
      </trkpt>
      <trkpt lat="47.25496" lon="-2.30201">
        <ele>15</ele>
        <time>2013-03-03T11:49:23Z</time>
      </trkpt>
      <trkpt lat="47.25492" lon="-2.30206">
        <ele>15</ele>
        <time>2013-03-03T11:49:24Z</time>
      </trkpt>
      <trkpt lat="47.25484" lon="-2.30218">
        <ele>15</ele>
        <time>2013-03-03T11:49:29Z</time>
      </trkpt>
      <trkpt lat="47.25475" lon="-2.30237">
        <ele>15</ele>
        <time>2013-03-03T11:49:30Z</time>
      </trkpt>
      <trkpt lat="47.25473" lon="-2.30241">
        <ele>15</ele>
        <time>2013-03-03T11:49:31Z</time>
      </trkpt>
      <trkpt lat="47.25471" lon="-2.30245">
        <ele>15</ele>
        <time>2013-03-03T11:49:36Z</time>
      </trkpt>
      <trkpt lat="47.2546" lon="-2.30237">
        <ele>15</ele>
        <time>2013-03-03T11:49:46Z</time>
      </trkpt>
      <trkpt lat="47.25458" lon="-2.30236">
        <ele>15</ele>
        <time>2013-03-03T11:49:47Z</time>
      </trkpt>
      <trkpt lat="47.25451" lon="-2.30233">
        <ele>16</ele>
        <time>2013-03-03T11:49:52Z</time>
      </trkpt>
      <trkpt lat="47.25438" lon="-2.30225">
        <ele>17</ele>
        <time>2013-03-03T11:49:53Z</time>
      </trkpt>
      <trkpt lat="47.25435" lon="-2.30223">
        <ele>18</ele>
        <time>2013-03-03T11:49:54Z</time>
      </trkpt>
      <trkpt lat="47.25432" lon="-2.30221">
        <ele>19</ele>
        <time>2013-03-03T11:49:55Z</time>
      </trkpt>
      <trkpt lat="47.2542" lon="-2.30219">
        <ele>20</ele>
        <time>2013-03-03T11:50:00Z</time>
      </trkpt>
      <trkpt lat="47.25417" lon="-2.30218">
        <ele>21</ele>
        <time>2013-03-03T11:50:01Z</time>
      </trkpt>
      <trkpt lat="47.25415" lon="-2.30217">
        <ele>22</ele>
        <time>2013-03-03T11:50:02Z</time>
      </trkpt>
      <trkpt lat="47.25412" lon="-2.30214">
        <ele>22</ele>
        <time>2013-03-03T11:50:07Z</time>
      </trkpt>
      <trkpt lat="47.25398" lon="-2.30205">
        <ele>22</ele>
        <time>2013-03-03T11:50:11Z</time>
      </trkpt>
      <trkpt lat="47.25394" lon="-2.30204">
        <ele>22</ele>
        <time>2013-03-03T11:50:16Z</time>
      </trkpt>
      <trkpt lat="47.25385" lon="-2.30201">
        <ele>22</ele>
        <time>2013-03-03T11:50:17Z</time>
      </trkpt>
      <trkpt lat="47.25382" lon="-2.30201">
        <ele>22</ele>
        <time>2013-03-03T11:50:18Z</time>
      </trkpt>
      <trkpt lat="47.25369" lon="-2.30199">
        <ele>22</ele>
        <time>2013-03-03T11:50:23Z</time>
      </trkpt>
      <trkpt lat="47.25367" lon="-2.30199">
        <ele>22</ele>
        <time>2013-03-03T11:50:24Z</time>
      </trkpt>
      <trkpt lat="47.25361" lon="-2.30199">
        <ele>22</ele>
        <time>2013-03-03T11:50:29Z</time>
      </trkpt>
      <trkpt lat="47.25341" lon="-2.30197">
        <ele>22</ele>
        <time>2013-03-03T11:50:34Z</time>
      </trkpt>
      <trkpt lat="47.25311" lon="-2.30204">
        <ele>23</ele>
        <time>2013-03-03T11:50:40Z</time>
      </trkpt>
      <trkpt lat="47.25309" lon="-2.30205">
        <ele>23</ele>
        <time>2013-03-03T11:50:41Z</time>
      </trkpt>
      <trkpt lat="47.25307" lon="-2.30205">
        <ele>23</ele>
        <time>2013-03-03T11:50:42Z</time>
      </trkpt>
      <trkpt lat="47.25305" lon="-2.30203">
        <ele>23</ele>
        <time>2013-03-03T11:50:43Z</time>
      </trkpt>
      <trkpt lat="47.25301" lon="-2.30199">
        <ele>23</ele>
        <time>2013-03-03T11:50:48Z</time>
      </trkpt>
      <trkpt lat="47.25289" lon="-2.30195">
        <ele>23</ele>
        <time>2013-03-03T11:50:53Z</time>
      </trkpt>
      <trkpt lat="47.2529" lon="-2.30196">
        <ele>23</ele>
        <time>2013-03-03T11:51:01Z</time>
      </trkpt>
      <trkpt lat="47.25281" lon="-2.30193">
        <ele>23</ele>
        <time>2013-03-03T11:51:07Z</time>
      </trkpt>
      <trkpt lat="47.25277" lon="-2.30193">
        <ele>23</ele>
        <time>2013-03-03T11:51:08Z</time>
      </trkpt>
      <trkpt lat="47.25272" lon="-2.3019">
        <ele>23</ele>
        <time>2013-03-03T11:51:13Z</time>
      </trkpt>
      <trkpt lat="47.25259" lon="-2.30181">
        <ele>23</ele>
        <time>2013-03-03T11:51:14Z</time>
      </trkpt>
      <trkpt lat="47.25255" lon="-2.3018">
        <ele>23</ele>
        <time>2013-03-03T11:51:15Z</time>
      </trkpt>
      <trkpt lat="47.25246" lon="-2.30174">
        <ele>23</ele>
        <time>2013-03-03T11:51:20Z</time>
      </trkpt>
      <trkpt lat="47.25228" lon="-2.30168">
        <ele>23</ele>
        <time>2013-03-03T11:51:21Z</time>
      </trkpt>
      <trkpt lat="47.25224" lon="-2.30165">
        <ele>23</ele>
        <time>2013-03-03T11:51:22Z</time>
      </trkpt>
      <trkpt lat="47.25218" lon="-2.30158">
        <ele>23</ele>
        <time>2013-03-03T11:51:27Z</time>
      </trkpt>
      <trkpt lat="47.25205" lon="-2.30142">
        <ele>23</ele>
        <time>2013-03-03T11:51:28Z</time>
      </trkpt>
      <trkpt lat="47.25201" lon="-2.30139">
        <ele>23</ele>
        <time>2013-03-03T11:51:29Z</time>
      </trkpt>
      <trkpt lat="47.25195" lon="-2.30131">
        <ele>23</ele>
        <time>2013-03-03T11:51:32Z</time>
      </trkpt>
      <trkpt lat="47.25174" lon="-2.30113">
        <ele>23</ele>
        <time>2013-03-03T11:51:38Z</time>
      </trkpt>
      <trkpt lat="47.2517" lon="-2.30114">
        <ele>23</ele>
        <time>2013-03-03T11:51:39Z</time>
      </trkpt>
      <trkpt lat="47.25166" lon="-2.30115">
        <ele>23</ele>
        <time>2013-03-03T11:51:40Z</time>
      </trkpt>
      <trkpt lat="47.25158" lon="-2.30117">
        <ele>23</ele>
        <time>2013-03-03T11:51:45Z</time>
      </trkpt>
      <trkpt lat="47.25144" lon="-2.3012">
        <ele>23</ele>
        <time>2013-03-03T11:51:46Z</time>
      </trkpt>
      <trkpt lat="47.25142" lon="-2.3012">
        <ele>23</ele>
        <time>2013-03-03T11:51:47Z</time>
      </trkpt>
      <trkpt lat="47.25135" lon="-2.30121">
        <ele>23</ele>
        <time>2013-03-03T11:51:52Z</time>
      </trkpt>
      <trkpt lat="47.25123" lon="-2.30124">
        <ele>23</ele>
        <time>2013-03-03T11:51:53Z</time>
      </trkpt>
      <trkpt lat="47.25119" lon="-2.30125">
        <ele>23</ele>
        <time>2013-03-03T11:51:54Z</time>
      </trkpt>
      <trkpt lat="47.25111" lon="-2.30126">
        <ele>23</ele>
        <time>2013-03-03T11:51:59Z</time>
      </trkpt>
      <trkpt lat="47.25095" lon="-2.30127">
        <ele>23</ele>
        <time>2013-03-03T11:52:00Z</time>
      </trkpt>
      <trkpt lat="47.25091" lon="-2.30127">
        <ele>23</ele>
        <time>2013-03-03T11:52:01Z</time>
      </trkpt>
      <trkpt lat="47.25079" lon="-2.30126">
        <ele>24</ele>
        <time>2013-03-03T11:52:05Z</time>
      </trkpt>
      <trkpt lat="47.25077" lon="-2.30124">
        <ele>24</ele>
        <time>2013-03-03T11:52:06Z</time>
      </trkpt>
      <trkpt lat="47.25076" lon="-2.30123">
        <ele>24</ele>
        <time>2013-03-03T11:52:07Z</time>
      </trkpt>
      <trkpt lat="47.25074" lon="-2.30119">
        <ele>24</ele>
        <time>2013-03-03T11:52:10Z</time>
      </trkpt>
      <trkpt lat="47.25073" lon="-2.30115">
        <ele>24</ele>
        <time>2013-03-03T11:52:11Z</time>
      </trkpt>
      <trkpt lat="47.25073" lon="-2.30113">
        <ele>24</ele>
        <time>2013-03-03T11:52:12Z</time>
      </trkpt>
      <trkpt lat="47.25072" lon="-2.30109">
        <ele>24</ele>
        <time>2013-03-03T11:52:16Z</time>
      </trkpt>
      <trkpt lat="47.25072" lon="-2.301">
        <ele>24</ele>
        <time>2013-03-03T11:52:17Z</time>
      </trkpt>
      <trkpt lat="47.25071" lon="-2.30097">
        <ele>24</ele>
        <time>2013-03-03T11:52:18Z</time>
      </trkpt>
      <trkpt lat="47.25071" lon="-2.3009">
        <ele>24</ele>
        <time>2013-03-03T11:52:21Z</time>
      </trkpt>
      <trkpt lat="47.25071" lon="-2.30083">
        <ele>24</ele>
        <time>2013-03-03T11:52:22Z</time>
      </trkpt>
      <trkpt lat="47.25071" lon="-2.3008">
        <ele>24</ele>
        <time>2013-03-03T11:52:23Z</time>
      </trkpt>
      <trkpt lat="47.25072" lon="-2.30073">
        <ele>24</ele>
        <time>2013-03-03T11:52:27Z</time>
      </trkpt>
      <trkpt lat="47.25074" lon="-2.30063">
        <ele>24</ele>
        <time>2013-03-03T11:52:28Z</time>
      </trkpt>
      <trkpt lat="47.25074" lon="-2.3006">
        <ele>24</ele>
        <time>2013-03-03T11:52:29Z</time>
      </trkpt>
      <trkpt lat="47.25073" lon="-2.30058">
        <ele>24</ele>
        <time>2013-03-03T11:52:30Z</time>
      </trkpt>
      <trkpt lat="47.25071" lon="-2.30057">
        <ele>24</ele>
        <time>2013-03-03T11:52:31Z</time>
      </trkpt>
      <trkpt lat="47.25067" lon="-2.30054">
        <ele>24</ele>
        <time>2013-03-03T11:52:35Z</time>
      </trkpt>
      <trkpt lat="47.25059" lon="-2.30051">
        <ele>24</ele>
        <time>2013-03-03T11:52:36Z</time>
      </trkpt>
      <trkpt lat="47.25053" lon="-2.3005">
        <ele>24</ele>
        <time>2013-03-03T11:52:40Z</time>
      </trkpt>
      <trkpt lat="47.25045" lon="-2.30047">
        <ele>24</ele>
        <time>2013-03-03T11:52:41Z</time>
      </trkpt>
      <trkpt lat="47.25042" lon="-2.30047">
        <ele>25</ele>
        <time>2013-03-03T11:52:42Z</time>
      </trkpt>
      <trkpt lat="47.25035" lon="-2.30046">
        <ele>26</ele>
        <time>2013-03-03T11:52:45Z</time>
      </trkpt>
      <trkpt lat="47.25029" lon="-2.30044">
        <ele>27</ele>
        <time>2013-03-03T11:52:46Z</time>
      </trkpt>
      <trkpt lat="47.25026" lon="-2.30044">
        <ele>28</ele>
        <time>2013-03-03T11:52:47Z</time>
      </trkpt>
      <trkpt lat="47.25019" lon="-2.30043">
        <ele>29</ele>
        <time>2013-03-03T11:52:51Z</time>
      </trkpt>
      <trkpt lat="47.25007" lon="-2.30045">
        <ele>29</ele>
        <time>2013-03-03T11:52:52Z</time>
      </trkpt>
      <trkpt lat="47.25003" lon="-2.30046">
        <ele>29</ele>
        <time>2013-03-03T11:52:53Z</time>
      </trkpt>
      <trkpt lat="47.24996" lon="-2.30047">
        <ele>29</ele>
        <time>2013-03-03T11:52:56Z</time>
      </trkpt>
      <trkpt lat="47.2499" lon="-2.30049">
        <ele>29</ele>
        <time>2013-03-03T11:52:57Z</time>
      </trkpt>
      <trkpt lat="47.24986" lon="-2.30049">
        <ele>29</ele>
        <time>2013-03-03T11:52:58Z</time>
      </trkpt>
      <trkpt lat="47.24977" lon="-2.30049">
        <ele>29</ele>
        <time>2013-03-03T11:53:02Z</time>
      </trkpt>
      <trkpt lat="47.24964" lon="-2.30048">
        <ele>29</ele>
        <time>2013-03-03T11:53:03Z</time>
      </trkpt>
      <trkpt lat="47.2496" lon="-2.30048">
        <ele>29</ele>
        <time>2013-03-03T11:53:04Z</time>
      </trkpt>
      <trkpt lat="47.24937" lon="-2.3005">
        <ele>29</ele>
        <time>2013-03-03T11:53:08Z</time>
      </trkpt>
      <trkpt lat="47.24932" lon="-2.3005">
        <ele>29</ele>
        <time>2013-03-03T11:53:09Z</time>
      </trkpt>
      <trkpt lat="47.24924" lon="-2.3005">
        <ele>29</ele>
        <time>2013-03-03T11:53:13Z</time>
      </trkpt>
      <trkpt lat="47.24912" lon="-2.30048">
        <ele>28</ele>
        <time>2013-03-03T11:53:14Z</time>
      </trkpt>
      <trkpt lat="47.24909" lon="-2.30045">
        <ele>27</ele>
        <time>2013-03-03T11:53:15Z</time>
      </trkpt>
      <trkpt lat="47.24907" lon="-2.30042">
        <ele>27</ele>
        <time>2013-03-03T11:53:16Z</time>
      </trkpt>
      <trkpt lat="47.24905" lon="-2.30023">
        <ele>27</ele>
        <time>2013-03-03T11:53:21Z</time>
      </trkpt>
      <trkpt lat="47.24904" lon="-2.30018">
        <ele>27</ele>
        <time>2013-03-03T11:53:22Z</time>
      </trkpt>
      <trkpt lat="47.24902" lon="-2.30011">
        <ele>26</ele>
        <time>2013-03-03T11:53:26Z</time>
      </trkpt>
      <trkpt lat="47.24898" lon="-2.30002">
        <ele>26</ele>
        <time>2013-03-03T11:53:27Z</time>
      </trkpt>
      <trkpt lat="47.24897" lon="-2.29998">
        <ele>26</ele>
        <time>2013-03-03T11:53:28Z</time>
      </trkpt>
      <trkpt lat="47.24893" lon="-2.29983">
        <ele>26</ele>
        <time>2013-03-03T11:53:32Z</time>
      </trkpt>
      <trkpt lat="47.24892" lon="-2.29979">
        <ele>26</ele>
        <time>2013-03-03T11:53:33Z</time>
      </trkpt>
      <trkpt lat="47.24889" lon="-2.29971">
        <ele>26</ele>
        <time>2013-03-03T11:53:37Z</time>
      </trkpt>
      <trkpt lat="47.24887" lon="-2.29961">
        <ele>26</ele>
        <time>2013-03-03T11:53:38Z</time>
      </trkpt>
      <trkpt lat="47.24886" lon="-2.29958">
        <ele>26</ele>
        <time>2013-03-03T11:53:39Z</time>
      </trkpt>
      <trkpt lat="47.24883" lon="-2.29944">
        <ele>26</ele>
        <time>2013-03-03T11:53:43Z</time>
      </trkpt>
      <trkpt lat="47.24882" lon="-2.29941">
        <ele>26</ele>
        <time>2013-03-03T11:53:44Z</time>
      </trkpt>
      <trkpt lat="47.24882" lon="-2.29936">
        <ele>26</ele>
        <time>2013-03-03T11:53:45Z</time>
      </trkpt>
      <trkpt lat="47.24881" lon="-2.29929">
        <ele>26</ele>
        <time>2013-03-03T11:53:48Z</time>
      </trkpt>
      <trkpt lat="47.24879" lon="-2.29922">
        <ele>26</ele>
        <time>2013-03-03T11:53:49Z</time>
      </trkpt>
      <trkpt lat="47.24879" lon="-2.29919">
        <ele>26</ele>
        <time>2013-03-03T11:53:50Z</time>
      </trkpt>
      <trkpt lat="47.24878" lon="-2.29913">
        <ele>26</ele>
        <time>2013-03-03T11:53:54Z</time>
      </trkpt>
      <trkpt lat="47.24877" lon="-2.29905">
        <ele>26</ele>
        <time>2013-03-03T11:53:55Z</time>
      </trkpt>
      <trkpt lat="47.24876" lon="-2.299">
        <ele>26</ele>
        <time>2013-03-03T11:53:56Z</time>
      </trkpt>
      <trkpt lat="47.24874" lon="-2.29884">
        <ele>26</ele>
        <time>2013-03-03T11:54:00Z</time>
      </trkpt>
      <trkpt lat="47.24873" lon="-2.2988">
        <ele>26</ele>
        <time>2013-03-03T11:54:01Z</time>
      </trkpt>
      <trkpt lat="47.24871" lon="-2.29872">
        <ele>26</ele>
        <time>2013-03-03T11:54:05Z</time>
      </trkpt>
      <trkpt lat="47.24869" lon="-2.2986">
        <ele>25</ele>
        <time>2013-03-03T11:54:06Z</time>
      </trkpt>
      <trkpt lat="47.24868" lon="-2.29856">
        <ele>25</ele>
        <time>2013-03-03T11:54:06Z</time>
      </trkpt>
      <trkpt lat="47.24867" lon="-2.29852">
        <ele>24</ele>
        <time>2013-03-03T11:54:07Z</time>
      </trkpt>
      <trkpt lat="47.24866" lon="-2.29848">
        <ele>24</ele>
        <time>2013-03-03T11:54:08Z</time>
      </trkpt>
      <trkpt lat="47.24865" lon="-2.29844">
        <ele>24</ele>
        <time>2013-03-03T11:54:09Z</time>
      </trkpt>
      <trkpt lat="47.24864" lon="-2.2984">
        <ele>24</ele>
        <time>2013-03-03T11:54:11Z</time>
      </trkpt>
      <trkpt lat="47.24863" lon="-2.29837">
        <ele>24</ele>
        <time>2013-03-03T11:54:11Z</time>
      </trkpt>
      <trkpt lat="47.24863" lon="-2.29835">
        <ele>24</ele>
        <time>2013-03-03T11:54:12Z</time>
      </trkpt>
      <trkpt lat="47.24862" lon="-2.29832">
        <ele>24</ele>
        <time>2013-03-03T11:54:17Z</time>
      </trkpt>
      <trkpt lat="47.24861" lon="-2.29831">
        <ele>25</ele>
        <time>2013-03-03T11:54:28Z</time>
      </trkpt>
      <trkpt lat="47.2486" lon="-2.2983">
        <ele>27</ele>
        <time>2013-03-03T11:54:31Z</time>
      </trkpt>
      <trkpt lat="47.24859" lon="-2.29828">
        <ele>28</ele>
        <time>2013-03-03T11:54:38Z</time>
      </trkpt>
      <trkpt lat="47.24858" lon="-2.29826">
        <ele>28</ele>
        <time>2013-03-03T11:54:40Z</time>
      </trkpt>
      <trkpt lat="47.2486" lon="-2.29824">
        <ele>29</ele>
        <time>2013-03-03T11:54:45Z</time>
      </trkpt>
      <trkpt lat="47.24858" lon="-2.29826">
        <ele>29</ele>
        <time>2013-03-03T11:54:47Z</time>
      </trkpt>
      <trkpt lat="47.24857" lon="-2.29831">
        <ele>31</ele>
        <time>2013-03-03T11:54:52Z</time>
      </trkpt>
      <trkpt lat="47.24856" lon="-2.29832">
        <ele>33</ele>
        <time>2013-03-03T11:54:54Z</time>
      </trkpt>
      <trkpt lat="47.24855" lon="-2.29834">
        <ele>35</ele>
        <time>2013-03-03T11:54:59Z</time>
      </trkpt>
      <trkpt lat="47.24854" lon="-2.29832">
        <ele>38</ele>
        <time>2013-03-03T11:55:06Z</time>
      </trkpt>
      <trkpt lat="47.24854" lon="-2.2983">
        <ele>38</ele>
        <time>2013-03-03T11:55:07Z</time>
      </trkpt>
      <trkpt lat="47.24855" lon="-2.29828">
        <ele>38</ele>
        <time>2013-03-03T11:55:08Z</time>
      </trkpt>
      <trkpt lat="47.24856" lon="-2.29826">
        <ele>38</ele>
        <time>2013-03-03T11:55:09Z</time>
      </trkpt>
      <trkpt lat="47.24858" lon="-2.2982">
        <ele>38</ele>
        <time>2013-03-03T11:55:13Z</time>
      </trkpt>
      <trkpt lat="47.2486" lon="-2.29809">
        <ele>38</ele>
        <time>2013-03-03T11:55:14Z</time>
      </trkpt>
      <trkpt lat="47.24861" lon="-2.29805">
        <ele>38</ele>
        <time>2013-03-03T11:55:15Z</time>
      </trkpt>
      <trkpt lat="47.24865" lon="-2.29793">
        <ele>38</ele>
        <time>2013-03-03T11:55:19Z</time>
      </trkpt>
      <trkpt lat="47.24866" lon="-2.29791">
        <ele>38</ele>
        <time>2013-03-03T11:55:20Z</time>
      </trkpt>
      <trkpt lat="47.24867" lon="-2.29789">
        <ele>37</ele>
        <time>2013-03-03T11:55:21Z</time>
      </trkpt>
      <trkpt lat="47.24869" lon="-2.29786">
        <ele>36</ele>
        <time>2013-03-03T11:55:25Z</time>
      </trkpt>
      <trkpt lat="47.24872" lon="-2.29783">
        <ele>35</ele>
        <time>2013-03-03T11:55:25Z</time>
      </trkpt>
      <trkpt lat="47.24872" lon="-2.29785">
        <ele>33</ele>
        <time>2013-03-03T11:55:28Z</time>
      </trkpt>
      <trkpt lat="47.24863" lon="-2.29803">
        <ele>32</ele>
        <time>2013-03-03T11:55:33Z</time>
      </trkpt>
      <trkpt lat="47.24862" lon="-2.29807">
        <ele>32</ele>
        <time>2013-03-03T11:55:34Z</time>
      </trkpt>
      <trkpt lat="47.2486" lon="-2.29815">
        <ele>32</ele>
        <time>2013-03-03T11:55:38Z</time>
      </trkpt>
      <trkpt lat="47.24855" lon="-2.29825">
        <ele>32</ele>
        <time>2013-03-03T11:55:38Z</time>
      </trkpt>
      <trkpt lat="47.24854" lon="-2.29827">
        <ele>32</ele>
        <time>2013-03-03T11:55:40Z</time>
      </trkpt>
      <trkpt lat="47.24851" lon="-2.2983">
        <ele>32</ele>
        <time>2013-03-03T11:55:41Z</time>
      </trkpt>
      <trkpt lat="47.24847" lon="-2.29836">
        <ele>32</ele>
        <time>2013-03-03T11:55:45Z</time>
      </trkpt>
      <trkpt lat="47.24837" lon="-2.2984">
        <ele>32</ele>
        <time>2013-03-03T11:55:46Z</time>
      </trkpt>
      <trkpt lat="47.24834" lon="-2.2984">
        <ele>32</ele>
        <time>2013-03-03T11:55:47Z</time>
      </trkpt>
      <trkpt lat="47.24832" lon="-2.29841">
        <ele>32</ele>
        <time>2013-03-03T11:55:48Z</time>
      </trkpt>
      <trkpt lat="47.24827" lon="-2.29841">
        <ele>32</ele>
        <time>2013-03-03T11:55:52Z</time>
      </trkpt>
      <trkpt lat="47.24818" lon="-2.29843">
        <ele>32</ele>
        <time>2013-03-03T11:55:52Z</time>
      </trkpt>
      <trkpt lat="47.24816" lon="-2.29843">
        <ele>32</ele>
        <time>2013-03-03T11:55:53Z</time>
      </trkpt>
      <trkpt lat="47.2481" lon="-2.29845">
        <ele>32</ele>
        <time>2013-03-03T11:55:57Z</time>
      </trkpt>
      <trkpt lat="47.24803" lon="-2.29848">
        <ele>32</ele>
        <time>2013-03-03T11:55:58Z</time>
      </trkpt>
      <trkpt lat="47.248" lon="-2.2985">
        <ele>32</ele>
        <time>2013-03-03T11:55:58Z</time>
      </trkpt>
      <trkpt lat="47.24795" lon="-2.29853">
        <ele>32</ele>
        <time>2013-03-03T11:56:03Z</time>
      </trkpt>
      <trkpt lat="47.24786" lon="-2.29859">
        <ele>31</ele>
        <time>2013-03-03T11:56:03Z</time>
      </trkpt>
      <trkpt lat="47.24783" lon="-2.2986">
        <ele>30</ele>
        <time>2013-03-03T11:56:05Z</time>
      </trkpt>
      <trkpt lat="47.24772" lon="-2.29868">
        <ele>29</ele>
        <time>2013-03-03T11:56:09Z</time>
      </trkpt>
      <trkpt lat="47.2477" lon="-2.29869">
        <ele>28</ele>
        <time>2013-03-03T11:56:09Z</time>
      </trkpt>
      <trkpt lat="47.24765" lon="-2.29872">
        <ele>28</ele>
        <time>2013-03-03T11:56:14Z</time>
      </trkpt>
      <trkpt lat="47.24757" lon="-2.29878">
        <ele>27</ele>
        <time>2013-03-03T11:56:14Z</time>
      </trkpt>
      <trkpt lat="47.24754" lon="-2.2988">
        <ele>26</ele>
        <time>2013-03-03T11:56:15Z</time>
      </trkpt>
      <trkpt lat="47.24745" lon="-2.29889">
        <ele>26</ele>
        <time>2013-03-03T11:56:20Z</time>
      </trkpt>
      <trkpt lat="47.24743" lon="-2.2989">
        <ele>26</ele>
        <time>2013-03-03T11:56:20Z</time>
      </trkpt>
      <trkpt lat="47.24741" lon="-2.29892">
        <ele>26</ele>
        <time>2013-03-03T11:56:21Z</time>
      </trkpt>
      <trkpt lat="47.24735" lon="-2.29894">
        <ele>25</ele>
        <time>2013-03-03T11:56:25Z</time>
      </trkpt>
      <trkpt lat="47.24729" lon="-2.29896">
        <ele>25</ele>
        <time>2013-03-03T11:56:26Z</time>
      </trkpt>
      <trkpt lat="47.24726" lon="-2.29898">
        <ele>25</ele>
        <time>2013-03-03T11:56:26Z</time>
      </trkpt>
      <trkpt lat="47.24718" lon="-2.29902">
        <ele>24</ele>
        <time>2013-03-03T11:56:31Z</time>
      </trkpt>
      <trkpt lat="47.24704" lon="-2.29907">
        <ele>24</ele>
        <time>2013-03-03T11:56:31Z</time>
      </trkpt>
      <trkpt lat="47.24699" lon="-2.29908">
        <ele>24</ele>
        <time>2013-03-03T11:56:32Z</time>
      </trkpt>
      <trkpt lat="47.2468" lon="-2.29914">
        <ele>24</ele>
        <time>2013-03-03T11:56:37Z</time>
      </trkpt>
      <trkpt lat="47.24675" lon="-2.29916">
        <ele>24</ele>
        <time>2013-03-03T11:56:37Z</time>
      </trkpt>
      <trkpt lat="47.24665" lon="-2.29919">
        <ele>24</ele>
        <time>2013-03-03T11:56:42Z</time>
      </trkpt>
      <trkpt lat="47.24649" lon="-2.29925">
        <ele>24</ele>
        <time>2013-03-03T11:56:42Z</time>
      </trkpt>
      <trkpt lat="47.24645" lon="-2.29926">
        <ele>23</ele>
        <time>2013-03-03T11:56:43Z</time>
      </trkpt>
      <trkpt lat="47.24636" lon="-2.2993">
        <ele>23</ele>
        <time>2013-03-03T11:56:48Z</time>
      </trkpt>
      <trkpt lat="47.24623" lon="-2.29936">
        <ele>23</ele>
        <time>2013-03-03T11:56:48Z</time>
      </trkpt>
      <trkpt lat="47.24619" lon="-2.29937">
        <ele>22</ele>
        <time>2013-03-03T11:56:49Z</time>
      </trkpt>
      <trkpt lat="47.24612" lon="-2.2994">
        <ele>22</ele>
        <time>2013-03-03T11:56:53Z</time>
      </trkpt>
      <trkpt lat="47.24607" lon="-2.29943">
        <ele>21</ele>
        <time>2013-03-03T11:56:54Z</time>
      </trkpt>
      <trkpt lat="47.24606" lon="-2.29944">
        <ele>21</ele>
        <time>2013-03-03T11:56:55Z</time>
      </trkpt>
      <trkpt lat="47.246" lon="-2.29943">
        <ele>21</ele>
        <time>2013-03-03T11:56:59Z</time>
      </trkpt>
      <trkpt lat="47.24592" lon="-2.2993">
        <ele>21</ele>
        <time>2013-03-03T11:57:00Z</time>
      </trkpt>
      <trkpt lat="47.2459" lon="-2.29925">
        <ele>21</ele>
        <time>2013-03-03T11:57:00Z</time>
      </trkpt>
      <trkpt lat="47.24587" lon="-2.2992">
        <ele>21</ele>
        <time>2013-03-03T11:57:02Z</time>
      </trkpt>
      <trkpt lat="47.24582" lon="-2.29911">
        <ele>21</ele>
        <time>2013-03-03T11:57:06Z</time>
      </trkpt>
      <trkpt lat="47.24577" lon="-2.29897">
        <ele>21</ele>
        <time>2013-03-03T11:57:06Z</time>
      </trkpt>
      <trkpt lat="47.24575" lon="-2.29892">
        <ele>21</ele>
        <time>2013-03-03T11:57:07Z</time>
      </trkpt>
      <trkpt lat="47.24574" lon="-2.29887">
        <ele>21</ele>
        <time>2013-03-03T11:57:09Z</time>
      </trkpt>
      <trkpt lat="47.2457" lon="-2.29878">
        <ele>21</ele>
        <time>2013-03-03T11:57:13Z</time>
      </trkpt>
      <trkpt lat="47.24562" lon="-2.2987">
        <ele>21</ele>
        <time>2013-03-03T11:57:13Z</time>
      </trkpt>
      <trkpt lat="47.24559" lon="-2.29867">
        <ele>21</ele>
        <time>2013-03-03T11:57:15Z</time>
      </trkpt>
      <trkpt lat="47.24555" lon="-2.29865">
        <ele>21</ele>
        <time>2013-03-03T11:57:16Z</time>
      </trkpt>
      <trkpt lat="47.2454" lon="-2.29857">
        <ele>21</ele>
        <time>2013-03-03T11:57:20Z</time>
      </trkpt>
      <trkpt lat="47.24536" lon="-2.29856">
        <ele>21</ele>
        <time>2013-03-03T11:57:21Z</time>
      </trkpt>
      <trkpt lat="47.24532" lon="-2.29854">
        <ele>21</ele>
        <time>2013-03-03T11:57:21Z</time>
      </trkpt>
      <trkpt lat="47.24525" lon="-2.2985">
        <ele>21</ele>
        <time>2013-03-03T11:57:26Z</time>
      </trkpt>
      <trkpt lat="47.24514" lon="-2.29843">
        <ele>22</ele>
        <time>2013-03-03T11:57:26Z</time>
      </trkpt>
      <trkpt lat="47.24511" lon="-2.29841">
        <ele>22</ele>
        <time>2013-03-03T11:57:27Z</time>
      </trkpt>
      <trkpt lat="47.24503" lon="-2.29835">
        <ele>22</ele>
        <time>2013-03-03T11:57:31Z</time>
      </trkpt>
      <trkpt lat="47.24496" lon="-2.29828">
        <ele>22</ele>
        <time>2013-03-03T11:57:32Z</time>
      </trkpt>
      <trkpt lat="47.24493" lon="-2.29824">
        <ele>22</ele>
        <time>2013-03-03T11:57:32Z</time>
      </trkpt>
      <trkpt lat="47.24489" lon="-2.29816">
        <ele>22</ele>
        <time>2013-03-03T11:57:37Z</time>
      </trkpt>
      <trkpt lat="47.24482" lon="-2.29803">
        <ele>22</ele>
        <time>2013-03-03T11:57:37Z</time>
      </trkpt>
      <trkpt lat="47.2448" lon="-2.29799">
        <ele>22</ele>
        <time>2013-03-03T11:57:38Z</time>
      </trkpt>
      <trkpt lat="47.24475" lon="-2.2979">
        <ele>22</ele>
        <time>2013-03-03T11:57:43Z</time>
      </trkpt>
      <trkpt lat="47.24469" lon="-2.29777">
        <ele>22</ele>
        <time>2013-03-03T11:57:43Z</time>
      </trkpt>
      <trkpt lat="47.24467" lon="-2.29773">
        <ele>22</ele>
        <time>2013-03-03T11:57:44Z</time>
      </trkpt>
      <trkpt lat="47.24464" lon="-2.29763">
        <ele>22</ele>
        <time>2013-03-03T11:57:48Z</time>
      </trkpt>
      <trkpt lat="47.24462" lon="-2.2975">
        <ele>22</ele>
        <time>2013-03-03T11:57:49Z</time>
      </trkpt>
      <trkpt lat="47.24461" lon="-2.29744">
        <ele>22</ele>
        <time>2013-03-03T11:57:49Z</time>
      </trkpt>
      <trkpt lat="47.24457" lon="-2.29735">
        <ele>22</ele>
        <time>2013-03-03T11:57:54Z</time>
      </trkpt>
      <trkpt lat="47.24451" lon="-2.29724">
        <ele>21</ele>
        <time>2013-03-03T11:57:54Z</time>
      </trkpt>
      <trkpt lat="47.2445" lon="-2.2972">
        <ele>20</ele>
        <time>2013-03-03T11:57:55Z</time>
      </trkpt>
      <trkpt lat="47.24447" lon="-2.29712">
        <ele>20</ele>
        <time>2013-03-03T11:58:00Z</time>
      </trkpt>
      <trkpt lat="47.24443" lon="-2.29698">
        <ele>20</ele>
        <time>2013-03-03T11:58:00Z</time>
      </trkpt>
      <trkpt lat="47.2444" lon="-2.29693">
        <ele>20</ele>
        <time>2013-03-03T11:58:02Z</time>
      </trkpt>
      <trkpt lat="47.24437" lon="-2.2969">
        <ele>20</ele>
        <time>2013-03-03T11:58:03Z</time>
      </trkpt>
      <trkpt lat="47.2443" lon="-2.29687">
        <ele>20</ele>
        <time>2013-03-03T11:58:08Z</time>
      </trkpt>
      <trkpt lat="47.24416" lon="-2.29694">
        <ele>20</ele>
        <time>2013-03-03T11:58:08Z</time>
      </trkpt>
      <trkpt lat="47.24412" lon="-2.29697">
        <ele>20</ele>
        <time>2013-03-03T11:58:10Z</time>
      </trkpt>
      <trkpt lat="47.24405" lon="-2.29707">
        <ele>20</ele>
        <time>2013-03-03T11:58:14Z</time>
      </trkpt>
      <trkpt lat="47.24394" lon="-2.29726">
        <ele>20</ele>
        <time>2013-03-03T11:58:15Z</time>
      </trkpt>
      <trkpt lat="47.24391" lon="-2.29732">
        <ele>20</ele>
        <time>2013-03-03T11:58:16Z</time>
      </trkpt>
      <trkpt lat="47.24387" lon="-2.29739">
        <ele>20</ele>
        <time>2013-03-03T11:58:17Z</time>
      </trkpt>
      <trkpt lat="47.2438" lon="-2.29753">
        <ele>20</ele>
        <time>2013-03-03T11:58:21Z</time>
      </trkpt>
      <trkpt lat="47.24371" lon="-2.29773">
        <ele>20</ele>
        <time>2013-03-03T11:58:21Z</time>
      </trkpt>
      <trkpt lat="47.24368" lon="-2.2978">
        <ele>20</ele>
        <time>2013-03-03T11:58:22Z</time>
      </trkpt>
      <trkpt lat="47.24352" lon="-2.298">
        <ele>20</ele>
        <time>2013-03-03T11:58:26Z</time>
      </trkpt>
      <trkpt lat="47.24346" lon="-2.29802">
        <ele>20</ele>
        <time>2013-03-03T11:58:28Z</time>
      </trkpt>
      <trkpt lat="47.2434" lon="-2.29805">
        <ele>20</ele>
        <time>2013-03-03T11:58:29Z</time>
      </trkpt>
      <trkpt lat="47.24319" lon="-2.29828">
        <ele>20</ele>
        <time>2013-03-03T11:58:32Z</time>
      </trkpt>
      <trkpt lat="47.24317" lon="-2.29837">
        <ele>20</ele>
        <time>2013-03-03T11:58:34Z</time>
      </trkpt>
      <trkpt lat="47.24318" lon="-2.29848">
        <ele>20</ele>
        <time>2013-03-03T11:58:35Z</time>
      </trkpt>
      <trkpt lat="47.24318" lon="-2.29858">
        <ele>20</ele>
        <time>2013-03-03T11:58:36Z</time>
      </trkpt>
      <trkpt lat="47.24318" lon="-2.29877">
        <ele>20</ele>
        <time>2013-03-03T11:58:40Z</time>
      </trkpt>
      <trkpt lat="47.24306" lon="-2.29894">
        <ele>20</ele>
        <time>2013-03-03T11:58:40Z</time>
      </trkpt>
      <trkpt lat="47.243" lon="-2.29897">
        <ele>20</ele>
        <time>2013-03-03T11:58:42Z</time>
      </trkpt>
      <trkpt lat="47.24293" lon="-2.29901">
        <ele>20</ele>
        <time>2013-03-03T11:58:43Z</time>
      </trkpt>
      <trkpt lat="47.24283" lon="-2.29909">
        <ele>20</ele>
        <time>2013-03-03T11:58:47Z</time>
      </trkpt>
      <trkpt lat="47.24259" lon="-2.29928">
        <ele>20</ele>
        <time>2013-03-03T11:58:47Z</time>
      </trkpt>
      <trkpt lat="47.24253" lon="-2.29935">
        <ele>21</ele>
        <time>2013-03-03T11:58:48Z</time>
      </trkpt>
      <trkpt lat="47.24232" lon="-2.29948">
        <ele>22</ele>
        <time>2013-03-03T11:58:52Z</time>
      </trkpt>
      <trkpt lat="47.24226" lon="-2.29951">
        <ele>22</ele>
        <time>2013-03-03T11:58:54Z</time>
      </trkpt>
      <trkpt lat="47.24221" lon="-2.29955">
        <ele>22</ele>
        <time>2013-03-03T11:58:54Z</time>
      </trkpt>
      <trkpt lat="47.24212" lon="-2.29959">
        <ele>22</ele>
        <time>2013-03-03T11:58:59Z</time>
      </trkpt>
      <trkpt lat="47.24198" lon="-2.29963">
        <ele>22</ele>
        <time>2013-03-03T11:58:59Z</time>
      </trkpt>
      <trkpt lat="47.24194" lon="-2.29964">
        <ele>22</ele>
        <time>2013-03-03T11:59:01Z</time>
      </trkpt>
      <trkpt lat="47.2419" lon="-2.29965">
        <ele>22</ele>
        <time>2013-03-03T11:59:02Z</time>
      </trkpt>
      <trkpt lat="47.24183" lon="-2.29967">
        <ele>22</ele>
        <time>2013-03-03T11:59:06Z</time>
      </trkpt>
      <trkpt lat="47.24169" lon="-2.2997">
        <ele>22</ele>
        <time>2013-03-03T11:59:06Z</time>
      </trkpt>
      <trkpt lat="47.24166" lon="-2.29971">
        <ele>22</ele>
        <time>2013-03-03T11:59:07Z</time>
      </trkpt>
      <trkpt lat="47.24161" lon="-2.29973">
        <ele>23</ele>
        <time>2013-03-03T11:59:12Z</time>
      </trkpt>
      <trkpt lat="47.24164" lon="-2.29976">
        <ele>25</ele>
        <time>2013-03-03T11:59:19Z</time>
      </trkpt>
      <trkpt lat="47.24163" lon="-2.29978">
        <ele>28</ele>
        <time>2013-03-03T11:59:23Z</time>
      </trkpt>
      <trkpt lat="47.24162" lon="-2.29979">
        <ele>29</ele>
        <time>2013-03-03T11:59:27Z</time>
      </trkpt>
      <trkpt lat="47.2416" lon="-2.29981">
        <ele>30</ele>
        <time>2013-03-03T11:59:28Z</time>
      </trkpt>
      <trkpt lat="47.2416" lon="-2.2998">
        <ele>32</ele>
        <time>2013-03-03T11:59:30Z</time>
      </trkpt>
      <trkpt lat="47.2416" lon="-2.29981">
        <ele>33</ele>
        <time>2013-03-03T11:59:34Z</time>
      </trkpt>
      <trkpt lat="47.24162" lon="-2.2999">
        <ele>34</ele>
        <time>2013-03-03T11:59:35Z</time>
      </trkpt>
      <trkpt lat="47.24164" lon="-2.29995">
        <ele>35</ele>
        <time>2013-03-03T11:59:36Z</time>
      </trkpt>
      <trkpt lat="47.24166" lon="-2.29999">
        <ele>35</ele>
        <time>2013-03-03T11:59:37Z</time>
      </trkpt>
      <trkpt lat="47.24166" lon="-2.30006">
        <ele>35</ele>
        <time>2013-03-03T11:59:42Z</time>
      </trkpt>
      <trkpt lat="47.24167" lon="-2.30008">
        <ele>36</ele>
        <time>2013-03-03T11:59:42Z</time>
      </trkpt>
      <trkpt lat="47.24166" lon="-2.30003">
        <ele>37</ele>
        <time>2013-03-03T11:59:48Z</time>
      </trkpt>
      <trkpt lat="47.24171" lon="-2.3">
        <ele>38</ele>
        <time>2013-03-03T11:59:49Z</time>
      </trkpt>
      <trkpt lat="47.2417" lon="-2.29997">
        <ele>38</ele>
        <time>2013-03-03T11:59:50Z</time>
      </trkpt>
      <trkpt lat="47.24169" lon="-2.29992">
        <ele>38</ele>
        <time>2013-03-03T11:59:51Z</time>
      </trkpt>
      <trkpt lat="47.24166" lon="-2.29976">
        <ele>38</ele>
        <time>2013-03-03T11:59:55Z</time>
      </trkpt>
      <trkpt lat="47.24165" lon="-2.29975">
        <ele>38</ele>
        <time>2013-03-03T11:59:57Z</time>
      </trkpt>
      <trkpt lat="47.24161" lon="-2.29977">
        <ele>38</ele>
        <time>2013-03-03T12:00:03Z</time>
      </trkpt>
      <trkpt lat="47.24158" lon="-2.29976">
        <ele>37</ele>
        <time>2013-03-03T12:00:04Z</time>
      </trkpt>
      <trkpt lat="47.24165" lon="-2.29983">
        <ele>34</ele>
        <time>2013-03-03T12:00:11Z</time>
      </trkpt>
      <trkpt lat="47.24169" lon="-2.29989">
        <ele>33</ele>
        <time>2013-03-03T12:00:12Z</time>
      </trkpt>
      <trkpt lat="47.24171" lon="-2.29995">
        <ele>32</ele>
        <time>2013-03-03T12:00:13Z</time>
      </trkpt>
      <trkpt lat="47.24173" lon="-2.30001">
        <ele>32</ele>
        <time>2013-03-03T12:00:13Z</time>
      </trkpt>
      <trkpt lat="47.24175" lon="-2.30005">
        <ele>31</ele>
        <time>2013-03-03T12:00:18Z</time>
      </trkpt>
      <trkpt lat="47.24174" lon="-2.30007">
        <ele>31</ele>
        <time>2013-03-03T12:00:18Z</time>
      </trkpt>
      <trkpt lat="47.24171" lon="-2.29995">
        <ele>31</ele>
        <time>2013-03-03T12:00:24Z</time>
      </trkpt>
      <trkpt lat="47.24169" lon="-2.2999">
        <ele>31</ele>
        <time>2013-03-03T12:00:25Z</time>
      </trkpt>
      <trkpt lat="47.24167" lon="-2.29986">
        <ele>31</ele>
        <time>2013-03-03T12:00:26Z</time>
      </trkpt>
      <trkpt lat="47.24158" lon="-2.29976">
        <ele>31</ele>
        <time>2013-03-03T12:00:31Z</time>
      </trkpt>
      <trkpt lat="47.24156" lon="-2.29976">
        <ele>32</ele>
        <time>2013-03-03T12:00:32Z</time>
      </trkpt>
      <trkpt lat="47.24158" lon="-2.29979">
        <ele>35</ele>
        <time>2013-03-03T12:00:39Z</time>
      </trkpt>
      <trkpt lat="47.24157" lon="-2.29976">
        <ele>35</ele>
        <time>2013-03-03T12:00:40Z</time>
      </trkpt>
      <trkpt lat="47.24155" lon="-2.29973">
        <ele>35</ele>
        <time>2013-03-03T12:00:41Z</time>
      </trkpt>
      <trkpt lat="47.24154" lon="-2.2997">
        <ele>35</ele>
        <time>2013-03-03T12:00:41Z</time>
      </trkpt>
      <trkpt lat="47.2415" lon="-2.29965">
        <ele>35</ele>
        <time>2013-03-03T12:00:46Z</time>
      </trkpt>
      <trkpt lat="47.24148" lon="-2.29965">
        <ele>35</ele>
        <time>2013-03-03T12:00:47Z</time>
      </trkpt>
      <trkpt lat="47.24158" lon="-2.29984">
        <ele>35</ele>
        <time>2013-03-03T12:00:52Z</time>
      </trkpt>
      <trkpt lat="47.24162" lon="-2.29988">
        <ele>35</ele>
        <time>2013-03-03T12:00:53Z</time>
      </trkpt>
      <trkpt lat="47.24168" lon="-2.29993">
        <ele>35</ele>
        <time>2013-03-03T12:00:55Z</time>
      </trkpt>
      <trkpt lat="47.24172" lon="-2.30003">
        <ele>35</ele>
        <time>2013-03-03T12:00:59Z</time>
      </trkpt>
      <trkpt lat="47.24176" lon="-2.30008">
        <ele>35</ele>
        <time>2013-03-03T12:00:59Z</time>
      </trkpt>
      <trkpt lat="47.24176" lon="-2.30007">
        <ele>35</ele>
        <time>2013-03-03T12:01:00Z</time>
      </trkpt>
      <trkpt lat="47.24176" lon="-2.30005">
        <ele>35</ele>
        <time>2013-03-03T12:01:02Z</time>
      </trkpt>
      <trkpt lat="47.24174" lon="-2.30001">
        <ele>33</ele>
        <time>2013-03-03T12:01:07Z</time>
      </trkpt>
      <trkpt lat="47.24176" lon="-2.30001">
        <ele>33</ele>
        <time>2013-03-03T12:01:14Z</time>
      </trkpt>
      <trkpt lat="47.24176" lon="-2.30003">
        <ele>33</ele>
        <time>2013-03-03T12:01:15Z</time>
      </trkpt>
      <trkpt lat="47.24177" lon="-2.30005">
        <ele>33</ele>
        <time>2013-03-03T12:01:21Z</time>
      </trkpt>
      <trkpt lat="47.24179" lon="-2.30005">
        <ele>33</ele>
        <time>2013-03-03T12:01:24Z</time>
      </trkpt>
      <trkpt lat="47.24181" lon="-2.30005">
        <ele>33</ele>
        <time>2013-03-03T12:01:29Z</time>
      </trkpt>
      <trkpt lat="47.24179" lon="-2.30002">
        <ele>32</ele>
        <time>2013-03-03T12:01:30Z</time>
      </trkpt>
      <trkpt lat="47.24178" lon="-2.3">
        <ele>31</ele>
        <time>2013-03-03T12:01:32Z</time>
      </trkpt>
      <trkpt lat="47.24177" lon="-2.29999">
        <ele>30</ele>
        <time>2013-03-03T12:01:37Z</time>
      </trkpt>
      <trkpt lat="47.24176" lon="-2.29997">
        <ele>29</ele>
        <time>2013-03-03T12:01:38Z</time>
      </trkpt>
      <trkpt lat="47.24172" lon="-2.29995">
        <ele>28</ele>
        <time>2013-03-03T12:01:43Z</time>
      </trkpt>
      <trkpt lat="47.24171" lon="-2.29995">
        <ele>28</ele>
        <time>2013-03-03T12:01:46Z</time>
      </trkpt>
      <trkpt lat="47.24172" lon="-2.29997">
        <ele>28</ele>
        <time>2013-03-03T12:01:52Z</time>
      </trkpt>
      <trkpt lat="47.24172" lon="-2.30001">
        <ele>28</ele>
        <time>2013-03-03T12:01:58Z</time>
      </trkpt>
      <trkpt lat="47.24176" lon="-2.30011">
        <ele>29</ele>
        <time>2013-03-03T12:01:59Z</time>
      </trkpt>
      <trkpt lat="47.24178" lon="-2.30015">
        <ele>30</ele>
        <time>2013-03-03T12:02:00Z</time>
      </trkpt>
      <trkpt lat="47.24183" lon="-2.30025">
        <ele>31</ele>
        <time>2013-03-03T12:02:04Z</time>
      </trkpt>
      <trkpt lat="47.24184" lon="-2.30035">
        <ele>32</ele>
        <time>2013-03-03T12:02:07Z</time>
      </trkpt>
      <trkpt lat="47.24184" lon="-2.30033">
        <ele>32</ele>
        <time>2013-03-03T12:02:11Z</time>
      </trkpt>
      <trkpt lat="47.24183" lon="-2.30032">
        <ele>32</ele>
        <time>2013-03-03T12:02:14Z</time>
      </trkpt>
      <trkpt lat="47.2418" lon="-2.30033">
        <ele>30</ele>
        <time>2013-03-03T12:02:19Z</time>
      </trkpt>
      <trkpt lat="47.24179" lon="-2.30033">
        <ele>28</ele>
        <time>2013-03-03T12:02:21Z</time>
      </trkpt>
      <trkpt lat="47.24174" lon="-2.30038">
        <ele>26</ele>
        <time>2013-03-03T12:02:27Z</time>
      </trkpt>
      <trkpt lat="47.24173" lon="-2.30041">
        <ele>25</ele>
        <time>2013-03-03T12:02:28Z</time>
      </trkpt>
      <trkpt lat="47.24171" lon="-2.30043">
        <ele>24</ele>
        <time>2013-03-03T12:02:29Z</time>
      </trkpt>
      <trkpt lat="47.24165" lon="-2.30047">
        <ele>23</ele>
        <time>2013-03-03T12:02:34Z</time>
      </trkpt>
      <trkpt lat="47.24164" lon="-2.3005">
        <ele>23</ele>
        <time>2013-03-03T12:02:35Z</time>
      </trkpt>
      <trkpt lat="47.24163" lon="-2.30055">
        <ele>23</ele>
        <time>2013-03-03T12:02:35Z</time>
      </trkpt>
      <trkpt lat="47.24155" lon="-2.30072">
        <ele>23</ele>
        <time>2013-03-03T12:02:40Z</time>
      </trkpt>
      <trkpt lat="47.24153" lon="-2.30076">
        <ele>24</ele>
        <time>2013-03-03T12:02:40Z</time>
      </trkpt>
      <trkpt lat="47.24152" lon="-2.30084">
        <ele>25</ele>
        <time>2013-03-03T12:02:45Z</time>
      </trkpt>
      <trkpt lat="47.24154" lon="-2.30101">
        <ele>26</ele>
        <time>2013-03-03T12:02:45Z</time>
      </trkpt>
      <trkpt lat="47.24154" lon="-2.30108">
        <ele>27</ele>
        <time>2013-03-03T12:02:46Z</time>
      </trkpt>
      <trkpt lat="47.24154" lon="-2.30114">
        <ele>29</ele>
        <time>2013-03-03T12:02:48Z</time>
      </trkpt>
      <trkpt lat="47.24153" lon="-2.3012">
        <ele>31</ele>
        <time>2013-03-03T12:02:49Z</time>
      </trkpt>
      <trkpt lat="47.24147" lon="-2.30134">
        <ele>32</ele>
        <time>2013-03-03T12:02:54Z</time>
      </trkpt>
      <trkpt lat="47.24141" lon="-2.30154">
        <ele>33</ele>
        <time>2013-03-03T12:02:54Z</time>
      </trkpt>
      <trkpt lat="47.24139" lon="-2.30155">
        <ele>34</ele>
        <time>2013-03-03T12:02:59Z</time>
      </trkpt>
      <trkpt lat="47.24135" lon="-2.30156">
        <ele>35</ele>
        <time>2013-03-03T12:03:00Z</time>
      </trkpt>
      <trkpt lat="47.24133" lon="-2.30156">
        <ele>35</ele>
        <time>2013-03-03T12:03:02Z</time>
      </trkpt>
      <trkpt lat="47.24128" lon="-2.30157">
        <ele>35</ele>
        <time>2013-03-03T12:03:07Z</time>
      </trkpt>
      <trkpt lat="47.24124" lon="-2.30158">
        <ele>36</ele>
        <time>2013-03-03T12:03:08Z</time>
      </trkpt>
      <trkpt lat="47.24123" lon="-2.30158">
        <ele>38</ele>
        <time>2013-03-03T12:03:09Z</time>
      </trkpt>
      <trkpt lat="47.24126" lon="-2.30162">
        <ele>39</ele>
        <time>2013-03-03T12:03:14Z</time>
      </trkpt>
      <trkpt lat="47.24131" lon="-2.30157">
        <ele>42</ele>
        <time>2013-03-03T12:03:23Z</time>
      </trkpt>
      <trkpt lat="47.24133" lon="-2.30155">
        <ele>41</ele>
        <time>2013-03-03T12:03:26Z</time>
      </trkpt>
      <trkpt lat="47.24137" lon="-2.30147">
        <ele>40</ele>
        <time>2013-03-03T12:03:30Z</time>
      </trkpt>
      <trkpt lat="47.24138" lon="-2.30142">
        <ele>37</ele>
        <time>2013-03-03T12:03:38Z</time>
      </trkpt>
      <trkpt lat="47.24139" lon="-2.30138">
        <ele>36</ele>
        <time>2013-03-03T12:03:39Z</time>
      </trkpt>
      <trkpt lat="47.24137" lon="-2.30132">
        <ele>32</ele>
        <time>2013-03-03T12:03:46Z</time>
      </trkpt>
      <trkpt lat="47.24136" lon="-2.3013">
        <ele>31</ele>
        <time>2013-03-03T12:03:47Z</time>
      </trkpt>
      <trkpt lat="47.24134" lon="-2.30126">
        <ele>30</ele>
        <time>2013-03-03T12:03:53Z</time>
      </trkpt>
      <trkpt lat="47.24133" lon="-2.30123">
        <ele>30</ele>
        <time>2013-03-03T12:03:54Z</time>
      </trkpt>
      <trkpt lat="47.24131" lon="-2.30123">
        <ele>30</ele>
        <time>2013-03-03T12:03:54Z</time>
      </trkpt>
      <trkpt lat="47.24128" lon="-2.3012">
        <ele>30</ele>
        <time>2013-03-03T12:03:55Z</time>
      </trkpt>
      <trkpt lat="47.24127" lon="-2.30114">
        <ele>30</ele>
        <time>2013-03-03T12:04:00Z</time>
      </trkpt>
      <trkpt lat="47.24128" lon="-2.30111">
        <ele>29</ele>
        <time>2013-03-03T12:04:02Z</time>
      </trkpt>
      <trkpt lat="47.24129" lon="-2.30109">
        <ele>28</ele>
        <time>2013-03-03T12:04:03Z</time>
      </trkpt>
      <trkpt lat="47.24129" lon="-2.30106">
        <ele>27</ele>
        <time>2013-03-03T12:04:08Z</time>
      </trkpt>
      <trkpt lat="47.24129" lon="-2.30104">
        <ele>25</ele>
        <time>2013-03-03T12:04:10Z</time>
      </trkpt>
      <trkpt lat="47.2413" lon="-2.30097">
        <ele>24</ele>
        <time>2013-03-03T12:04:15Z</time>
      </trkpt>
      <trkpt lat="47.24129" lon="-2.30095">
        <ele>23</ele>
        <time>2013-03-03T12:04:16Z</time>
      </trkpt>
      <trkpt lat="47.24128" lon="-2.30094">
        <ele>22</ele>
        <time>2013-03-03T12:04:17Z</time>
      </trkpt>
      <trkpt lat="47.24128" lon="-2.30092">
        <ele>22</ele>
        <time>2013-03-03T12:04:21Z</time>
      </trkpt>
      <trkpt lat="47.24131" lon="-2.30093">
        <ele>22</ele>
        <time>2013-03-03T12:04:22Z</time>
      </trkpt>
      <trkpt lat="47.24133" lon="-2.30092">
        <ele>22</ele>
        <time>2013-03-03T12:04:24Z</time>
      </trkpt>
      <trkpt lat="47.24142" lon="-2.30092">
        <ele>22</ele>
        <time>2013-03-03T12:04:29Z</time>
      </trkpt>
      <trkpt lat="47.24145" lon="-2.30091">
        <ele>22</ele>
        <time>2013-03-03T12:04:30Z</time>
      </trkpt>
      <trkpt lat="47.24149" lon="-2.30088">
        <ele>22</ele>
        <time>2013-03-03T12:04:31Z</time>
      </trkpt>
      <trkpt lat="47.24157" lon="-2.30075">
        <ele>22</ele>
        <time>2013-03-03T12:04:37Z</time>
      </trkpt>
      <trkpt lat="47.24157" lon="-2.30071">
        <ele>22</ele>
        <time>2013-03-03T12:04:38Z</time>
      </trkpt>
      <trkpt lat="47.24157" lon="-2.30066">
        <ele>22</ele>
        <time>2013-03-03T12:04:38Z</time>
      </trkpt>
      <trkpt lat="47.24157" lon="-2.30041">
        <ele>22</ele>
        <time>2013-03-03T12:04:43Z</time>
      </trkpt>
      <trkpt lat="47.24158" lon="-2.30034">
        <ele>22</ele>
        <time>2013-03-03T12:04:43Z</time>
      </trkpt>
      <trkpt lat="47.24158" lon="-2.30029">
        <ele>22</ele>
        <time>2013-03-03T12:04:44Z</time>
      </trkpt>
      <trkpt lat="47.24149" lon="-2.30009">
        <ele>22</ele>
        <time>2013-03-03T12:04:49Z</time>
      </trkpt>
      <trkpt lat="47.24149" lon="-2.30004">
        <ele>22</ele>
        <time>2013-03-03T12:04:50Z</time>
      </trkpt>
      <trkpt lat="47.24148" lon="-2.30001">
        <ele>22</ele>
        <time>2013-03-03T12:04:51Z</time>
      </trkpt>
      <trkpt lat="47.24148" lon="-2.29995">
        <ele>22</ele>
        <time>2013-03-03T12:04:55Z</time>
      </trkpt>
      <trkpt lat="47.24148" lon="-2.29989">
        <ele>22</ele>
        <time>2013-03-03T12:04:55Z</time>
      </trkpt>
      <trkpt lat="47.24149" lon="-2.29986">
        <ele>22</ele>
        <time>2013-03-03T12:04:56Z</time>
      </trkpt>
      <trkpt lat="47.2415" lon="-2.29983">
        <ele>22</ele>
        <time>2013-03-03T12:04:58Z</time>
      </trkpt>
      <trkpt lat="47.24152" lon="-2.2998">
        <ele>22</ele>
        <time>2013-03-03T12:05:02Z</time>
      </trkpt>
      <trkpt lat="47.24153" lon="-2.29975">
        <ele>22</ele>
        <time>2013-03-03T12:05:03Z</time>
      </trkpt>
      <trkpt lat="47.24154" lon="-2.29973">
        <ele>22</ele>
        <time>2013-03-03T12:05:04Z</time>
      </trkpt>
      <trkpt lat="47.24152" lon="-2.29972">
        <ele>22</ele>
        <time>2013-03-03T12:05:05Z</time>
      </trkpt>
      <trkpt lat="47.24157" lon="-2.29969">
        <ele>22</ele>
        <time>2013-03-03T12:05:10Z</time>
      </trkpt>
      <trkpt lat="47.24158" lon="-2.29968">
        <ele>22</ele>
        <time>2013-03-03T12:05:11Z</time>
      </trkpt>
      <trkpt lat="47.24158" lon="-2.29965">
        <ele>23</ele>
        <time>2013-03-03T12:05:18Z</time>
      </trkpt>
      <trkpt lat="47.24159" lon="-2.29966">
        <ele>26</ele>
        <time>2013-03-03T12:05:21Z</time>
      </trkpt>
      <trkpt lat="47.2416" lon="-2.29965">
        <ele>27</ele>
        <time>2013-03-03T12:05:26Z</time>
      </trkpt>
      <trkpt lat="47.24163" lon="-2.29964">
        <ele>29</ele>
        <time>2013-03-03T12:05:27Z</time>
      </trkpt>
      <trkpt lat="47.24164" lon="-2.29961">
        <ele>33</ele>
        <time>2013-03-03T12:05:33Z</time>
      </trkpt>
      <trkpt lat="47.24168" lon="-2.29947">
        <ele>34</ele>
        <time>2013-03-03T12:05:34Z</time>
      </trkpt>
      <trkpt lat="47.2417" lon="-2.29944">
        <ele>35</ele>
        <time>2013-03-03T12:05:35Z</time>
      </trkpt>
      <trkpt lat="47.2417" lon="-2.29943">
        <ele>36</ele>
        <time>2013-03-03T12:05:36Z</time>
      </trkpt>
      <trkpt lat="47.24167" lon="-2.29928">
        <ele>36</ele>
        <time>2013-03-03T12:05:40Z</time>
      </trkpt>
      <trkpt lat="47.24168" lon="-2.29927">
        <ele>36</ele>
        <time>2013-03-03T12:05:41Z</time>
      </trkpt>
      <trkpt lat="47.24171" lon="-2.2992">
        <ele>35</ele>
        <time>2013-03-03T12:05:48Z</time>
      </trkpt>
      <trkpt lat="47.24174" lon="-2.29908">
        <ele>34</ele>
        <time>2013-03-03T12:05:49Z</time>
      </trkpt>
      <trkpt lat="47.24175" lon="-2.29906">
        <ele>33</ele>
        <time>2013-03-03T12:05:49Z</time>
      </trkpt>
      <trkpt lat="47.24176" lon="-2.29904">
        <ele>32</ele>
        <time>2013-03-03T12:05:51Z</time>
      </trkpt>
      <trkpt lat="47.24176" lon="-2.29898">
        <ele>31</ele>
        <time>2013-03-03T12:05:56Z</time>
      </trkpt>
      <trkpt lat="47.24173" lon="-2.29884">
        <ele>30</ele>
        <time>2013-03-03T12:05:56Z</time>
      </trkpt>
      <trkpt lat="47.24171" lon="-2.2988">
        <ele>29</ele>
        <time>2013-03-03T12:05:58Z</time>
      </trkpt>
      <trkpt lat="47.2417" lon="-2.29877">
        <ele>28</ele>
        <time>2013-03-03T12:05:59Z</time>
      </trkpt>
      <trkpt lat="47.24169" lon="-2.2987">
        <ele>27</ele>
        <time>2013-03-03T12:06:04Z</time>
      </trkpt>
      <trkpt lat="47.24172" lon="-2.29851">
        <ele>26</ele>
        <time>2013-03-03T12:06:05Z</time>
      </trkpt>
      <trkpt lat="47.24168" lon="-2.29836">
        <ele>25</ele>
        <time>2013-03-03T12:06:09Z</time>
      </trkpt>
      <trkpt lat="47.24163" lon="-2.29823">
        <ele>24</ele>
        <time>2013-03-03T12:06:10Z</time>
      </trkpt>
      <trkpt lat="47.2416" lon="-2.29825">
        <ele>24</ele>
        <time>2013-03-03T12:06:11Z</time>
      </trkpt>
      <trkpt lat="47.24158" lon="-2.29827">
        <ele>24</ele>
        <time>2013-03-03T12:06:12Z</time>
      </trkpt>
      <trkpt lat="47.24157" lon="-2.29829">
        <ele>24</ele>
        <time>2013-03-03T12:06:13Z</time>
      </trkpt>
      <trkpt lat="47.24153" lon="-2.29831">
        <ele>24</ele>
        <time>2013-03-03T12:06:18Z</time>
      </trkpt>
      <trkpt lat="47.24147" lon="-2.29833">
        <ele>24</ele>
        <time>2013-03-03T12:06:18Z</time>
      </trkpt>
      <trkpt lat="47.24144" lon="-2.29833">
        <ele>25</ele>
        <time>2013-03-03T12:06:19Z</time>
      </trkpt>
      <trkpt lat="47.24137" lon="-2.29835">
        <ele>26</ele>
        <time>2013-03-03T12:06:24Z</time>
      </trkpt>
      <trkpt lat="47.2413" lon="-2.29837">
        <ele>27</ele>
        <time>2013-03-03T12:06:24Z</time>
      </trkpt>
      <trkpt lat="47.24127" lon="-2.29838">
        <ele>28</ele>
        <time>2013-03-03T12:06:26Z</time>
      </trkpt>
      <trkpt lat="47.24125" lon="-2.29839">
        <ele>28</ele>
        <time>2013-03-03T12:06:27Z</time>
      </trkpt>
      <trkpt lat="47.24115" lon="-2.29839">
        <ele>29</ele>
        <time>2013-03-03T12:06:32Z</time>
      </trkpt>
      <trkpt lat="47.24113" lon="-2.29838">
        <ele>30</ele>
        <time>2013-03-03T12:06:33Z</time>
      </trkpt>
      <trkpt lat="47.2411" lon="-2.29837">
        <ele>31</ele>
        <time>2013-03-03T12:06:34Z</time>
      </trkpt>
      <trkpt lat="47.24105" lon="-2.29836">
        <ele>32</ele>
        <time>2013-03-03T12:06:38Z</time>
      </trkpt>
      <trkpt lat="47.24096" lon="-2.29833">
        <ele>33</ele>
        <time>2013-03-03T12:06:38Z</time>
      </trkpt>
      <trkpt lat="47.24095" lon="-2.29833">
        <ele>34</ele>
        <time>2013-03-03T12:06:39Z</time>
      </trkpt>
      <trkpt lat="47.24092" lon="-2.29832">
        <ele>35</ele>
        <time>2013-03-03T12:06:41Z</time>
      </trkpt>
      <trkpt lat="47.24081" lon="-2.29829">
        <ele>36</ele>
        <time>2013-03-03T12:06:46Z</time>
      </trkpt>
      <trkpt lat="47.2408" lon="-2.29829">
        <ele>37</ele>
        <time>2013-03-03T12:06:47Z</time>
      </trkpt>
      <trkpt lat="47.24077" lon="-2.29828">
        <ele>37</ele>
        <time>2013-03-03T12:06:48Z</time>
      </trkpt>
      <trkpt lat="47.24073" lon="-2.29827">
        <ele>38</ele>
        <time>2013-03-03T12:06:49Z</time>
      </trkpt>
      <trkpt lat="47.2407" lon="-2.29831">
        <ele>39</ele>
        <time>2013-03-03T12:06:53Z</time>
      </trkpt>
      <trkpt lat="47.24067" lon="-2.29839">
        <ele>40</ele>
        <time>2013-03-03T12:06:54Z</time>
      </trkpt>
      <trkpt lat="47.24066" lon="-2.29842">
        <ele>41</ele>
        <time>2013-03-03T12:06:55Z</time>
      </trkpt>
      <trkpt lat="47.24065" lon="-2.29842">
        <ele>42</ele>
        <time>2013-03-03T12:06:56Z</time>
      </trkpt>
      <trkpt lat="47.24062" lon="-2.29843">
        <ele>43</ele>
        <time>2013-03-03T12:06:57Z</time>
      </trkpt>
      <trkpt lat="47.24058" lon="-2.29844">
        <ele>44</ele>
        <time>2013-03-03T12:07:02Z</time>
      </trkpt>
      <trkpt lat="47.2405" lon="-2.29853">
        <ele>45</ele>
        <time>2013-03-03T12:07:03Z</time>
      </trkpt>
      <trkpt lat="47.24051" lon="-2.29857">
        <ele>46</ele>
        <time>2013-03-03T12:07:04Z</time>
      </trkpt>
      <trkpt lat="47.24052" lon="-2.29863">
        <ele>47</ele>
        <time>2013-03-03T12:07:05Z</time>
      </trkpt>
      <trkpt lat="47.24049" lon="-2.29873">
        <ele>48</ele>
        <time>2013-03-03T12:07:09Z</time>
      </trkpt>
      <trkpt lat="47.24044" lon="-2.29884">
        <ele>48</ele>
        <time>2013-03-03T12:07:10Z</time>
      </trkpt>
      <trkpt lat="47.24043" lon="-2.29887">
        <ele>48</ele>
        <time>2013-03-03T12:07:11Z</time>
      </trkpt>
      <trkpt lat="47.2404" lon="-2.29889">
        <ele>48</ele>
        <time>2013-03-03T12:07:12Z</time>
      </trkpt>
      <trkpt lat="47.24036" lon="-2.29892">
        <ele>48</ele>
        <time>2013-03-03T12:07:17Z</time>
      </trkpt>
      <trkpt lat="47.24022" lon="-2.29911">
        <ele>47</ele>
        <time>2013-03-03T12:07:17Z</time>
      </trkpt>
      <trkpt lat="47.24018" lon="-2.29914">
        <ele>46</ele>
        <time>2013-03-03T12:07:19Z</time>
      </trkpt>
      <trkpt lat="47.24014" lon="-2.29921">
        <ele>45</ele>
        <time>2013-03-03T12:07:24Z</time>
      </trkpt>
      <trkpt lat="47.24006" lon="-2.29932">
        <ele>43</ele>
        <time>2013-03-03T12:07:24Z</time>
      </trkpt>
      <trkpt lat="47.24004" lon="-2.29935">
        <ele>41</ele>
        <time>2013-03-03T12:07:25Z</time>
      </trkpt>
      <trkpt lat="47.24002" lon="-2.29938">
        <ele>39</ele>
        <time>2013-03-03T12:07:26Z</time>
      </trkpt>
      <trkpt lat="47.23999" lon="-2.29947">
        <ele>37</ele>
        <time>2013-03-03T12:07:31Z</time>
      </trkpt>
      <trkpt lat="47.24004" lon="-2.2996">
        <ele>35</ele>
        <time>2013-03-03T12:07:36Z</time>
      </trkpt>
      <trkpt lat="47.24004" lon="-2.2997">
        <ele>34</ele>
        <time>2013-03-03T12:07:37Z</time>
      </trkpt>
      <trkpt lat="47.24004" lon="-2.29972">
        <ele>33</ele>
        <time>2013-03-03T12:07:37Z</time>
      </trkpt>
      <trkpt lat="47.24003" lon="-2.29976">
        <ele>32</ele>
        <time>2013-03-03T12:07:43Z</time>
      </trkpt>
      <trkpt lat="47.24005" lon="-2.29984">
        <ele>32</ele>
        <time>2013-03-03T12:07:43Z</time>
      </trkpt>
      <trkpt lat="47.24006" lon="-2.29986">
        <ele>32</ele>
        <time>2013-03-03T12:07:45Z</time>
      </trkpt>
      <trkpt lat="47.24008" lon="-2.29989">
        <ele>32</ele>
        <time>2013-03-03T12:07:46Z</time>
      </trkpt>
      <trkpt lat="47.24002" lon="-2.30012">
        <ele>32</ele>
        <time>2013-03-03T12:07:51Z</time>
      </trkpt>
      <trkpt lat="47.24003" lon="-2.30016">
        <ele>32</ele>
        <time>2013-03-03T12:07:52Z</time>
      </trkpt>
      <trkpt lat="47.24004" lon="-2.3002">
        <ele>32</ele>
        <time>2013-03-03T12:07:52Z</time>
      </trkpt>
      <trkpt lat="47.24" lon="-2.30027">
        <ele>32</ele>
        <time>2013-03-03T12:07:55Z</time>
      </trkpt>
      <trkpt lat="47.23997" lon="-2.30034">
        <ele>33</ele>
        <time>2013-03-03T12:08:00Z</time>
      </trkpt>
      <trkpt lat="47.23992" lon="-2.30053">
        <ele>34</ele>
        <time>2013-03-03T12:08:01Z</time>
      </trkpt>
      <trkpt lat="47.23991" lon="-2.30059">
        <ele>35</ele>
        <time>2013-03-03T12:08:01Z</time>
      </trkpt>
      <trkpt lat="47.23991" lon="-2.30063">
        <ele>36</ele>
        <time>2013-03-03T12:08:02Z</time>
      </trkpt>
      <trkpt lat="47.2399" lon="-2.30068">
        <ele>37</ele>
        <time>2013-03-03T12:08:03Z</time>
      </trkpt>
      <trkpt lat="47.23986" lon="-2.3008">
        <ele>38</ele>
        <time>2013-03-03T12:08:08Z</time>
      </trkpt>
      <trkpt lat="47.23986" lon="-2.30082">
        <ele>39</ele>
        <time>2013-03-03T12:08:08Z</time>
      </trkpt>
      <trkpt lat="47.23986" lon="-2.30084">
        <ele>39</ele>
        <time>2013-03-03T12:08:09Z</time>
      </trkpt>
      <trkpt lat="47.23986" lon="-2.30086">
        <ele>39</ele>
        <time>2013-03-03T12:08:11Z</time>
      </trkpt>
      <trkpt lat="47.23983" lon="-2.30097">
        <ele>39</ele>
        <time>2013-03-03T12:08:15Z</time>
      </trkpt>
      <trkpt lat="47.2398" lon="-2.30095">
        <ele>39</ele>
        <time>2013-03-03T12:08:19Z</time>
      </trkpt>
      <trkpt lat="47.23978" lon="-2.30096">
        <ele>38</ele>
        <time>2013-03-03T12:08:24Z</time>
      </trkpt>
      <trkpt lat="47.2398" lon="-2.30096">
        <ele>36</ele>
        <time>2013-03-03T12:08:27Z</time>
      </trkpt>
      <trkpt lat="47.23977" lon="-2.30099">
        <ele>35</ele>
        <time>2013-03-03T12:08:33Z</time>
      </trkpt>
      <trkpt lat="47.23975" lon="-2.301">
        <ele>35</ele>
        <time>2013-03-03T12:08:34Z</time>
      </trkpt>
      <trkpt lat="47.23974" lon="-2.30101">
        <ele>35</ele>
        <time>2013-03-03T12:08:36Z</time>
      </trkpt>
      <trkpt lat="47.23973" lon="-2.30101">
        <ele>35</ele>
        <time>2013-03-03T12:08:41Z</time>
      </trkpt>
      <trkpt lat="47.23972" lon="-2.30099">
        <ele>35</ele>
        <time>2013-03-03T12:08:42Z</time>
      </trkpt>
      <trkpt lat="47.23975" lon="-2.30097">
        <ele>35</ele>
        <time>2013-03-03T12:08:47Z</time>
      </trkpt>
      <trkpt lat="47.23978" lon="-2.30093">
        <ele>35</ele>
        <time>2013-03-03T12:08:52Z</time>
      </trkpt>
      <trkpt lat="47.2398" lon="-2.3009">
        <ele>35</ele>
        <time>2013-03-03T12:08:53Z</time>
      </trkpt>
      <trkpt lat="47.23984" lon="-2.30086">
        <ele>35</ele>
        <time>2013-03-03T12:08:59Z</time>
      </trkpt>
      <trkpt lat="47.23989" lon="-2.30075">
        <ele>35</ele>
        <time>2013-03-03T12:09:00Z</time>
      </trkpt>
      <trkpt lat="47.23991" lon="-2.30072">
        <ele>34</ele>
        <time>2013-03-03T12:09:01Z</time>
      </trkpt>
      <trkpt lat="47.23993" lon="-2.30066">
        <ele>34</ele>
        <time>2013-03-03T12:09:05Z</time>
      </trkpt>
      <trkpt lat="47.23996" lon="-2.30059">
        <ele>34</ele>
        <time>2013-03-03T12:09:06Z</time>
      </trkpt>
      <trkpt lat="47.23997" lon="-2.30057">
        <ele>34</ele>
        <time>2013-03-03T12:09:07Z</time>
      </trkpt>
      <trkpt lat="47.23998" lon="-2.30055">
        <ele>34</ele>
        <time>2013-03-03T12:09:08Z</time>
      </trkpt>
      <trkpt lat="47.23999" lon="-2.30049">
        <ele>34</ele>
        <time>2013-03-03T12:09:12Z</time>
      </trkpt>
      <trkpt lat="47.24" lon="-2.30038">
        <ele>34</ele>
        <time>2013-03-03T12:09:12Z</time>
      </trkpt>
      <trkpt lat="47.24" lon="-2.30033">
        <ele>33</ele>
        <time>2013-03-03T12:09:14Z</time>
      </trkpt>
      <trkpt lat="47.24002" lon="-2.3">
        <ele>32</ele>
        <time>2013-03-03T12:09:21Z</time>
      </trkpt>
      <trkpt lat="47.24001" lon="-2.29995">
        <ele>31</ele>
        <time>2013-03-03T12:09:21Z</time>
      </trkpt>
      <trkpt lat="47.24" lon="-2.29992">
        <ele>30</ele>
        <time>2013-03-03T12:09:22Z</time>
      </trkpt>
      <trkpt lat="47.23997" lon="-2.2999">
        <ele>29</ele>
        <time>2013-03-03T12:09:23Z</time>
      </trkpt>
      <trkpt lat="47.23993" lon="-2.29986">
        <ele>28</ele>
        <time>2013-03-03T12:09:28Z</time>
      </trkpt>
      <trkpt lat="47.23986" lon="-2.29977">
        <ele>28</ele>
        <time>2013-03-03T12:09:28Z</time>
      </trkpt>
      <trkpt lat="47.23986" lon="-2.29974">
        <ele>28</ele>
        <time>2013-03-03T12:09:30Z</time>
      </trkpt>
      <trkpt lat="47.23988" lon="-2.29971">
        <ele>28</ele>
        <time>2013-03-03T12:09:31Z</time>
      </trkpt>
      <trkpt lat="47.23989" lon="-2.29965">
        <ele>27</ele>
        <time>2013-03-03T12:09:36Z</time>
      </trkpt>
      <trkpt lat="47.23996" lon="-2.29952">
        <ele>26</ele>
        <time>2013-03-03T12:09:37Z</time>
      </trkpt>
      <trkpt lat="47.23997" lon="-2.29951">
        <ele>26</ele>
        <time>2013-03-03T12:09:42Z</time>
      </trkpt>
      <trkpt lat="47.23998" lon="-2.29944">
        <ele>26</ele>
        <time>2013-03-03T12:09:49Z</time>
      </trkpt>
      <trkpt lat="47.24002" lon="-2.29922">
        <ele>26</ele>
        <time>2013-03-03T12:09:50Z</time>
      </trkpt>
      <trkpt lat="47.24003" lon="-2.29917">
        <ele>25</ele>
        <time>2013-03-03T12:09:51Z</time>
      </trkpt>
      <trkpt lat="47.24006" lon="-2.29907">
        <ele>25</ele>
        <time>2013-03-03T12:09:55Z</time>
      </trkpt>
      <trkpt lat="47.24012" lon="-2.29891">
        <ele>25</ele>
        <time>2013-03-03T12:09:55Z</time>
      </trkpt>
      <trkpt lat="47.24015" lon="-2.29886">
        <ele>24</ele>
        <time>2013-03-03T12:09:57Z</time>
      </trkpt>
      <trkpt lat="47.24017" lon="-2.29875">
        <ele>24</ele>
        <time>2013-03-03T12:10:01Z</time>
      </trkpt>
      <trkpt lat="47.24022" lon="-2.29859">
        <ele>24</ele>
        <time>2013-03-03T12:10:01Z</time>
      </trkpt>
      <trkpt lat="47.24022" lon="-2.29853">
        <ele>24</ele>
        <time>2013-03-03T12:10:02Z</time>
      </trkpt>
      <trkpt lat="47.24022" lon="-2.29848">
        <ele>24</ele>
        <time>2013-03-03T12:10:03Z</time>
      </trkpt>
      <trkpt lat="47.2402" lon="-2.29845">
        <ele>24</ele>
        <time>2013-03-03T12:10:09Z</time>
      </trkpt>
      <trkpt lat="47.24017" lon="-2.29837">
        <ele>24</ele>
        <time>2013-03-03T12:10:09Z</time>
      </trkpt>
      <trkpt lat="47.24015" lon="-2.29829">
        <ele>24</ele>
        <time>2013-03-03T12:10:14Z</time>
      </trkpt>
      <trkpt lat="47.24017" lon="-2.29812">
        <ele>25</ele>
        <time>2013-03-03T12:10:15Z</time>
      </trkpt>
      <trkpt lat="47.24018" lon="-2.29806">
        <ele>26</ele>
        <time>2013-03-03T12:10:16Z</time>
      </trkpt>
      <trkpt lat="47.24018" lon="-2.298">
        <ele>26</ele>
        <time>2013-03-03T12:10:17Z</time>
      </trkpt>
      <trkpt lat="47.24017" lon="-2.2977">
        <ele>26</ele>
        <time>2013-03-03T12:10:22Z</time>
      </trkpt>
      <trkpt lat="47.24014" lon="-2.29756">
        <ele>26</ele>
        <time>2013-03-03T12:10:22Z</time>
      </trkpt>
      <trkpt lat="47.24014" lon="-2.29742">
        <ele>26</ele>
        <time>2013-03-03T12:10:27Z</time>
      </trkpt>
      <trkpt lat="47.24013" lon="-2.29727">
        <ele>26</ele>
        <time>2013-03-03T12:10:27Z</time>
      </trkpt>
      <trkpt lat="47.24013" lon="-2.29721">
        <ele>26</ele>
        <time>2013-03-03T12:10:28Z</time>
      </trkpt>
      <trkpt lat="47.24013" lon="-2.29706">
        <ele>26</ele>
        <time>2013-03-03T12:10:33Z</time>
      </trkpt>
      <trkpt lat="47.24009" lon="-2.29682">
        <ele>26</ele>
        <time>2013-03-03T12:10:33Z</time>
      </trkpt>
      <trkpt lat="47.24009" lon="-2.29673">
        <ele>26</ele>
        <time>2013-03-03T12:10:34Z</time>
      </trkpt>
      <trkpt lat="47.24008" lon="-2.29665">
        <ele>26</ele>
        <time>2013-03-03T12:10:35Z</time>
      </trkpt>
      <trkpt lat="47.24004" lon="-2.29635">
        <ele>25</ele>
        <time>2013-03-03T12:10:40Z</time>
      </trkpt>
      <trkpt lat="47.24003" lon="-2.29629">
        <ele>24</ele>
        <time>2013-03-03T12:10:41Z</time>
      </trkpt>
      <trkpt lat="47.24002" lon="-2.29623">
        <ele>24</ele>
        <time>2013-03-03T12:10:41Z</time>
      </trkpt>
      <trkpt lat="47.24001" lon="-2.29618">
        <ele>24</ele>
        <time>2013-03-03T12:10:42Z</time>
      </trkpt>
      <trkpt lat="47.24001" lon="-2.29612">
        <ele>24</ele>
        <time>2013-03-03T12:10:43Z</time>
      </trkpt>
      <trkpt lat="47.24" lon="-2.29606">
        <ele>24</ele>
        <time>2013-03-03T12:10:44Z</time>
      </trkpt>
      <trkpt lat="47.24" lon="-2.296">
        <ele>24</ele>
        <time>2013-03-03T12:10:46Z</time>
      </trkpt>
      <trkpt lat="47.24" lon="-2.29595">
        <ele>24</ele>
        <time>2013-03-03T12:10:46Z</time>
      </trkpt>
      <trkpt lat="47.24" lon="-2.2959">
        <ele>24</ele>
        <time>2013-03-03T12:10:47Z</time>
      </trkpt>
      <trkpt lat="47.23998" lon="-2.29578">
        <ele>24</ele>
        <time>2013-03-03T12:10:52Z</time>
      </trkpt>
      <trkpt lat="47.23997" lon="-2.2956">
        <ele>24</ele>
        <time>2013-03-03T12:10:52Z</time>
      </trkpt>
      <trkpt lat="47.23997" lon="-2.29554">
        <ele>24</ele>
        <time>2013-03-03T12:10:53Z</time>
      </trkpt>
      <trkpt lat="47.23996" lon="-2.29544">
        <ele>24</ele>
        <time>2013-03-03T12:10:58Z</time>
      </trkpt>
      <trkpt lat="47.23997" lon="-2.29538">
        <ele>24</ele>
        <time>2013-03-03T12:10:58Z</time>
      </trkpt>
      <trkpt lat="47.23997" lon="-2.2954">
        <ele>24</ele>
        <time>2013-03-03T12:11:05Z</time>
      </trkpt>
      <trkpt lat="47.23997" lon="-2.2955">
        <ele>24</ele>
        <time>2013-03-03T12:11:06Z</time>
      </trkpt>
      <trkpt lat="47.23997" lon="-2.29557">
        <ele>24</ele>
        <time>2013-03-03T12:11:07Z</time>
      </trkpt>
      <trkpt lat="47.23997" lon="-2.29565">
        <ele>24</ele>
        <time>2013-03-03T12:11:12Z</time>
      </trkpt>
      <trkpt lat="47.23997" lon="-2.29578">
        <ele>25</ele>
        <time>2013-03-03T12:11:12Z</time>
      </trkpt>
      <trkpt lat="47.23997" lon="-2.29583">
        <ele>26</ele>
        <time>2013-03-03T12:11:13Z</time>
      </trkpt>
      <trkpt lat="47.23997" lon="-2.29591">
        <ele>27</ele>
        <time>2013-03-03T12:11:18Z</time>
      </trkpt>
      <trkpt lat="47.23999" lon="-2.29601">
        <ele>28</ele>
        <time>2013-03-03T12:11:18Z</time>
      </trkpt>
      <trkpt lat="47.23998" lon="-2.29604">
        <ele>29</ele>
        <time>2013-03-03T12:11:19Z</time>
      </trkpt>
      <trkpt lat="47.23998" lon="-2.29611">
        <ele>30</ele>
        <time>2013-03-03T12:11:24Z</time>
      </trkpt>
      <trkpt lat="47.23998" lon="-2.29625">
        <ele>31</ele>
        <time>2013-03-03T12:11:25Z</time>
      </trkpt>
      <trkpt lat="47.23998" lon="-2.29629">
        <ele>32</ele>
        <time>2013-03-03T12:11:26Z</time>
      </trkpt>
      <trkpt lat="47.23998" lon="-2.29634">
        <ele>33</ele>
        <time>2013-03-03T12:11:27Z</time>
      </trkpt>
      <trkpt lat="47.24001" lon="-2.29646">
        <ele>34</ele>
        <time>2013-03-03T12:11:31Z</time>
      </trkpt>
      <trkpt lat="47.24002" lon="-2.2966">
        <ele>34</ele>
        <time>2013-03-03T12:11:31Z</time>
      </trkpt>
      <trkpt lat="47.24002" lon="-2.29664">
        <ele>34</ele>
        <time>2013-03-03T12:11:33Z</time>
      </trkpt>
      <trkpt lat="47.24004" lon="-2.29673">
        <ele>34</ele>
        <time>2013-03-03T12:11:37Z</time>
      </trkpt>
      <trkpt lat="47.24005" lon="-2.29682">
        <ele>34</ele>
        <time>2013-03-03T12:11:37Z</time>
      </trkpt>
      <trkpt lat="47.24006" lon="-2.29684">
        <ele>34</ele>
        <time>2013-03-03T12:11:38Z</time>
      </trkpt>
      <trkpt lat="47.24008" lon="-2.29688">
        <ele>34</ele>
        <time>2013-03-03T12:11:42Z</time>
      </trkpt>
      <trkpt lat="47.24011" lon="-2.29695">
        <ele>34</ele>
        <time>2013-03-03T12:11:46Z</time>
      </trkpt>
      <trkpt lat="47.24008" lon="-2.29715">
        <ele>34</ele>
        <time>2013-03-03T12:11:50Z</time>
      </trkpt>
      <trkpt lat="47.24008" lon="-2.29717">
        <ele>34</ele>
        <time>2013-03-03T12:11:51Z</time>
      </trkpt>
      <trkpt lat="47.24009" lon="-2.29721">
        <ele>33</ele>
        <time>2013-03-03T12:11:52Z</time>
      </trkpt>
      <trkpt lat="47.24011" lon="-2.29734">
        <ele>32</ele>
        <time>2013-03-03T12:11:56Z</time>
      </trkpt>
      <trkpt lat="47.24013" lon="-2.29745">
        <ele>32</ele>
        <time>2013-03-03T12:12:02Z</time>
      </trkpt>
      <trkpt lat="47.24015" lon="-2.29749">
        <ele>31</ele>
        <time>2013-03-03T12:12:10Z</time>
      </trkpt>
      <trkpt lat="47.24016" lon="-2.2975">
        <ele>30</ele>
        <time>2013-03-03T12:12:15Z</time>
      </trkpt>
      <trkpt lat="47.24014" lon="-2.29753">
        <ele>29</ele>
        <time>2013-03-03T12:12:16Z</time>
      </trkpt>
      <trkpt lat="47.24018" lon="-2.29751">
        <ele>26</ele>
        <time>2013-03-03T12:12:23Z</time>
      </trkpt>
      <trkpt lat="47.2402" lon="-2.29751">
        <ele>25</ele>
        <time>2013-03-03T12:12:25Z</time>
      </trkpt>
      <trkpt lat="47.24023" lon="-2.29751">
        <ele>24</ele>
        <time>2013-03-03T12:12:26Z</time>
      </trkpt>
      <trkpt lat="47.24024" lon="-2.2975">
        <ele>23</ele>
        <time>2013-03-03T12:12:30Z</time>
      </trkpt>
      <trkpt lat="47.24022" lon="-2.29748">
        <ele>20</ele>
        <time>2013-03-03T12:12:38Z</time>
      </trkpt>
      <trkpt lat="47.24018" lon="-2.29751">
        <ele>20</ele>
        <time>2013-03-03T12:12:39Z</time>
      </trkpt>
      <trkpt lat="47.24017" lon="-2.29752">
        <ele>20</ele>
        <time>2013-03-03T12:12:40Z</time>
      </trkpt>
      <trkpt lat="47.24016" lon="-2.29755">
        <ele>20</ele>
        <time>2013-03-03T12:12:41Z</time>
      </trkpt>
      <trkpt lat="47.24012" lon="-2.29772">
        <ele>20</ele>
        <time>2013-03-03T12:12:46Z</time>
      </trkpt>
      <trkpt lat="47.24011" lon="-2.29775">
        <ele>21</ele>
        <time>2013-03-03T12:12:46Z</time>
      </trkpt>
      <trkpt lat="47.2401" lon="-2.29781">
        <ele>22</ele>
        <time>2013-03-03T12:12:51Z</time>
      </trkpt>
      <trkpt lat="47.24014" lon="-2.29791">
        <ele>23</ele>
        <time>2013-03-03T12:12:52Z</time>
      </trkpt>
      <trkpt lat="47.24017" lon="-2.29794">
        <ele>24</ele>
        <time>2013-03-03T12:12:53Z</time>
      </trkpt>
      <trkpt lat="47.24019" lon="-2.29796">
        <ele>26</ele>
        <time>2013-03-03T12:12:53Z</time>
      </trkpt>
      <trkpt lat="47.24025" lon="-2.29798">
        <ele>27</ele>
        <time>2013-03-03T12:12:59Z</time>
      </trkpt>
      <trkpt lat="47.2404" lon="-2.29803">
        <ele>28</ele>
        <time>2013-03-03T12:12:59Z</time>
      </trkpt>
      <trkpt lat="47.24061" lon="-2.29799">
        <ele>29</ele>
        <time>2013-03-03T12:13:04Z</time>
      </trkpt>
      <trkpt lat="47.24065" lon="-2.29795">
        <ele>30</ele>
        <time>2013-03-03T12:13:06Z</time>
      </trkpt>
      <trkpt lat="47.24068" lon="-2.29792">
        <ele>31</ele>
        <time>2013-03-03T12:13:07Z</time>
      </trkpt>
      <trkpt lat="47.24071" lon="-2.29786">
        <ele>31</ele>
        <time>2013-03-03T12:13:08Z</time>
      </trkpt>
      <trkpt lat="47.24068" lon="-2.29771">
        <ele>31</ele>
        <time>2013-03-03T12:13:13Z</time>
      </trkpt>
      <trkpt lat="47.2406" lon="-2.29745">
        <ele>31</ele>
        <time>2013-03-03T12:13:14Z</time>
      </trkpt>
      <trkpt lat="47.24057" lon="-2.29738">
        <ele>31</ele>
        <time>2013-03-03T12:13:15Z</time>
      </trkpt>
      <trkpt lat="47.24055" lon="-2.29732">
        <ele>31</ele>
        <time>2013-03-03T12:13:16Z</time>
      </trkpt>
      <trkpt lat="47.24051" lon="-2.2972">
        <ele>31</ele>
        <time>2013-03-03T12:13:20Z</time>
      </trkpt>
      <trkpt lat="47.24049" lon="-2.29703">
        <ele>31</ele>
        <time>2013-03-03T12:13:20Z</time>
      </trkpt>
      <trkpt lat="47.24049" lon="-2.29698">
        <ele>31</ele>
        <time>2013-03-03T12:13:21Z</time>
      </trkpt>
      <trkpt lat="47.2405" lon="-2.29693">
        <ele>31</ele>
        <time>2013-03-03T12:13:23Z</time>
      </trkpt>
      <trkpt lat="47.24049" lon="-2.29684">
        <ele>31</ele>
        <time>2013-03-03T12:13:27Z</time>
      </trkpt>
      <trkpt lat="47.24046" lon="-2.29668">
        <ele>30</ele>
        <time>2013-03-03T12:13:27Z</time>
      </trkpt>
      <trkpt lat="47.24045" lon="-2.29664">
        <ele>29</ele>
        <time>2013-03-03T12:13:28Z</time>
      </trkpt>
      <trkpt lat="47.24044" lon="-2.29655">
        <ele>29</ele>
        <time>2013-03-03T12:13:33Z</time>
      </trkpt>
      <trkpt lat="47.24041" lon="-2.29643">
        <ele>28</ele>
        <time>2013-03-03T12:13:34Z</time>
      </trkpt>
      <trkpt lat="47.24042" lon="-2.29639">
        <ele>27</ele>
        <time>2013-03-03T12:13:35Z</time>
      </trkpt>
      <trkpt lat="47.24044" lon="-2.29635">
        <ele>26</ele>
        <time>2013-03-03T12:13:36Z</time>
      </trkpt>
      <trkpt lat="47.24048" lon="-2.29631">
        <ele>26</ele>
        <time>2013-03-03T12:13:40Z</time>
      </trkpt>
      <trkpt lat="47.24055" lon="-2.29626">
        <ele>26</ele>
        <time>2013-03-03T12:13:40Z</time>
      </trkpt>
      <trkpt lat="47.24057" lon="-2.29624">
        <ele>26</ele>
        <time>2013-03-03T12:13:42Z</time>
      </trkpt>
      <trkpt lat="47.2406" lon="-2.29623">
        <ele>26</ele>
        <time>2013-03-03T12:13:43Z</time>
      </trkpt>
      <trkpt lat="47.24065" lon="-2.2962">
        <ele>26</ele>
        <time>2013-03-03T12:13:47Z</time>
      </trkpt>
      <trkpt lat="47.24078" lon="-2.29606">
        <ele>26</ele>
        <time>2013-03-03T12:13:51Z</time>
      </trkpt>
      <trkpt lat="47.241" lon="-2.29598">
        <ele>26</ele>
        <time>2013-03-03T12:13:54Z</time>
      </trkpt>
      <trkpt lat="47.24109" lon="-2.29591">
        <ele>26</ele>
        <time>2013-03-03T12:13:57Z</time>
      </trkpt>
      <trkpt lat="47.24117" lon="-2.29587">
        <ele>26</ele>
        <time>2013-03-03T12:14:02Z</time>
      </trkpt>
      <trkpt lat="47.24118" lon="-2.29575">
        <ele>27</ele>
        <time>2013-03-03T12:14:03Z</time>
      </trkpt>
      <trkpt lat="47.24116" lon="-2.2957">
        <ele>27</ele>
        <time>2013-03-03T12:14:04Z</time>
      </trkpt>
      <trkpt lat="47.24115" lon="-2.2956">
        <ele>27</ele>
        <time>2013-03-03T12:14:09Z</time>
      </trkpt>
      <trkpt lat="47.24107" lon="-2.2954">
        <ele>27</ele>
        <time>2013-03-03T12:14:09Z</time>
      </trkpt>
      <trkpt lat="47.241" lon="-2.29511">
        <ele>26</ele>
        <time>2013-03-03T12:14:14Z</time>
      </trkpt>
      <trkpt lat="47.24099" lon="-2.29504">
        <ele>25</ele>
        <time>2013-03-03T12:14:15Z</time>
      </trkpt>
      <trkpt lat="47.24097" lon="-2.29498">
        <ele>24</ele>
        <time>2013-03-03T12:14:16Z</time>
      </trkpt>
      <trkpt lat="47.24099" lon="-2.29488">
        <ele>23</ele>
        <time>2013-03-03T12:14:21Z</time>
      </trkpt>
      <trkpt lat="47.24105" lon="-2.29478">
        <ele>22</ele>
        <time>2013-03-03T12:14:21Z</time>
      </trkpt>
      <trkpt lat="47.24107" lon="-2.29477">
        <ele>21</ele>
        <time>2013-03-03T12:14:22Z</time>
      </trkpt>
      <trkpt lat="47.2411" lon="-2.29476">
        <ele>20</ele>
        <time>2013-03-03T12:14:24Z</time>
      </trkpt>
      <trkpt lat="47.24113" lon="-2.29473">
        <ele>19</ele>
        <time>2013-03-03T12:14:28Z</time>
      </trkpt>
      <trkpt lat="47.24119" lon="-2.29469">
        <ele>18</ele>
        <time>2013-03-03T12:14:29Z</time>
      </trkpt>
      <trkpt lat="47.2413" lon="-2.29459">
        <ele>17</ele>
        <time>2013-03-03T12:14:33Z</time>
      </trkpt>
      <trkpt lat="47.24132" lon="-2.29456">
        <ele>16</ele>
        <time>2013-03-03T12:14:34Z</time>
      </trkpt>
      <trkpt lat="47.24135" lon="-2.29454">
        <ele>16</ele>
        <time>2013-03-03T12:14:35Z</time>
      </trkpt>
      <trkpt lat="47.24142" lon="-2.2945">
        <ele>16</ele>
        <time>2013-03-03T12:14:40Z</time>
      </trkpt>
      <trkpt lat="47.24157" lon="-2.29447">
        <ele>16</ele>
        <time>2013-03-03T12:14:44Z</time>
      </trkpt>
      <trkpt lat="47.24168" lon="-2.29448">
        <ele>16</ele>
        <time>2013-03-03T12:14:44Z</time>
      </trkpt>
      <trkpt lat="47.24173" lon="-2.29448">
        <ele>16</ele>
        <time>2013-03-03T12:14:45Z</time>
      </trkpt>
      <trkpt lat="47.24177" lon="-2.29448">
        <ele>16</ele>
        <time>2013-03-03T12:14:46Z</time>
      </trkpt>
      <trkpt lat="47.24195" lon="-2.29452">
        <ele>16</ele>
        <time>2013-03-03T12:14:50Z</time>
      </trkpt>
      <trkpt lat="47.24203" lon="-2.29455">
        <ele>16</ele>
        <time>2013-03-03T12:14:55Z</time>
      </trkpt>
      <trkpt lat="47.24214" lon="-2.2946">
        <ele>16</ele>
        <time>2013-03-03T12:14:55Z</time>
      </trkpt>
      <trkpt lat="47.24217" lon="-2.29462">
        <ele>16</ele>
        <time>2013-03-03T12:14:56Z</time>
      </trkpt>
      <trkpt lat="47.2422" lon="-2.29463">
        <ele>16</ele>
        <time>2013-03-03T12:14:57Z</time>
      </trkpt>
      <trkpt lat="47.24226" lon="-2.29467">
        <ele>16</ele>
        <time>2013-03-03T12:15:02Z</time>
      </trkpt>
      <trkpt lat="47.2424" lon="-2.2947">
        <ele>16</ele>
        <time>2013-03-03T12:15:03Z</time>
      </trkpt>
      <trkpt lat="47.24244" lon="-2.29469">
        <ele>16</ele>
        <time>2013-03-03T12:15:04Z</time>
      </trkpt>
      <trkpt lat="47.24248" lon="-2.29468">
        <ele>16</ele>
        <time>2013-03-03T12:15:05Z</time>
      </trkpt>
      <trkpt lat="47.24256" lon="-2.29465">
        <ele>16</ele>
        <time>2013-03-03T12:15:09Z</time>
      </trkpt>
      <trkpt lat="47.24264" lon="-2.29461">
        <ele>16</ele>
        <time>2013-03-03T12:15:09Z</time>
      </trkpt>
      <trkpt lat="47.24267" lon="-2.29459">
        <ele>16</ele>
        <time>2013-03-03T12:15:11Z</time>
      </trkpt>
      <trkpt lat="47.2427" lon="-2.29458">
        <ele>16</ele>
        <time>2013-03-03T12:15:12Z</time>
      </trkpt>
      <trkpt lat="47.24273" lon="-2.29456">
        <ele>16</ele>
        <time>2013-03-03T12:15:13Z</time>
      </trkpt>
      <trkpt lat="47.24279" lon="-2.29452">
        <ele>15</ele>
        <time>2013-03-03T12:15:17Z</time>
      </trkpt>
      <trkpt lat="47.24291" lon="-2.29446">
        <ele>14</ele>
        <time>2013-03-03T12:15:17Z</time>
      </trkpt>
      <trkpt lat="47.24296" lon="-2.29445">
        <ele>13</ele>
        <time>2013-03-03T12:15:18Z</time>
      </trkpt>
      <trkpt lat="47.243" lon="-2.29445">
        <ele>12</ele>
        <time>2013-03-03T12:15:19Z</time>
      </trkpt>
      <trkpt lat="47.24307" lon="-2.29445">
        <ele>12</ele>
        <time>2013-03-03T12:15:25Z</time>
      </trkpt>
      <trkpt lat="47.24316" lon="-2.2945">
        <ele>12</ele>
        <time>2013-03-03T12:15:25Z</time>
      </trkpt>
      <trkpt lat="47.2432" lon="-2.29454">
        <ele>12</ele>
        <time>2013-03-03T12:15:27Z</time>
      </trkpt>
      <trkpt lat="47.24324" lon="-2.29456">
        <ele>12</ele>
        <time>2013-03-03T12:15:28Z</time>
      </trkpt>
      <trkpt lat="47.2433" lon="-2.29464">
        <ele>12</ele>
        <time>2013-03-03T12:15:32Z</time>
      </trkpt>
      <trkpt lat="47.24344" lon="-2.29474">
        <ele>12</ele>
        <time>2013-03-03T12:15:32Z</time>
      </trkpt>
      <trkpt lat="47.24348" lon="-2.29474">
        <ele>12</ele>
        <time>2013-03-03T12:15:33Z</time>
      </trkpt>
      <trkpt lat="47.24353" lon="-2.29473">
        <ele>12</ele>
        <time>2013-03-03T12:15:34Z</time>
      </trkpt>
      <trkpt lat="47.24372" lon="-2.29458">
        <ele>12</ele>
        <time>2013-03-03T12:15:40Z</time>
      </trkpt>
      <trkpt lat="47.24376" lon="-2.29455">
        <ele>12</ele>
        <time>2013-03-03T12:15:42Z</time>
      </trkpt>
      <trkpt lat="47.2438" lon="-2.29452">
        <ele>12</ele>
        <time>2013-03-03T12:15:42Z</time>
      </trkpt>
      <trkpt lat="47.24387" lon="-2.29446">
        <ele>12</ele>
        <time>2013-03-03T12:15:47Z</time>
      </trkpt>
      <trkpt lat="47.24401" lon="-2.29443">
        <ele>12</ele>
        <time>2013-03-03T12:15:47Z</time>
      </trkpt>
      <trkpt lat="47.24405" lon="-2.29443">
        <ele>12</ele>
        <time>2013-03-03T12:15:48Z</time>
      </trkpt>
      <trkpt lat="47.24409" lon="-2.29443">
        <ele>12</ele>
        <time>2013-03-03T12:15:49Z</time>
      </trkpt>
      <trkpt lat="47.24417" lon="-2.29443">
        <ele>13</ele>
        <time>2013-03-03T12:15:54Z</time>
      </trkpt>
      <trkpt lat="47.2443" lon="-2.29442">
        <ele>13</ele>
        <time>2013-03-03T12:15:54Z</time>
      </trkpt>
      <trkpt lat="47.24435" lon="-2.29442">
        <ele>13</ele>
        <time>2013-03-03T12:15:55Z</time>
      </trkpt>
      <trkpt lat="47.24443" lon="-2.29441">
        <ele>14</ele>
        <time>2013-03-03T12:16:00Z</time>
      </trkpt>
      <trkpt lat="47.24456" lon="-2.29439">
        <ele>14</ele>
        <time>2013-03-03T12:16:00Z</time>
      </trkpt>
      <trkpt lat="47.2446" lon="-2.29437">
        <ele>15</ele>
        <time>2013-03-03T12:16:01Z</time>
      </trkpt>
      <trkpt lat="47.24469" lon="-2.29436">
        <ele>16</ele>
        <time>2013-03-03T12:16:06Z</time>
      </trkpt>
      <trkpt lat="47.24485" lon="-2.29433">
        <ele>16</ele>
        <time>2013-03-03T12:16:06Z</time>
      </trkpt>
      <trkpt lat="47.24489" lon="-2.29432">
        <ele>16</ele>
        <time>2013-03-03T12:16:07Z</time>
      </trkpt>
      <trkpt lat="47.24497" lon="-2.29431">
        <ele>16</ele>
        <time>2013-03-03T12:16:12Z</time>
      </trkpt>
      <trkpt lat="47.2451" lon="-2.29427">
        <ele>16</ele>
        <time>2013-03-03T12:16:12Z</time>
      </trkpt>
      <trkpt lat="47.24513" lon="-2.29425">
        <ele>16</ele>
        <time>2013-03-03T12:16:13Z</time>
      </trkpt>
      <trkpt lat="47.24516" lon="-2.29423">
        <ele>16</ele>
        <time>2013-03-03T12:16:14Z</time>
      </trkpt>
      <trkpt lat="47.24517" lon="-2.29421">
        <ele>16</ele>
        <time>2013-03-03T12:16:16Z</time>
      </trkpt>
      <trkpt lat="47.2452" lon="-2.29418">
        <ele>16</ele>
        <time>2013-03-03T12:16:21Z</time>
      </trkpt>
      <trkpt lat="47.24521" lon="-2.29408">
        <ele>16</ele>
        <time>2013-03-03T12:16:21Z</time>
      </trkpt>
      <trkpt lat="47.24522" lon="-2.29405">
        <ele>16</ele>
        <time>2013-03-03T12:16:22Z</time>
      </trkpt>
      <trkpt lat="47.24519" lon="-2.29383">
        <ele>16</ele>
        <time>2013-03-03T12:16:28Z</time>
      </trkpt>
      <trkpt lat="47.24519" lon="-2.29379">
        <ele>17</ele>
        <time>2013-03-03T12:16:29Z</time>
      </trkpt>
      <trkpt lat="47.24518" lon="-2.29374">
        <ele>17</ele>
        <time>2013-03-03T12:16:30Z</time>
      </trkpt>
      <trkpt lat="47.24516" lon="-2.29367">
        <ele>17</ele>
        <time>2013-03-03T12:16:35Z</time>
      </trkpt>
      <trkpt lat="47.24514" lon="-2.29358">
        <ele>18</ele>
        <time>2013-03-03T12:16:35Z</time>
      </trkpt>
      <trkpt lat="47.24514" lon="-2.29355">
        <ele>19</ele>
        <time>2013-03-03T12:16:36Z</time>
      </trkpt>
      <trkpt lat="47.24514" lon="-2.29352">
        <ele>19</ele>
        <time>2013-03-03T12:16:38Z</time>
      </trkpt>
      <trkpt lat="47.24514" lon="-2.29343">
        <ele>20</ele>
        <time>2013-03-03T12:16:42Z</time>
      </trkpt>
      <trkpt lat="47.24514" lon="-2.29327">
        <ele>20</ele>
        <time>2013-03-03T12:16:42Z</time>
      </trkpt>
      <trkpt lat="47.24514" lon="-2.29322">
        <ele>20</ele>
        <time>2013-03-03T12:16:43Z</time>
      </trkpt>
      <trkpt lat="47.2451" lon="-2.29301">
        <ele>20</ele>
        <time>2013-03-03T12:16:48Z</time>
      </trkpt>
      <trkpt lat="47.24509" lon="-2.29298">
        <ele>20</ele>
        <time>2013-03-03T12:16:49Z</time>
      </trkpt>
      <trkpt lat="47.24507" lon="-2.2928">
        <ele>20</ele>
        <time>2013-03-03T12:16:54Z</time>
      </trkpt>
      <trkpt lat="47.24506" lon="-2.29278">
        <ele>20</ele>
        <time>2013-03-03T12:16:55Z</time>
      </trkpt>
      <trkpt lat="47.24506" lon="-2.29274">
        <ele>20</ele>
        <time>2013-03-03T12:16:56Z</time>
      </trkpt>
      <trkpt lat="47.24507" lon="-2.29265">
        <ele>20</ele>
        <time>2013-03-03T12:17:01Z</time>
      </trkpt>
      <trkpt lat="47.24509" lon="-2.2925">
        <ele>20</ele>
        <time>2013-03-03T12:17:01Z</time>
      </trkpt>
      <trkpt lat="47.24509" lon="-2.29244">
        <ele>20</ele>
        <time>2013-03-03T12:17:02Z</time>
      </trkpt>
      <trkpt lat="47.24509" lon="-2.29233">
        <ele>20</ele>
        <time>2013-03-03T12:17:07Z</time>
      </trkpt>
      <trkpt lat="47.24508" lon="-2.29217">
        <ele>20</ele>
        <time>2013-03-03T12:17:07Z</time>
      </trkpt>
      <trkpt lat="47.24509" lon="-2.29212">
        <ele>19</ele>
        <time>2013-03-03T12:17:08Z</time>
      </trkpt>
      <trkpt lat="47.2451" lon="-2.29208">
        <ele>18</ele>
        <time>2013-03-03T12:17:10Z</time>
      </trkpt>
      <trkpt lat="47.24513" lon="-2.29192">
        <ele>17</ele>
        <time>2013-03-03T12:17:15Z</time>
      </trkpt>
      <trkpt lat="47.24517" lon="-2.29178">
        <ele>16</ele>
        <time>2013-03-03T12:17:15Z</time>
      </trkpt>
      <trkpt lat="47.24517" lon="-2.29174">
        <ele>15</ele>
        <time>2013-03-03T12:17:16Z</time>
      </trkpt>
      <trkpt lat="47.24521" lon="-2.29166">
        <ele>15</ele>
        <time>2013-03-03T12:17:21Z</time>
      </trkpt>
      <trkpt lat="47.24527" lon="-2.29151">
        <ele>15</ele>
        <time>2013-03-03T12:17:21Z</time>
      </trkpt>
      <trkpt lat="47.24528" lon="-2.29147">
        <ele>15</ele>
        <time>2013-03-03T12:17:22Z</time>
      </trkpt>
      <trkpt lat="47.2453" lon="-2.29138">
        <ele>15</ele>
        <time>2013-03-03T12:17:27Z</time>
      </trkpt>
      <trkpt lat="47.24533" lon="-2.29124">
        <ele>15</ele>
        <time>2013-03-03T12:17:27Z</time>
      </trkpt>
      <trkpt lat="47.24535" lon="-2.29119">
        <ele>15</ele>
        <time>2013-03-03T12:17:28Z</time>
      </trkpt>
      <trkpt lat="47.24537" lon="-2.2911">
        <ele>15</ele>
        <time>2013-03-03T12:17:33Z</time>
      </trkpt>
      <trkpt lat="47.2454" lon="-2.29095">
        <ele>15</ele>
        <time>2013-03-03T12:17:33Z</time>
      </trkpt>
      <trkpt lat="47.24541" lon="-2.29089">
        <ele>15</ele>
        <time>2013-03-03T12:17:34Z</time>
      </trkpt>
      <trkpt lat="47.24545" lon="-2.29061">
        <ele>15</ele>
        <time>2013-03-03T12:17:39Z</time>
      </trkpt>
      <trkpt lat="47.24546" lon="-2.29056">
        <ele>15</ele>
        <time>2013-03-03T12:17:40Z</time>
      </trkpt>
      <trkpt lat="47.24546" lon="-2.29045">
        <ele>15</ele>
        <time>2013-03-03T12:17:46Z</time>
      </trkpt>
      <trkpt lat="47.24546" lon="-2.29021">
        <ele>14</ele>
        <time>2013-03-03T12:17:46Z</time>
      </trkpt>
      <trkpt lat="47.24546" lon="-2.29014">
        <ele>13</ele>
        <time>2013-03-03T12:17:47Z</time>
      </trkpt>
      <trkpt lat="47.24546" lon="-2.29009">
        <ele>12</ele>
        <time>2013-03-03T12:17:48Z</time>
      </trkpt>
      <trkpt lat="47.24543" lon="-2.28997">
        <ele>11</ele>
        <time>2013-03-03T12:17:53Z</time>
      </trkpt>
      <trkpt lat="47.2454" lon="-2.28979">
        <ele>10</ele>
        <time>2013-03-03T12:17:53Z</time>
      </trkpt>
      <trkpt lat="47.2454" lon="-2.28972">
        <ele>9</ele>
        <time>2013-03-03T12:17:54Z</time>
      </trkpt>
      <trkpt lat="47.24538" lon="-2.2896">
        <ele>8</ele>
        <time>2013-03-03T12:17:59Z</time>
      </trkpt>
      <trkpt lat="47.24534" lon="-2.28941">
        <ele>8</ele>
        <time>2013-03-03T12:17:59Z</time>
      </trkpt>
      <trkpt lat="47.24533" lon="-2.28935">
        <ele>7</ele>
        <time>2013-03-03T12:18:00Z</time>
      </trkpt>
      <trkpt lat="47.2453" lon="-2.28923">
        <ele>7</ele>
        <time>2013-03-03T12:18:05Z</time>
      </trkpt>
      <trkpt lat="47.24524" lon="-2.28904">
        <ele>7</ele>
        <time>2013-03-03T12:18:05Z</time>
      </trkpt>
      <trkpt lat="47.24522" lon="-2.28899">
        <ele>6</ele>
        <time>2013-03-03T12:18:06Z</time>
      </trkpt>
      <trkpt lat="47.24518" lon="-2.28873">
        <ele>6</ele>
        <time>2013-03-03T12:18:11Z</time>
      </trkpt>
      <trkpt lat="47.24519" lon="-2.28868">
        <ele>6</ele>
        <time>2013-03-03T12:18:13Z</time>
      </trkpt>
      <trkpt lat="47.24522" lon="-2.28863">
        <ele>6</ele>
        <time>2013-03-03T12:18:14Z</time>
      </trkpt>
      <trkpt lat="47.24525" lon="-2.28858">
        <ele>6</ele>
        <time>2013-03-03T12:18:15Z</time>
      </trkpt>
      <trkpt lat="47.24534" lon="-2.2885">
        <ele>6</ele>
        <time>2013-03-03T12:18:20Z</time>
      </trkpt>
      <trkpt lat="47.2455" lon="-2.28836">
        <ele>6</ele>
        <time>2013-03-03T12:18:20Z</time>
      </trkpt>
      <trkpt lat="47.24568" lon="-2.28816">
        <ele>6</ele>
        <time>2013-03-03T12:18:25Z</time>
      </trkpt>
      <trkpt lat="47.24572" lon="-2.28814">
        <ele>7</ele>
        <time>2013-03-03T12:18:27Z</time>
      </trkpt>
      <trkpt lat="47.24576" lon="-2.28813">
        <ele>8</ele>
        <time>2013-03-03T12:18:28Z</time>
      </trkpt>
      <trkpt lat="47.24584" lon="-2.28809">
        <ele>8</ele>
        <time>2013-03-03T12:18:32Z</time>
      </trkpt>
      <trkpt lat="47.24601" lon="-2.28798">
        <ele>8</ele>
        <time>2013-03-03T12:18:33Z</time>
      </trkpt>
      <trkpt lat="47.24605" lon="-2.28795">
        <ele>8</ele>
        <time>2013-03-03T12:18:34Z</time>
      </trkpt>
      <trkpt lat="47.24613" lon="-2.28786">
        <ele>9</ele>
        <time>2013-03-03T12:18:39Z</time>
      </trkpt>
      <trkpt lat="47.24624" lon="-2.28773">
        <ele>9</ele>
        <time>2013-03-03T12:18:39Z</time>
      </trkpt>
      <trkpt lat="47.24627" lon="-2.28769">
        <ele>10</ele>
        <time>2013-03-03T12:18:40Z</time>
      </trkpt>
      <trkpt lat="47.24632" lon="-2.2876">
        <ele>11</ele>
        <time>2013-03-03T12:18:45Z</time>
      </trkpt>
      <trkpt lat="47.2464" lon="-2.28747">
        <ele>12</ele>
        <time>2013-03-03T12:18:45Z</time>
      </trkpt>
      <trkpt lat="47.24643" lon="-2.28742">
        <ele>13</ele>
        <time>2013-03-03T12:18:46Z</time>
      </trkpt>
      <trkpt lat="47.24661" lon="-2.2872">
        <ele>14</ele>
        <time>2013-03-03T12:18:51Z</time>
      </trkpt>
      <trkpt lat="47.24665" lon="-2.28716">
        <ele>14</ele>
        <time>2013-03-03T12:18:52Z</time>
      </trkpt>
      <trkpt lat="47.24672" lon="-2.28709">
        <ele>15</ele>
        <time>2013-03-03T12:18:58Z</time>
      </trkpt>
      <trkpt lat="47.24685" lon="-2.28692">
        <ele>15</ele>
        <time>2013-03-03T12:18:58Z</time>
      </trkpt>
      <trkpt lat="47.24688" lon="-2.28687">
        <ele>15</ele>
        <time>2013-03-03T12:18:59Z</time>
      </trkpt>
      <trkpt lat="47.24694" lon="-2.28679">
        <ele>15</ele>
        <time>2013-03-03T12:19:04Z</time>
      </trkpt>
      <trkpt lat="47.24704" lon="-2.28666">
        <ele>16</ele>
        <time>2013-03-03T12:19:04Z</time>
      </trkpt>
      <trkpt lat="47.24707" lon="-2.28662">
        <ele>16</ele>
        <time>2013-03-03T12:19:05Z</time>
      </trkpt>
      <trkpt lat="47.24711" lon="-2.28659">
        <ele>17</ele>
        <time>2013-03-03T12:19:07Z</time>
      </trkpt>
      <trkpt lat="47.24729" lon="-2.28641">
        <ele>17</ele>
        <time>2013-03-03T12:19:11Z</time>
      </trkpt>
      <trkpt lat="47.24732" lon="-2.28636">
        <ele>17</ele>
        <time>2013-03-03T12:19:12Z</time>
      </trkpt>
      <trkpt lat="47.24735" lon="-2.28632">
        <ele>17</ele>
        <time>2013-03-03T12:19:14Z</time>
      </trkpt>
      <trkpt lat="47.24739" lon="-2.28622">
        <ele>18</ele>
        <time>2013-03-03T12:19:18Z</time>
      </trkpt>
      <trkpt lat="47.24743" lon="-2.28597">
        <ele>18</ele>
        <time>2013-03-03T12:19:19Z</time>
      </trkpt>
      <trkpt lat="47.24744" lon="-2.28591">
        <ele>18</ele>
        <time>2013-03-03T12:19:21Z</time>
      </trkpt>
      <trkpt lat="47.24745" lon="-2.28586">
        <ele>18</ele>
        <time>2013-03-03T12:19:22Z</time>
      </trkpt>
      <trkpt lat="47.2475" lon="-2.28575">
        <ele>18</ele>
        <time>2013-03-03T12:19:26Z</time>
      </trkpt>
      <trkpt lat="47.24763" lon="-2.28561">
        <ele>18</ele>
        <time>2013-03-03T12:19:27Z</time>
      </trkpt>
      <trkpt lat="47.24767" lon="-2.28557">
        <ele>18</ele>
        <time>2013-03-03T12:19:28Z</time>
      </trkpt>
      <trkpt lat="47.24771" lon="-2.28553">
        <ele>18</ele>
        <time>2013-03-03T12:19:29Z</time>
      </trkpt>
      <trkpt lat="47.24778" lon="-2.28545">
        <ele>18</ele>
        <time>2013-03-03T12:19:33Z</time>
      </trkpt>
      <trkpt lat="47.24788" lon="-2.28535">
        <ele>18</ele>
        <time>2013-03-03T12:19:33Z</time>
      </trkpt>
      <trkpt lat="47.24791" lon="-2.28531">
        <ele>18</ele>
        <time>2013-03-03T12:19:34Z</time>
      </trkpt>
      <trkpt lat="47.24807" lon="-2.28519">
        <ele>18</ele>
        <time>2013-03-03T12:19:39Z</time>
      </trkpt>
      <trkpt lat="47.2481" lon="-2.28517">
        <ele>18</ele>
        <time>2013-03-03T12:19:40Z</time>
      </trkpt>
      <trkpt lat="47.24815" lon="-2.28513">
        <ele>18</ele>
        <time>2013-03-03T12:19:46Z</time>
      </trkpt>
      <trkpt lat="47.24827" lon="-2.28505">
        <ele>18</ele>
        <time>2013-03-03T12:19:46Z</time>
      </trkpt>
      <trkpt lat="47.2483" lon="-2.28503">
        <ele>18</ele>
        <time>2013-03-03T12:19:47Z</time>
      </trkpt>
      <trkpt lat="47.24837" lon="-2.28498">
        <ele>18</ele>
        <time>2013-03-03T12:19:52Z</time>
      </trkpt>
      <trkpt lat="47.24848" lon="-2.28488">
        <ele>18</ele>
        <time>2013-03-03T12:19:52Z</time>
      </trkpt>
      <trkpt lat="47.24852" lon="-2.28485">
        <ele>18</ele>
        <time>2013-03-03T12:19:53Z</time>
      </trkpt>
      <trkpt lat="47.24859" lon="-2.28477">
        <ele>18</ele>
        <time>2013-03-03T12:19:58Z</time>
      </trkpt>
      <trkpt lat="47.24869" lon="-2.28464">
        <ele>18</ele>
        <time>2013-03-03T12:19:58Z</time>
      </trkpt>
      <trkpt lat="47.24873" lon="-2.28459">
        <ele>18</ele>
        <time>2013-03-03T12:19:59Z</time>
      </trkpt>
      <trkpt lat="47.24892" lon="-2.28441">
        <ele>18</ele>
        <time>2013-03-03T12:20:04Z</time>
      </trkpt>
      <trkpt lat="47.24895" lon="-2.28439">
        <ele>18</ele>
        <time>2013-03-03T12:20:05Z</time>
      </trkpt>
      <trkpt lat="47.24899" lon="-2.28437">
        <ele>18</ele>
        <time>2013-03-03T12:20:07Z</time>
      </trkpt>
      <trkpt lat="47.24909" lon="-2.28433">
        <ele>18</ele>
        <time>2013-03-03T12:20:11Z</time>
      </trkpt>
      <trkpt lat="47.24923" lon="-2.28428">
        <ele>18</ele>
        <time>2013-03-03T12:20:11Z</time>
      </trkpt>
      <trkpt lat="47.24927" lon="-2.28427">
        <ele>18</ele>
        <time>2013-03-03T12:20:12Z</time>
      </trkpt>
      <trkpt lat="47.24954" lon="-2.28417">
        <ele>17</ele>
        <time>2013-03-03T12:20:17Z</time>
      </trkpt>
      <trkpt lat="47.24959" lon="-2.28415">
        <ele>16</ele>
        <time>2013-03-03T12:20:18Z</time>
      </trkpt>
      <trkpt lat="47.24964" lon="-2.28413">
        <ele>15</ele>
        <time>2013-03-03T12:20:19Z</time>
      </trkpt>
      <trkpt lat="47.24975" lon="-2.28405">
        <ele>14</ele>
        <time>2013-03-03T12:20:24Z</time>
      </trkpt>
      <trkpt lat="47.24988" lon="-2.28384">
        <ele>13</ele>
        <time>2013-03-03T12:20:24Z</time>
      </trkpt>
      <trkpt lat="47.2499" lon="-2.28376">
        <ele>12</ele>
        <time>2013-03-03T12:20:26Z</time>
      </trkpt>
      <trkpt lat="47.24993" lon="-2.28369">
        <ele>11</ele>
        <time>2013-03-03T12:20:26Z</time>
      </trkpt>
      <trkpt lat="47.24998" lon="-2.28357">
        <ele>11</ele>
        <time>2013-03-03T12:20:31Z</time>
      </trkpt>
      <trkpt lat="47.25007" lon="-2.28345">
        <ele>11</ele>
        <time>2013-03-03T12:20:31Z</time>
      </trkpt>
      <trkpt lat="47.25011" lon="-2.28342">
        <ele>10</ele>
        <time>2013-03-03T12:20:33Z</time>
      </trkpt>
      <trkpt lat="47.25014" lon="-2.28339">
        <ele>10</ele>
        <time>2013-03-03T12:20:33Z</time>
      </trkpt>
      <trkpt lat="47.25019" lon="-2.28331">
        <ele>10</ele>
        <time>2013-03-03T12:20:38Z</time>
      </trkpt>
      <trkpt lat="47.25021" lon="-2.28317">
        <ele>10</ele>
        <time>2013-03-03T12:20:38Z</time>
      </trkpt>
      <trkpt lat="47.2502" lon="-2.28312">
        <ele>10</ele>
        <time>2013-03-03T12:20:39Z</time>
      </trkpt>
      <trkpt lat="47.25021" lon="-2.28307">
        <ele>10</ele>
        <time>2013-03-03T12:20:41Z</time>
      </trkpt>
      <trkpt lat="47.25022" lon="-2.28295">
        <ele>10</ele>
        <time>2013-03-03T12:20:46Z</time>
      </trkpt>
      <trkpt lat="47.25027" lon="-2.28271">
        <ele>10</ele>
        <time>2013-03-03T12:20:47Z</time>
      </trkpt>
      <trkpt lat="47.25028" lon="-2.28264">
        <ele>10</ele>
        <time>2013-03-03T12:20:47Z</time>
      </trkpt>
      <trkpt lat="47.25034" lon="-2.28236">
        <ele>10</ele>
        <time>2013-03-03T12:20:52Z</time>
      </trkpt>
      <trkpt lat="47.25036" lon="-2.28228">
        <ele>10</ele>
        <time>2013-03-03T12:20:53Z</time>
      </trkpt>
      <trkpt lat="47.25038" lon="-2.28222">
        <ele>10</ele>
        <time>2013-03-03T12:20:54Z</time>
      </trkpt>
      <trkpt lat="47.25041" lon="-2.2821">
        <ele>10</ele>
        <time>2013-03-03T12:20:59Z</time>
      </trkpt>
      <trkpt lat="47.25047" lon="-2.28192">
        <ele>10</ele>
        <time>2013-03-03T12:20:59Z</time>
      </trkpt>
      <trkpt lat="47.25047" lon="-2.28187">
        <ele>10</ele>
        <time>2013-03-03T12:21:00Z</time>
      </trkpt>
      <trkpt lat="47.25055" lon="-2.28161">
        <ele>10</ele>
        <time>2013-03-03T12:21:05Z</time>
      </trkpt>
      <trkpt lat="47.25057" lon="-2.28156">
        <ele>10</ele>
        <time>2013-03-03T12:21:07Z</time>
      </trkpt>
      <trkpt lat="47.25058" lon="-2.28151">
        <ele>10</ele>
        <time>2013-03-03T12:21:07Z</time>
      </trkpt>
      <trkpt lat="47.25066" lon="-2.28125">
        <ele>10</ele>
        <time>2013-03-03T12:21:12Z</time>
      </trkpt>
      <trkpt lat="47.25067" lon="-2.28118">
        <ele>10</ele>
        <time>2013-03-03T12:21:13Z</time>
      </trkpt>
      <trkpt lat="47.25069" lon="-2.28108">
        <ele>10</ele>
        <time>2013-03-03T12:21:19Z</time>
      </trkpt>
      <trkpt lat="47.25074" lon="-2.28092">
        <ele>10</ele>
        <time>2013-03-03T12:21:19Z</time>
      </trkpt>
      <trkpt lat="47.25076" lon="-2.28089">
        <ele>10</ele>
        <time>2013-03-03T12:21:21Z</time>
      </trkpt>
      <trkpt lat="47.25078" lon="-2.28086">
        <ele>10</ele>
        <time>2013-03-03T12:21:22Z</time>
      </trkpt>
      <trkpt lat="47.25081" lon="-2.28081">
        <ele>10</ele>
        <time>2013-03-03T12:21:26Z</time>
      </trkpt>
      <trkpt lat="47.25086" lon="-2.2807">
        <ele>11</ele>
        <time>2013-03-03T12:21:26Z</time>
      </trkpt>
      <trkpt lat="47.25088" lon="-2.28066">
        <ele>11</ele>
        <time>2013-03-03T12:21:27Z</time>
      </trkpt>
      <trkpt lat="47.25091" lon="-2.2806">
        <ele>12</ele>
        <time>2013-03-03T12:21:32Z</time>
      </trkpt>
      <trkpt lat="47.25098" lon="-2.2804">
        <ele>12</ele>
        <time>2013-03-03T12:21:33Z</time>
      </trkpt>
      <trkpt lat="47.251" lon="-2.28035">
        <ele>13</ele>
        <time>2013-03-03T12:21:34Z</time>
      </trkpt>
      <trkpt lat="47.25104" lon="-2.28026">
        <ele>13</ele>
        <time>2013-03-03T12:21:39Z</time>
      </trkpt>
      <trkpt lat="47.25111" lon="-2.28012">
        <ele>14</ele>
        <time>2013-03-03T12:21:39Z</time>
      </trkpt>
      <trkpt lat="47.25114" lon="-2.28007">
        <ele>14</ele>
        <time>2013-03-03T12:21:40Z</time>
      </trkpt>
      <trkpt lat="47.25129" lon="-2.27981">
        <ele>15</ele>
        <time>2013-03-03T12:21:45Z</time>
      </trkpt>
      <trkpt lat="47.25132" lon="-2.27976">
        <ele>16</ele>
        <time>2013-03-03T12:21:46Z</time>
      </trkpt>
      <trkpt lat="47.25137" lon="-2.27969">
        <ele>17</ele>
        <time>2013-03-03T12:21:52Z</time>
      </trkpt>
      <trkpt lat="47.2515" lon="-2.27958">
        <ele>17</ele>
        <time>2013-03-03T12:21:52Z</time>
      </trkpt>
      <trkpt lat="47.25153" lon="-2.27956">
        <ele>17</ele>
        <time>2013-03-03T12:21:53Z</time>
      </trkpt>
      <trkpt lat="47.25156" lon="-2.27953">
        <ele>17</ele>
        <time>2013-03-03T12:21:55Z</time>
      </trkpt>
      <trkpt lat="47.25161" lon="-2.27949">
        <ele>17</ele>
        <time>2013-03-03T12:21:59Z</time>
      </trkpt>
      <trkpt lat="47.2517" lon="-2.27942">
        <ele>17</ele>
        <time>2013-03-03T12:21:59Z</time>
      </trkpt>
      <trkpt lat="47.25173" lon="-2.2794">
        <ele>17</ele>
        <time>2013-03-03T12:22:00Z</time>
      </trkpt>
      <trkpt lat="47.2518" lon="-2.27935">
        <ele>17</ele>
        <time>2013-03-03T12:22:05Z</time>
      </trkpt>
      <trkpt lat="47.25197" lon="-2.27922">
        <ele>17</ele>
        <time>2013-03-03T12:22:08Z</time>
      </trkpt>
      <trkpt lat="47.25206" lon="-2.27914">
        <ele>17</ele>
        <time>2013-03-03T12:22:10Z</time>
      </trkpt>
      <trkpt lat="47.25212" lon="-2.27909">
        <ele>17</ele>
        <time>2013-03-03T12:22:13Z</time>
      </trkpt>
      <trkpt lat="47.25218" lon="-2.27906">
        <ele>17</ele>
        <time>2013-03-03T12:22:16Z</time>
      </trkpt>
      <trkpt lat="47.25227" lon="-2.27899">
        <ele>18</ele>
        <time>2013-03-03T12:22:20Z</time>
      </trkpt>
      <trkpt lat="47.2524" lon="-2.2789">
        <ele>19</ele>
        <time>2013-03-03T12:22:21Z</time>
      </trkpt>
      <trkpt lat="47.25244" lon="-2.27889">
        <ele>20</ele>
        <time>2013-03-03T12:22:22Z</time>
      </trkpt>
      <trkpt lat="47.25251" lon="-2.27886">
        <ele>21</ele>
        <time>2013-03-03T12:22:24Z</time>
      </trkpt>
      <trkpt lat="47.25258" lon="-2.27883">
        <ele>22</ele>
        <time>2013-03-03T12:22:27Z</time>
      </trkpt>
      <trkpt lat="47.25265" lon="-2.27881">
        <ele>23</ele>
        <time>2013-03-03T12:22:31Z</time>
      </trkpt>
      <trkpt lat="47.25281" lon="-2.27878">
        <ele>24</ele>
        <time>2013-03-03T12:22:36Z</time>
      </trkpt>
      <trkpt lat="47.25297" lon="-2.27876">
        <ele>24</ele>
        <time>2013-03-03T12:22:36Z</time>
      </trkpt>
      <trkpt lat="47.25301" lon="-2.27876">
        <ele>24</ele>
        <time>2013-03-03T12:22:37Z</time>
      </trkpt>
      <trkpt lat="47.2531" lon="-2.27876">
        <ele>24</ele>
        <time>2013-03-03T12:22:42Z</time>
      </trkpt>
      <trkpt lat="47.25326" lon="-2.27875">
        <ele>24</ele>
        <time>2013-03-03T12:22:42Z</time>
      </trkpt>
      <trkpt lat="47.25331" lon="-2.27874">
        <ele>24</ele>
        <time>2013-03-03T12:22:43Z</time>
      </trkpt>
      <trkpt lat="47.25341" lon="-2.27873">
        <ele>24</ele>
        <time>2013-03-03T12:22:49Z</time>
      </trkpt>
      <trkpt lat="47.25359" lon="-2.27869">
        <ele>24</ele>
        <time>2013-03-03T12:22:49Z</time>
      </trkpt>
      <trkpt lat="47.25364" lon="-2.27868">
        <ele>24</ele>
        <time>2013-03-03T12:22:50Z</time>
      </trkpt>
      <trkpt lat="47.25371" lon="-2.27866">
        <ele>24</ele>
        <time>2013-03-03T12:22:55Z</time>
      </trkpt>
      <trkpt lat="47.25383" lon="-2.27863">
        <ele>23</ele>
        <time>2013-03-03T12:22:55Z</time>
      </trkpt>
      <trkpt lat="47.25386" lon="-2.27861">
        <ele>23</ele>
        <time>2013-03-03T12:22:56Z</time>
      </trkpt>
      <trkpt lat="47.25393" lon="-2.27858">
        <ele>23</ele>
        <time>2013-03-03T12:22:59Z</time>
      </trkpt>
      <trkpt lat="47.25399" lon="-2.27854">
        <ele>23</ele>
        <time>2013-03-03T12:23:04Z</time>
      </trkpt>
      <trkpt lat="47.25408" lon="-2.27849">
        <ele>23</ele>
        <time>2013-03-03T12:23:04Z</time>
      </trkpt>
      <trkpt lat="47.25412" lon="-2.27846">
        <ele>23</ele>
        <time>2013-03-03T12:23:05Z</time>
      </trkpt>
      <trkpt lat="47.25432" lon="-2.27833">
        <ele>23</ele>
        <time>2013-03-03T12:23:10Z</time>
      </trkpt>
      <trkpt lat="47.25436" lon="-2.27829">
        <ele>23</ele>
        <time>2013-03-03T12:23:11Z</time>
      </trkpt>
      <trkpt lat="47.25439" lon="-2.27826">
        <ele>23</ele>
        <time>2013-03-03T12:23:12Z</time>
      </trkpt>
      <trkpt lat="47.25445" lon="-2.2782">
        <ele>23</ele>
        <time>2013-03-03T12:23:17Z</time>
      </trkpt>
      <trkpt lat="47.25452" lon="-2.27811">
        <ele>23</ele>
        <time>2013-03-03T12:23:17Z</time>
      </trkpt>
      <trkpt lat="47.25454" lon="-2.27808">
        <ele>23</ele>
        <time>2013-03-03T12:23:18Z</time>
      </trkpt>
      <trkpt lat="47.25457" lon="-2.27803">
        <ele>23</ele>
        <time>2013-03-03T12:23:23Z</time>
      </trkpt>
      <trkpt lat="47.25466" lon="-2.27795">
        <ele>23</ele>
        <time>2013-03-03T12:23:24Z</time>
      </trkpt>
      <trkpt lat="47.25469" lon="-2.27793">
        <ele>23</ele>
        <time>2013-03-03T12:23:25Z</time>
      </trkpt>
      <trkpt lat="47.25473" lon="-2.27787">
        <ele>23</ele>
        <time>2013-03-03T12:23:31Z</time>
      </trkpt>
      <trkpt lat="47.25483" lon="-2.27776">
        <ele>23</ele>
        <time>2013-03-03T12:23:31Z</time>
      </trkpt>
      <trkpt lat="47.25486" lon="-2.27773">
        <ele>24</ele>
        <time>2013-03-03T12:23:32Z</time>
      </trkpt>
      <trkpt lat="47.2549" lon="-2.27768">
        <ele>25</ele>
        <time>2013-03-03T12:23:37Z</time>
      </trkpt>
      <trkpt lat="47.25499" lon="-2.27765">
        <ele>26</ele>
        <time>2013-03-03T12:23:37Z</time>
      </trkpt>
      <trkpt lat="47.25502" lon="-2.27765">
        <ele>27</ele>
        <time>2013-03-03T12:23:39Z</time>
      </trkpt>
      <trkpt lat="47.25505" lon="-2.27767">
        <ele>28</ele>
        <time>2013-03-03T12:23:40Z</time>
      </trkpt>
      <trkpt lat="47.25507" lon="-2.27769">
        <ele>29</ele>
        <time>2013-03-03T12:23:41Z</time>
      </trkpt>
      <trkpt lat="47.2551" lon="-2.27772">
        <ele>30</ele>
        <time>2013-03-03T12:23:46Z</time>
      </trkpt>
      <trkpt lat="47.25517" lon="-2.27781">
        <ele>30</ele>
        <time>2013-03-03T12:23:46Z</time>
      </trkpt>
      <trkpt lat="47.25519" lon="-2.27784">
        <ele>30</ele>
        <time>2013-03-03T12:23:48Z</time>
      </trkpt>
      <trkpt lat="47.25521" lon="-2.27788">
        <ele>30</ele>
        <time>2013-03-03T12:23:53Z</time>
      </trkpt>
      <trkpt lat="47.25529" lon="-2.27799">
        <ele>30</ele>
        <time>2013-03-03T12:23:53Z</time>
      </trkpt>
      <trkpt lat="47.25532" lon="-2.27803">
        <ele>30</ele>
        <time>2013-03-03T12:23:54Z</time>
      </trkpt>
      <trkpt lat="47.25536" lon="-2.27811">
        <ele>30</ele>
        <time>2013-03-03T12:23:59Z</time>
      </trkpt>
      <trkpt lat="47.25544" lon="-2.2782">
        <ele>30</ele>
        <time>2013-03-03T12:23:59Z</time>
      </trkpt>
      <trkpt lat="47.25546" lon="-2.27823">
        <ele>30</ele>
        <time>2013-03-03T12:24:00Z</time>
      </trkpt>
      <trkpt lat="47.2555" lon="-2.27829">
        <ele>30</ele>
        <time>2013-03-03T12:24:05Z</time>
      </trkpt>
      <trkpt lat="47.2556" lon="-2.27842">
        <ele>30</ele>
        <time>2013-03-03T12:24:06Z</time>
      </trkpt>
      <trkpt lat="47.25562" lon="-2.27845">
        <ele>30</ele>
        <time>2013-03-03T12:24:07Z</time>
      </trkpt>
      <trkpt lat="47.25567" lon="-2.27852">
        <ele>30</ele>
        <time>2013-03-03T12:24:12Z</time>
      </trkpt>
      <trkpt lat="47.25575" lon="-2.27861">
        <ele>30</ele>
        <time>2013-03-03T12:24:12Z</time>
      </trkpt>
      <trkpt lat="47.25577" lon="-2.27864">
        <ele>30</ele>
        <time>2013-03-03T12:24:13Z</time>
      </trkpt>
      <trkpt lat="47.25582" lon="-2.27869">
        <ele>30</ele>
        <time>2013-03-03T12:24:18Z</time>
      </trkpt>
      <trkpt lat="47.25591" lon="-2.2788">
        <ele>30</ele>
        <time>2013-03-03T12:24:19Z</time>
      </trkpt>
      <trkpt lat="47.25594" lon="-2.27883">
        <ele>30</ele>
        <time>2013-03-03T12:24:20Z</time>
      </trkpt>
      <trkpt lat="47.25599" lon="-2.27887">
        <ele>30</ele>
        <time>2013-03-03T12:24:25Z</time>
      </trkpt>
      <trkpt lat="47.25608" lon="-2.27895">
        <ele>30</ele>
        <time>2013-03-03T12:24:25Z</time>
      </trkpt>
      <trkpt lat="47.2561" lon="-2.27898">
        <ele>31</ele>
        <time>2013-03-03T12:24:26Z</time>
      </trkpt>
      <trkpt lat="47.25618" lon="-2.27904">
        <ele>31</ele>
        <time>2013-03-03T12:24:32Z</time>
      </trkpt>
      <trkpt lat="47.25633" lon="-2.27919">
        <ele>31</ele>
        <time>2013-03-03T12:24:32Z</time>
      </trkpt>
      <trkpt lat="47.25636" lon="-2.27923">
        <ele>31</ele>
        <time>2013-03-03T12:24:33Z</time>
      </trkpt>
      <trkpt lat="47.25644" lon="-2.27931">
        <ele>31</ele>
        <time>2013-03-03T12:24:38Z</time>
      </trkpt>
      <trkpt lat="47.25651" lon="-2.27942">
        <ele>32</ele>
        <time>2013-03-03T12:24:38Z</time>
      </trkpt>
      <trkpt lat="47.25652" lon="-2.27947">
        <ele>33</ele>
        <time>2013-03-03T12:24:39Z</time>
      </trkpt>
      <trkpt lat="47.25654" lon="-2.27952">
        <ele>33</ele>
        <time>2013-03-03T12:24:40Z</time>
      </trkpt>
      <trkpt lat="47.25658" lon="-2.2796">
        <ele>34</ele>
        <time>2013-03-03T12:24:45Z</time>
      </trkpt>
      <trkpt lat="47.25663" lon="-2.2797">
        <ele>35</ele>
        <time>2013-03-03T12:24:45Z</time>
      </trkpt>
      <trkpt lat="47.25664" lon="-2.27972">
        <ele>36</ele>
        <time>2013-03-03T12:24:46Z</time>
      </trkpt>
      <trkpt lat="47.25668" lon="-2.2798">
        <ele>37</ele>
        <time>2013-03-03T12:24:52Z</time>
      </trkpt>
      <trkpt lat="47.25676" lon="-2.27991">
        <ele>38</ele>
        <time>2013-03-03T12:24:52Z</time>
      </trkpt>
      <trkpt lat="47.25678" lon="-2.27993">
        <ele>39</ele>
        <time>2013-03-03T12:24:53Z</time>
      </trkpt>
      <trkpt lat="47.2568" lon="-2.27996">
        <ele>40</ele>
        <time>2013-03-03T12:24:54Z</time>
      </trkpt>
      <trkpt lat="47.25685" lon="-2.28002">
        <ele>41</ele>
        <time>2013-03-03T12:24:59Z</time>
      </trkpt>
      <trkpt lat="47.25692" lon="-2.28009">
        <ele>42</ele>
        <time>2013-03-03T12:24:59Z</time>
      </trkpt>
      <trkpt lat="47.25694" lon="-2.28011">
        <ele>43</ele>
        <time>2013-03-03T12:25:00Z</time>
      </trkpt>
      <trkpt lat="47.25697" lon="-2.28016">
        <ele>44</ele>
        <time>2013-03-03T12:25:06Z</time>
      </trkpt>
      <trkpt lat="47.25708" lon="-2.28027">
        <ele>45</ele>
        <time>2013-03-03T12:25:07Z</time>
      </trkpt>
      <trkpt lat="47.2571" lon="-2.2803">
        <ele>45</ele>
        <time>2013-03-03T12:25:07Z</time>
      </trkpt>
      <trkpt lat="47.25721" lon="-2.28047">
        <ele>45</ele>
        <time>2013-03-03T12:25:12Z</time>
      </trkpt>
      <trkpt lat="47.25725" lon="-2.28051">
        <ele>45</ele>
        <time>2013-03-03T12:25:13Z</time>
      </trkpt>
      <trkpt lat="47.2573" lon="-2.28057">
        <ele>45</ele>
        <time>2013-03-03T12:25:19Z</time>
      </trkpt>
      <trkpt lat="47.2574" lon="-2.28069">
        <ele>45</ele>
        <time>2013-03-03T12:25:19Z</time>
      </trkpt>
      <trkpt lat="47.25744" lon="-2.28072">
        <ele>45</ele>
        <time>2013-03-03T12:25:20Z</time>
      </trkpt>
      <trkpt lat="47.25761" lon="-2.28086">
        <ele>45</ele>
        <time>2013-03-03T12:25:25Z</time>
      </trkpt>
      <trkpt lat="47.25764" lon="-2.28088">
        <ele>45</ele>
        <time>2013-03-03T12:25:26Z</time>
      </trkpt>
      <trkpt lat="47.25772" lon="-2.28094">
        <ele>45</ele>
        <time>2013-03-03T12:25:32Z</time>
      </trkpt>
      <trkpt lat="47.2579" lon="-2.28109">
        <ele>45</ele>
        <time>2013-03-03T12:25:32Z</time>
      </trkpt>
      <trkpt lat="47.25795" lon="-2.28113">
        <ele>44</ele>
        <time>2013-03-03T12:25:33Z</time>
      </trkpt>
      <trkpt lat="47.25814" lon="-2.28129">
        <ele>43</ele>
        <time>2013-03-03T12:25:38Z</time>
      </trkpt>
      <trkpt lat="47.25816" lon="-2.28132">
        <ele>42</ele>
        <time>2013-03-03T12:25:39Z</time>
      </trkpt>
      <trkpt lat="47.25823" lon="-2.28137">
        <ele>41</ele>
        <time>2013-03-03T12:25:45Z</time>
      </trkpt>
      <trkpt lat="47.25835" lon="-2.2815">
        <ele>40</ele>
        <time>2013-03-03T12:25:45Z</time>
      </trkpt>
      <trkpt lat="47.25839" lon="-2.28154">
        <ele>39</ele>
        <time>2013-03-03T12:25:46Z</time>
      </trkpt>
      <trkpt lat="47.25857" lon="-2.28173">
        <ele>38</ele>
        <time>2013-03-03T12:25:51Z</time>
      </trkpt>
      <trkpt lat="47.25861" lon="-2.28176">
        <ele>37</ele>
        <time>2013-03-03T12:25:52Z</time>
      </trkpt>
      <trkpt lat="47.25868" lon="-2.28183">
        <ele>36</ele>
        <time>2013-03-03T12:25:58Z</time>
      </trkpt>
      <trkpt lat="47.25882" lon="-2.28191">
        <ele>35</ele>
        <time>2013-03-03T12:25:58Z</time>
      </trkpt>
      <trkpt lat="47.25886" lon="-2.28191">
        <ele>34</ele>
        <time>2013-03-03T12:26:00Z</time>
      </trkpt>
      <trkpt lat="47.2589" lon="-2.28191">
        <ele>33</ele>
        <time>2013-03-03T12:26:01Z</time>
      </trkpt>
      <trkpt lat="47.25906" lon="-2.28193">
        <ele>33</ele>
        <time>2013-03-03T12:26:05Z</time>
      </trkpt>
      <trkpt lat="47.2591" lon="-2.28194">
        <ele>33</ele>
        <time>2013-03-03T12:26:06Z</time>
      </trkpt>
      <trkpt lat="47.25912" lon="-2.28193">
        <ele>33</ele>
        <time>2013-03-03T12:26:07Z</time>
      </trkpt>
      <trkpt lat="47.2592" lon="-2.28163">
        <ele>33</ele>
        <time>2013-03-03T12:26:13Z</time>
      </trkpt>
      <trkpt lat="47.2592" lon="-2.28157">
        <ele>33</ele>
        <time>2013-03-03T12:26:15Z</time>
      </trkpt>
      <trkpt lat="47.25919" lon="-2.28151">
        <ele>33</ele>
        <time>2013-03-03T12:26:15Z</time>
      </trkpt>
      <trkpt lat="47.25917" lon="-2.28139">
        <ele>33</ele>
        <time>2013-03-03T12:26:20Z</time>
      </trkpt>
      <trkpt lat="47.25916" lon="-2.28119">
        <ele>33</ele>
        <time>2013-03-03T12:26:20Z</time>
      </trkpt>
      <trkpt lat="47.25916" lon="-2.28113">
        <ele>33</ele>
        <time>2013-03-03T12:26:21Z</time>
      </trkpt>
      <trkpt lat="47.25917" lon="-2.28107">
        <ele>33</ele>
        <time>2013-03-03T12:26:23Z</time>
      </trkpt>
      <trkpt lat="47.25918" lon="-2.28097">
        <ele>33</ele>
        <time>2013-03-03T12:26:28Z</time>
      </trkpt>
      <trkpt lat="47.25919" lon="-2.28079">
        <ele>33</ele>
        <time>2013-03-03T12:26:28Z</time>
      </trkpt>
      <trkpt lat="47.2592" lon="-2.28075">
        <ele>32</ele>
        <time>2013-03-03T12:26:29Z</time>
      </trkpt>
      <trkpt lat="47.25921" lon="-2.28066">
        <ele>31</ele>
        <time>2013-03-03T12:26:34Z</time>
      </trkpt>
      <trkpt lat="47.2592" lon="-2.28059">
        <ele>30</ele>
        <time>2013-03-03T12:26:34Z</time>
      </trkpt>
      <trkpt lat="47.2592" lon="-2.28061">
        <ele>29</ele>
        <time>2013-03-03T12:26:37Z</time>
      </trkpt>
      <trkpt lat="47.2592" lon="-2.28063">
        <ele>29</ele>
        <time>2013-03-03T12:26:38Z</time>
      </trkpt>
      <trkpt lat="47.25919" lon="-2.281">
        <ele>29</ele>
        <time>2013-03-03T12:26:43Z</time>
      </trkpt>
      <trkpt lat="47.25918" lon="-2.2811">
        <ele>29</ele>
        <time>2013-03-03T12:26:45Z</time>
      </trkpt>
      <trkpt lat="47.25919" lon="-2.2813">
        <ele>29</ele>
        <time>2013-03-03T12:26:50Z</time>
      </trkpt>
      <trkpt lat="47.25921" lon="-2.28155">
        <ele>29</ele>
        <time>2013-03-03T12:26:50Z</time>
      </trkpt>
      <trkpt lat="47.25922" lon="-2.28159">
        <ele>29</ele>
        <time>2013-03-03T12:26:51Z</time>
      </trkpt>
      <trkpt lat="47.25923" lon="-2.28162">
        <ele>29</ele>
        <time>2013-03-03T12:26:53Z</time>
      </trkpt>
      <trkpt lat="47.25925" lon="-2.28164">
        <ele>29</ele>
        <time>2013-03-03T12:26:54Z</time>
      </trkpt>
      <trkpt lat="47.25927" lon="-2.28167">
        <ele>30</ele>
        <time>2013-03-03T12:27:00Z</time>
      </trkpt>
      <trkpt lat="47.2593" lon="-2.28167">
        <ele>30</ele>
        <time>2013-03-03T12:27:01Z</time>
      </trkpt>
      <trkpt lat="47.25932" lon="-2.28167">
        <ele>30</ele>
        <time>2013-03-03T12:27:02Z</time>
      </trkpt>
      <trkpt lat="47.25941" lon="-2.28164">
        <ele>30</ele>
        <time>2013-03-03T12:27:07Z</time>
      </trkpt>
      <trkpt lat="47.25943" lon="-2.28166">
        <ele>30</ele>
        <time>2013-03-03T12:27:09Z</time>
      </trkpt>
      <trkpt lat="47.25944" lon="-2.28168">
        <ele>30</ele>
        <time>2013-03-03T12:27:10Z</time>
      </trkpt>
      <trkpt lat="47.25959" lon="-2.28183">
        <ele>30</ele>
        <time>2013-03-03T12:27:15Z</time>
      </trkpt>
      <trkpt lat="47.25962" lon="-2.28184">
        <ele>30</ele>
        <time>2013-03-03T12:27:17Z</time>
      </trkpt>
      <trkpt lat="47.25965" lon="-2.28185">
        <ele>30</ele>
        <time>2013-03-03T12:27:17Z</time>
      </trkpt>
      <trkpt lat="47.25972" lon="-2.28185">
        <ele>30</ele>
        <time>2013-03-03T12:27:23Z</time>
      </trkpt>
      <trkpt lat="47.25982" lon="-2.2818">
        <ele>30</ele>
        <time>2013-03-03T12:27:23Z</time>
      </trkpt>
      <trkpt lat="47.25984" lon="-2.28179">
        <ele>30</ele>
        <time>2013-03-03T12:27:25Z</time>
      </trkpt>
      <trkpt lat="47.25996" lon="-2.28172">
        <ele>30</ele>
        <time>2013-03-03T12:27:29Z</time>
      </trkpt>
      <trkpt lat="47.25998" lon="-2.28171">
        <ele>30</ele>
        <time>2013-03-03T12:27:30Z</time>
      </trkpt>
      <trkpt lat="47.26002" lon="-2.28168">
        <ele>30</ele>
        <time>2013-03-03T12:27:36Z</time>
      </trkpt>
      <trkpt lat="47.26016" lon="-2.28156">
        <ele>30</ele>
        <time>2013-03-03T12:27:41Z</time>
      </trkpt>
      <trkpt lat="47.26029" lon="-2.28147">
        <ele>30</ele>
        <time>2013-03-03T12:27:41Z</time>
      </trkpt>
      <trkpt lat="47.26033" lon="-2.28144">
        <ele>30</ele>
        <time>2013-03-03T12:27:42Z</time>
      </trkpt>
      <trkpt lat="47.26052" lon="-2.28133">
        <ele>30</ele>
        <time>2013-03-03T12:27:47Z</time>
      </trkpt>
      <trkpt lat="47.26056" lon="-2.28131">
        <ele>30</ele>
        <time>2013-03-03T12:27:48Z</time>
      </trkpt>
      <trkpt lat="47.26065" lon="-2.28128">
        <ele>30</ele>
        <time>2013-03-03T12:27:54Z</time>
      </trkpt>
      <trkpt lat="47.26082" lon="-2.28124">
        <ele>30</ele>
        <time>2013-03-03T12:27:54Z</time>
      </trkpt>
      <trkpt lat="47.26086" lon="-2.28122">
        <ele>30</ele>
        <time>2013-03-03T12:27:55Z</time>
      </trkpt>
      <trkpt lat="47.26095" lon="-2.28119">
        <ele>30</ele>
        <time>2013-03-03T12:28:00Z</time>
      </trkpt>
      <trkpt lat="47.26113" lon="-2.2811">
        <ele>30</ele>
        <time>2013-03-03T12:28:01Z</time>
      </trkpt>
      <trkpt lat="47.26118" lon="-2.28108">
        <ele>30</ele>
        <time>2013-03-03T12:28:02Z</time>
      </trkpt>
      <trkpt lat="47.26126" lon="-2.28103">
        <ele>30</ele>
        <time>2013-03-03T12:28:07Z</time>
      </trkpt>
      <trkpt lat="47.2614" lon="-2.28096">
        <ele>30</ele>
        <time>2013-03-03T12:28:07Z</time>
      </trkpt>
      <trkpt lat="47.26144" lon="-2.28094">
        <ele>30</ele>
        <time>2013-03-03T12:28:08Z</time>
      </trkpt>
      <trkpt lat="47.26153" lon="-2.28088">
        <ele>30</ele>
        <time>2013-03-03T12:28:14Z</time>
      </trkpt>
      <trkpt lat="47.26168" lon="-2.28077">
        <ele>30</ele>
        <time>2013-03-03T12:28:14Z</time>
      </trkpt>
      <trkpt lat="47.26173" lon="-2.28073">
        <ele>30</ele>
        <time>2013-03-03T12:28:15Z</time>
      </trkpt>
      <trkpt lat="47.26194" lon="-2.28053">
        <ele>30</ele>
        <time>2013-03-03T12:28:20Z</time>
      </trkpt>
      <trkpt lat="47.26198" lon="-2.28049">
        <ele>30</ele>
        <time>2013-03-03T12:28:21Z</time>
      </trkpt>
      <trkpt lat="47.26202" lon="-2.28046">
        <ele>30</ele>
        <time>2013-03-03T12:28:22Z</time>
      </trkpt>
      <trkpt lat="47.2621" lon="-2.28039">
        <ele>30</ele>
        <time>2013-03-03T12:28:27Z</time>
      </trkpt>
      <trkpt lat="47.26221" lon="-2.28028">
        <ele>30</ele>
        <time>2013-03-03T12:28:27Z</time>
      </trkpt>
      <trkpt lat="47.26225" lon="-2.28024">
        <ele>30</ele>
        <time>2013-03-03T12:28:28Z</time>
      </trkpt>
      <trkpt lat="47.26233" lon="-2.28017">
        <ele>30</ele>
        <time>2013-03-03T12:28:34Z</time>
      </trkpt>
      <trkpt lat="47.26249" lon="-2.28005">
        <ele>30</ele>
        <time>2013-03-03T12:28:34Z</time>
      </trkpt>
      <trkpt lat="47.26252" lon="-2.28002">
        <ele>30</ele>
        <time>2013-03-03T12:28:35Z</time>
      </trkpt>
      <trkpt lat="47.2626" lon="-2.27996">
        <ele>30</ele>
        <time>2013-03-03T12:28:40Z</time>
      </trkpt>
      <trkpt lat="47.26274" lon="-2.27982">
        <ele>30</ele>
        <time>2013-03-03T12:28:41Z</time>
      </trkpt>
      <trkpt lat="47.26275" lon="-2.27977">
        <ele>30</ele>
        <time>2013-03-03T12:28:42Z</time>
      </trkpt>
      <trkpt lat="47.26269" lon="-2.2794">
        <ele>29</ele>
        <time>2013-03-03T12:28:48Z</time>
      </trkpt>
      <trkpt lat="47.26266" lon="-2.27934">
        <ele>28</ele>
        <time>2013-03-03T12:28:49Z</time>
      </trkpt>
      <trkpt lat="47.26263" lon="-2.27928">
        <ele>27</ele>
        <time>2013-03-03T12:28:50Z</time>
      </trkpt>
      <trkpt lat="47.2625" lon="-2.27898">
        <ele>26</ele>
        <time>2013-03-03T12:28:55Z</time>
      </trkpt>
      <trkpt lat="47.26249" lon="-2.27893">
        <ele>25</ele>
        <time>2013-03-03T12:28:56Z</time>
      </trkpt>
      <trkpt lat="47.26244" lon="-2.27882">
        <ele>25</ele>
        <time>2013-03-03T12:29:02Z</time>
      </trkpt>
      <trkpt lat="47.26232" lon="-2.27858">
        <ele>25</ele>
        <time>2013-03-03T12:29:02Z</time>
      </trkpt>
      <trkpt lat="47.26229" lon="-2.27852">
        <ele>25</ele>
        <time>2013-03-03T12:29:03Z</time>
      </trkpt>
      <trkpt lat="47.26223" lon="-2.27839">
        <ele>25</ele>
        <time>2013-03-03T12:29:09Z</time>
      </trkpt>
      <trkpt lat="47.2621" lon="-2.27812">
        <ele>25</ele>
        <time>2013-03-03T12:29:09Z</time>
      </trkpt>
      <trkpt lat="47.26207" lon="-2.27806">
        <ele>26</ele>
        <time>2013-03-03T12:29:10Z</time>
      </trkpt>
      <trkpt lat="47.26202" lon="-2.27794">
        <ele>27</ele>
        <time>2013-03-03T12:29:15Z</time>
      </trkpt>
      <trkpt lat="47.26194" lon="-2.27776">
        <ele>28</ele>
        <time>2013-03-03T12:29:15Z</time>
      </trkpt>
      <trkpt lat="47.26192" lon="-2.27769">
        <ele>29</ele>
        <time>2013-03-03T12:29:16Z</time>
      </trkpt>
      <trkpt lat="47.26187" lon="-2.27755">
        <ele>30</ele>
        <time>2013-03-03T12:29:22Z</time>
      </trkpt>
      <trkpt lat="47.26178" lon="-2.27729">
        <ele>31</ele>
        <time>2013-03-03T12:29:22Z</time>
      </trkpt>
      <trkpt lat="47.26176" lon="-2.27722">
        <ele>32</ele>
        <time>2013-03-03T12:29:23Z</time>
      </trkpt>
      <trkpt lat="47.26172" lon="-2.27709">
        <ele>33</ele>
        <time>2013-03-03T12:29:29Z</time>
      </trkpt>
      <trkpt lat="47.26163" lon="-2.2768">
        <ele>34</ele>
        <time>2013-03-03T12:29:29Z</time>
      </trkpt>
      <trkpt lat="47.26161" lon="-2.27674">
        <ele>35</ele>
        <time>2013-03-03T12:29:30Z</time>
      </trkpt>
      <trkpt lat="47.26151" lon="-2.27643">
        <ele>35</ele>
        <time>2013-03-03T12:29:35Z</time>
      </trkpt>
      <trkpt lat="47.26149" lon="-2.27637">
        <ele>35</ele>
        <time>2013-03-03T12:29:36Z</time>
      </trkpt>
      <trkpt lat="47.26146" lon="-2.27625">
        <ele>35</ele>
        <time>2013-03-03T12:29:42Z</time>
      </trkpt>
      <trkpt lat="47.26144" lon="-2.27605">
        <ele>35</ele>
        <time>2013-03-03T12:29:42Z</time>
      </trkpt>
      <trkpt lat="47.26143" lon="-2.27599">
        <ele>35</ele>
        <time>2013-03-03T12:29:43Z</time>
      </trkpt>
      <trkpt lat="47.26138" lon="-2.27588">
        <ele>35</ele>
        <time>2013-03-03T12:29:49Z</time>
      </trkpt>
      <trkpt lat="47.26121" lon="-2.27582">
        <ele>35</ele>
        <time>2013-03-03T12:29:49Z</time>
      </trkpt>
      <trkpt lat="47.26117" lon="-2.27583">
        <ele>35</ele>
        <time>2013-03-03T12:29:51Z</time>
      </trkpt>
      <trkpt lat="47.26113" lon="-2.27585">
        <ele>35</ele>
        <time>2013-03-03T12:29:52Z</time>
      </trkpt>
      <trkpt lat="47.26104" lon="-2.2759">
        <ele>36</ele>
        <time>2013-03-03T12:29:56Z</time>
      </trkpt>
      <trkpt lat="47.26087" lon="-2.276">
        <ele>37</ele>
        <time>2013-03-03T12:29:57Z</time>
      </trkpt>
      <trkpt lat="47.26083" lon="-2.27602">
        <ele>37</ele>
        <time>2013-03-03T12:29:58Z</time>
      </trkpt>
      <trkpt lat="47.26062" lon="-2.27612">
        <ele>37</ele>
        <time>2013-03-03T12:30:03Z</time>
      </trkpt>
      <trkpt lat="47.26059" lon="-2.27614">
        <ele>37</ele>
        <time>2013-03-03T12:30:04Z</time>
      </trkpt>
      <trkpt lat="47.26056" lon="-2.27615">
        <ele>37</ele>
        <time>2013-03-03T12:30:06Z</time>
      </trkpt>
      <trkpt lat="47.26049" lon="-2.27615">
        <ele>37</ele>
        <time>2013-03-03T12:30:10Z</time>
      </trkpt>
      <trkpt lat="47.2604" lon="-2.27603">
        <ele>36</ele>
        <time>2013-03-03T12:30:11Z</time>
      </trkpt>
      <trkpt lat="47.26039" lon="-2.27597">
        <ele>35</ele>
        <time>2013-03-03T12:30:12Z</time>
      </trkpt>
      <trkpt lat="47.26036" lon="-2.27587">
        <ele>34</ele>
        <time>2013-03-03T12:30:18Z</time>
      </trkpt>
      <trkpt lat="47.26028" lon="-2.27561">
        <ele>33</ele>
        <time>2013-03-03T12:30:19Z</time>
      </trkpt>
      <trkpt lat="47.26025" lon="-2.27549">
        <ele>32</ele>
        <time>2013-03-03T12:30:25Z</time>
      </trkpt>
      <trkpt lat="47.2602" lon="-2.27529">
        <ele>31</ele>
        <time>2013-03-03T12:30:25Z</time>
      </trkpt>
      <trkpt lat="47.2602" lon="-2.27524">
        <ele>30</ele>
        <time>2013-03-03T12:30:27Z</time>
      </trkpt>
      <trkpt lat="47.26021" lon="-2.27519">
        <ele>29</ele>
        <time>2013-03-03T12:30:28Z</time>
      </trkpt>
      <trkpt lat="47.26027" lon="-2.27506">
        <ele>28</ele>
        <time>2013-03-03T12:30:33Z</time>
      </trkpt>
      <trkpt lat="47.26036" lon="-2.2748">
        <ele>27</ele>
        <time>2013-03-03T12:30:34Z</time>
      </trkpt>
      <trkpt lat="47.2604" lon="-2.27473">
        <ele>27</ele>
        <time>2013-03-03T12:30:34Z</time>
      </trkpt>
      <trkpt lat="47.26046" lon="-2.27459">
        <ele>27</ele>
        <time>2013-03-03T12:30:40Z</time>
      </trkpt>
      <trkpt lat="47.26059" lon="-2.27432">
        <ele>27</ele>
        <time>2013-03-03T12:30:40Z</time>
      </trkpt>
      <trkpt lat="47.26062" lon="-2.27425">
        <ele>27</ele>
        <time>2013-03-03T12:30:41Z</time>
      </trkpt>
      <trkpt lat="47.26069" lon="-2.27411">
        <ele>27</ele>
        <time>2013-03-03T12:30:47Z</time>
      </trkpt>
      <trkpt lat="47.26085" lon="-2.27388">
        <ele>27</ele>
        <time>2013-03-03T12:30:47Z</time>
      </trkpt>
      <trkpt lat="47.26089" lon="-2.27384">
        <ele>27</ele>
        <time>2013-03-03T12:30:49Z</time>
      </trkpt>
      <trkpt lat="47.26094" lon="-2.27379">
        <ele>27</ele>
        <time>2013-03-03T12:30:50Z</time>
      </trkpt>
      <trkpt lat="47.26104" lon="-2.27368">
        <ele>27</ele>
        <time>2013-03-03T12:30:54Z</time>
      </trkpt>
      <trkpt lat="47.26122" lon="-2.27348">
        <ele>27</ele>
        <time>2013-03-03T12:30:55Z</time>
      </trkpt>
      <trkpt lat="47.26126" lon="-2.27343">
        <ele>27</ele>
        <time>2013-03-03T12:30:56Z</time>
      </trkpt>
      <trkpt lat="47.2615" lon="-2.27328">
        <ele>27</ele>
        <time>2013-03-03T12:31:01Z</time>
      </trkpt>
      <trkpt lat="47.26155" lon="-2.27329">
        <ele>27</ele>
        <time>2013-03-03T12:31:03Z</time>
      </trkpt>
      <trkpt lat="47.26162" lon="-2.27329">
        <ele>27</ele>
        <time>2013-03-03T12:31:03Z</time>
      </trkpt>
      <trkpt lat="47.26173" lon="-2.27328">
        <ele>27</ele>
        <time>2013-03-03T12:31:09Z</time>
      </trkpt>
      <trkpt lat="47.26192" lon="-2.27324">
        <ele>27</ele>
        <time>2013-03-03T12:31:09Z</time>
      </trkpt>
      <trkpt lat="47.26197" lon="-2.27324">
        <ele>27</ele>
        <time>2013-03-03T12:31:10Z</time>
      </trkpt>
      <trkpt lat="47.26207" lon="-2.27324">
        <ele>27</ele>
        <time>2013-03-03T12:31:16Z</time>
      </trkpt>
      <trkpt lat="47.26222" lon="-2.27326">
        <ele>27</ele>
        <time>2013-03-03T12:31:16Z</time>
      </trkpt>
      <trkpt lat="47.26225" lon="-2.27326">
        <ele>27</ele>
        <time>2013-03-03T12:31:17Z</time>
      </trkpt>
      <trkpt lat="47.26229" lon="-2.27326">
        <ele>27</ele>
        <time>2013-03-03T12:31:22Z</time>
      </trkpt>
      <trkpt lat="47.26233" lon="-2.27327">
        <ele>27</ele>
        <time>2013-03-03T12:31:23Z</time>
      </trkpt>
      <trkpt lat="47.26234" lon="-2.27327">
        <ele>27</ele>
        <time>2013-03-03T12:31:25Z</time>
      </trkpt>
      <trkpt lat="47.26236" lon="-2.27327">
        <ele>27</ele>
        <time>2013-03-03T12:31:29Z</time>
      </trkpt>
      <trkpt lat="47.26243" lon="-2.27329">
        <ele>27</ele>
        <time>2013-03-03T12:31:30Z</time>
      </trkpt>
      <trkpt lat="47.26246" lon="-2.27329">
        <ele>27</ele>
        <time>2013-03-03T12:31:31Z</time>
      </trkpt>
      <trkpt lat="47.26263" lon="-2.2733">
        <ele>27</ele>
        <time>2013-03-03T12:31:36Z</time>
      </trkpt>
      <trkpt lat="47.26268" lon="-2.27331">
        <ele>27</ele>
        <time>2013-03-03T12:31:37Z</time>
      </trkpt>
      <trkpt lat="47.26272" lon="-2.27331">
        <ele>27</ele>
        <time>2013-03-03T12:31:38Z</time>
      </trkpt>
      <trkpt lat="47.26294" lon="-2.27333">
        <ele>27</ele>
        <time>2013-03-03T12:31:43Z</time>
      </trkpt>
      <trkpt lat="47.26298" lon="-2.27334">
        <ele>27</ele>
        <time>2013-03-03T12:31:44Z</time>
      </trkpt>
      <trkpt lat="47.26302" lon="-2.27334">
        <ele>27</ele>
        <time>2013-03-03T12:31:45Z</time>
      </trkpt>
      <trkpt lat="47.26326" lon="-2.27336">
        <ele>26</ele>
        <time>2013-03-03T12:31:50Z</time>
      </trkpt>
      <trkpt lat="47.26331" lon="-2.27337">
        <ele>25</ele>
        <time>2013-03-03T12:31:51Z</time>
      </trkpt>
      <trkpt lat="47.26336" lon="-2.27338">
        <ele>25</ele>
        <time>2013-03-03T12:31:52Z</time>
      </trkpt>
      <trkpt lat="47.26358" lon="-2.27339">
        <ele>24</ele>
        <time>2013-03-03T12:31:57Z</time>
      </trkpt>
      <trkpt lat="47.26363" lon="-2.27339">
        <ele>24</ele>
        <time>2013-03-03T12:31:58Z</time>
      </trkpt>
      <trkpt lat="47.26368" lon="-2.27339">
        <ele>24</ele>
        <time>2013-03-03T12:31:59Z</time>
      </trkpt>
      <trkpt lat="47.26393" lon="-2.27338">
        <ele>23</ele>
        <time>2013-03-03T12:32:04Z</time>
      </trkpt>
      <trkpt lat="47.26398" lon="-2.27338">
        <ele>23</ele>
        <time>2013-03-03T12:32:05Z</time>
      </trkpt>
      <trkpt lat="47.26402" lon="-2.27338">
        <ele>22</ele>
        <time>2013-03-03T12:32:06Z</time>
      </trkpt>
      <trkpt lat="47.26424" lon="-2.27347">
        <ele>22</ele>
        <time>2013-03-03T12:32:11Z</time>
      </trkpt>
      <trkpt lat="47.26427" lon="-2.27352">
        <ele>21</ele>
        <time>2013-03-03T12:32:13Z</time>
      </trkpt>
      <trkpt lat="47.26429" lon="-2.27357">
        <ele>21</ele>
        <time>2013-03-03T12:32:14Z</time>
      </trkpt>
      <trkpt lat="47.26431" lon="-2.27363">
        <ele>21</ele>
        <time>2013-03-03T12:32:15Z</time>
      </trkpt>
      <trkpt lat="47.26436" lon="-2.27374">
        <ele>21</ele>
        <time>2013-03-03T12:32:20Z</time>
      </trkpt>
      <trkpt lat="47.26445" lon="-2.27398">
        <ele>21</ele>
        <time>2013-03-03T12:32:20Z</time>
      </trkpt>
      <trkpt lat="47.26447" lon="-2.27404">
        <ele>21</ele>
        <time>2013-03-03T12:32:21Z</time>
      </trkpt>
      <trkpt lat="47.26449" lon="-2.27416">
        <ele>21</ele>
        <time>2013-03-03T12:32:25Z</time>
      </trkpt>
      <trkpt lat="47.26453" lon="-2.2743">
        <ele>21</ele>
        <time>2013-03-03T12:32:26Z</time>
      </trkpt>
      <trkpt lat="47.26455" lon="-2.27433">
        <ele>21</ele>
        <time>2013-03-03T12:32:27Z</time>
      </trkpt>
      <trkpt lat="47.26456" lon="-2.27436">
        <ele>21</ele>
        <time>2013-03-03T12:32:28Z</time>
      </trkpt>
      <trkpt lat="47.26459" lon="-2.27446">
        <ele>21</ele>
        <time>2013-03-03T12:32:32Z</time>
      </trkpt>
      <trkpt lat="47.26463" lon="-2.27458">
        <ele>21</ele>
        <time>2013-03-03T12:32:32Z</time>
      </trkpt>
      <trkpt lat="47.26464" lon="-2.27464">
        <ele>21</ele>
        <time>2013-03-03T12:32:33Z</time>
      </trkpt>
      <trkpt lat="47.26468" lon="-2.27476">
        <ele>22</ele>
        <time>2013-03-03T12:32:37Z</time>
      </trkpt>
      <trkpt lat="47.26475" lon="-2.27495">
        <ele>22</ele>
        <time>2013-03-03T12:32:38Z</time>
      </trkpt>
      <trkpt lat="47.26477" lon="-2.27501">
        <ele>22</ele>
        <time>2013-03-03T12:32:39Z</time>
      </trkpt>
      <trkpt lat="47.2648" lon="-2.27516">
        <ele>22</ele>
        <time>2013-03-03T12:32:43Z</time>
      </trkpt>
      <trkpt lat="47.26483" lon="-2.27531">
        <ele>22</ele>
        <time>2013-03-03T12:32:43Z</time>
      </trkpt>
      <trkpt lat="47.26484" lon="-2.27538">
        <ele>23</ele>
        <time>2013-03-03T12:32:44Z</time>
      </trkpt>
      <trkpt lat="47.26486" lon="-2.27554">
        <ele>24</ele>
        <time>2013-03-03T12:32:48Z</time>
      </trkpt>
      <trkpt lat="47.26491" lon="-2.27574">
        <ele>25</ele>
        <time>2013-03-03T12:32:49Z</time>
      </trkpt>
      <trkpt lat="47.26494" lon="-2.27576">
        <ele>26</ele>
        <time>2013-03-03T12:32:51Z</time>
      </trkpt>
      <trkpt lat="47.26497" lon="-2.27578">
        <ele>26</ele>
        <time>2013-03-03T12:32:51Z</time>
      </trkpt>
      <trkpt lat="47.26504" lon="-2.27579">
        <ele>26</ele>
        <time>2013-03-03T12:32:56Z</time>
      </trkpt>
      <trkpt lat="47.26517" lon="-2.27579">
        <ele>26</ele>
        <time>2013-03-03T12:32:57Z</time>
      </trkpt>
      <trkpt lat="47.26521" lon="-2.27578">
        <ele>26</ele>
        <time>2013-03-03T12:32:58Z</time>
      </trkpt>
      <trkpt lat="47.26535" lon="-2.27568">
        <ele>26</ele>
        <time>2013-03-03T12:33:01Z</time>
      </trkpt>
      <trkpt lat="47.26539" lon="-2.27565">
        <ele>26</ele>
        <time>2013-03-03T12:33:03Z</time>
      </trkpt>
      <trkpt lat="47.26543" lon="-2.27562">
        <ele>26</ele>
        <time>2013-03-03T12:33:03Z</time>
      </trkpt>
      <trkpt lat="47.26556" lon="-2.27545">
        <ele>25</ele>
        <time>2013-03-03T12:33:07Z</time>
      </trkpt>
      <trkpt lat="47.26559" lon="-2.27541">
        <ele>25</ele>
        <time>2013-03-03T12:33:09Z</time>
      </trkpt>
      <trkpt lat="47.26561" lon="-2.27536">
        <ele>25</ele>
        <time>2013-03-03T12:33:09Z</time>
      </trkpt>
      <trkpt lat="47.26571" lon="-2.27511">
        <ele>25</ele>
        <time>2013-03-03T12:33:13Z</time>
      </trkpt>
      <trkpt lat="47.26573" lon="-2.27504">
        <ele>25</ele>
        <time>2013-03-03T12:33:14Z</time>
      </trkpt>
      <trkpt lat="47.26576" lon="-2.27497">
        <ele>25</ele>
        <time>2013-03-03T12:33:15Z</time>
      </trkpt>
      <trkpt lat="47.26582" lon="-2.27487">
        <ele>25</ele>
        <time>2013-03-03T12:33:19Z</time>
      </trkpt>
      <trkpt lat="47.26591" lon="-2.27476">
        <ele>25</ele>
        <time>2013-03-03T12:33:20Z</time>
      </trkpt>
      <trkpt lat="47.26595" lon="-2.27471">
        <ele>25</ele>
        <time>2013-03-03T12:33:21Z</time>
      </trkpt>
      <trkpt lat="47.26604" lon="-2.27461">
        <ele>25</ele>
        <time>2013-03-03T12:33:25Z</time>
      </trkpt>
      <trkpt lat="47.26617" lon="-2.27447">
        <ele>25</ele>
        <time>2013-03-03T12:33:25Z</time>
      </trkpt>
      <trkpt lat="47.26621" lon="-2.27442">
        <ele>25</ele>
        <time>2013-03-03T12:33:26Z</time>
      </trkpt>
      <trkpt lat="47.26643" lon="-2.27422">
        <ele>25</ele>
        <time>2013-03-03T12:33:30Z</time>
      </trkpt>
      <trkpt lat="47.26648" lon="-2.27417">
        <ele>25</ele>
        <time>2013-03-03T12:33:31Z</time>
      </trkpt>
      <trkpt lat="47.2666" lon="-2.27407">
        <ele>25</ele>
        <time>2013-03-03T12:33:36Z</time>
      </trkpt>
      <trkpt lat="47.26674" lon="-2.27394">
        <ele>25</ele>
        <time>2013-03-03T12:33:36Z</time>
      </trkpt>
      <trkpt lat="47.26679" lon="-2.27391">
        <ele>25</ele>
        <time>2013-03-03T12:33:37Z</time>
      </trkpt>
      <trkpt lat="47.267" lon="-2.27378">
        <ele>25</ele>
        <time>2013-03-03T12:33:41Z</time>
      </trkpt>
      <trkpt lat="47.26705" lon="-2.27375">
        <ele>25</ele>
        <time>2013-03-03T12:33:42Z</time>
      </trkpt>
      <trkpt lat="47.26715" lon="-2.27371">
        <ele>25</ele>
        <time>2013-03-03T12:33:47Z</time>
      </trkpt>
      <trkpt lat="47.26728" lon="-2.27364">
        <ele>25</ele>
        <time>2013-03-03T12:33:47Z</time>
      </trkpt>
      <trkpt lat="47.26731" lon="-2.27362">
        <ele>25</ele>
        <time>2013-03-03T12:33:48Z</time>
      </trkpt>
      <trkpt lat="47.26737" lon="-2.27361">
        <ele>25</ele>
        <time>2013-03-03T12:33:52Z</time>
      </trkpt>
      <trkpt lat="47.26739" lon="-2.27362">
        <ele>20</ele>
        <time>2013-03-03T12:34:15Z</time>
      </trkpt>
      <trkpt lat="47.26744" lon="-2.27371">
        <ele>20</ele>
        <time>2013-03-03T12:34:16Z</time>
      </trkpt>
      <trkpt lat="47.26746" lon="-2.27377">
        <ele>20</ele>
        <time>2013-03-03T12:34:16Z</time>
      </trkpt>
      <trkpt lat="47.26746" lon="-2.27384">
        <ele>20</ele>
        <time>2013-03-03T12:34:18Z</time>
      </trkpt>
      <trkpt lat="47.26752" lon="-2.27411">
        <ele>19</ele>
        <time>2013-03-03T12:34:21Z</time>
      </trkpt>
      <trkpt lat="47.26756" lon="-2.27415">
        <ele>19</ele>
        <time>2013-03-03T12:34:22Z</time>
      </trkpt>
      <trkpt lat="47.26759" lon="-2.27416">
        <ele>19</ele>
        <time>2013-03-03T12:34:24Z</time>
      </trkpt>
      <trkpt lat="47.26763" lon="-2.27417">
        <ele>19</ele>
        <time>2013-03-03T12:34:25Z</time>
      </trkpt>
      <trkpt lat="47.26772" lon="-2.27418">
        <ele>19</ele>
        <time>2013-03-03T12:34:29Z</time>
      </trkpt>
      <trkpt lat="47.26786" lon="-2.27418">
        <ele>19</ele>
        <time>2013-03-03T12:34:29Z</time>
      </trkpt>
      <trkpt lat="47.26794" lon="-2.27419">
        <ele>18</ele>
        <time>2013-03-03T12:34:34Z</time>
      </trkpt>
      <trkpt lat="47.26808" lon="-2.27418">
        <ele>18</ele>
        <time>2013-03-03T12:34:34Z</time>
      </trkpt>
      <trkpt lat="47.26812" lon="-2.27418">
        <ele>17</ele>
        <time>2013-03-03T12:34:35Z</time>
      </trkpt>
      <trkpt lat="47.26827" lon="-2.27417">
        <ele>17</ele>
        <time>2013-03-03T12:34:39Z</time>
      </trkpt>
      <trkpt lat="47.26831" lon="-2.27416">
        <ele>17</ele>
        <time>2013-03-03T12:34:40Z</time>
      </trkpt>
      <trkpt lat="47.26841" lon="-2.27414">
        <ele>17</ele>
        <time>2013-03-03T12:34:45Z</time>
      </trkpt>
      <trkpt lat="47.26856" lon="-2.27408">
        <ele>17</ele>
        <time>2013-03-03T12:34:45Z</time>
      </trkpt>
      <trkpt lat="47.26861" lon="-2.27406">
        <ele>17</ele>
        <time>2013-03-03T12:34:46Z</time>
      </trkpt>
      <trkpt lat="47.26875" lon="-2.27402">
        <ele>16</ele>
        <time>2013-03-03T12:34:50Z</time>
      </trkpt>
      <trkpt lat="47.26877" lon="-2.27401">
        <ele>15</ele>
        <time>2013-03-03T12:34:51Z</time>
      </trkpt>
      <trkpt lat="47.26883" lon="-2.274">
        <ele>14</ele>
        <time>2013-03-03T12:34:56Z</time>
      </trkpt>
      <trkpt lat="47.26892" lon="-2.27397">
        <ele>14</ele>
        <time>2013-03-03T12:34:56Z</time>
      </trkpt>
      <trkpt lat="47.26895" lon="-2.27396">
        <ele>14</ele>
        <time>2013-03-03T12:34:57Z</time>
      </trkpt>
      <trkpt lat="47.26906" lon="-2.2739">
        <ele>14</ele>
        <time>2013-03-03T12:35:01Z</time>
      </trkpt>
      <trkpt lat="47.26908" lon="-2.27386">
        <ele>14</ele>
        <time>2013-03-03T12:35:03Z</time>
      </trkpt>
      <trkpt lat="47.2691" lon="-2.27382">
        <ele>14</ele>
        <time>2013-03-03T12:35:03Z</time>
      </trkpt>
      <trkpt lat="47.26915" lon="-2.27373">
        <ele>14</ele>
        <time>2013-03-03T12:35:07Z</time>
      </trkpt>
      <trkpt lat="47.26916" lon="-2.27372">
        <ele>13</ele>
        <time>2013-03-03T12:35:09Z</time>
      </trkpt>
      <trkpt lat="47.26916" lon="-2.27369">
        <ele>13</ele>
        <time>2013-03-03T12:35:09Z</time>
      </trkpt>
      <trkpt lat="47.26916" lon="-2.27366">
        <ele>13</ele>
        <time>2013-03-03T12:35:11Z</time>
      </trkpt>
      <trkpt lat="47.26917" lon="-2.27364">
        <ele>13</ele>
        <time>2013-03-03T12:35:12Z</time>
      </trkpt>
      <trkpt lat="47.26918" lon="-2.27356">
        <ele>13</ele>
        <time>2013-03-03T12:35:16Z</time>
      </trkpt>
      <trkpt lat="47.26921" lon="-2.27346">
        <ele>13</ele>
        <time>2013-03-03T12:35:16Z</time>
      </trkpt>
      <trkpt lat="47.26922" lon="-2.27341">
        <ele>13</ele>
        <time>2013-03-03T12:35:17Z</time>
      </trkpt>
      <trkpt lat="47.26927" lon="-2.27325">
        <ele>13</ele>
        <time>2013-03-03T12:35:21Z</time>
      </trkpt>
      <trkpt lat="47.26928" lon="-2.27321">
        <ele>13</ele>
        <time>2013-03-03T12:35:22Z</time>
      </trkpt>
      <trkpt lat="47.26929" lon="-2.27313">
        <ele>13</ele>
        <time>2013-03-03T12:35:27Z</time>
      </trkpt>
      <trkpt lat="47.26931" lon="-2.27302">
        <ele>14</ele>
        <time>2013-03-03T12:35:28Z</time>
      </trkpt>
      <trkpt lat="47.26931" lon="-2.27298">
        <ele>15</ele>
        <time>2013-03-03T12:35:28Z</time>
      </trkpt>
      <trkpt lat="47.2693" lon="-2.27293">
        <ele>16</ele>
        <time>2013-03-03T12:35:29Z</time>
      </trkpt>
      <trkpt lat="47.26932" lon="-2.27287">
        <ele>17</ele>
        <time>2013-03-03T12:35:34Z</time>
      </trkpt>
      <trkpt lat="47.26934" lon="-2.27274">
        <ele>18</ele>
        <time>2013-03-03T12:35:35Z</time>
      </trkpt>
      <trkpt lat="47.26936" lon="-2.27272">
        <ele>18</ele>
        <time>2013-03-03T12:35:36Z</time>
      </trkpt>
      <trkpt lat="47.26938" lon="-2.2727">
        <ele>19</ele>
        <time>2013-03-03T12:35:36Z</time>
      </trkpt>
      <trkpt lat="47.26953" lon="-2.27267">
        <ele>19</ele>
        <time>2013-03-03T12:35:41Z</time>
      </trkpt>
      <trkpt lat="47.26956" lon="-2.27266">
        <ele>19</ele>
        <time>2013-03-03T12:35:42Z</time>
      </trkpt>
      <trkpt lat="47.26958" lon="-2.27264">
        <ele>19</ele>
        <time>2013-03-03T12:35:44Z</time>
      </trkpt>
      <trkpt lat="47.26961" lon="-2.2726">
        <ele>19</ele>
        <time>2013-03-03T12:35:45Z</time>
      </trkpt>
      <trkpt lat="47.26965" lon="-2.27252">
        <ele>19</ele>
        <time>2013-03-03T12:35:49Z</time>
      </trkpt>
      <trkpt lat="47.2697" lon="-2.27238">
        <ele>19</ele>
        <time>2013-03-03T12:35:49Z</time>
      </trkpt>
      <trkpt lat="47.2697" lon="-2.27232">
        <ele>19</ele>
        <time>2013-03-03T12:35:50Z</time>
      </trkpt>
      <trkpt lat="47.26969" lon="-2.27227">
        <ele>19</ele>
        <time>2013-03-03T12:35:51Z</time>
      </trkpt>
      <trkpt lat="47.26966" lon="-2.27217">
        <ele>19</ele>
        <time>2013-03-03T12:35:56Z</time>
      </trkpt>
      <trkpt lat="47.26965" lon="-2.27206">
        <ele>19</ele>
        <time>2013-03-03T12:35:57Z</time>
      </trkpt>
      <trkpt lat="47.26965" lon="-2.27203">
        <ele>20</ele>
        <time>2013-03-03T12:35:58Z</time>
      </trkpt>
      <trkpt lat="47.26966" lon="-2.2719">
        <ele>21</ele>
        <time>2013-03-03T12:36:01Z</time>
      </trkpt>
      <trkpt lat="47.26966" lon="-2.27188">
        <ele>22</ele>
        <time>2013-03-03T12:36:02Z</time>
      </trkpt>
      <trkpt lat="47.26968" lon="-2.27186">
        <ele>23</ele>
        <time>2013-03-03T12:36:04Z</time>
      </trkpt>
      <trkpt lat="47.2697" lon="-2.27184">
        <ele>24</ele>
        <time>2013-03-03T12:36:05Z</time>
      </trkpt>
      <trkpt lat="47.26974" lon="-2.27184">
        <ele>24</ele>
        <time>2013-03-03T12:36:09Z</time>
      </trkpt>
      <trkpt lat="47.2698" lon="-2.27185">
        <ele>24</ele>
        <time>2013-03-03T12:36:10Z</time>
      </trkpt>
      <trkpt lat="47.26982" lon="-2.27186">
        <ele>24</ele>
        <time>2013-03-03T12:36:11Z</time>
      </trkpt>
      <trkpt lat="47.26994" lon="-2.27181">
        <ele>24</ele>
        <time>2013-03-03T12:36:16Z</time>
      </trkpt>
      <trkpt lat="47.26995" lon="-2.27179">
        <ele>24</ele>
        <time>2013-03-03T12:36:18Z</time>
      </trkpt>
      <trkpt lat="47.26997" lon="-2.27177">
        <ele>24</ele>
        <time>2013-03-03T12:36:18Z</time>
      </trkpt>
      <trkpt lat="47.27001" lon="-2.27175">
        <ele>24</ele>
        <time>2013-03-03T12:36:22Z</time>
      </trkpt>
      <trkpt lat="47.27002" lon="-2.27177">
        <ele>24</ele>
        <time>2013-03-03T12:36:23Z</time>
      </trkpt>
      <trkpt lat="47.27004" lon="-2.27179">
        <ele>24</ele>
        <time>2013-03-03T12:36:24Z</time>
      </trkpt>
      <trkpt lat="47.27006" lon="-2.27179">
        <ele>24</ele>
        <time>2013-03-03T12:36:26Z</time>
      </trkpt>
      <trkpt lat="47.27014" lon="-2.27172">
        <ele>24</ele>
        <time>2013-03-03T12:36:30Z</time>
      </trkpt>
      <trkpt lat="47.27016" lon="-2.27169">
        <ele>24</ele>
        <time>2013-03-03T12:36:32Z</time>
      </trkpt>
      <trkpt lat="47.27016" lon="-2.27167">
        <ele>23</ele>
        <time>2013-03-03T12:36:33Z</time>
      </trkpt>
      <trkpt lat="47.27022" lon="-2.27166">
        <ele>22</ele>
        <time>2013-03-03T12:36:37Z</time>
      </trkpt>
      <trkpt lat="47.27024" lon="-2.27167">
        <ele>19</ele>
        <time>2013-03-03T12:36:40Z</time>
      </trkpt>
      <trkpt lat="47.27029" lon="-2.27166">
        <ele>15</ele>
        <time>2013-03-03T12:36:44Z</time>
      </trkpt>
      <trkpt lat="47.27032" lon="-2.27158">
        <ele>13</ele>
        <time>2013-03-03T12:36:46Z</time>
      </trkpt>
      <trkpt lat="47.27034" lon="-2.27157">
        <ele>11</ele>
        <time>2013-03-03T12:36:46Z</time>
      </trkpt>
      <trkpt lat="47.27039" lon="-2.27163">
        <ele>8</ele>
        <time>2013-03-03T12:36:52Z</time>
      </trkpt>
      <trkpt lat="47.2704" lon="-2.27166">
        <ele>7</ele>
        <time>2013-03-03T12:36:57Z</time>
      </trkpt>
      <trkpt lat="47.27041" lon="-2.27168">
        <ele>7</ele>
        <time>2013-03-03T12:36:57Z</time>
      </trkpt>
      <trkpt lat="47.27044" lon="-2.27173">
        <ele>9</ele>
        <time>2013-03-03T12:37:03Z</time>
      </trkpt>
      <trkpt lat="47.27047" lon="-2.27178">
        <ele>10</ele>
        <time>2013-03-03T12:37:03Z</time>
      </trkpt>
      <trkpt lat="47.27048" lon="-2.27181">
        <ele>11</ele>
        <time>2013-03-03T12:37:04Z</time>
      </trkpt>
      <trkpt lat="47.27053" lon="-2.27187">
        <ele>12</ele>
        <time>2013-03-03T12:37:08Z</time>
      </trkpt>
      <trkpt lat="47.27055" lon="-2.27189">
        <ele>13</ele>
        <time>2013-03-03T12:37:09Z</time>
      </trkpt>
      <trkpt lat="47.27058" lon="-2.27194">
        <ele>14</ele>
        <time>2013-03-03T12:37:14Z</time>
      </trkpt>
      <trkpt lat="47.27063" lon="-2.27202">
        <ele>15</ele>
        <time>2013-03-03T12:37:14Z</time>
      </trkpt>
      <trkpt lat="47.27065" lon="-2.27204">
        <ele>16</ele>
        <time>2013-03-03T12:37:15Z</time>
      </trkpt>
      <trkpt lat="47.27066" lon="-2.27206">
        <ele>16</ele>
        <time>2013-03-03T12:37:16Z</time>
      </trkpt>
      <trkpt lat="47.27068" lon="-2.2721">
        <ele>16</ele>
        <time>2013-03-03T12:37:20Z</time>
      </trkpt>
      <trkpt lat="47.27071" lon="-2.27215">
        <ele>16</ele>
        <time>2013-03-03T12:37:21Z</time>
      </trkpt>
      <trkpt lat="47.27073" lon="-2.27218">
        <ele>16</ele>
        <time>2013-03-03T12:37:21Z</time>
      </trkpt>
      <trkpt lat="47.27075" lon="-2.27221">
        <ele>16</ele>
        <time>2013-03-03T12:37:22Z</time>
      </trkpt>
      <trkpt lat="47.27082" lon="-2.2723">
        <ele>16</ele>
        <time>2013-03-03T12:37:26Z</time>
      </trkpt>
      <trkpt lat="47.27083" lon="-2.27232">
        <ele>17</ele>
        <time>2013-03-03T12:37:27Z</time>
      </trkpt>
      <trkpt lat="47.27085" lon="-2.27236">
        <ele>18</ele>
        <time>2013-03-03T12:37:32Z</time>
      </trkpt>
      <trkpt lat="47.27089" lon="-2.27244">
        <ele>19</ele>
        <time>2013-03-03T12:37:32Z</time>
      </trkpt>
      <trkpt lat="47.2709" lon="-2.27247">
        <ele>20</ele>
        <time>2013-03-03T12:37:33Z</time>
      </trkpt>
      <trkpt lat="47.27096" lon="-2.27258">
        <ele>21</ele>
        <time>2013-03-03T12:37:37Z</time>
      </trkpt>
      <trkpt lat="47.27097" lon="-2.27261">
        <ele>22</ele>
        <time>2013-03-03T12:37:38Z</time>
      </trkpt>
      <trkpt lat="47.271" lon="-2.27266">
        <ele>23</ele>
        <time>2013-03-03T12:37:39Z</time>
      </trkpt>
      <trkpt lat="47.27103" lon="-2.27271">
        <ele>24</ele>
        <time>2013-03-03T12:37:43Z</time>
      </trkpt>
      <trkpt lat="47.27107" lon="-2.27276">
        <ele>25</ele>
        <time>2013-03-03T12:37:44Z</time>
      </trkpt>
      <trkpt lat="47.27108" lon="-2.27278">
        <ele>26</ele>
        <time>2013-03-03T12:37:45Z</time>
      </trkpt>
      <trkpt lat="47.27108" lon="-2.2728">
        <ele>27</ele>
        <time>2013-03-03T12:37:46Z</time>
      </trkpt>
      <trkpt lat="47.27109" lon="-2.27285">
        <ele>27</ele>
        <time>2013-03-03T12:37:49Z</time>
      </trkpt>
      <trkpt lat="47.27112" lon="-2.27295">
        <ele>27</ele>
        <time>2013-03-03T12:37:50Z</time>
      </trkpt>
      <trkpt lat="47.27112" lon="-2.27298">
        <ele>27</ele>
        <time>2013-03-03T12:37:51Z</time>
      </trkpt>
      <trkpt lat="47.27114" lon="-2.27306">
        <ele>27</ele>
        <time>2013-03-03T12:37:55Z</time>
      </trkpt>
      <trkpt lat="47.27116" lon="-2.27313">
        <ele>27</ele>
        <time>2013-03-03T12:37:55Z</time>
      </trkpt>
      <trkpt lat="47.27116" lon="-2.27316">
        <ele>27</ele>
        <time>2013-03-03T12:37:56Z</time>
      </trkpt>
      <trkpt lat="47.27116" lon="-2.2732">
        <ele>27</ele>
        <time>2013-03-03T12:37:57Z</time>
      </trkpt>
      <trkpt lat="47.27118" lon="-2.27328">
        <ele>27</ele>
        <time>2013-03-03T12:38:02Z</time>
      </trkpt>
      <trkpt lat="47.27121" lon="-2.27341">
        <ele>27</ele>
        <time>2013-03-03T12:38:02Z</time>
      </trkpt>
      <trkpt lat="47.27122" lon="-2.27346">
        <ele>27</ele>
        <time>2013-03-03T12:38:03Z</time>
      </trkpt>
      <trkpt lat="47.27124" lon="-2.27355">
        <ele>27</ele>
        <time>2013-03-03T12:38:07Z</time>
      </trkpt>
      <trkpt lat="47.27125" lon="-2.27363">
        <ele>27</ele>
        <time>2013-03-03T12:38:07Z</time>
      </trkpt>
      <trkpt lat="47.27126" lon="-2.27368">
        <ele>27</ele>
        <time>2013-03-03T12:38:08Z</time>
      </trkpt>
      <trkpt lat="47.27127" lon="-2.27377">
        <ele>27</ele>
        <time>2013-03-03T12:38:13Z</time>
      </trkpt>
      <trkpt lat="47.2713" lon="-2.27391">
        <ele>27</ele>
        <time>2013-03-03T12:38:13Z</time>
      </trkpt>
      <trkpt lat="47.27131" lon="-2.27395">
        <ele>27</ele>
        <time>2013-03-03T12:38:14Z</time>
      </trkpt>
      <trkpt lat="47.27134" lon="-2.27413">
        <ele>27</ele>
        <time>2013-03-03T12:38:18Z</time>
      </trkpt>
      <trkpt lat="47.27135" lon="-2.27419">
        <ele>27</ele>
        <time>2013-03-03T12:38:19Z</time>
      </trkpt>
      <trkpt lat="47.27138" lon="-2.2743">
        <ele>27</ele>
        <time>2013-03-03T12:38:24Z</time>
      </trkpt>
      <trkpt lat="47.2714" lon="-2.27442">
        <ele>27</ele>
        <time>2013-03-03T12:38:24Z</time>
      </trkpt>
      <trkpt lat="47.2714" lon="-2.27446">
        <ele>27</ele>
        <time>2013-03-03T12:38:25Z</time>
      </trkpt>
      <trkpt lat="47.27142" lon="-2.27463">
        <ele>27</ele>
        <time>2013-03-03T12:38:29Z</time>
      </trkpt>
      <trkpt lat="47.27142" lon="-2.27468">
        <ele>27</ele>
        <time>2013-03-03T12:38:30Z</time>
      </trkpt>
      <trkpt lat="47.27143" lon="-2.27473">
        <ele>27</ele>
        <time>2013-03-03T12:38:31Z</time>
      </trkpt>
      <trkpt lat="47.27143" lon="-2.27481">
        <ele>27</ele>
        <time>2013-03-03T12:38:35Z</time>
      </trkpt>
      <trkpt lat="47.27143" lon="-2.2749">
        <ele>27</ele>
        <time>2013-03-03T12:38:35Z</time>
      </trkpt>
      <trkpt lat="47.27144" lon="-2.27496">
        <ele>27</ele>
        <time>2013-03-03T12:38:36Z</time>
      </trkpt>
      <trkpt lat="47.27145" lon="-2.27506">
        <ele>26</ele>
        <time>2013-03-03T12:38:41Z</time>
      </trkpt>
      <trkpt lat="47.27145" lon="-2.27522">
        <ele>25</ele>
        <time>2013-03-03T12:38:41Z</time>
      </trkpt>
      <trkpt lat="47.27145" lon="-2.27527">
        <ele>24</ele>
        <time>2013-03-03T12:38:42Z</time>
      </trkpt>
      <trkpt lat="47.27143" lon="-2.27548">
        <ele>23</ele>
        <time>2013-03-03T12:38:46Z</time>
      </trkpt>
      <trkpt lat="47.27143" lon="-2.27554">
        <ele>22</ele>
        <time>2013-03-03T12:38:47Z</time>
      </trkpt>
      <trkpt lat="47.27142" lon="-2.27568">
        <ele>21</ele>
        <time>2013-03-03T12:38:52Z</time>
      </trkpt>
      <trkpt lat="47.27134" lon="-2.27585">
        <ele>20</ele>
        <time>2013-03-03T12:38:52Z</time>
      </trkpt>
      <trkpt lat="47.2713" lon="-2.2759">
        <ele>20</ele>
        <time>2013-03-03T12:38:54Z</time>
      </trkpt>
      <trkpt lat="47.27126" lon="-2.27595">
        <ele>20</ele>
        <time>2013-03-03T12:38:55Z</time>
      </trkpt>
      <trkpt lat="47.27119" lon="-2.27604">
        <ele>19</ele>
        <time>2013-03-03T12:38:58Z</time>
      </trkpt>
      <trkpt lat="47.27099" lon="-2.27616">
        <ele>19</ele>
        <time>2013-03-03T12:38:59Z</time>
      </trkpt>
      <trkpt lat="47.27092" lon="-2.27621">
        <ele>18</ele>
        <time>2013-03-03T12:39:00Z</time>
      </trkpt>
      <trkpt lat="47.27078" lon="-2.27631">
        <ele>17</ele>
        <time>2013-03-03T12:39:04Z</time>
      </trkpt>
      <trkpt lat="47.27064" lon="-2.27644">
        <ele>16</ele>
        <time>2013-03-03T12:39:04Z</time>
      </trkpt>
      <trkpt lat="47.27057" lon="-2.27651">
        <ele>16</ele>
        <time>2013-03-03T12:39:05Z</time>
      </trkpt>
      <trkpt lat="47.27045" lon="-2.27665">
        <ele>15</ele>
        <time>2013-03-03T12:39:10Z</time>
      </trkpt>
      <trkpt lat="47.27029" lon="-2.27685">
        <ele>15</ele>
        <time>2013-03-03T12:39:10Z</time>
      </trkpt>
      <trkpt lat="47.27025" lon="-2.27691">
        <ele>14</ele>
        <time>2013-03-03T12:39:11Z</time>
      </trkpt>
      <trkpt lat="47.27021" lon="-2.27698">
        <ele>14</ele>
        <time>2013-03-03T12:39:13Z</time>
      </trkpt>
      <trkpt lat="47.27018" lon="-2.27711">
        <ele>14</ele>
        <time>2013-03-03T12:39:17Z</time>
      </trkpt>
      <trkpt lat="47.2702" lon="-2.27713">
        <ele>14</ele>
        <time>2013-03-03T12:39:18Z</time>
      </trkpt>
      <trkpt lat="47.27023" lon="-2.27717">
        <ele>14</ele>
        <time>2013-03-03T12:39:24Z</time>
      </trkpt>
      <trkpt lat="47.27031" lon="-2.27722">
        <ele>14</ele>
        <time>2013-03-03T12:39:25Z</time>
      </trkpt>
      <trkpt lat="47.27033" lon="-2.27724">
        <ele>15</ele>
        <time>2013-03-03T12:39:26Z</time>
      </trkpt>
      <trkpt lat="47.27042" lon="-2.27728">
        <ele>15</ele>
        <time>2013-03-03T12:39:30Z</time>
      </trkpt>
      <trkpt lat="47.27055" lon="-2.27735">
        <ele>15</ele>
        <time>2013-03-03T12:39:30Z</time>
      </trkpt>
      <trkpt lat="47.2706" lon="-2.27737">
        <ele>15</ele>
        <time>2013-03-03T12:39:31Z</time>
      </trkpt>
      <trkpt lat="47.27079" lon="-2.27747">
        <ele>16</ele>
        <time>2013-03-03T12:39:35Z</time>
      </trkpt>
      <trkpt lat="47.27084" lon="-2.2775">
        <ele>17</ele>
        <time>2013-03-03T12:39:36Z</time>
      </trkpt>
      <trkpt lat="47.27092" lon="-2.27757">
        <ele>18</ele>
        <time>2013-03-03T12:39:41Z</time>
      </trkpt>
      <trkpt lat="47.27101" lon="-2.27767">
        <ele>19</ele>
        <time>2013-03-03T12:39:41Z</time>
      </trkpt>
      <trkpt lat="47.27102" lon="-2.27771">
        <ele>20</ele>
        <time>2013-03-03T12:39:42Z</time>
      </trkpt>
      <trkpt lat="47.27102" lon="-2.27775">
        <ele>21</ele>
        <time>2013-03-03T12:39:44Z</time>
      </trkpt>
      <trkpt lat="47.27103" lon="-2.27781">
        <ele>22</ele>
        <time>2013-03-03T12:39:45Z</time>
      </trkpt>
      <trkpt lat="47.27107" lon="-2.27792">
        <ele>23</ele>
        <time>2013-03-03T12:39:48Z</time>
      </trkpt>
      <trkpt lat="47.27111" lon="-2.27805">
        <ele>24</ele>
        <time>2013-03-03T12:39:50Z</time>
      </trkpt>
      <trkpt lat="47.27111" lon="-2.27808">
        <ele>24</ele>
        <time>2013-03-03T12:39:50Z</time>
      </trkpt>
      <trkpt lat="47.27111" lon="-2.27811">
        <ele>24</ele>
        <time>2013-03-03T12:39:51Z</time>
      </trkpt>
      <trkpt lat="47.27109" lon="-2.27813">
        <ele>25</ele>
        <time>2013-03-03T12:39:52Z</time>
      </trkpt>
      <trkpt lat="47.27106" lon="-2.27818">
        <ele>26</ele>
        <time>2013-03-03T12:39:57Z</time>
      </trkpt>
      <trkpt lat="47.27101" lon="-2.27829">
        <ele>27</ele>
        <time>2013-03-03T12:39:57Z</time>
      </trkpt>
      <trkpt lat="47.27098" lon="-2.27838">
        <ele>28</ele>
        <time>2013-03-03T12:40:02Z</time>
      </trkpt>
      <trkpt lat="47.27094" lon="-2.27853">
        <ele>29</ele>
        <time>2013-03-03T12:40:02Z</time>
      </trkpt>
      <trkpt lat="47.27093" lon="-2.27857">
        <ele>30</ele>
        <time>2013-03-03T12:40:03Z</time>
      </trkpt>
      <trkpt lat="47.2709" lon="-2.27866">
        <ele>31</ele>
        <time>2013-03-03T12:40:07Z</time>
      </trkpt>
      <trkpt lat="47.27085" lon="-2.27877">
        <ele>31</ele>
        <time>2013-03-03T12:40:08Z</time>
      </trkpt>
      <trkpt lat="47.27082" lon="-2.27881">
        <ele>31</ele>
        <time>2013-03-03T12:40:09Z</time>
      </trkpt>
      <trkpt lat="47.27077" lon="-2.27888">
        <ele>31</ele>
        <time>2013-03-03T12:40:15Z</time>
      </trkpt>
      <trkpt lat="47.27068" lon="-2.27904">
        <ele>31</ele>
        <time>2013-03-03T12:40:15Z</time>
      </trkpt>
      <trkpt lat="47.27066" lon="-2.27908">
        <ele>31</ele>
        <time>2013-03-03T12:40:16Z</time>
      </trkpt>
      <trkpt lat="47.27063" lon="-2.27931">
        <ele>31</ele>
        <time>2013-03-03T12:40:21Z</time>
      </trkpt>
      <trkpt lat="47.27063" lon="-2.27936">
        <ele>31</ele>
        <time>2013-03-03T12:40:23Z</time>
      </trkpt>
      <trkpt lat="47.27068" lon="-2.27955">
        <ele>31</ele>
        <time>2013-03-03T12:40:27Z</time>
      </trkpt>
      <trkpt lat="47.2707" lon="-2.27958">
        <ele>31</ele>
        <time>2013-03-03T12:40:28Z</time>
      </trkpt>
      <trkpt lat="47.27072" lon="-2.27962">
        <ele>31</ele>
        <time>2013-03-03T12:40:29Z</time>
      </trkpt>
      <trkpt lat="47.27076" lon="-2.27968">
        <ele>31</ele>
        <time>2013-03-03T12:40:33Z</time>
      </trkpt>
      <trkpt lat="47.27081" lon="-2.27973">
        <ele>31</ele>
        <time>2013-03-03T12:40:33Z</time>
      </trkpt>
      <trkpt lat="47.27084" lon="-2.27976">
        <ele>31</ele>
        <time>2013-03-03T12:40:34Z</time>
      </trkpt>
      <trkpt lat="47.27087" lon="-2.27978">
        <ele>31</ele>
        <time>2013-03-03T12:40:36Z</time>
      </trkpt>
      <trkpt lat="47.27094" lon="-2.27982">
        <ele>31</ele>
        <time>2013-03-03T12:40:40Z</time>
      </trkpt>
      <trkpt lat="47.27104" lon="-2.27986">
        <ele>31</ele>
        <time>2013-03-03T12:40:40Z</time>
      </trkpt>
      <trkpt lat="47.27107" lon="-2.27988">
        <ele>31</ele>
        <time>2013-03-03T12:40:41Z</time>
      </trkpt>
      <trkpt lat="47.2711" lon="-2.27991">
        <ele>30</ele>
        <time>2013-03-03T12:40:43Z</time>
      </trkpt>
      <trkpt lat="47.27113" lon="-2.27999">
        <ele>29</ele>
        <time>2013-03-03T12:40:47Z</time>
      </trkpt>
      <trkpt lat="47.27117" lon="-2.28019">
        <ele>29</ele>
        <time>2013-03-03T12:40:49Z</time>
      </trkpt>
      <trkpt lat="47.27117" lon="-2.28023">
        <ele>29</ele>
        <time>2013-03-03T12:40:50Z</time>
      </trkpt>
      <trkpt lat="47.2712" lon="-2.28047">
        <ele>29</ele>
        <time>2013-03-03T12:40:54Z</time>
      </trkpt>
      <trkpt lat="47.27121" lon="-2.28051">
        <ele>29</ele>
        <time>2013-03-03T12:40:55Z</time>
      </trkpt>
      <trkpt lat="47.27121" lon="-2.28071">
        <ele>29</ele>
        <time>2013-03-03T12:40:59Z</time>
      </trkpt>
      <trkpt lat="47.27121" lon="-2.28077">
        <ele>29</ele>
        <time>2013-03-03T12:41:00Z</time>
      </trkpt>
      <trkpt lat="47.27122" lon="-2.28088">
        <ele>29</ele>
        <time>2013-03-03T12:41:05Z</time>
      </trkpt>
      <trkpt lat="47.27122" lon="-2.28108">
        <ele>29</ele>
        <time>2013-03-03T12:41:05Z</time>
      </trkpt>
      <trkpt lat="47.27123" lon="-2.28114">
        <ele>29</ele>
        <time>2013-03-03T12:41:06Z</time>
      </trkpt>
      <trkpt lat="47.27124" lon="-2.28127">
        <ele>29</ele>
        <time>2013-03-03T12:41:10Z</time>
      </trkpt>
      <trkpt lat="47.27128" lon="-2.2814">
        <ele>29</ele>
        <time>2013-03-03T12:41:11Z</time>
      </trkpt>
      <trkpt lat="47.27128" lon="-2.28143">
        <ele>29</ele>
        <time>2013-03-03T12:41:12Z</time>
      </trkpt>
      <trkpt lat="47.27127" lon="-2.28146">
        <ele>29</ele>
        <time>2013-03-03T12:41:13Z</time>
      </trkpt>
      <trkpt lat="47.27125" lon="-2.28157">
        <ele>29</ele>
        <time>2013-03-03T12:41:18Z</time>
      </trkpt>
      <trkpt lat="47.27122" lon="-2.28175">
        <ele>29</ele>
        <time>2013-03-03T12:41:18Z</time>
      </trkpt>
      <trkpt lat="47.27119" lon="-2.28187">
        <ele>29</ele>
        <time>2013-03-03T12:41:23Z</time>
      </trkpt>
      <trkpt lat="47.27117" lon="-2.28203">
        <ele>29</ele>
        <time>2013-03-03T12:41:23Z</time>
      </trkpt>
      <trkpt lat="47.27116" lon="-2.28208">
        <ele>29</ele>
        <time>2013-03-03T12:41:24Z</time>
      </trkpt>
      <trkpt lat="47.27114" lon="-2.2822">
        <ele>29</ele>
        <time>2013-03-03T12:41:28Z</time>
      </trkpt>
      <trkpt lat="47.27114" lon="-2.28238">
        <ele>29</ele>
        <time>2013-03-03T12:41:29Z</time>
      </trkpt>
      <trkpt lat="47.27116" lon="-2.28246">
        <ele>29</ele>
        <time>2013-03-03T12:41:31Z</time>
      </trkpt>
      <trkpt lat="47.2712" lon="-2.2826">
        <ele>29</ele>
        <time>2013-03-03T12:41:35Z</time>
      </trkpt>
      <trkpt lat="47.27128" lon="-2.28287">
        <ele>28</ele>
        <time>2013-03-03T12:41:36Z</time>
      </trkpt>
      <trkpt lat="47.27132" lon="-2.28298">
        <ele>27</ele>
        <time>2013-03-03T12:41:41Z</time>
      </trkpt>
      <trkpt lat="47.27137" lon="-2.28318">
        <ele>26</ele>
        <time>2013-03-03T12:41:41Z</time>
      </trkpt>
      <trkpt lat="47.27139" lon="-2.28325">
        <ele>25</ele>
        <time>2013-03-03T12:41:42Z</time>
      </trkpt>
      <trkpt lat="47.27141" lon="-2.28337">
        <ele>24</ele>
        <time>2013-03-03T12:41:46Z</time>
      </trkpt>
      <trkpt lat="47.27143" lon="-2.28346">
        <ele>23</ele>
        <time>2013-03-03T12:41:46Z</time>
      </trkpt>
      <trkpt lat="47.27143" lon="-2.28351">
        <ele>22</ele>
        <time>2013-03-03T12:41:47Z</time>
      </trkpt>
      <trkpt lat="47.27144" lon="-2.28361">
        <ele>21</ele>
        <time>2013-03-03T12:41:52Z</time>
      </trkpt>
      <trkpt lat="47.27145" lon="-2.28379">
        <ele>20</ele>
        <time>2013-03-03T12:41:52Z</time>
      </trkpt>
      <trkpt lat="47.27145" lon="-2.2839">
        <ele>19</ele>
        <time>2013-03-03T12:41:57Z</time>
      </trkpt>
      <trkpt lat="47.27147" lon="-2.28407">
        <ele>19</ele>
        <time>2013-03-03T12:41:57Z</time>
      </trkpt>
      <trkpt lat="47.27147" lon="-2.28413">
        <ele>19</ele>
        <time>2013-03-03T12:41:58Z</time>
      </trkpt>
      <trkpt lat="47.27149" lon="-2.28424">
        <ele>19</ele>
        <time>2013-03-03T12:42:02Z</time>
      </trkpt>
      <trkpt lat="47.27153" lon="-2.28455">
        <ele>19</ele>
        <time>2013-03-03T12:42:06Z</time>
      </trkpt>
      <trkpt lat="47.27155" lon="-2.28462">
        <ele>19</ele>
        <time>2013-03-03T12:42:07Z</time>
      </trkpt>
      <trkpt lat="47.27156" lon="-2.28468">
        <ele>19</ele>
        <time>2013-03-03T12:42:07Z</time>
      </trkpt>
      <trkpt lat="47.27156" lon="-2.28476">
        <ele>19</ele>
        <time>2013-03-03T12:42:08Z</time>
      </trkpt>
      <trkpt lat="47.27156" lon="-2.28484">
        <ele>19</ele>
        <time>2013-03-03T12:42:09Z</time>
      </trkpt>
      <trkpt lat="47.27157" lon="-2.28491">
        <ele>19</ele>
        <time>2013-03-03T12:42:10Z</time>
      </trkpt>
      <trkpt lat="47.27158" lon="-2.28497">
        <ele>19</ele>
        <time>2013-03-03T12:42:11Z</time>
      </trkpt>
      <trkpt lat="47.27159" lon="-2.28503">
        <ele>19</ele>
        <time>2013-03-03T12:42:12Z</time>
      </trkpt>
      <trkpt lat="47.2716" lon="-2.28509">
        <ele>19</ele>
        <time>2013-03-03T12:42:13Z</time>
      </trkpt>
      <trkpt lat="47.27161" lon="-2.28515">
        <ele>19</ele>
        <time>2013-03-03T12:42:14Z</time>
      </trkpt>
      <trkpt lat="47.27163" lon="-2.2852">
        <ele>19</ele>
        <time>2013-03-03T12:42:15Z</time>
      </trkpt>
      <trkpt lat="47.27165" lon="-2.28525">
        <ele>19</ele>
        <time>2013-03-03T12:42:16Z</time>
      </trkpt>
      <trkpt lat="47.27166" lon="-2.28531">
        <ele>19</ele>
        <time>2013-03-03T12:42:17Z</time>
      </trkpt>
      <trkpt lat="47.27168" lon="-2.28537">
        <ele>19</ele>
        <time>2013-03-03T12:42:18Z</time>
      </trkpt>
      <trkpt lat="47.27169" lon="-2.28544">
        <ele>19</ele>
        <time>2013-03-03T12:42:19Z</time>
      </trkpt>
      <trkpt lat="47.27171" lon="-2.28551">
        <ele>19</ele>
        <time>2013-03-03T12:42:20Z</time>
      </trkpt>
      <trkpt lat="47.27172" lon="-2.28558">
        <ele>19</ele>
        <time>2013-03-03T12:42:21Z</time>
      </trkpt>
      <trkpt lat="47.27173" lon="-2.28564">
        <ele>19</ele>
        <time>2013-03-03T12:42:22Z</time>
      </trkpt>
      <trkpt lat="47.27175" lon="-2.28572">
        <ele>19</ele>
        <time>2013-03-03T12:42:23Z</time>
      </trkpt>
      <trkpt lat="47.27176" lon="-2.28579">
        <ele>19</ele>
        <time>2013-03-03T12:42:24Z</time>
      </trkpt>
      <trkpt lat="47.27178" lon="-2.28586">
        <ele>19</ele>
        <time>2013-03-03T12:42:25Z</time>
      </trkpt>
      <trkpt lat="47.27179" lon="-2.28591">
        <ele>19</ele>
        <time>2013-03-03T12:42:26Z</time>
      </trkpt>
      <trkpt lat="47.27179" lon="-2.28596">
        <ele>19</ele>
        <time>2013-03-03T12:42:27Z</time>
      </trkpt>
      <trkpt lat="47.2718" lon="-2.28602">
        <ele>19</ele>
        <time>2013-03-03T12:42:28Z</time>
      </trkpt>
      <trkpt lat="47.2718" lon="-2.28608">
        <ele>19</ele>
        <time>2013-03-03T12:42:29Z</time>
      </trkpt>
      <trkpt lat="47.27179" lon="-2.28614">
        <ele>19</ele>
        <time>2013-03-03T12:42:30Z</time>
      </trkpt>
      <trkpt lat="47.27179" lon="-2.28621">
        <ele>19</ele>
        <time>2013-03-03T12:42:31Z</time>
      </trkpt>
      <trkpt lat="47.27178" lon="-2.28629">
        <ele>19</ele>
        <time>2013-03-03T12:42:32Z</time>
      </trkpt>
      <trkpt lat="47.27178" lon="-2.28636">
        <ele>19</ele>
        <time>2013-03-03T12:42:33Z</time>
      </trkpt>
      <trkpt lat="47.27178" lon="-2.28643">
        <ele>19</ele>
        <time>2013-03-03T12:42:34Z</time>
      </trkpt>
      <trkpt lat="47.27179" lon="-2.28651">
        <ele>19</ele>
        <time>2013-03-03T12:42:35Z</time>
      </trkpt>
      <trkpt lat="47.27179" lon="-2.2866">
        <ele>19</ele>
        <time>2013-03-03T12:42:36Z</time>
      </trkpt>
      <trkpt lat="47.27181" lon="-2.28668">
        <ele>19</ele>
        <time>2013-03-03T12:42:37Z</time>
      </trkpt>
      <trkpt lat="47.27182" lon="-2.2868">
        <ele>19</ele>
        <time>2013-03-03T12:42:38Z</time>
      </trkpt>
      <trkpt lat="47.27181" lon="-2.28693">
        <ele>19</ele>
        <time>2013-03-03T12:42:39Z</time>
      </trkpt>
      <trkpt lat="47.2718" lon="-2.28705">
        <ele>19</ele>
        <time>2013-03-03T12:42:40Z</time>
      </trkpt>
      <trkpt lat="47.27179" lon="-2.28719">
        <ele>19</ele>
        <time>2013-03-03T12:42:41Z</time>
      </trkpt>
      <trkpt lat="47.27179" lon="-2.28734">
        <ele>19</ele>
        <time>2013-03-03T12:42:42Z</time>
      </trkpt>
      <trkpt lat="47.27178" lon="-2.28748">
        <ele>19</ele>
        <time>2013-03-03T12:42:43Z</time>
      </trkpt>
      <trkpt lat="47.27178" lon="-2.28761">
        <ele>19</ele>
        <time>2013-03-03T12:42:44Z</time>
      </trkpt>
      <trkpt lat="47.27178" lon="-2.28776">
        <ele>19</ele>
        <time>2013-03-03T12:42:45Z</time>
      </trkpt>
      <trkpt lat="47.27178" lon="-2.2879">
        <ele>19</ele>
        <time>2013-03-03T12:42:46Z</time>
      </trkpt>
      <trkpt lat="47.27177" lon="-2.28805">
        <ele>19</ele>
        <time>2013-03-03T12:42:47Z</time>
      </trkpt>
      <trkpt lat="47.27177" lon="-2.28819">
        <ele>19</ele>
        <time>2013-03-03T12:42:48Z</time>
      </trkpt>
      <trkpt lat="47.27177" lon="-2.28832">
        <ele>19</ele>
        <time>2013-03-03T12:42:49Z</time>
      </trkpt>
      <trkpt lat="47.27177" lon="-2.28845">
        <ele>19</ele>
        <time>2013-03-03T12:42:50Z</time>
      </trkpt>
      <trkpt lat="47.27176" lon="-2.28858">
        <ele>18</ele>
        <time>2013-03-03T12:42:51Z</time>
      </trkpt>
      <trkpt lat="47.27175" lon="-2.28873">
        <ele>17</ele>
        <time>2013-03-03T12:42:52Z</time>
      </trkpt>
      <trkpt lat="47.27173" lon="-2.28889">
        <ele>16</ele>
        <time>2013-03-03T12:42:53Z</time>
      </trkpt>
      <trkpt lat="47.27172" lon="-2.28906">
        <ele>15</ele>
        <time>2013-03-03T12:42:54Z</time>
      </trkpt>
      <trkpt lat="47.27171" lon="-2.28923">
        <ele>14</ele>
        <time>2013-03-03T12:42:55Z</time>
      </trkpt>
      <trkpt lat="47.27171" lon="-2.28939">
        <ele>13</ele>
        <time>2013-03-03T12:42:56Z</time>
      </trkpt>
      <trkpt lat="47.27171" lon="-2.28955">
        <ele>13</ele>
        <time>2013-03-03T12:42:57Z</time>
      </trkpt>
      <trkpt lat="47.27172" lon="-2.2897">
        <ele>13</ele>
        <time>2013-03-03T12:42:58Z</time>
      </trkpt>
      <trkpt lat="47.27174" lon="-2.28984">
        <ele>13</ele>
        <time>2013-03-03T12:42:59Z</time>
      </trkpt>
      <trkpt lat="47.27175" lon="-2.28998">
        <ele>13</ele>
        <time>2013-03-03T12:43:00Z</time>
      </trkpt>
      <trkpt lat="47.27177" lon="-2.29012">
        <ele>13</ele>
        <time>2013-03-03T12:43:01Z</time>
      </trkpt>
      <trkpt lat="47.27179" lon="-2.29026">
        <ele>13</ele>
        <time>2013-03-03T12:43:02Z</time>
      </trkpt>
      <trkpt lat="47.27182" lon="-2.29039">
        <ele>13</ele>
        <time>2013-03-03T12:43:03Z</time>
      </trkpt>
      <trkpt lat="47.27185" lon="-2.29052">
        <ele>13</ele>
        <time>2013-03-03T12:43:04Z</time>
      </trkpt>
      <trkpt lat="47.27187" lon="-2.29064">
        <ele>13</ele>
        <time>2013-03-03T12:43:05Z</time>
      </trkpt>
      <trkpt lat="47.27189" lon="-2.29074">
        <ele>13</ele>
        <time>2013-03-03T12:43:06Z</time>
      </trkpt>
      <trkpt lat="47.27189" lon="-2.29085">
        <ele>13</ele>
        <time>2013-03-03T12:43:07Z</time>
      </trkpt>
      <trkpt lat="47.27188" lon="-2.29094">
        <ele>13</ele>
        <time>2013-03-03T12:43:08Z</time>
      </trkpt>
      <trkpt lat="47.27185" lon="-2.29101">
        <ele>13</ele>
        <time>2013-03-03T12:43:09Z</time>
      </trkpt>
      <trkpt lat="47.27182" lon="-2.29105">
        <ele>13</ele>
        <time>2013-03-03T12:43:10Z</time>
      </trkpt>
      <trkpt lat="47.27179" lon="-2.29108">
        <ele>13</ele>
        <time>2013-03-03T12:43:11Z</time>
      </trkpt>
      <trkpt lat="47.27176" lon="-2.29111">
        <ele>13</ele>
        <time>2013-03-03T12:43:12Z</time>
      </trkpt>
      <trkpt lat="47.27172" lon="-2.29114">
        <ele>13</ele>
        <time>2013-03-03T12:43:13Z</time>
      </trkpt>
      <trkpt lat="47.27169" lon="-2.29117">
        <ele>13</ele>
        <time>2013-03-03T12:43:14Z</time>
      </trkpt>
      <trkpt lat="47.27166" lon="-2.2912">
        <ele>13</ele>
        <time>2013-03-03T12:43:15Z</time>
      </trkpt>
      <trkpt lat="47.27163" lon="-2.29123">
        <ele>13</ele>
        <time>2013-03-03T12:43:16Z</time>
      </trkpt>
      <trkpt lat="47.2716" lon="-2.29127">
        <ele>13</ele>
        <time>2013-03-03T12:43:17Z</time>
      </trkpt>
      <trkpt lat="47.27158" lon="-2.29131">
        <ele>13</ele>
        <time>2013-03-03T12:43:18Z</time>
      </trkpt>
      <trkpt lat="47.27155" lon="-2.29134">
        <ele>13</ele>
        <time>2013-03-03T12:43:19Z</time>
      </trkpt>
      <trkpt lat="47.27152" lon="-2.29138">
        <ele>13</ele>
        <time>2013-03-03T12:43:20Z</time>
      </trkpt>
      <trkpt lat="47.2715" lon="-2.29141">
        <ele>13</ele>
        <time>2013-03-03T12:43:21Z</time>
      </trkpt>
      <trkpt lat="47.27147" lon="-2.29145">
        <ele>13</ele>
        <time>2013-03-03T12:43:22Z</time>
      </trkpt>
      <trkpt lat="47.27145" lon="-2.29148">
        <ele>13</ele>
        <time>2013-03-03T12:43:23Z</time>
      </trkpt>
      <trkpt lat="47.27145" lon="-2.29152">
        <ele>13</ele>
        <time>2013-03-03T12:43:24Z</time>
      </trkpt>
      <trkpt lat="47.27145" lon="-2.29155">
        <ele>13</ele>
        <time>2013-03-03T12:43:25Z</time>
      </trkpt>
      <trkpt lat="47.27145" lon="-2.29159">
        <ele>14</ele>
        <time>2013-03-03T12:43:26Z</time>
      </trkpt>
      <trkpt lat="47.27146" lon="-2.29163">
        <ele>15</ele>
        <time>2013-03-03T12:43:27Z</time>
      </trkpt>
      <trkpt lat="47.27148" lon="-2.29167">
        <ele>16</ele>
        <time>2013-03-03T12:43:28Z</time>
      </trkpt>
      <trkpt lat="47.2715" lon="-2.2917">
        <ele>17</ele>
        <time>2013-03-03T12:43:29Z</time>
      </trkpt>
      <trkpt lat="47.27151" lon="-2.29172">
        <ele>18</ele>
        <time>2013-03-03T12:43:30Z</time>
      </trkpt>
      <trkpt lat="47.27153" lon="-2.29173">
        <ele>19</ele>
        <time>2013-03-03T12:43:31Z</time>
      </trkpt>
      <trkpt lat="47.27155" lon="-2.29176">
        <ele>20</ele>
        <time>2013-03-03T12:43:33Z</time>
      </trkpt>
      <trkpt lat="47.27156" lon="-2.29176">
        <ele>20</ele>
        <time>2013-03-03T12:43:36Z</time>
      </trkpt>
      <trkpt lat="47.27157" lon="-2.29176">
        <ele>20</ele>
        <time>2013-03-03T12:43:39Z</time>
      </trkpt>
      <trkpt lat="47.27159" lon="-2.2918">
        <ele>20</ele>
        <time>2013-03-03T12:43:42Z</time>
      </trkpt>
      <trkpt lat="47.2716" lon="-2.29181">
        <ele>20</ele>
        <time>2013-03-03T12:43:44Z</time>
      </trkpt>
    </trkseg>
  </trk>
</gpx>